<?xml version="1.0" encoding="UTF-8" standalone="no" ?>
<gpx xmlns="http://www.topografix.com/GPX/1/1" xmlns:xsi="http://www.w3.org/2001/XMLSchema-instance" xsi:schemaLocation="http://www.topografix.com/GPX/1/1 http://www.topografix.com/GPX/1/1/gpx.xsd" version="1.1" creator="VisuGPX - https://www.visugpx.com">
  <metadata>
    <name>La Grande Traversée du Vercors VTT - Jour 3</name>
  </metadata>
  <trk>
    <name><![CDATA[trace]]></name>
    <extensions>
      <line xmlns="http://www.topografix.com/GPX/gpx_style/0/2">
        <color>0000FF</color>
        <width>4</width>
      </line>
    </extensions>
    <trkseg>
      <trkpt lat="45.17497" lon="5.54098">
        <ele>1040.488305</ele>
        <time>2022-07-24T05:42:25.882Z</time>
      </trkpt>
      <trkpt lat="45.17496" lon="5.54105">
        <ele>1040.490836</ele>
        <time>2022-07-24T05:42:27.176Z</time>
      </trkpt>
      <trkpt lat="45.17487" lon="5.54133">
        <ele>1040.501781</ele>
        <time>2022-07-24T05:42:31.638Z</time>
      </trkpt>
      <trkpt lat="45.17479" lon="5.54155">
        <ele>1040.510736</ele>
        <time>2022-07-24T05:42:34.883Z</time>
      </trkpt>
      <trkpt lat="45.17487" lon="5.54133">
        <ele>1040.519691</ele>
        <time>2022-07-24T05:42:38.556Z</time>
      </trkpt>
      <trkpt lat="45.17496" lon="5.54105">
        <ele>1040.530637</ele>
        <time>2022-07-24T05:42:42.555Z</time>
      </trkpt>
      <trkpt lat="45.17497" lon="5.54098">
        <ele>1040.533167</ele>
        <time>2022-07-24T05:42:43.786Z</time>
      </trkpt>
      <trkpt lat="45.17508" lon="5.54068">
        <ele>1040.545197</ele>
        <time>2022-07-24T05:42:49.639Z</time>
      </trkpt>
      <trkpt lat="45.17517" lon="5.54042">
        <ele>1040.555655</ele>
        <time>2022-07-24T05:42:55.993Z</time>
      </trkpt>
      <trkpt lat="45.17519" lon="5.54037">
        <ele>1040.557623</ele>
        <time>2022-07-24T05:42:57.211Z</time>
      </trkpt>
      <trkpt lat="45.17546" lon="5.53955">
        <ele>1040.876753</ele>
        <time>2022-07-24T05:43:17.060Z</time>
      </trkpt>
      <trkpt lat="45.17548" lon="5.5395">
        <ele>1040.914094</ele>
        <time>2022-07-24T05:43:18.357Z</time>
      </trkpt>
      <trkpt lat="45.17589" lon="5.53975">
        <ele>1041.34312</ele>
        <time>2022-07-24T05:43:27.367Z</time>
      </trkpt>
      <trkpt lat="45.17592" lon="5.53977">
        <ele>1041.375272</ele>
        <time>2022-07-24T05:43:28.092Z</time>
      </trkpt>
      <trkpt lat="45.17594" lon="5.53978">
        <ele>1041.395445</ele>
        <time>2022-07-24T05:43:28.553Z</time>
      </trkpt>
      <trkpt lat="45.1764" lon="5.54009">
        <ele>1041.890895</ele>
        <time>2022-07-24T05:43:41.066Z</time>
      </trkpt>
      <trkpt lat="45.17646" lon="5.54013">
        <ele>1041.958889</ele>
        <time>2022-07-24T05:43:43.030Z</time>
      </trkpt>
      <trkpt lat="45.1767" lon="5.54033">
        <ele>1042.229518</ele>
        <time>2022-07-24T05:43:51.480Z</time>
      </trkpt>
      <trkpt lat="45.1773" lon="5.54093">
        <ele>1043.696627</ele>
        <time>2022-07-24T05:44:15.585Z</time>
      </trkpt>
      <trkpt lat="45.17745" lon="5.54112">
        <ele>1044.147769</ele>
        <time>2022-07-24T05:44:22.267Z</time>
      </trkpt>
      <trkpt lat="45.17752" lon="5.5412">
        <ele>1044.341731</ele>
        <time>2022-07-24T05:44:24.784Z</time>
      </trkpt>
      <trkpt lat="45.17769" lon="5.54139">
        <ele>1044.80582</ele>
        <time>2022-07-24T05:44:31.178Z</time>
      </trkpt>
      <trkpt lat="45.17753" lon="5.54187">
        <ele>1045.621131</ele>
        <time>2022-07-24T05:44:41.759Z</time>
      </trkpt>
      <trkpt lat="45.17722" lon="5.54247">
        <ele>1046.744835</ele>
        <time>2022-07-24T05:44:56.200Z</time>
      </trkpt>
      <trkpt lat="45.17734" lon="5.54254">
        <ele>1047.010967</ele>
        <time>2022-07-24T05:44:59.935Z</time>
      </trkpt>
      <trkpt lat="45.17756" lon="5.54267">
        <ele>1047.506694</ele>
        <time>2022-07-24T05:45:06.635Z</time>
      </trkpt>
      <trkpt lat="45.17788" lon="5.54288">
        <ele>1048.252561</ele>
        <time>2022-07-24T05:45:16.523Z</time>
      </trkpt>
      <trkpt lat="45.17812" lon="5.54303">
        <ele>1048.798764</ele>
        <time>2022-07-24T05:45:24.101Z</time>
      </trkpt>
      <trkpt lat="45.17832" lon="5.5431">
        <ele>1049.212195</ele>
        <time>2022-07-24T05:45:30.032Z</time>
      </trkpt>
      <trkpt lat="45.17897" lon="5.54347">
        <ele>1051.127067</ele>
        <time>2022-07-24T05:45:53.203Z</time>
      </trkpt>
      <trkpt lat="45.17924" lon="5.54362">
        <ele>1052.100199</ele>
        <time>2022-07-24T05:46:03.269Z</time>
      </trkpt>
      <trkpt lat="45.17932" lon="5.54365">
        <ele>1052.390213</ele>
        <time>2022-07-24T05:46:06.351Z</time>
      </trkpt>
      <trkpt lat="45.17993" lon="5.54388">
        <ele>1054.508957</ele>
        <time>2022-07-24T05:46:29.301Z</time>
      </trkpt>
      <trkpt lat="45.18013" lon="5.54393">
        <ele>1055.222124</ele>
        <time>2022-07-24T05:46:37.325Z</time>
      </trkpt>
      <trkpt lat="45.18043" lon="5.54401">
        <ele>1056.283381</ele>
        <time>2022-07-24T05:46:48.933Z</time>
      </trkpt>
      <trkpt lat="45.18094" lon="5.54424">
        <ele>1058.582407</ele>
        <time>2022-07-24T05:47:10.194Z</time>
      </trkpt>
      <trkpt lat="45.18124" lon="5.5444">
        <ele>1059.990312</ele>
        <time>2022-07-24T05:47:23.700Z</time>
      </trkpt>
      <trkpt lat="45.18151" lon="5.54449">
        <ele>1061.159373</ele>
        <time>2022-07-24T05:47:36.091Z</time>
      </trkpt>
      <trkpt lat="45.18158" lon="5.54451">
        <ele>1061.485264</ele>
        <time>2022-07-24T05:47:39.149Z</time>
      </trkpt>
      <trkpt lat="45.18171" lon="5.54452">
        <ele>1062.060071</ele>
        <time>2022-07-24T05:47:45.249Z</time>
      </trkpt>
      <trkpt lat="45.18181" lon="5.54452">
        <ele>1062.461193</ele>
        <time>2022-07-24T05:47:49.279Z</time>
      </trkpt>
      <trkpt lat="45.18215" lon="5.5445">
        <ele>1063.913164</ele>
        <time>2022-07-24T05:48:03.387Z</time>
      </trkpt>
      <trkpt lat="45.18236" lon="5.54449">
        <ele>1064.496164</ele>
        <time>2022-07-24T05:48:10.898Z</time>
      </trkpt>
      <trkpt lat="45.18275" lon="5.54445">
        <ele>1065.558178</ele>
        <time>2022-07-24T05:48:24.933Z</time>
      </trkpt>
      <trkpt lat="45.18276" lon="5.54454">
        <ele>1065.728726</ele>
        <time>2022-07-24T05:48:28.935Z</time>
      </trkpt>
      <trkpt lat="45.18284" lon="5.54479">
        <ele>1066.245829</ele>
        <time>2022-07-24T05:48:37.126Z</time>
      </trkpt>
      <trkpt lat="45.18296" lon="5.5451">
        <ele>1066.948715</ele>
        <time>2022-07-24T05:48:48.987Z</time>
      </trkpt>
      <trkpt lat="45.18302" lon="5.54556">
        <ele>1067.848173</ele>
        <time>2022-07-24T05:49:02.905Z</time>
      </trkpt>
      <trkpt lat="45.18302" lon="5.54575">
        <ele>1068.202522</ele>
        <time>2022-07-24T05:49:07.607Z</time>
      </trkpt>
      <trkpt lat="45.18307" lon="5.54602">
        <ele>1068.750144</ele>
        <time>2022-07-24T05:49:14.585Z</time>
      </trkpt>
      <trkpt lat="45.18307" lon="5.54626">
        <ele>1069.201007</ele>
        <time>2022-07-24T05:49:21.124Z</time>
      </trkpt>
      <trkpt lat="45.183" lon="5.54651">
        <ele>1069.727973</ele>
        <time>2022-07-24T05:49:28.425Z</time>
      </trkpt>
      <trkpt lat="45.18239" lon="5.54752">
        <ele>1072.283372</ele>
        <time>2022-07-24T05:50:05.781Z</time>
      </trkpt>
      <trkpt lat="45.18233" lon="5.5477">
        <ele>1072.654939</ele>
        <time>2022-07-24T05:50:11.661Z</time>
      </trkpt>
      <trkpt lat="45.18265" lon="5.548">
        <ele>1073.765415</ele>
        <time>2022-07-24T05:50:34.436Z</time>
      </trkpt>
      <trkpt lat="45.18267" lon="5.54808">
        <ele>1074.424138</ele>
        <time>2022-07-24T05:50:38.138Z</time>
      </trkpt>
      <trkpt lat="45.18266" lon="5.54824">
        <ele>1075.58161</ele>
        <time>2022-07-24T05:50:46.612Z</time>
      </trkpt>
      <trkpt lat="45.18273" lon="5.5483">
        <ele>1076.415916</ele>
        <time>2022-07-24T05:50:52.549Z</time>
      </trkpt>
      <trkpt lat="45.183" lon="5.54833">
        <ele>1079.221569</ele>
        <time>2022-07-24T05:51:09.082Z</time>
      </trkpt>
      <trkpt lat="45.18316" lon="5.54839">
        <ele>1080.931405</ele>
        <time>2022-07-24T05:51:18.656Z</time>
      </trkpt>
      <trkpt lat="45.18325" lon="5.54853">
        <ele>1082.357615</ele>
        <time>2022-07-24T05:51:30.728Z</time>
      </trkpt>
      <trkpt lat="45.1833" lon="5.54867">
        <ele>1083.40893</ele>
        <time>2022-07-24T05:51:43.091Z</time>
      </trkpt>
      <trkpt lat="45.18335" lon="5.54873">
        <ele>1084.065427</ele>
        <time>2022-07-24T05:51:48.498Z</time>
      </trkpt>
      <trkpt lat="45.18388" lon="5.54889">
        <ele>1089.624396</ele>
        <time>2022-07-24T05:52:40.451Z</time>
      </trkpt>
      <trkpt lat="45.18418" lon="5.54908">
        <ele>1093.144602</ele>
        <time>2022-07-24T05:53:13.312Z</time>
      </trkpt>
      <trkpt lat="45.18429" lon="5.54927">
        <ele>1095.288512</ele>
        <time>2022-07-24T05:53:33.937Z</time>
      </trkpt>
      <trkpt lat="45.18433" lon="5.54938">
        <ele>1096.351549</ele>
        <time>2022-07-24T05:53:41.642Z</time>
      </trkpt>
      <trkpt lat="45.18453" lon="5.54963">
        <ele>1099.556572</ele>
        <time>2022-07-24T05:54:10.148Z</time>
      </trkpt>
      <trkpt lat="45.18453" lon="5.54976">
        <ele>1100.662229</ele>
        <time>2022-07-24T05:54:18.697Z</time>
      </trkpt>
      <trkpt lat="45.18448" lon="5.5499">
        <ele>1101.978383</ele>
        <time>2022-07-24T05:54:27.024Z</time>
      </trkpt>
      <trkpt lat="45.18448" lon="5.54996">
        <ele>1102.526926</ele>
        <time>2022-07-24T05:54:31.297Z</time>
      </trkpt>
      <trkpt lat="45.18442" lon="5.55006">
        <ele>1103.681367</ele>
        <time>2022-07-24T05:54:39.106Z</time>
      </trkpt>
      <trkpt lat="45.18437" lon="5.55044">
        <ele>1106.933294</ele>
        <time>2022-07-24T05:55:02.643Z</time>
      </trkpt>
      <trkpt lat="45.18439" lon="5.55062">
        <ele>1108.530822</ele>
        <time>2022-07-24T05:55:14.070Z</time>
      </trkpt>
      <trkpt lat="45.18451" lon="5.5508">
        <ele>1110.638097</ele>
        <time>2022-07-24T05:55:29.111Z</time>
      </trkpt>
      <trkpt lat="45.18463" lon="5.55111">
        <ele>1113.679709</ele>
        <time>2022-07-24T05:55:52.152Z</time>
      </trkpt>
      <trkpt lat="45.18498" lon="5.55128">
        <ele>1116.5445</ele>
        <time>2022-07-24T05:56:26.190Z</time>
      </trkpt>
      <trkpt lat="45.18512" lon="5.55128">
        <ele>1117.64148</ele>
        <time>2022-07-24T05:56:36.174Z</time>
      </trkpt>
      <trkpt lat="45.18526" lon="5.55133">
        <ele>1118.786875</ele>
        <time>2022-07-24T05:56:46.510Z</time>
      </trkpt>
      <trkpt lat="45.18539" lon="5.55173">
        <ele>1121.153716</ele>
        <time>2022-07-24T05:57:06.912Z</time>
      </trkpt>
      <trkpt lat="45.18547" lon="5.5521">
        <ele>1123.203019</ele>
        <time>2022-07-24T05:57:24.362Z</time>
      </trkpt>
      <trkpt lat="45.18552" lon="5.55225">
        <ele>1124.126822</ele>
        <time>2022-07-24T05:57:31.982Z</time>
      </trkpt>
      <trkpt lat="45.18552" lon="5.55241">
        <ele>1124.975995</ele>
        <time>2022-07-24T05:57:38.987Z</time>
      </trkpt>
      <trkpt lat="45.18568" lon="5.55313">
        <ele>1128.594772</ele>
        <time>2022-07-24T05:58:10.432Z</time>
      </trkpt>
      <trkpt lat="45.18584" lon="5.55334">
        <ele>1129.655239</ele>
        <time>2022-07-24T05:58:22.741Z</time>
      </trkpt>
      <trkpt lat="45.18597" lon="5.55339">
        <ele>1130.332007</ele>
        <time>2022-07-24T05:58:30.609Z</time>
      </trkpt>
      <trkpt lat="45.18636" lon="5.55382">
        <ele>1132.761988</ele>
        <time>2022-07-24T05:58:55.759Z</time>
      </trkpt>
      <trkpt lat="45.18643" lon="5.55404">
        <ele>1133.587619</ele>
        <time>2022-07-24T05:59:03.552Z</time>
      </trkpt>
      <trkpt lat="45.18641" lon="5.55421">
        <ele>1134.210844</ele>
        <time>2022-07-24T05:59:09.588Z</time>
      </trkpt>
      <trkpt lat="45.18634" lon="5.55438">
        <ele>1134.887444</ele>
        <time>2022-07-24T05:59:19.227Z</time>
      </trkpt>
      <trkpt lat="45.18606" lon="5.55467">
        <ele>1136.560876</ele>
        <time>2022-07-24T05:59:38.668Z</time>
      </trkpt>
      <trkpt lat="45.18601" lon="5.55478">
        <ele>1137.229949</ele>
        <time>2022-07-24T05:59:46.039Z</time>
      </trkpt>
      <trkpt lat="45.18601" lon="5.55485">
        <ele>1137.554552</ele>
        <time>2022-07-24T05:59:49.057Z</time>
      </trkpt>
      <trkpt lat="45.18607" lon="5.55484">
        <ele>1137.99047</ele>
        <time>2022-07-24T05:59:52.797Z</time>
      </trkpt>
      <trkpt lat="45.18623" lon="5.55489">
        <ele>1139.085043</ele>
        <time>2022-07-24T06:00:03.422Z</time>
      </trkpt>
      <trkpt lat="45.1864" lon="5.55501">
        <ele>1140.328569</ele>
        <time>2022-07-24T06:00:15.685Z</time>
      </trkpt>
      <trkpt lat="45.18679" lon="5.55542">
        <ele>1143.576567</ele>
        <time>2022-07-24T06:00:45.407Z</time>
      </trkpt>
      <trkpt lat="45.18685" lon="5.55544">
        <ele>1143.990206</ele>
        <time>2022-07-24T06:00:52.563Z</time>
      </trkpt>
      <trkpt lat="45.18706" lon="5.55554">
        <ele>1145.498237</ele>
        <time>2022-07-24T06:01:06.050Z</time>
      </trkpt>
      <trkpt lat="45.18717" lon="5.55569">
        <ele>1146.527909</ele>
        <time>2022-07-24T06:01:17.658Z</time>
      </trkpt>
      <trkpt lat="45.18729" lon="5.55576">
        <ele>1147.385267</ele>
        <time>2022-07-24T06:01:26.046Z</time>
      </trkpt>
      <trkpt lat="45.18781" lon="5.55627">
        <ele>1151.187717</ele>
        <time>2022-07-24T06:02:08.100Z</time>
      </trkpt>
      <trkpt lat="45.18809" lon="5.55663">
        <ele>1153.432201</ele>
        <time>2022-07-24T06:02:33.622Z</time>
      </trkpt>
      <trkpt lat="45.1884" lon="5.55712">
        <ele>1156.127202</ele>
        <time>2022-07-24T06:03:00.490Z</time>
      </trkpt>
      <trkpt lat="45.18865" lon="5.55762">
        <ele>1158.640144</ele>
        <time>2022-07-24T06:03:23.600Z</time>
      </trkpt>
      <trkpt lat="45.1889" lon="5.55799">
        <ele>1161.114732</ele>
        <time>2022-07-24T06:03:42.925Z</time>
      </trkpt>
      <trkpt lat="45.18906" lon="5.55817">
        <ele>1162.505231</ele>
        <time>2022-07-24T06:03:53.131Z</time>
      </trkpt>
      <trkpt lat="45.18923" lon="5.55828">
        <ele>1163.848479</ele>
        <time>2022-07-24T06:04:04.812Z</time>
      </trkpt>
      <trkpt lat="45.18938" lon="5.55877">
        <ele>1166.531316</ele>
        <time>2022-07-24T06:04:28.030Z</time>
      </trkpt>
      <trkpt lat="45.19049" lon="5.55994">
        <ele>1178.79665</ele>
        <time>2022-07-24T06:06:19.169Z</time>
      </trkpt>
      <trkpt lat="45.19233" lon="5.56092">
        <ele>1199.317359</ele>
        <time>2022-07-24T06:09:18.620Z</time>
      </trkpt>
      <trkpt lat="45.19329" lon="5.56152">
        <ele>1209.128396</ele>
        <time>2022-07-24T06:10:33.227Z</time>
      </trkpt>
      <trkpt lat="45.19354" lon="5.56179">
        <ele>1211.334044</ele>
        <time>2022-07-24T06:10:53.653Z</time>
      </trkpt>
      <trkpt lat="45.19408" lon="5.56214">
        <ele>1215.526529</ele>
        <time>2022-07-24T06:11:32.127Z</time>
      </trkpt>
      <trkpt lat="45.19453" lon="5.56215">
        <ele>1218.734541</ele>
        <time>2022-07-24T06:12:01.257Z</time>
      </trkpt>
      <trkpt lat="45.19467" lon="5.56212">
        <ele>1219.710539</ele>
        <time>2022-07-24T06:12:12.276Z</time>
      </trkpt>
      <trkpt lat="45.19539" lon="5.5623">
        <ele>1225.751881</ele>
        <time>2022-07-24T06:13:01.993Z</time>
      </trkpt>
      <trkpt lat="45.19552" lon="5.56251">
        <ele>1227.47835</ele>
        <time>2022-07-24T06:13:14.783Z</time>
      </trkpt>
      <trkpt lat="45.19573" lon="5.56265">
        <ele>1229.481198</ele>
        <time>2022-07-24T06:13:34.129Z</time>
      </trkpt>
      <trkpt lat="45.19658" lon="5.56292">
        <ele>1237.234905</ele>
        <time>2022-07-24T06:14:46.342Z</time>
      </trkpt>
      <trkpt lat="45.19719" lon="5.56318">
        <ele>1242.794647</ele>
        <time>2022-07-24T06:15:32.931Z</time>
      </trkpt>
      <trkpt lat="45.19755" lon="5.56337">
        <ele>1246.250602</ele>
        <time>2022-07-24T06:16:03.035Z</time>
      </trkpt>
      <trkpt lat="45.19815" lon="5.56355">
        <ele>1251.70482</ele>
        <time>2022-07-24T06:16:49.640Z</time>
      </trkpt>
      <trkpt lat="45.19829" lon="5.56347">
        <ele>1253.007694</ele>
        <time>2022-07-24T06:17:00.661Z</time>
      </trkpt>
      <trkpt lat="45.19847" lon="5.56346">
        <ele>1254.373179</ele>
        <time>2022-07-24T06:17:13.057Z</time>
      </trkpt>
      <trkpt lat="45.19886" lon="5.56369">
        <ele>1257.54923</ele>
        <time>2022-07-24T06:17:45.824Z</time>
      </trkpt>
      <trkpt lat="45.19901" lon="5.56392">
        <ele>1259.186479</ele>
        <time>2022-07-24T06:18:01.878Z</time>
      </trkpt>
      <trkpt lat="45.19913" lon="5.56396">
        <ele>1260.128387</ele>
        <time>2022-07-24T06:18:10.994Z</time>
      </trkpt>
      <trkpt lat="45.19994" lon="5.56366">
        <ele>1266.379848</ele>
        <time>2022-07-24T06:19:07.279Z</time>
      </trkpt>
      <trkpt lat="45.20015" lon="5.56354">
        <ele>1266.914721</ele>
        <time>2022-07-24T06:19:21.256Z</time>
      </trkpt>
      <trkpt lat="45.2002" lon="5.56365">
        <ele>1267.029866</ele>
        <time>2022-07-24T06:19:26.315Z</time>
      </trkpt>
      <trkpt lat="45.20033" lon="5.56369">
        <ele>1267.20013</ele>
        <time>2022-07-24T06:19:32.765Z</time>
      </trkpt>
      <trkpt lat="45.20082" lon="5.56345">
        <ele>1267.866097</ele>
        <time>2022-07-24T06:19:56.481Z</time>
      </trkpt>
      <trkpt lat="45.20102" lon="5.56347">
        <ele>1268.12708</ele>
        <time>2022-07-24T06:20:04.137Z</time>
      </trkpt>
      <trkpt lat="45.2012" lon="5.56363">
        <ele>1268.406047</ele>
        <time>2022-07-24T06:20:12.087Z</time>
      </trkpt>
      <trkpt lat="45.20194" lon="5.56508">
        <ele>1265.353869</ele>
        <time>2022-07-24T06:20:43.219Z</time>
      </trkpt>
      <trkpt lat="45.20208" lon="5.56557">
        <ele>1263.64394</ele>
        <time>2022-07-24T06:20:52.158Z</time>
      </trkpt>
      <trkpt lat="45.20223" lon="5.56571">
        <ele>1262.834138</ele>
        <time>2022-07-24T06:20:56.191Z</time>
      </trkpt>
      <trkpt lat="45.20303" lon="5.56576">
        <ele>1259.914536</ele>
        <time>2022-07-24T06:21:15.811Z</time>
      </trkpt>
      <trkpt lat="45.20321" lon="5.56591">
        <ele>1259.369318</ele>
        <time>2022-07-24T06:21:21.068Z</time>
      </trkpt>
      <trkpt lat="45.20344" lon="5.56604">
        <ele>1258.713442</ele>
        <time>2022-07-24T06:21:27.801Z</time>
      </trkpt>
      <trkpt lat="45.20396" lon="5.56622">
        <ele>1257.314148</ele>
        <time>2022-07-24T06:21:42.582Z</time>
      </trkpt>
      <trkpt lat="45.20434" lon="5.56641">
        <ele>1256.265578</ele>
        <time>2022-07-24T06:21:54.370Z</time>
      </trkpt>
      <trkpt lat="45.20499" lon="5.56701">
        <ele>1255.996711</ele>
        <time>2022-07-24T06:22:16.616Z</time>
      </trkpt>
      <trkpt lat="45.20513" lon="5.5671">
        <ele>1255.964031</ele>
        <time>2022-07-24T06:22:21.310Z</time>
      </trkpt>
      <trkpt lat="45.20534" lon="5.56711">
        <ele>1255.919474</ele>
        <time>2022-07-24T06:22:27.668Z</time>
      </trkpt>
      <trkpt lat="45.20564" lon="5.5672">
        <ele>1255.85248</ele>
        <time>2022-07-24T06:22:38.153Z</time>
      </trkpt>
      <trkpt lat="45.20614" lon="5.56742">
        <ele>1256.075602</ele>
        <time>2022-07-24T06:22:56.494Z</time>
      </trkpt>
      <trkpt lat="45.20633" lon="5.56745">
        <ele>1256.532471</ele>
        <time>2022-07-24T06:23:03.260Z</time>
      </trkpt>
      <trkpt lat="45.20709" lon="5.56749">
        <ele>1258.412976</ele>
        <time>2022-07-24T06:23:37.609Z</time>
      </trkpt>
      <trkpt lat="45.20758" lon="5.56779">
        <ele>1259.719353</ele>
        <time>2022-07-24T06:24:03.694Z</time>
      </trkpt>
      <trkpt lat="45.20772" lon="5.56783">
        <ele>1260.071063</ele>
        <time>2022-07-24T06:24:10.815Z</time>
      </trkpt>
      <trkpt lat="45.20786" lon="5.56782">
        <ele>1260.270436</ele>
        <time>2022-07-24T06:24:17.620Z</time>
      </trkpt>
      <trkpt lat="45.20815" lon="5.56773">
        <ele>1260.538272</ele>
        <time>2022-07-24T06:24:31.796Z</time>
      </trkpt>
      <trkpt lat="45.20854" lon="5.56769">
        <ele>1260.888376</ele>
        <time>2022-07-24T06:24:49.507Z</time>
      </trkpt>
      <trkpt lat="45.20877" lon="5.56757">
        <ele>1261.110335</ele>
        <time>2022-07-24T06:24:58.991Z</time>
      </trkpt>
      <trkpt lat="45.20906" lon="5.56754">
        <ele>1261.370763</ele>
        <time>2022-07-24T06:25:07.726Z</time>
      </trkpt>
      <trkpt lat="45.20921" lon="5.56758">
        <ele>1261.507128</ele>
        <time>2022-07-24T06:25:12.000Z</time>
      </trkpt>
      <trkpt lat="45.2097" lon="5.56799">
        <ele>1261.281231</ele>
        <time>2022-07-24T06:25:28.395Z</time>
      </trkpt>
      <trkpt lat="45.20991" lon="5.56821">
        <ele>1260.728847</ele>
        <time>2022-07-24T06:25:34.768Z</time>
      </trkpt>
      <trkpt lat="45.20991" lon="5.56821">
        <ele>1260.728847</ele>
        <time>2022-07-24T06:25:34.770Z</time>
      </trkpt>
      <trkpt lat="45.20994" lon="5.56833">
        <ele>1260.527256</ele>
        <time>2022-07-24T06:25:38.430Z</time>
      </trkpt>
      <trkpt lat="45.20993" lon="5.56844">
        <ele>1260.364092</ele>
        <time>2022-07-24T06:25:40.655Z</time>
      </trkpt>
      <trkpt lat="45.20981" lon="5.56859">
        <ele>1260.032264</ele>
        <time>2022-07-24T06:25:44.224Z</time>
      </trkpt>
      <trkpt lat="45.20948" lon="5.56879">
        <ele>1259.266599</ele>
        <time>2022-07-24T06:25:54.211Z</time>
      </trkpt>
      <trkpt lat="45.20948" lon="5.56879">
        <ele>1259.266599</ele>
        <time>2022-07-24T06:25:54.223Z</time>
      </trkpt>
      <trkpt lat="45.20943" lon="5.5689">
        <ele>1259.072155</ele>
        <time>2022-07-24T06:25:57.617Z</time>
      </trkpt>
      <trkpt lat="45.20945" lon="5.56906">
        <ele>1258.828919</ele>
        <time>2022-07-24T06:26:02.000Z</time>
      </trkpt>
      <trkpt lat="45.20957" lon="5.56926">
        <ele>1258.423633</ele>
        <time>2022-07-24T06:26:06.614Z</time>
      </trkpt>
      <trkpt lat="45.20984" lon="5.56948">
        <ele>1258.02422</ele>
        <time>2022-07-24T06:26:15.183Z</time>
      </trkpt>
      <trkpt lat="45.20999" lon="5.56954">
        <ele>1258.122996</ele>
        <time>2022-07-24T06:26:19.662Z</time>
      </trkpt>
      <trkpt lat="45.21057" lon="5.56952">
        <ele>1258.485239</ele>
        <time>2022-07-24T06:26:35.479Z</time>
      </trkpt>
      <trkpt lat="45.21073" lon="5.56962">
        <ele>1258.597111</ele>
        <time>2022-07-24T06:26:42.582Z</time>
      </trkpt>
      <trkpt lat="45.21098" lon="5.56987">
        <ele>1258.79038</ele>
        <time>2022-07-24T06:26:54.637Z</time>
      </trkpt>
      <trkpt lat="45.21105" lon="5.56999">
        <ele>1258.858045</ele>
        <time>2022-07-24T06:27:00.429Z</time>
      </trkpt>
      <trkpt lat="45.21119" lon="5.57041">
        <ele>1259.068413</ele>
        <time>2022-07-24T06:27:16.808Z</time>
      </trkpt>
      <trkpt lat="45.21123" lon="5.57065">
        <ele>1259.62557</ele>
        <time>2022-07-24T06:27:25.651Z</time>
      </trkpt>
      <trkpt lat="45.2114" lon="5.57097">
        <ele>1260.883058</ele>
        <time>2022-07-24T06:27:39.905Z</time>
      </trkpt>
      <trkpt lat="45.21157" lon="5.5711">
        <ele>1261.721034</ele>
        <time>2022-07-24T06:27:49.492Z</time>
      </trkpt>
      <trkpt lat="45.21169" lon="5.57112">
        <ele>1262.235806</ele>
        <time>2022-07-24T06:27:55.062Z</time>
      </trkpt>
      <trkpt lat="45.21202" lon="5.57105">
        <ele>1263.703898</ele>
        <time>2022-07-24T06:28:10.557Z</time>
      </trkpt>
      <trkpt lat="45.21241" lon="5.57111">
        <ele>1265.390673</ele>
        <time>2022-07-24T06:28:29.655Z</time>
      </trkpt>
      <trkpt lat="45.21255" lon="5.57104">
        <ele>1266.050265</ele>
        <time>2022-07-24T06:28:39.108Z</time>
      </trkpt>
      <trkpt lat="45.21305" lon="5.57056">
        <ele>1270.462839</ele>
        <time>2022-07-24T06:29:21.592Z</time>
      </trkpt>
      <trkpt lat="45.21327" lon="5.57055">
        <ele>1272.421305</ele>
        <time>2022-07-24T06:29:38.495Z</time>
      </trkpt>
      <trkpt lat="45.21343" lon="5.57061">
        <ele>1273.902038</ele>
        <time>2022-07-24T06:29:51.849Z</time>
      </trkpt>
      <trkpt lat="45.21398" lon="5.57096">
        <ele>1279.21179</ele>
        <time>2022-07-24T06:30:40.686Z</time>
      </trkpt>
      <trkpt lat="45.21424" lon="5.57093">
        <ele>1281.468579</ele>
        <time>2022-07-24T06:31:00.546Z</time>
      </trkpt>
      <trkpt lat="45.21456" lon="5.57062">
        <ele>1284.73326</ele>
        <time>2022-07-24T06:31:31.541Z</time>
      </trkpt>
      <trkpt lat="45.21515" lon="5.5704">
        <ele>1289.752579</ele>
        <time>2022-07-24T06:32:19.604Z</time>
      </trkpt>
      <trkpt lat="45.21528" lon="5.57015">
        <ele>1291.5088</ele>
        <time>2022-07-24T06:32:34.569Z</time>
      </trkpt>
      <trkpt lat="45.21514" lon="5.56976">
        <ele>1294.002534</ele>
        <time>2022-07-24T06:32:56.346Z</time>
      </trkpt>
      <trkpt lat="45.21488" lon="5.56952">
        <ele>1296.573433</ele>
        <time>2022-07-24T06:33:16.812Z</time>
      </trkpt>
      <trkpt lat="45.21442" lon="5.5693">
        <ele>1300.163716</ele>
        <time>2022-07-24T06:33:47.601Z</time>
      </trkpt>
      <trkpt lat="45.21432" lon="5.56936">
        <ele>1300.99098</ele>
        <time>2022-07-24T06:33:55.173Z</time>
      </trkpt>
      <trkpt lat="45.21417" lon="5.56969">
        <ele>1302.96154</ele>
        <time>2022-07-24T06:34:11.471Z</time>
      </trkpt>
      <trkpt lat="45.21399" lon="5.56971">
        <ele>1304.269479</ele>
        <time>2022-07-24T06:34:23.955Z</time>
      </trkpt>
      <trkpt lat="45.21394" lon="5.56957">
        <ele>1305.072133</ele>
        <time>2022-07-24T06:34:31.244Z</time>
      </trkpt>
      <trkpt lat="45.21397" lon="5.56916">
        <ele>1307.166498</ele>
        <time>2022-07-24T06:34:52.636Z</time>
      </trkpt>
      <trkpt lat="45.21393" lon="5.56862">
        <ele>1309.966861</ele>
        <time>2022-07-24T06:35:19.865Z</time>
      </trkpt>
      <trkpt lat="45.21374" lon="5.56801">
        <ele>1313.21813</ele>
        <time>2022-07-24T06:35:53.826Z</time>
      </trkpt>
      <trkpt lat="45.21363" lon="5.56778">
        <ele>1314.623509</ele>
        <time>2022-07-24T06:36:08.192Z</time>
      </trkpt>
      <trkpt lat="45.21343" lon="5.56727">
        <ele>1317.462137</ele>
        <time>2022-07-24T06:36:37.356Z</time>
      </trkpt>
      <trkpt lat="45.21342" lon="5.56708">
        <ele>1318.405544</ele>
        <time>2022-07-24T06:36:47.845Z</time>
      </trkpt>
      <trkpt lat="45.21351" lon="5.56709">
        <ele>1319.043047</ele>
        <time>2022-07-24T06:36:53.989Z</time>
      </trkpt>
      <trkpt lat="45.2136" lon="5.56704">
        <ele>1319.740153</ele>
        <time>2022-07-24T06:37:00.631Z</time>
      </trkpt>
      <trkpt lat="45.2137" lon="5.56691">
        <ele>1320.647524</ele>
        <time>2022-07-24T06:37:09.192Z</time>
      </trkpt>
      <trkpt lat="45.21378" lon="5.56662">
        <ele>1322.210254</ele>
        <time>2022-07-24T06:37:22.635Z</time>
      </trkpt>
      <trkpt lat="45.21381" lon="5.56638">
        <ele>1323.126952</ele>
        <time>2022-07-24T06:37:32.750Z</time>
      </trkpt>
      <trkpt lat="45.21387" lon="5.56615">
        <ele>1323.036971</ele>
        <time>2022-07-24T06:37:41.272Z</time>
      </trkpt>
      <trkpt lat="45.21431" lon="5.56568">
        <ele>1322.750778</ele>
        <time>2022-07-24T06:38:03.422Z</time>
      </trkpt>
      <trkpt lat="45.21436" lon="5.56557">
        <ele>1322.704935</ele>
        <time>2022-07-24T06:38:05.994Z</time>
      </trkpt>
      <trkpt lat="45.21439" lon="5.56537">
        <ele>1322.627001</ele>
        <time>2022-07-24T06:38:10.203Z</time>
      </trkpt>
      <trkpt lat="45.21425" lon="5.5646">
        <ele>1322.333538</ele>
        <time>2022-07-24T06:38:24.887Z</time>
      </trkpt>
      <trkpt lat="45.21435" lon="5.56421">
        <ele>1321.909686</ele>
        <time>2022-07-24T06:38:32.006Z</time>
      </trkpt>
      <trkpt lat="45.21461" lon="5.56344">
        <ele>1318.114565</ele>
        <time>2022-07-24T06:38:46.085Z</time>
      </trkpt>
      <trkpt lat="45.21466" lon="5.56309">
        <ele>1316.513684</ele>
        <time>2022-07-24T06:38:51.791Z</time>
      </trkpt>
      <trkpt lat="45.21456" lon="5.56218">
        <ele>1312.397837</ele>
        <time>2022-07-24T06:39:06.396Z</time>
      </trkpt>
      <trkpt lat="45.21441" lon="5.56169">
        <ele>1310.208689</ele>
        <time>2022-07-24T06:39:15.087Z</time>
      </trkpt>
      <trkpt lat="45.21437" lon="5.56145">
        <ele>1309.343946</ele>
        <time>2022-07-24T06:39:19.250Z</time>
      </trkpt>
      <trkpt lat="45.21446" lon="5.56084">
        <ele>1307.23366</ele>
        <time>2022-07-24T06:39:29.361Z</time>
      </trkpt>
      <trkpt lat="45.21362" lon="5.56049">
        <ele>1302.973817</ele>
        <time>2022-07-24T06:39:50.774Z</time>
      </trkpt>
      <trkpt lat="45.21356" lon="5.5605">
        <ele>1302.678425</ele>
        <time>2022-07-24T06:39:52.370Z</time>
      </trkpt>
      <trkpt lat="45.21355" lon="5.5601">
        <ele>1301.884305</ele>
        <time>2022-07-24T06:39:59.650Z</time>
      </trkpt>
      <trkpt lat="45.21388" lon="5.5601">
        <ele>1301.503225</ele>
        <time>2022-07-24T06:40:05.185Z</time>
      </trkpt>
      <trkpt lat="45.21455" lon="5.56006">
        <ele>1300.733543</ele>
        <time>2022-07-24T06:40:17.181Z</time>
      </trkpt>
      <trkpt lat="45.21476" lon="5.56004">
        <ele>1300.484311</ele>
        <time>2022-07-24T06:40:21.092Z</time>
      </trkpt>
      <trkpt lat="45.21582" lon="5.55998">
        <ele>1300.581422</ele>
        <time>2022-07-24T06:40:43.777Z</time>
      </trkpt>
      <trkpt lat="45.21646" lon="5.55996">
        <ele>1301.188399</ele>
        <time>2022-07-24T06:41:02.034Z</time>
      </trkpt>
      <trkpt lat="45.21728" lon="5.56009">
        <ele>1302.069195</ele>
        <time>2022-07-24T06:41:23.714Z</time>
      </trkpt>
      <trkpt lat="45.21792" lon="5.56018">
        <ele>1302.887097</ele>
        <time>2022-07-24T06:41:39.748Z</time>
      </trkpt>
      <trkpt lat="45.21802" lon="5.5602">
        <ele>1303.019864</ele>
        <time>2022-07-24T06:41:42.363Z</time>
      </trkpt>
      <trkpt lat="45.21818" lon="5.56024">
        <ele>1303.227236</ele>
        <time>2022-07-24T06:41:46.314Z</time>
      </trkpt>
      <trkpt lat="45.21842" lon="5.56027">
        <ele>1303.53372</ele>
        <time>2022-07-24T06:41:55.688Z</time>
      </trkpt>
      <trkpt lat="45.219" lon="5.56035">
        <ele>1304.715383</ele>
        <time>2022-07-24T06:42:18.301Z</time>
      </trkpt>
      <trkpt lat="45.21965" lon="5.56062">
        <ele>1306.883121</ele>
        <time>2022-07-24T06:42:49.737Z</time>
      </trkpt>
      <trkpt lat="45.21975" lon="5.56061">
        <ele>1307.197408</ele>
        <time>2022-07-24T06:42:54.950Z</time>
      </trkpt>
      <trkpt lat="45.21991" lon="5.5605">
        <ele>1307.7772</ele>
        <time>2022-07-24T06:43:04.131Z</time>
      </trkpt>
      <trkpt lat="45.22011" lon="5.56021">
        <ele>1308.669408</ele>
        <time>2022-07-24T06:43:18.429Z</time>
      </trkpt>
      <trkpt lat="45.22031" lon="5.56002">
        <ele>1309.447447</ele>
        <time>2022-07-24T06:43:31.497Z</time>
      </trkpt>
      <trkpt lat="45.22056" lon="5.5599">
        <ele>1310.607285</ele>
        <time>2022-07-24T06:43:45.187Z</time>
      </trkpt>
      <trkpt lat="45.221" lon="5.55987">
        <ele>1312.793329</ele>
        <time>2022-07-24T06:44:08.755Z</time>
      </trkpt>
      <trkpt lat="45.22128" lon="5.55993">
        <ele>1314.180587</ele>
        <time>2022-07-24T06:44:24.669Z</time>
      </trkpt>
      <trkpt lat="45.22153" lon="5.56036">
        <ele>1316.138547</ele>
        <time>2022-07-24T06:44:47.690Z</time>
      </trkpt>
      <trkpt lat="45.22166" lon="5.56042">
        <ele>1316.810054</ele>
        <time>2022-07-24T06:44:55.254Z</time>
      </trkpt>
      <trkpt lat="45.22176" lon="5.56041">
        <ele>1317.317694</ele>
        <time>2022-07-24T06:45:01.431Z</time>
      </trkpt>
      <trkpt lat="45.22193" lon="5.56032">
        <ele>1318.232009</ele>
        <time>2022-07-24T06:45:14.110Z</time>
      </trkpt>
      <trkpt lat="45.22214" lon="5.56011">
        <ele>1319.658882</ele>
        <time>2022-07-24T06:45:29.008Z</time>
      </trkpt>
      <trkpt lat="45.22238" lon="5.55976">
        <ele>1321.70215</ele>
        <time>2022-07-24T06:45:48.680Z</time>
      </trkpt>
      <trkpt lat="45.22249" lon="5.55971">
        <ele>1322.357011</ele>
        <time>2022-07-24T06:45:55.818Z</time>
      </trkpt>
      <trkpt lat="45.22262" lon="5.55974">
        <ele>1323.163576</ele>
        <time>2022-07-24T06:46:02.241Z</time>
      </trkpt>
      <trkpt lat="45.22271" lon="5.55981">
        <ele>1323.79434</ele>
        <time>2022-07-24T06:46:08.802Z</time>
      </trkpt>
      <trkpt lat="45.22282" lon="5.55996">
        <ele>1324.686801</ele>
        <time>2022-07-24T06:46:18.199Z</time>
      </trkpt>
      <trkpt lat="45.22291" lon="5.56003">
        <ele>1325.28554</ele>
        <time>2022-07-24T06:46:23.403Z</time>
      </trkpt>
      <trkpt lat="45.223" lon="5.56007">
        <ele>1325.8759</ele>
        <time>2022-07-24T06:46:29.971Z</time>
      </trkpt>
      <trkpt lat="45.22309" lon="5.56006">
        <ele>1326.36955</ele>
        <time>2022-07-24T06:46:36.888Z</time>
      </trkpt>
      <trkpt lat="45.22314" lon="5.56002">
        <ele>1326.726568</ele>
        <time>2022-07-24T06:46:40.088Z</time>
      </trkpt>
      <trkpt lat="45.22348" lon="5.55941">
        <ele>1329.859307</ele>
        <time>2022-07-24T06:47:16.919Z</time>
      </trkpt>
      <trkpt lat="45.22362" lon="5.55916">
        <ele>1330.905506</ele>
        <time>2022-07-24T06:47:31.302Z</time>
      </trkpt>
      <trkpt lat="45.22374" lon="5.55915">
        <ele>1331.442119</ele>
        <time>2022-07-24T06:47:38.611Z</time>
      </trkpt>
      <trkpt lat="45.22387" lon="5.55932">
        <ele>1332.267788</ele>
        <time>2022-07-24T06:47:50.106Z</time>
      </trkpt>
      <trkpt lat="45.22394" lon="5.55935">
        <ele>1332.575623</ele>
        <time>2022-07-24T06:47:53.032Z</time>
      </trkpt>
      <trkpt lat="45.2244" lon="5.55908">
        <ele>1334.877667</ele>
        <time>2022-07-24T06:48:21.015Z</time>
      </trkpt>
      <trkpt lat="45.22447" lon="5.55905">
        <ele>1335.234648</ele>
        <time>2022-07-24T06:48:24.458Z</time>
      </trkpt>
      <trkpt lat="45.22464" lon="5.55899">
        <ele>1336.045079</ele>
        <time>2022-07-24T06:48:32.064Z</time>
      </trkpt>
      <trkpt lat="45.22468" lon="5.55916">
        <ele>1336.650848</ele>
        <time>2022-07-24T06:48:37.499Z</time>
      </trkpt>
      <trkpt lat="45.22468" lon="5.55947">
        <ele>1337.635518</ele>
        <time>2022-07-24T06:48:43.974Z</time>
      </trkpt>
      <trkpt lat="45.2246" lon="5.55974">
        <ele>1337.801093</ele>
        <time>2022-07-24T06:48:51.517Z</time>
      </trkpt>
      <trkpt lat="45.22455" lon="5.56038">
        <ele>1338.094565</ele>
        <time>2022-07-24T06:49:04.967Z</time>
      </trkpt>
      <trkpt lat="45.22449" lon="5.56062">
        <ele>1338.211801</ele>
        <time>2022-07-24T06:49:10.056Z</time>
      </trkpt>
      <trkpt lat="45.22449" lon="5.56079">
        <ele>1338.290182</ele>
        <time>2022-07-24T06:49:12.475Z</time>
      </trkpt>
      <trkpt lat="45.22456" lon="5.56125">
        <ele>1338.505397</ele>
        <time>2022-07-24T06:49:18.999Z</time>
      </trkpt>
      <trkpt lat="45.22453" lon="5.5617">
        <ele>1338.714003</ele>
        <time>2022-07-24T06:49:24.621Z</time>
      </trkpt>
      <trkpt lat="45.22449" lon="5.56187">
        <ele>1338.795751</ele>
        <time>2022-07-24T06:49:26.768Z</time>
      </trkpt>
      <trkpt lat="45.22438" lon="5.56223">
        <ele>1338.826117</ele>
        <time>2022-07-24T06:49:31.615Z</time>
      </trkpt>
      <trkpt lat="45.2243" lon="5.5624">
        <ele>1338.817293</ele>
        <time>2022-07-24T06:49:34.085Z</time>
      </trkpt>
      <trkpt lat="45.22388" lon="5.56307">
        <ele>1338.778739</ele>
        <time>2022-07-24T06:49:45.791Z</time>
      </trkpt>
      <trkpt lat="45.22375" lon="5.56333">
        <ele>1338.764892</ele>
        <time>2022-07-24T06:49:50.444Z</time>
      </trkpt>
      <trkpt lat="45.22354" lon="5.56404">
        <ele>1338.73138</ele>
        <time>2022-07-24T06:50:03.025Z</time>
      </trkpt>
      <trkpt lat="45.2236" lon="5.56496">
        <ele>1341.38194</ele>
        <time>2022-07-24T06:50:22.273Z</time>
      </trkpt>
      <trkpt lat="45.22359" lon="5.5654">
        <ele>1342.77757</ele>
        <time>2022-07-24T06:50:35.350Z</time>
      </trkpt>
      <trkpt lat="45.22354" lon="5.56572">
        <ele>1343.788261</ele>
        <time>2022-07-24T06:50:46.241Z</time>
      </trkpt>
      <trkpt lat="45.22356" lon="5.56598">
        <ele>1344.592565</ele>
        <time>2022-07-24T06:50:56.394Z</time>
      </trkpt>
      <trkpt lat="45.22361" lon="5.56633">
        <ele>1345.699231</ele>
        <time>2022-07-24T06:51:09.995Z</time>
      </trkpt>
      <trkpt lat="45.22383" lon="5.56666">
        <ele>1347.422519</ele>
        <time>2022-07-24T06:51:27.455Z</time>
      </trkpt>
      <trkpt lat="45.2238" lon="5.5672">
        <ele>1350.310622</ele>
        <time>2022-07-24T06:51:48.402Z</time>
      </trkpt>
      <trkpt lat="45.22409" lon="5.56797">
        <ele>1354.911012</ele>
        <time>2022-07-24T06:52:24.738Z</time>
      </trkpt>
      <trkpt lat="45.22425" lon="5.5685">
        <ele>1357.965145</ele>
        <time>2022-07-24T06:52:48.604Z</time>
      </trkpt>
      <trkpt lat="45.22428" lon="5.56887">
        <ele>1359.958894</ele>
        <time>2022-07-24T06:53:03.199Z</time>
      </trkpt>
      <trkpt lat="45.22433" lon="5.56926">
        <ele>1362.127465</ele>
        <time>2022-07-24T06:53:18.526Z</time>
      </trkpt>
      <trkpt lat="45.22431" lon="5.56941">
        <ele>1362.997952</ele>
        <time>2022-07-24T06:53:26.825Z</time>
      </trkpt>
      <trkpt lat="45.22421" lon="5.5696">
        <ele>1364.273542</ele>
        <time>2022-07-24T06:53:38.164Z</time>
      </trkpt>
      <trkpt lat="45.22408" lon="5.56987">
        <ele>1366.113502</ele>
        <time>2022-07-24T06:53:53.520Z</time>
      </trkpt>
      <trkpt lat="45.224" lon="5.56991">
        <ele>1366.76109</ele>
        <time>2022-07-24T06:53:59.349Z</time>
      </trkpt>
      <trkpt lat="45.22389" lon="5.56991">
        <ele>1367.601416</ele>
        <time>2022-07-24T06:54:02.452Z</time>
      </trkpt>
      <trkpt lat="45.22372" lon="5.56981">
        <ele>1369.068983</ele>
        <time>2022-07-24T06:54:16.286Z</time>
      </trkpt>
      <trkpt lat="45.22367" lon="5.56974">
        <ele>1369.609199</ele>
        <time>2022-07-24T06:54:20.884Z</time>
      </trkpt>
      <trkpt lat="45.22363" lon="5.56958">
        <ele>1370.564137</ele>
        <time>2022-07-24T06:54:24.327Z</time>
      </trkpt>
      <trkpt lat="45.22355" lon="5.56981">
        <ele>1371.976191</ele>
        <time>2022-07-24T06:54:40.744Z</time>
      </trkpt>
      <trkpt lat="45.22352" lon="5.57008">
        <ele>1373.488902</ele>
        <time>2022-07-24T06:54:50.873Z</time>
      </trkpt>
      <trkpt lat="45.22356" lon="5.57035">
        <ele>1374.995075</ele>
        <time>2022-07-24T06:55:08.487Z</time>
      </trkpt>
      <trkpt lat="45.22358" lon="5.57043">
        <ele>1375.447774</ele>
        <time>2022-07-24T06:55:11.812Z</time>
      </trkpt>
      <trkpt lat="45.22364" lon="5.5705">
        <ele>1376.009291</ele>
        <time>2022-07-24T06:55:14.222Z</time>
      </trkpt>
      <trkpt lat="45.22343" lon="5.57051">
        <ele>1377.546705</ele>
        <time>2022-07-24T06:55:30.997Z</time>
      </trkpt>
      <trkpt lat="45.22314" lon="5.57058">
        <ele>1379.705432</ele>
        <time>2022-07-24T06:55:47.049Z</time>
      </trkpt>
      <trkpt lat="45.22309" lon="5.57074">
        <ele>1380.597766</ele>
        <time>2022-07-24T06:55:54.542Z</time>
      </trkpt>
      <trkpt lat="45.22317" lon="5.57089">
        <ele>1381.545421</ele>
        <time>2022-07-24T06:56:01.597Z</time>
      </trkpt>
      <trkpt lat="45.22331" lon="5.57105">
        <ele>1382.847103</ele>
        <time>2022-07-24T06:56:18.774Z</time>
      </trkpt>
      <trkpt lat="45.22334" lon="5.57121">
        <ele>1383.699702</ele>
        <time>2022-07-24T06:56:26.738Z</time>
      </trkpt>
      <trkpt lat="45.22313" lon="5.57138">
        <ele>1385.419467</ele>
        <time>2022-07-24T06:56:45.560Z</time>
      </trkpt>
      <trkpt lat="45.22299" lon="5.57159">
        <ele>1386.94789</ele>
        <time>2022-07-24T06:56:59.829Z</time>
      </trkpt>
      <trkpt lat="45.22291" lon="5.5719">
        <ele>1388.694337</ele>
        <time>2022-07-24T06:57:14.849Z</time>
      </trkpt>
      <trkpt lat="45.2232" lon="5.57218">
        <ele>1391.432594</ele>
        <time>2022-07-24T06:57:35.392Z</time>
      </trkpt>
      <trkpt lat="45.22344" lon="5.57235">
        <ele>1393.50717</ele>
        <time>2022-07-24T06:57:52.067Z</time>
      </trkpt>
      <trkpt lat="45.22353" lon="5.57224">
        <ele>1394.504802</ele>
        <time>2022-07-24T06:58:00.730Z</time>
      </trkpt>
      <trkpt lat="45.22368" lon="5.57217">
        <ele>1395.701996</ele>
        <time>2022-07-24T06:58:10.863Z</time>
      </trkpt>
      <trkpt lat="45.22391" lon="5.57231">
        <ele>1397.704454</ele>
        <time>2022-07-24T06:58:29.437Z</time>
      </trkpt>
      <trkpt lat="45.22407" lon="5.57231">
        <ele>1398.96968</ele>
        <time>2022-07-24T06:58:41.543Z</time>
      </trkpt>
      <trkpt lat="45.22423" lon="5.57218">
        <ele>1400.421589</ele>
        <time>2022-07-24T06:58:56.289Z</time>
      </trkpt>
      <trkpt lat="45.22444" lon="5.57184">
        <ele>1402.904268</ele>
        <time>2022-07-24T06:59:22.428Z</time>
      </trkpt>
      <trkpt lat="45.22466" lon="5.5716">
        <ele>1405.137892</ele>
        <time>2022-07-24T06:59:46.908Z</time>
      </trkpt>
      <trkpt lat="45.2248" lon="5.57156">
        <ele>1406.225928</ele>
        <time>2022-07-24T06:59:57.915Z</time>
      </trkpt>
      <trkpt lat="45.22505" lon="5.57156">
        <ele>1408.240913</ele>
        <time>2022-07-24T07:00:16.169Z</time>
      </trkpt>
      <trkpt lat="45.22536" lon="5.57158">
        <ele>1410.705284</ele>
        <time>2022-07-24T07:00:38.042Z</time>
      </trkpt>
      <trkpt lat="45.2256" lon="5.57169">
        <ele>1412.73441</ele>
        <time>2022-07-24T07:00:55.102Z</time>
      </trkpt>
      <trkpt lat="45.2257" lon="5.57177">
        <ele>1413.628968</ele>
        <time>2022-07-24T07:01:02.830Z</time>
      </trkpt>
      <trkpt lat="45.22581" lon="5.57192">
        <ele>1414.852994</ele>
        <time>2022-07-24T07:01:12.540Z</time>
      </trkpt>
      <trkpt lat="45.22586" lon="5.57214">
        <ele>1416.017803</ele>
        <time>2022-07-24T07:01:23.430Z</time>
      </trkpt>
      <trkpt lat="45.22591" lon="5.57257">
        <ele>1416.934375</ele>
        <time>2022-07-24T07:01:40.882Z</time>
      </trkpt>
      <trkpt lat="45.22599" lon="5.57279">
        <ele>1417.474722</ele>
        <time>2022-07-24T07:01:50.402Z</time>
      </trkpt>
      <trkpt lat="45.22606" lon="5.57287">
        <ele>1417.746331</ele>
        <time>2022-07-24T07:01:54.994Z</time>
      </trkpt>
      <trkpt lat="45.22634" lon="5.57303">
        <ele>1418.659173</ele>
        <time>2022-07-24T07:02:08.718Z</time>
      </trkpt>
      <trkpt lat="45.22661" lon="5.5733">
        <ele>1419.661342</ele>
        <time>2022-07-24T07:02:22.083Z</time>
      </trkpt>
      <trkpt lat="45.2268" lon="5.57344">
        <ele>1420.315411</ele>
        <time>2022-07-24T07:02:30.176Z</time>
      </trkpt>
      <trkpt lat="45.22765" lon="5.57391">
        <ele>1423.259045</ele>
        <time>2022-07-24T07:03:03.518Z</time>
      </trkpt>
      <trkpt lat="45.22842" lon="5.57424">
        <ele>1425.959518</ele>
        <time>2022-07-24T07:03:42.370Z</time>
      </trkpt>
      <trkpt lat="45.22899" lon="5.57425">
        <ele>1428.551422</ele>
        <time>2022-07-24T07:04:16.805Z</time>
      </trkpt>
      <trkpt lat="45.22924" lon="5.57418">
        <ele>1430.573881</ele>
        <time>2022-07-24T07:04:33.397Z</time>
      </trkpt>
      <trkpt lat="45.22948" lon="5.57415">
        <ele>1432.544998</ele>
        <time>2022-07-24T07:04:51.095Z</time>
      </trkpt>
      <trkpt lat="45.22963" lon="5.57416">
        <ele>1433.755419</ele>
        <time>2022-07-24T07:05:02.761Z</time>
      </trkpt>
      <trkpt lat="45.22992" lon="5.57425">
        <ele>1436.107572</ele>
        <time>2022-07-24T07:05:25.692Z</time>
      </trkpt>
      <trkpt lat="45.23018" lon="5.57415">
        <ele>1438.336836</ele>
        <time>2022-07-24T07:05:47.363Z</time>
      </trkpt>
      <trkpt lat="45.23051" lon="5.5742">
        <ele>1441.014306</ele>
        <time>2022-07-24T07:06:12.693Z</time>
      </trkpt>
      <trkpt lat="45.23065" lon="5.57431">
        <ele>1442.267155</ele>
        <time>2022-07-24T07:06:24.913Z</time>
      </trkpt>
      <trkpt lat="45.23071" lon="5.57442">
        <ele>1442.961021</ele>
        <time>2022-07-24T07:06:32.523Z</time>
      </trkpt>
      <trkpt lat="45.23093" lon="5.57492">
        <ele>1445.912254</ele>
        <time>2022-07-24T07:07:02.718Z</time>
      </trkpt>
      <trkpt lat="45.23096" lon="5.57538">
        <ele>1448.239218</ele>
        <time>2022-07-24T07:07:23.911Z</time>
      </trkpt>
      <trkpt lat="45.23092" lon="5.57601">
        <ele>1451.422668</ele>
        <time>2022-07-24T07:07:51.314Z</time>
      </trkpt>
      <trkpt lat="45.23095" lon="5.5762">
        <ele>1452.372141</ele>
        <time>2022-07-24T07:07:59.318Z</time>
      </trkpt>
      <trkpt lat="45.23105" lon="5.57629">
        <ele>1453.226509</ele>
        <time>2022-07-24T07:08:07.025Z</time>
      </trkpt>
      <trkpt lat="45.23118" lon="5.57629">
        <ele>1454.184704</ele>
        <time>2022-07-24T07:08:14.988Z</time>
      </trkpt>
      <trkpt lat="45.23124" lon="5.57622">
        <ele>1454.759613</ele>
        <time>2022-07-24T07:08:19.515Z</time>
      </trkpt>
      <trkpt lat="45.23129" lon="5.57612">
        <ele>1455.410592</ele>
        <time>2022-07-24T07:08:24.140Z</time>
      </trkpt>
      <trkpt lat="45.23134" lon="5.57587">
        <ele>1456.83582</ele>
        <time>2022-07-24T07:08:39.538Z</time>
      </trkpt>
      <trkpt lat="45.23155" lon="5.57541">
        <ele>1459.852238</ele>
        <time>2022-07-24T07:09:05.640Z</time>
      </trkpt>
      <trkpt lat="45.23168" lon="5.57527">
        <ele>1461.15851</ele>
        <time>2022-07-24T07:09:15.292Z</time>
      </trkpt>
      <trkpt lat="45.23202" lon="5.57501">
        <ele>1464.170917</ele>
        <time>2022-07-24T07:09:45.034Z</time>
      </trkpt>
      <trkpt lat="45.23229" lon="5.57472">
        <ele>1466.831833</ele>
        <time>2022-07-24T07:10:09.083Z</time>
      </trkpt>
      <trkpt lat="45.23238" lon="5.5747">
        <ele>1467.516852</ele>
        <time>2022-07-24T07:10:19.186Z</time>
      </trkpt>
      <trkpt lat="45.23292" lon="5.57489">
        <ele>1471.784697</ele>
        <time>2022-07-24T07:10:57.927Z</time>
      </trkpt>
      <trkpt lat="45.23333" lon="5.57514">
        <ele>1475.088748</ele>
        <time>2022-07-24T07:11:30.237Z</time>
      </trkpt>
      <trkpt lat="45.23352" lon="5.57528">
        <ele>1476.743249</ele>
        <time>2022-07-24T07:11:48.072Z</time>
      </trkpt>
      <trkpt lat="45.23381" lon="5.57542">
        <ele>1479.072345</ele>
        <time>2022-07-24T07:12:11.409Z</time>
      </trkpt>
      <trkpt lat="45.23418" lon="5.57548">
        <ele>1481.823217</ele>
        <time>2022-07-24T07:12:31.893Z</time>
      </trkpt>
      <trkpt lat="45.2344" lon="5.57568">
        <ele>1483.532283</ele>
        <time>2022-07-24T07:12:45.530Z</time>
      </trkpt>
      <trkpt lat="45.23506" lon="5.57589">
        <ele>1487.595583</ele>
        <time>2022-07-24T07:13:24.087Z</time>
      </trkpt>
      <trkpt lat="45.23518" lon="5.57606">
        <ele>1488.584057</ele>
        <time>2022-07-24T07:13:34.186Z</time>
      </trkpt>
      <trkpt lat="45.23531" lon="5.57636">
        <ele>1490.066159</ele>
        <time>2022-07-24T07:13:51.108Z</time>
      </trkpt>
      <trkpt lat="45.23544" lon="5.5765">
        <ele>1491.033542</ele>
        <time>2022-07-24T07:14:00.858Z</time>
      </trkpt>
      <trkpt lat="45.23574" lon="5.57662">
        <ele>1492.897423</ele>
        <time>2022-07-24T07:14:22.023Z</time>
      </trkpt>
      <trkpt lat="45.23629" lon="5.57707">
        <ele>1496.799207</ele>
        <time>2022-07-24T07:15:06.839Z</time>
      </trkpt>
      <trkpt lat="45.23646" lon="5.57704">
        <ele>1497.798926</ele>
        <time>2022-07-24T07:15:17.095Z</time>
      </trkpt>
      <trkpt lat="45.23658" lon="5.57696">
        <ele>1498.625714</ele>
        <time>2022-07-24T07:15:26.540Z</time>
      </trkpt>
      <trkpt lat="45.23702" lon="5.57694">
        <ele>1501.296876</ele>
        <time>2022-07-24T07:15:53.996Z</time>
      </trkpt>
      <trkpt lat="45.23752" lon="5.5772">
        <ele>1504.208851</ele>
        <time>2022-07-24T07:16:25.038Z</time>
      </trkpt>
      <trkpt lat="45.23772" lon="5.57728">
        <ele>1504.436394</ele>
        <time>2022-07-24T07:16:35.231Z</time>
      </trkpt>
      <trkpt lat="45.23789" lon="5.57725">
        <ele>1504.621106</ele>
        <time>2022-07-24T07:16:42.330Z</time>
      </trkpt>
      <trkpt lat="45.23847" lon="5.57755">
        <ele>1505.289415</ele>
        <time>2022-07-24T07:17:04.446Z</time>
      </trkpt>
      <trkpt lat="45.23882" lon="5.57762">
        <ele>1505.665213</ele>
        <time>2022-07-24T07:17:15.742Z</time>
      </trkpt>
      <trkpt lat="45.23889" lon="5.57769">
        <ele>1505.7603</ele>
        <time>2022-07-24T07:17:18.488Z</time>
      </trkpt>
      <trkpt lat="45.23893" lon="5.57796">
        <ele>1505.970401</ele>
        <time>2022-07-24T07:17:24.297Z</time>
      </trkpt>
      <trkpt lat="45.23897" lon="5.57804">
        <ele>1506.04814</ele>
        <time>2022-07-24T07:17:26.316Z</time>
      </trkpt>
      <trkpt lat="45.23906" lon="5.57809">
        <ele>1505.959447</ele>
        <time>2022-07-24T07:17:29.097Z</time>
      </trkpt>
      <trkpt lat="45.23933" lon="5.5781">
        <ele>1505.500271</ele>
        <time>2022-07-24T07:17:36.355Z</time>
      </trkpt>
      <trkpt lat="45.23951" lon="5.57805">
        <ele>1505.183518</ele>
        <time>2022-07-24T07:17:41.606Z</time>
      </trkpt>
      <trkpt lat="45.23967" lon="5.5779">
        <ele>1504.850876</ele>
        <time>2022-07-24T07:17:46.737Z</time>
      </trkpt>
      <trkpt lat="45.23987" lon="5.57763">
        <ele>1504.389066</ele>
        <time>2022-07-24T07:17:54.472Z</time>
      </trkpt>
      <trkpt lat="45.24012" lon="5.57749">
        <ele>1503.921818</ele>
        <time>2022-07-24T07:18:01.920Z</time>
      </trkpt>
      <trkpt lat="45.24051" lon="5.57775">
        <ele>1503.183944</ele>
        <time>2022-07-24T07:18:13.619Z</time>
      </trkpt>
      <trkpt lat="45.2406" lon="5.57781">
        <ele>1503.015218</ele>
        <time>2022-07-24T07:18:16.072Z</time>
      </trkpt>
      <trkpt lat="45.24072" lon="5.57798">
        <ele>1502.763259</ele>
        <time>2022-07-24T07:18:21.189Z</time>
      </trkpt>
      <trkpt lat="45.2411" lon="5.5783">
        <ele>1502.08249</ele>
        <time>2022-07-24T07:18:34.116Z</time>
      </trkpt>
      <trkpt lat="45.24146" lon="5.57872">
        <ele>1501.3814</ele>
        <time>2022-07-24T07:18:46.378Z</time>
      </trkpt>
      <trkpt lat="45.24174" lon="5.57895">
        <ele>1500.896933</ele>
        <time>2022-07-24T07:18:55.567Z</time>
      </trkpt>
      <trkpt lat="45.24184" lon="5.57916">
        <ele>1500.622818</ele>
        <time>2022-07-24T07:19:00.546Z</time>
      </trkpt>
      <trkpt lat="45.24186" lon="5.57926">
        <ele>1500.515058</ele>
        <time>2022-07-24T07:19:04.871Z</time>
      </trkpt>
      <trkpt lat="45.24186" lon="5.57938">
        <ele>1500.39014</ele>
        <time>2022-07-24T07:19:06.964Z</time>
      </trkpt>
      <trkpt lat="45.24178" lon="5.57969">
        <ele>1500.257665</ele>
        <time>2022-07-24T07:19:14.046Z</time>
      </trkpt>
      <trkpt lat="45.24164" lon="5.58053">
        <ele>1500.207059</ele>
        <time>2022-07-24T07:19:32.256Z</time>
      </trkpt>
      <trkpt lat="45.24152" lon="5.58087">
        <ele>1500.1843</ele>
        <time>2022-07-24T07:19:40.760Z</time>
      </trkpt>
      <trkpt lat="45.24138" lon="5.58147">
        <ele>1500.147162</ele>
        <time>2022-07-24T07:19:54.605Z</time>
      </trkpt>
      <trkpt lat="45.24128" lon="5.58168">
        <ele>1500.132417</ele>
        <time>2022-07-24T07:19:59.837Z</time>
      </trkpt>
      <trkpt lat="45.24124" lon="5.58187">
        <ele>1500.120408</ele>
        <time>2022-07-24T07:20:04.250Z</time>
      </trkpt>
      <trkpt lat="45.24129" lon="5.58249">
        <ele>1501.421566</ele>
        <time>2022-07-24T07:20:23.093Z</time>
      </trkpt>
      <trkpt lat="45.24124" lon="5.58315">
        <ele>1502.846379</ele>
        <time>2022-07-24T07:20:46.904Z</time>
      </trkpt>
      <trkpt lat="45.24142" lon="5.58369">
        <ele>1504.126342</ele>
        <time>2022-07-24T07:21:08.797Z</time>
      </trkpt>
      <trkpt lat="45.24143" lon="5.58397">
        <ele>1504.72777</ele>
        <time>2022-07-24T07:21:17.220Z</time>
      </trkpt>
      <trkpt lat="45.24141" lon="5.58424">
        <ele>1505.297244</ele>
        <time>2022-07-24T07:21:29.129Z</time>
      </trkpt>
      <trkpt lat="45.24129" lon="5.58464">
        <ele>1506.376863</ele>
        <time>2022-07-24T07:21:43.229Z</time>
      </trkpt>
      <trkpt lat="45.24119" lon="5.58485">
        <ele>1507.043337</ele>
        <time>2022-07-24T07:21:50.428Z</time>
      </trkpt>
      <trkpt lat="45.24088" lon="5.58506">
        <ele>1508.311991</ele>
        <time>2022-07-24T07:22:09.250Z</time>
      </trkpt>
      <trkpt lat="45.24064" lon="5.5851">
        <ele>1509.244986</ele>
        <time>2022-07-24T07:22:25.298Z</time>
      </trkpt>
      <trkpt lat="45.24041" lon="5.58504">
        <ele>1510.123079</ele>
        <time>2022-07-24T07:22:36.714Z</time>
      </trkpt>
      <trkpt lat="45.24014" lon="5.58506">
        <ele>1511.101935</ele>
        <time>2022-07-24T07:22:50.326Z</time>
      </trkpt>
      <trkpt lat="45.23982" lon="5.58523">
        <ele>1512.364989</ele>
        <time>2022-07-24T07:23:04.792Z</time>
      </trkpt>
      <trkpt lat="45.23964" lon="5.58537">
        <ele>1512.94614</ele>
        <time>2022-07-24T07:23:14.646Z</time>
      </trkpt>
      <trkpt lat="45.23909" lon="5.58593">
        <ele>1514.805656</ele>
        <time>2022-07-24T07:23:42.191Z</time>
      </trkpt>
      <trkpt lat="45.23884" lon="5.58606">
        <ele>1515.542831</ele>
        <time>2022-07-24T07:23:53.256Z</time>
      </trkpt>
      <trkpt lat="45.23851" lon="5.58613">
        <ele>1516.48825</ele>
        <time>2022-07-24T07:24:09.144Z</time>
      </trkpt>
      <trkpt lat="45.23825" lon="5.58622">
        <ele>1517.228</ele>
        <time>2022-07-24T07:24:24.288Z</time>
      </trkpt>
      <trkpt lat="45.23793" lon="5.58655">
        <ele>1519.671416</ele>
        <time>2022-07-24T07:24:44.136Z</time>
      </trkpt>
      <trkpt lat="45.23769" lon="5.58695">
        <ele>1522.000633</ele>
        <time>2022-07-24T07:25:04.644Z</time>
      </trkpt>
      <trkpt lat="45.23762" lon="5.58719">
        <ele>1523.129596</ele>
        <time>2022-07-24T07:25:15.767Z</time>
      </trkpt>
      <trkpt lat="45.23761" lon="5.58755">
        <ele>1524.723216</ele>
        <time>2022-07-24T07:25:31.792Z</time>
      </trkpt>
      <trkpt lat="45.23755" lon="5.58783">
        <ele>1526.02557</ele>
        <time>2022-07-24T07:25:45.662Z</time>
      </trkpt>
      <trkpt lat="45.23757" lon="5.58807">
        <ele>1527.088412</ele>
        <time>2022-07-24T07:25:58.124Z</time>
      </trkpt>
      <trkpt lat="45.23767" lon="5.58863">
        <ele>1530.183748</ele>
        <time>2022-07-24T07:26:30.816Z</time>
      </trkpt>
      <trkpt lat="45.23766" lon="5.58877">
        <ele>1531.127023</ele>
        <time>2022-07-24T07:26:39.638Z</time>
      </trkpt>
      <trkpt lat="45.23761" lon="5.58891">
        <ele>1532.132793</ele>
        <time>2022-07-24T07:26:47.629Z</time>
      </trkpt>
      <trkpt lat="45.23754" lon="5.58905">
        <ele>1533.299281</ele>
        <time>2022-07-24T07:26:58.444Z</time>
      </trkpt>
      <trkpt lat="45.23704" lon="5.58955">
        <ele>1539.044636</ele>
        <time>2022-07-24T07:27:48.387Z</time>
      </trkpt>
      <trkpt lat="45.23684" lon="5.5898">
        <ele>1541.551865</ele>
        <time>2022-07-24T07:28:10.965Z</time>
      </trkpt>
      <trkpt lat="45.23652" lon="5.59006">
        <ele>1545.042866</ele>
        <time>2022-07-24T07:28:39.159Z</time>
      </trkpt>
      <trkpt lat="45.23641" lon="5.59028">
        <ele>1546.363441</ele>
        <time>2022-07-24T07:28:53.230Z</time>
      </trkpt>
      <trkpt lat="45.23635" lon="5.59034">
        <ele>1546.799014</ele>
        <time>2022-07-24T07:28:58.289Z</time>
      </trkpt>
      <trkpt lat="45.23604" lon="5.5905">
        <ele>1548.757079</ele>
        <time>2022-07-24T07:29:20.316Z</time>
      </trkpt>
      <trkpt lat="45.23594" lon="5.59059">
        <ele>1549.480679</ele>
        <time>2022-07-24T07:29:28.157Z</time>
      </trkpt>
      <trkpt lat="45.2358" lon="5.5908">
        <ele>1550.715112</ele>
        <time>2022-07-24T07:29:41.282Z</time>
      </trkpt>
      <trkpt lat="45.23578" lon="5.59094">
        <ele>1551.30167</ele>
        <time>2022-07-24T07:29:47.286Z</time>
      </trkpt>
      <trkpt lat="45.2358" lon="5.59098">
        <ele>1551.510459</ele>
        <time>2022-07-24T07:29:49.434Z</time>
      </trkpt>
      <trkpt lat="45.23584" lon="5.59099">
        <ele>1551.741369</ele>
        <time>2022-07-24T07:29:51.721Z</time>
      </trkpt>
      <trkpt lat="45.23599" lon="5.59091">
        <ele>1552.741571</ele>
        <time>2022-07-24T07:30:00.904Z</time>
      </trkpt>
      <trkpt lat="45.23616" lon="5.59087">
        <ele>1553.768818</ele>
        <time>2022-07-24T07:30:08.834Z</time>
      </trkpt>
      <trkpt lat="45.23631" lon="5.59089">
        <ele>1554.676252</ele>
        <time>2022-07-24T07:30:17.067Z</time>
      </trkpt>
      <trkpt lat="45.23637" lon="5.59094">
        <ele>1555.088839</ele>
        <time>2022-07-24T07:30:20.775Z</time>
      </trkpt>
      <trkpt lat="45.23642" lon="5.59104">
        <ele>1555.590598</ele>
        <time>2022-07-24T07:30:24.469Z</time>
      </trkpt>
      <trkpt lat="45.23638" lon="5.59117">
        <ele>1556.18744</ele>
        <time>2022-07-24T07:30:29.163Z</time>
      </trkpt>
      <trkpt lat="45.23629" lon="5.59126">
        <ele>1556.987577</ele>
        <time>2022-07-24T07:30:35.240Z</time>
      </trkpt>
      <trkpt lat="45.23606" lon="5.59137">
        <ele>1558.80879</ele>
        <time>2022-07-24T07:30:49.311Z</time>
      </trkpt>
      <trkpt lat="45.23587" lon="5.59162">
        <ele>1560.714722</ele>
        <time>2022-07-24T07:31:04.506Z</time>
      </trkpt>
      <trkpt lat="45.23567" lon="5.59178">
        <ele>1562.437848</ele>
        <time>2022-07-24T07:31:18.541Z</time>
      </trkpt>
      <trkpt lat="45.23567" lon="5.59187">
        <ele>1562.925702</ele>
        <time>2022-07-24T07:31:23.385Z</time>
      </trkpt>
      <trkpt lat="45.23586" lon="5.59202">
        <ele>1564.519679</ele>
        <time>2022-07-24T07:31:38.487Z</time>
      </trkpt>
      <trkpt lat="45.23586" lon="5.59215">
        <ele>1565.204915</ele>
        <time>2022-07-24T07:31:46.731Z</time>
      </trkpt>
      <trkpt lat="45.23578" lon="5.59227">
        <ele>1566.057908</ele>
        <time>2022-07-24T07:31:56.471Z</time>
      </trkpt>
      <trkpt lat="45.23559" lon="5.59246">
        <ele>1567.762794</ele>
        <time>2022-07-24T07:32:14.341Z</time>
      </trkpt>
      <trkpt lat="45.23541" lon="5.59249">
        <ele>1569.152646</ele>
        <time>2022-07-24T07:32:30.139Z</time>
      </trkpt>
      <trkpt lat="45.23522" lon="5.59245">
        <ele>1570.905327</ele>
        <time>2022-07-24T07:32:44.585Z</time>
      </trkpt>
      <trkpt lat="45.23499" lon="5.59266">
        <ele>1573.910117</ele>
        <time>2022-07-24T07:33:06.750Z</time>
      </trkpt>
      <trkpt lat="45.23459" lon="5.59262">
        <ele>1578.330049</ele>
        <time>2022-07-24T07:33:41.310Z</time>
      </trkpt>
      <trkpt lat="45.2345" lon="5.59265">
        <ele>1579.439493</ele>
        <time>2022-07-24T07:33:52.140Z</time>
      </trkpt>
      <trkpt lat="45.2344" lon="5.59273">
        <ele>1580.64391</ele>
        <time>2022-07-24T07:34:01.689Z</time>
      </trkpt>
      <trkpt lat="45.23434" lon="5.59284">
        <ele>1581.724521</ele>
        <time>2022-07-24T07:34:09.408Z</time>
      </trkpt>
      <trkpt lat="45.23433" lon="5.59301">
        <ele>1583.051987</ele>
        <time>2022-07-24T07:34:20.248Z</time>
      </trkpt>
      <trkpt lat="45.23452" lon="5.5933">
        <ele>1586.117507</ele>
        <time>2022-07-24T07:34:42.924Z</time>
      </trkpt>
      <trkpt lat="45.23495" lon="5.59377">
        <ele>1591.878926</ele>
        <time>2022-07-24T07:35:35.556Z</time>
      </trkpt>
      <trkpt lat="45.23522" lon="5.59404">
        <ele>1595.284832</ele>
        <time>2022-07-24T07:36:05.480Z</time>
      </trkpt>
      <trkpt lat="45.23533" lon="5.59418">
        <ele>1596.798628</ele>
        <time>2022-07-24T07:36:15.277Z</time>
      </trkpt>
      <trkpt lat="45.23559" lon="5.59458">
        <ele>1600.679174</ele>
        <time>2022-07-24T07:36:46.501Z</time>
      </trkpt>
      <trkpt lat="45.23559" lon="5.59468">
        <ele>1601.386903</ele>
        <time>2022-07-24T07:36:51.244Z</time>
      </trkpt>
      <trkpt lat="45.23556" lon="5.59475">
        <ele>1602.013002</ele>
        <time>2022-07-24T07:37:00.235Z</time>
      </trkpt>
      <trkpt lat="45.23535" lon="5.59489">
        <ele>1604.362145</ele>
        <time>2022-07-24T07:37:15.413Z</time>
      </trkpt>
      <trkpt lat="45.23506" lon="5.59499">
        <ele>1607.446475</ele>
        <time>2022-07-24T07:37:40.788Z</time>
      </trkpt>
      <trkpt lat="45.23463" lon="5.59475">
        <ele>1610.046925</ele>
        <time>2022-07-24T07:38:10.628Z</time>
      </trkpt>
      <trkpt lat="45.23453" lon="5.59476">
        <ele>1610.578092</ele>
        <time>2022-07-24T07:38:22.879Z</time>
      </trkpt>
      <trkpt lat="45.23445" lon="5.59482">
        <ele>1611.063491</ele>
        <time>2022-07-24T07:38:27.336Z</time>
      </trkpt>
      <trkpt lat="45.23404" lon="5.59533">
        <ele>1613.934301</ele>
        <time>2022-07-24T07:39:00.486Z</time>
      </trkpt>
      <trkpt lat="45.23397" lon="5.59539">
        <ele>1614.373156</ele>
        <time>2022-07-24T07:39:07.196Z</time>
      </trkpt>
      <trkpt lat="45.23384" lon="5.59541">
        <ele>1615.059173</ele>
        <time>2022-07-24T07:39:13.320Z</time>
      </trkpt>
      <trkpt lat="45.23366" lon="5.59533">
        <ele>1616.058188</ele>
        <time>2022-07-24T07:39:22.009Z</time>
      </trkpt>
      <trkpt lat="45.23359" lon="5.59534">
        <ele>1616.419219</ele>
        <time>2022-07-24T07:39:25.396Z</time>
      </trkpt>
      <trkpt lat="45.23345" lon="5.59547">
        <ele>1617.27705</ele>
        <time>2022-07-24T07:39:29.868Z</time>
      </trkpt>
      <trkpt lat="45.23341" lon="5.59548">
        <ele>1617.188555</ele>
        <time>2022-07-24T07:39:31.170Z</time>
      </trkpt>
      <trkpt lat="45.23293" lon="5.59507">
        <ele>1616.071884</ele>
        <time>2022-07-24T07:39:47.582Z</time>
      </trkpt>
      <trkpt lat="45.23285" lon="5.59504">
        <ele>1615.910279</ele>
        <time>2022-07-24T07:39:49.645Z</time>
      </trkpt>
      <trkpt lat="45.23267" lon="5.59503">
        <ele>1615.546428</ele>
        <time>2022-07-24T07:39:54.433Z</time>
      </trkpt>
      <trkpt lat="45.23253" lon="5.59518">
        <ele>1615.197242</ele>
        <time>2022-07-24T07:39:58.966Z</time>
      </trkpt>
      <trkpt lat="45.23231" lon="5.59527">
        <ele>1614.727128</ele>
        <time>2022-07-24T07:40:05.156Z</time>
      </trkpt>
      <trkpt lat="45.23211" lon="5.59554">
        <ele>1614.179434</ele>
        <time>2022-07-24T07:40:12.052Z</time>
      </trkpt>
      <trkpt lat="45.2316" lon="5.59518">
        <ele>1612.956982</ele>
        <time>2022-07-24T07:40:26.544Z</time>
      </trkpt>
      <trkpt lat="45.23129" lon="5.59453">
        <ele>1611.672499</ele>
        <time>2022-07-24T07:40:40.906Z</time>
      </trkpt>
      <trkpt lat="45.23108" lon="5.59424">
        <ele>1611.012762</ele>
        <time>2022-07-24T07:40:48.360Z</time>
      </trkpt>
      <trkpt lat="45.23077" lon="5.59411">
        <ele>1610.273299</ele>
        <time>2022-07-24T07:40:57.632Z</time>
      </trkpt>
      <trkpt lat="45.2305" lon="5.59407">
        <ele>1609.649315</ele>
        <time>2022-07-24T07:41:05.878Z</time>
      </trkpt>
      <trkpt lat="45.23042" lon="5.59402">
        <ele>1609.548372</ele>
        <time>2022-07-24T07:41:08.679Z</time>
      </trkpt>
      <trkpt lat="45.23035" lon="5.59392">
        <ele>1609.545452</ele>
        <time>2022-07-24T07:41:11.817Z</time>
      </trkpt>
      <trkpt lat="45.23006" lon="5.59375">
        <ele>1609.535803</ele>
        <time>2022-07-24T07:41:22.134Z</time>
      </trkpt>
      <trkpt lat="45.23003" lon="5.59366">
        <ele>1609.533692</ele>
        <time>2022-07-24T07:41:24.369Z</time>
      </trkpt>
      <trkpt lat="45.22997" lon="5.59359">
        <ele>1609.531232</ele>
        <time>2022-07-24T07:41:26.982Z</time>
      </trkpt>
      <trkpt lat="45.22975" lon="5.59361">
        <ele>1609.524559</ele>
        <time>2022-07-24T07:41:34.007Z</time>
      </trkpt>
      <trkpt lat="45.22945" lon="5.59354">
        <ele>1609.515374</ele>
        <time>2022-07-24T07:41:43.780Z</time>
      </trkpt>
      <trkpt lat="45.22936" lon="5.59357">
        <ele>1609.51242</ele>
        <time>2022-07-24T07:41:47.006Z</time>
      </trkpt>
      <trkpt lat="45.2289" lon="5.59383">
        <ele>1609.497469</ele>
        <time>2022-07-24T07:42:02.995Z</time>
      </trkpt>
      <trkpt lat="45.2286" lon="5.59383">
        <ele>1609.524455</ele>
        <time>2022-07-24T07:42:12.796Z</time>
      </trkpt>
      <trkpt lat="45.22853" lon="5.59383">
        <ele>1609.534094</ele>
        <time>2022-07-24T07:42:15.040Z</time>
      </trkpt>
      <trkpt lat="45.22837" lon="5.59375">
        <ele>1609.556108</ele>
        <time>2022-07-24T07:42:20.340Z</time>
      </trkpt>
      <trkpt lat="45.22815" lon="5.5937">
        <ele>1609.585463</ele>
        <time>2022-07-24T07:42:27.299Z</time>
      </trkpt>
      <trkpt lat="45.22798" lon="5.5937">
        <ele>1609.607367</ele>
        <time>2022-07-24T07:42:32.572Z</time>
      </trkpt>
      <trkpt lat="45.22744" lon="5.59393">
        <ele>1609.681808</ele>
        <time>2022-07-24T07:42:50.306Z</time>
      </trkpt>
      <trkpt lat="45.22708" lon="5.59398">
        <ele>1609.729386</ele>
        <time>2022-07-24T07:43:02.193Z</time>
      </trkpt>
      <trkpt lat="45.22686" lon="5.59381">
        <ele>1610.15554</ele>
        <time>2022-07-24T07:43:11.452Z</time>
      </trkpt>
      <trkpt lat="45.22674" lon="5.59379">
        <ele>1610.373436</ele>
        <time>2022-07-24T07:43:16.077Z</time>
      </trkpt>
      <trkpt lat="45.22648" lon="5.59392">
        <ele>1610.856351</ele>
        <time>2022-07-24T07:43:26.316Z</time>
      </trkpt>
      <trkpt lat="45.22618" lon="5.59393">
        <ele>1611.391509</ele>
        <time>2022-07-24T07:43:38.270Z</time>
      </trkpt>
      <trkpt lat="45.22581" lon="5.59387">
        <ele>1612.073137</ele>
        <time>2022-07-24T07:43:54.343Z</time>
      </trkpt>
      <trkpt lat="45.22549" lon="5.59394">
        <ele>1612.654459</ele>
        <time>2022-07-24T07:44:08.847Z</time>
      </trkpt>
      <trkpt lat="45.22485" lon="5.59382">
        <ele>1614.133746</ele>
        <time>2022-07-24T07:44:38.682Z</time>
      </trkpt>
      <trkpt lat="45.22433" lon="5.59378">
        <ele>1615.428329</ele>
        <time>2022-07-24T07:45:03.094Z</time>
      </trkpt>
      <trkpt lat="45.22396" lon="5.59365">
        <ele>1616.387121</ele>
        <time>2022-07-24T07:45:20.688Z</time>
      </trkpt>
      <trkpt lat="45.22353" lon="5.59377">
        <ele>1617.422665</ele>
        <time>2022-07-24T07:45:39.807Z</time>
      </trkpt>
      <trkpt lat="45.22342" lon="5.59375">
        <ele>1617.250751</ele>
        <time>2022-07-24T07:45:44.275Z</time>
      </trkpt>
      <trkpt lat="45.22298" lon="5.59357">
        <ele>1616.492608</ele>
        <time>2022-07-24T07:45:59.438Z</time>
      </trkpt>
      <trkpt lat="45.22275" lon="5.59338">
        <ele>1616.048341</ele>
        <time>2022-07-24T07:46:06.879Z</time>
      </trkpt>
      <trkpt lat="45.22212" lon="5.59257">
        <ele>1614.63821</ele>
        <time>2022-07-24T07:46:28.920Z</time>
      </trkpt>
      <trkpt lat="45.22197" lon="5.59242">
        <ele>1614.094979</ele>
        <time>2022-07-24T07:46:33.576Z</time>
      </trkpt>
      <trkpt lat="45.22183" lon="5.59232">
        <ele>1613.374316</ele>
        <time>2022-07-24T07:46:37.269Z</time>
      </trkpt>
      <trkpt lat="45.22169" lon="5.59232">
        <ele>1612.728712</ele>
        <time>2022-07-24T07:46:40.640Z</time>
      </trkpt>
      <trkpt lat="45.22152" lon="5.59239">
        <ele>1611.884965</ele>
        <time>2022-07-24T07:46:45.169Z</time>
      </trkpt>
      <trkpt lat="45.22083" lon="5.59245">
        <ele>1608.673049</ele>
        <time>2022-07-24T07:47:01.874Z</time>
      </trkpt>
      <trkpt lat="45.22073" lon="5.59238">
        <ele>1608.181983</ele>
        <time>2022-07-24T07:47:04.310Z</time>
      </trkpt>
      <trkpt lat="45.22049" lon="5.59238">
        <ele>1607.057939</ele>
        <time>2022-07-24T07:47:10.061Z</time>
      </trkpt>
      <trkpt lat="45.22031" lon="5.59246">
        <ele>1606.166144</ele>
        <time>2022-07-24T07:47:14.454Z</time>
      </trkpt>
      <trkpt lat="45.22017" lon="5.59247">
        <ele>1605.632008</ele>
        <time>2022-07-24T07:47:17.996Z</time>
      </trkpt>
      <trkpt lat="45.21991" lon="5.59259">
        <ele>1604.589329</ele>
        <time>2022-07-24T07:47:25.004Z</time>
      </trkpt>
      <trkpt lat="45.21959" lon="5.59258">
        <ele>1603.357324</ele>
        <time>2022-07-24T07:47:33.211Z</time>
      </trkpt>
      <trkpt lat="45.21951" lon="5.59264">
        <ele>1603.029733</ele>
        <time>2022-07-24T07:47:35.380Z</time>
      </trkpt>
      <trkpt lat="45.21933" lon="5.59256">
        <ele>1602.295488</ele>
        <time>2022-07-24T07:47:40.187Z</time>
      </trkpt>
      <trkpt lat="45.2192" lon="5.59265">
        <ele>1601.76355</ele>
        <time>2022-07-24T07:47:43.685Z</time>
      </trkpt>
      <trkpt lat="45.21912" lon="5.59267">
        <ele>1601.427104</ele>
        <time>2022-07-24T07:47:45.896Z</time>
      </trkpt>
      <trkpt lat="45.21894" lon="5.59264">
        <ele>1600.746846</ele>
        <time>2022-07-24T07:47:50.330Z</time>
      </trkpt>
      <trkpt lat="45.21834" lon="5.59262">
        <ele>1599.436597</ele>
        <time>2022-07-24T07:48:05.343Z</time>
      </trkpt>
      <trkpt lat="45.21821" lon="5.59266">
        <ele>1599.538456</ele>
        <time>2022-07-24T07:48:08.613Z</time>
      </trkpt>
      <trkpt lat="45.21815" lon="5.5927">
        <ele>1599.59187</ele>
        <time>2022-07-24T07:48:10.322Z</time>
      </trkpt>
      <trkpt lat="45.21805" lon="5.59287">
        <ele>1599.716203</ele>
        <time>2022-07-24T07:48:18.313Z</time>
      </trkpt>
      <trkpt lat="45.2177" lon="5.59368">
        <ele>1600.249175</ele>
        <time>2022-07-24T07:48:40.850Z</time>
      </trkpt>
      <trkpt lat="45.21739" lon="5.59423">
        <ele>1600.640936</ele>
        <time>2022-07-24T07:49:04.838Z</time>
      </trkpt>
      <trkpt lat="45.21721" lon="5.59426">
        <ele>1601.54167</ele>
        <time>2022-07-24T07:49:11.548Z</time>
      </trkpt>
      <trkpt lat="45.21712" lon="5.59423">
        <ele>1602.194076</ele>
        <time>2022-07-24T07:49:21.456Z</time>
      </trkpt>
      <trkpt lat="45.21669" lon="5.59394">
        <ele>1605.567001</ele>
        <time>2022-07-24T07:49:49.973Z</time>
      </trkpt>
      <trkpt lat="45.21663" lon="5.5938">
        <ele>1606.416277</ele>
        <time>2022-07-24T07:49:56.259Z</time>
      </trkpt>
      <trkpt lat="45.2166" lon="5.59296">
        <ele>1610.665574</ele>
        <time>2022-07-24T07:50:43.907Z</time>
      </trkpt>
      <trkpt lat="45.21658" lon="5.59287">
        <ele>1611.147401</ele>
        <time>2022-07-24T07:50:48.069Z</time>
      </trkpt>
      <trkpt lat="45.21636" lon="5.59236">
        <ele>1614.079793</ele>
        <time>2022-07-24T07:51:21.572Z</time>
      </trkpt>
      <trkpt lat="45.21578" lon="5.59165">
        <ele>1619.044702</ele>
        <time>2022-07-24T07:52:12.143Z</time>
      </trkpt>
      <trkpt lat="45.21568" lon="5.59157">
        <ele>1619.747134</ele>
        <time>2022-07-24T07:52:18.942Z</time>
      </trkpt>
      <trkpt lat="45.21534" lon="5.59153">
        <ele>1621.964822</ele>
        <time>2022-07-24T07:52:40.622Z</time>
      </trkpt>
      <trkpt lat="45.21517" lon="5.59147">
        <ele>1623.117915</ele>
        <time>2022-07-24T07:52:51.697Z</time>
      </trkpt>
      <trkpt lat="45.21509" lon="5.59147">
        <ele>1623.600207</ele>
        <time>2022-07-24T07:52:56.084Z</time>
      </trkpt>
      <trkpt lat="45.2149" lon="5.5916">
        <ele>1625.001063</ele>
        <time>2022-07-24T07:53:08.211Z</time>
      </trkpt>
      <trkpt lat="45.21482" lon="5.59158">
        <ele>1625.311621</ele>
        <time>2022-07-24T07:53:12.291Z</time>
      </trkpt>
      <trkpt lat="45.21468" lon="5.59144">
        <ele>1625.836995</ele>
        <time>2022-07-24T07:53:21.700Z</time>
      </trkpt>
      <trkpt lat="45.21455" lon="5.59127">
        <ele>1626.357231</ele>
        <time>2022-07-24T07:53:31.122Z</time>
      </trkpt>
      <trkpt lat="45.21431" lon="5.59083">
        <ele>1627.530797</ele>
        <time>2022-07-24T07:53:50.321Z</time>
      </trkpt>
      <trkpt lat="45.214" lon="5.59066">
        <ele>1628.531835</ele>
        <time>2022-07-24T07:54:05.403Z</time>
      </trkpt>
      <trkpt lat="45.21347" lon="5.59021">
        <ele>1630.367624</ele>
        <time>2022-07-24T07:54:30.828Z</time>
      </trkpt>
      <trkpt lat="45.21321" lon="5.58995">
        <ele>1630.493631</ele>
        <time>2022-07-24T07:54:43.489Z</time>
      </trkpt>
      <trkpt lat="45.21298" lon="5.59">
        <ele>1630.442362</ele>
        <time>2022-07-24T07:54:51.461Z</time>
      </trkpt>
      <trkpt lat="45.21276" lon="5.59015">
        <ele>1630.386892</ele>
        <time>2022-07-24T07:55:00.326Z</time>
      </trkpt>
      <trkpt lat="45.21223" lon="5.5903">
        <ele>1630.26477</ele>
        <time>2022-07-24T07:55:18.168Z</time>
      </trkpt>
      <trkpt lat="45.21178" lon="5.59027">
        <ele>1630.164136</ele>
        <time>2022-07-24T07:55:30.057Z</time>
      </trkpt>
      <trkpt lat="45.21152" lon="5.59017">
        <ele>1629.551452</ele>
        <time>2022-07-24T07:55:37.435Z</time>
      </trkpt>
      <trkpt lat="45.21148" lon="5.59015">
        <ele>1629.423616</ele>
        <time>2022-07-24T07:55:38.486Z</time>
      </trkpt>
      <trkpt lat="45.21133" lon="5.59006">
        <ele>1628.943945</ele>
        <time>2022-07-24T07:55:42.683Z</time>
      </trkpt>
      <trkpt lat="45.21123" lon="5.58992">
        <ele>1628.508176</ele>
        <time>2022-07-24T07:55:46.566Z</time>
      </trkpt>
      <trkpt lat="45.21118" lon="5.58976">
        <ele>1628.149756</ele>
        <time>2022-07-24T07:55:49.356Z</time>
      </trkpt>
      <trkpt lat="45.21114" lon="5.58949">
        <ele>1627.554235</ele>
        <time>2022-07-24T07:55:54.753Z</time>
      </trkpt>
      <trkpt lat="45.21108" lon="5.58947">
        <ele>1627.363092</ele>
        <time>2022-07-24T07:55:56.357Z</time>
      </trkpt>
      <trkpt lat="45.21097" lon="5.58956">
        <ele>1626.981389</ele>
        <time>2022-07-24T07:55:59.310Z</time>
      </trkpt>
      <trkpt lat="45.21086" lon="5.5897">
        <ele>1626.520919</ele>
        <time>2022-07-24T07:56:03.630Z</time>
      </trkpt>
      <trkpt lat="45.21069" lon="5.59008">
        <ele>1625.565133</ele>
        <time>2022-07-24T07:56:11.655Z</time>
      </trkpt>
      <trkpt lat="45.21048" lon="5.59052">
        <ele>1624.535717</ele>
        <time>2022-07-24T07:56:21.359Z</time>
      </trkpt>
      <trkpt lat="45.21029" lon="5.59051">
        <ele>1624.186708</ele>
        <time>2022-07-24T07:56:26.028Z</time>
      </trkpt>
      <trkpt lat="45.21016" lon="5.59056">
        <ele>1623.939147</ele>
        <time>2022-07-24T07:56:29.746Z</time>
      </trkpt>
      <trkpt lat="45.20999" lon="5.59107">
        <ele>1623.211306</ele>
        <time>2022-07-24T07:56:40.268Z</time>
      </trkpt>
      <trkpt lat="45.20994" lon="5.59134">
        <ele>1622.845685</ele>
        <time>2022-07-24T07:56:45.718Z</time>
      </trkpt>
      <trkpt lat="45.20994" lon="5.59168">
        <ele>1622.408185</ele>
        <time>2022-07-24T07:56:52.891Z</time>
      </trkpt>
      <trkpt lat="45.20988" lon="5.5918">
        <ele>1622.21929</ele>
        <time>2022-07-24T07:56:55.706Z</time>
      </trkpt>
      <trkpt lat="45.2094" lon="5.59179">
        <ele>1621.398602</ele>
        <time>2022-07-24T07:57:10.010Z</time>
      </trkpt>
      <trkpt lat="45.20923" lon="5.59163">
        <ele>1621.452086</ele>
        <time>2022-07-24T07:57:16.443Z</time>
      </trkpt>
      <trkpt lat="45.20895" lon="5.59124">
        <ele>1621.556518</ele>
        <time>2022-07-24T07:57:29.262Z</time>
      </trkpt>
      <trkpt lat="45.20841" lon="5.59105">
        <ele>1621.70194</ele>
        <time>2022-07-24T07:57:47.999Z</time>
      </trkpt>
      <trkpt lat="45.20825" lon="5.59106">
        <ele>1621.745871</ele>
        <time>2022-07-24T07:57:53.761Z</time>
      </trkpt>
      <trkpt lat="45.20818" lon="5.59108">
        <ele>1621.765006</ele>
        <time>2022-07-24T07:57:56.303Z</time>
      </trkpt>
      <trkpt lat="45.20793" lon="5.59129">
        <ele>1621.840887</ele>
        <time>2022-07-24T07:58:06.491Z</time>
      </trkpt>
      <trkpt lat="45.20777" lon="5.59136">
        <ele>1621.934638</ele>
        <time>2022-07-24T07:58:12.603Z</time>
      </trkpt>
      <trkpt lat="45.20729" lon="5.59166">
        <ele>1622.37594</ele>
        <time>2022-07-24T07:58:31.193Z</time>
      </trkpt>
      <trkpt lat="45.20721" lon="5.59175">
        <ele>1622.458383</ele>
        <time>2022-07-24T07:58:34.713Z</time>
      </trkpt>
      <trkpt lat="45.20709" lon="5.5921">
        <ele>1622.689666</ele>
        <time>2022-07-24T07:58:44.537Z</time>
      </trkpt>
      <trkpt lat="45.20701" lon="5.59218">
        <ele>1622.774418</ele>
        <time>2022-07-24T07:58:48.170Z</time>
      </trkpt>
      <trkpt lat="45.20686" lon="5.59219">
        <ele>1622.8957</ele>
        <time>2022-07-24T07:58:53.485Z</time>
      </trkpt>
      <trkpt lat="45.20625" lon="5.59211">
        <ele>1623.410986</ele>
        <time>2022-07-24T07:59:15.930Z</time>
      </trkpt>
      <trkpt lat="45.20598" lon="5.59223">
        <ele>1623.649028</ele>
        <time>2022-07-24T07:59:26.048Z</time>
      </trkpt>
      <trkpt lat="45.20564" lon="5.5925">
        <ele>1623.97923</ele>
        <time>2022-07-24T07:59:40.255Z</time>
      </trkpt>
      <trkpt lat="45.20521" lon="5.59277">
        <ele>1624.367846</ele>
        <time>2022-07-24T07:59:56.872Z</time>
      </trkpt>
      <trkpt lat="45.20486" lon="5.59303">
        <ele>1624.704973</ele>
        <time>2022-07-24T08:00:11.187Z</time>
      </trkpt>
      <trkpt lat="45.20467" lon="5.59313">
        <ele>1624.871074</ele>
        <time>2022-07-24T08:00:18.211Z</time>
      </trkpt>
      <trkpt lat="45.20448" lon="5.59306">
        <ele>1625.037918</ele>
        <time>2022-07-24T08:00:25.392Z</time>
      </trkpt>
      <trkpt lat="45.20395" lon="5.59307">
        <ele>1625.498393</ele>
        <time>2022-07-24T08:00:44.730Z</time>
      </trkpt>
      <trkpt lat="45.20332" lon="5.59284">
        <ele>1626.063495</ele>
        <time>2022-07-24T08:01:08.281Z</time>
      </trkpt>
      <trkpt lat="45.20289" lon="5.59275">
        <ele>1626.442029</ele>
        <time>2022-07-24T08:01:24.122Z</time>
      </trkpt>
      <trkpt lat="45.20202" lon="5.59243">
        <ele>1626.892793</ele>
        <time>2022-07-24T08:01:55.574Z</time>
      </trkpt>
      <trkpt lat="45.20118" lon="5.59223">
        <ele>1627.311884</ele>
        <time>2022-07-24T08:02:23.431Z</time>
      </trkpt>
      <trkpt lat="45.20072" lon="5.5922">
        <ele>1627.754182</ele>
        <time>2022-07-24T08:02:38.736Z</time>
      </trkpt>
      <trkpt lat="45.19985" lon="5.59192">
        <ele>1628.670686</ele>
        <time>2022-07-24T08:03:10.344Z</time>
      </trkpt>
      <trkpt lat="45.19935" lon="5.59189">
        <ele>1629.18132</ele>
        <time>2022-07-24T08:03:30.582Z</time>
      </trkpt>
      <trkpt lat="45.19874" lon="5.59181">
        <ele>1631.743275</ele>
        <time>2022-07-24T08:03:58.539Z</time>
      </trkpt>
      <trkpt lat="45.19848" lon="5.59192">
        <ele>1632.865547</ele>
        <time>2022-07-24T08:04:11.546Z</time>
      </trkpt>
      <trkpt lat="45.19835" lon="5.59192">
        <ele>1633.408255</ele>
        <time>2022-07-24T08:04:19.107Z</time>
      </trkpt>
      <trkpt lat="45.19805" lon="5.59181">
        <ele>1634.693351</ele>
        <time>2022-07-24T08:04:37.241Z</time>
      </trkpt>
      <trkpt lat="45.19784" lon="5.59193">
        <ele>1635.660304</ele>
        <time>2022-07-24T08:04:51.055Z</time>
      </trkpt>
      <trkpt lat="45.19772" lon="5.59195">
        <ele>1636.171167</ele>
        <time>2022-07-24T08:04:59.221Z</time>
      </trkpt>
      <trkpt lat="45.19736" lon="5.59189">
        <ele>1637.835525</ele>
        <time>2022-07-24T08:05:21.465Z</time>
      </trkpt>
      <trkpt lat="45.19701" lon="5.59175">
        <ele>1639.557139</ele>
        <time>2022-07-24T08:05:43.107Z</time>
      </trkpt>
      <trkpt lat="45.19665" lon="5.59161">
        <ele>1641.34051</ele>
        <time>2022-07-24T08:06:05.257Z</time>
      </trkpt>
      <trkpt lat="45.1964" lon="5.59162">
        <ele>1642.536869</ele>
        <time>2022-07-24T08:06:19.171Z</time>
      </trkpt>
      <trkpt lat="45.19599" lon="5.59171">
        <ele>1644.525693</ele>
        <time>2022-07-24T08:06:41.311Z</time>
      </trkpt>
      <trkpt lat="45.1958" lon="5.59183">
        <ele>1645.256765</ele>
        <time>2022-07-24T08:06:52.057Z</time>
      </trkpt>
      <trkpt lat="45.19539" lon="5.59188">
        <ele>1644.95711</ele>
        <time>2022-07-24T08:07:09.945Z</time>
      </trkpt>
      <trkpt lat="45.19525" lon="5.59193">
        <ele>1644.85204</ele>
        <time>2022-07-24T08:07:14.905Z</time>
      </trkpt>
      <trkpt lat="45.19506" lon="5.59204">
        <ele>1644.70767</ele>
        <time>2022-07-24T08:07:20.888Z</time>
      </trkpt>
      <trkpt lat="45.19466" lon="5.59214">
        <ele>1644.412855</ele>
        <time>2022-07-24T08:07:31.793Z</time>
      </trkpt>
      <trkpt lat="45.19449" lon="5.59224">
        <ele>1644.277063</ele>
        <time>2022-07-24T08:07:36.612Z</time>
      </trkpt>
      <trkpt lat="45.19429" lon="5.59242">
        <ele>1644.104963</ele>
        <time>2022-07-24T08:07:42.564Z</time>
      </trkpt>
      <trkpt lat="45.19397" lon="5.59244">
        <ele>1644.004178</ele>
        <time>2022-07-24T08:07:50.607Z</time>
      </trkpt>
      <trkpt lat="45.19389" lon="5.5925">
        <ele>1644.014327</ele>
        <time>2022-07-24T08:07:52.881Z</time>
      </trkpt>
      <trkpt lat="45.19335" lon="5.59239">
        <ele>1644.075787</ele>
        <time>2022-07-24T08:08:07.826Z</time>
      </trkpt>
      <trkpt lat="45.19297" lon="5.59227">
        <ele>1644.119223</ele>
        <time>2022-07-24T08:08:20.287Z</time>
      </trkpt>
      <trkpt lat="45.19274" lon="5.59224">
        <ele>1644.144792</ele>
        <time>2022-07-24T08:08:29.199Z</time>
      </trkpt>
      <trkpt lat="45.19251" lon="5.59217">
        <ele>1644.17176</ele>
        <time>2022-07-24T08:08:39.857Z</time>
      </trkpt>
      <trkpt lat="45.19219" lon="5.5921">
        <ele>1645.759726</ele>
        <time>2022-07-24T08:08:57.751Z</time>
      </trkpt>
      <trkpt lat="45.1919" lon="5.59199">
        <ele>1648.390795</ele>
        <time>2022-07-24T08:09:17.542Z</time>
      </trkpt>
      <trkpt lat="45.19147" lon="5.59188">
        <ele>1652.228053</ele>
        <time>2022-07-24T08:09:47.438Z</time>
      </trkpt>
      <trkpt lat="45.19124" lon="5.5918">
        <ele>1654.285897</ele>
        <time>2022-07-24T08:10:08.232Z</time>
      </trkpt>
      <trkpt lat="45.19108" lon="5.59169">
        <ele>1655.902433</ele>
        <time>2022-07-24T08:10:23.809Z</time>
      </trkpt>
      <trkpt lat="45.19087" lon="5.59166">
        <ele>1657.753235</ele>
        <time>2022-07-24T08:10:44.539Z</time>
      </trkpt>
      <trkpt lat="45.19057" lon="5.59148">
        <ele>1660.550938</ele>
        <time>2022-07-24T08:11:16.398Z</time>
      </trkpt>
      <trkpt lat="45.19013" lon="5.59136">
        <ele>1664.259951</ele>
        <time>2022-07-24T08:11:56.647Z</time>
      </trkpt>
      <trkpt lat="45.18928" lon="5.59136">
        <ele>1671.211906</ele>
        <time>2022-07-24T08:13:02.233Z</time>
      </trkpt>
      <trkpt lat="45.18902" lon="5.59142">
        <ele>1673.394011</ele>
        <time>2022-07-24T08:13:15.798Z</time>
      </trkpt>
      <trkpt lat="45.18872" lon="5.59141">
        <ele>1674.567745</ele>
        <time>2022-07-24T08:13:29.599Z</time>
      </trkpt>
      <trkpt lat="45.18856" lon="5.59137">
        <ele>1674.312787</ele>
        <time>2022-07-24T08:13:36.698Z</time>
      </trkpt>
      <trkpt lat="45.18814" lon="5.59151">
        <ele>1673.600713</ele>
        <time>2022-07-24T08:13:50.379Z</time>
      </trkpt>
      <trkpt lat="45.18792" lon="5.59181">
        <ele>1673.116434</ele>
        <time>2022-07-24T08:13:58.283Z</time>
      </trkpt>
      <trkpt lat="45.18779" lon="5.59192">
        <ele>1672.867342</ele>
        <time>2022-07-24T08:14:02.078Z</time>
      </trkpt>
      <trkpt lat="45.18759" lon="5.59193">
        <ele>1672.53841</ele>
        <time>2022-07-24T08:14:07.266Z</time>
      </trkpt>
      <trkpt lat="45.1875" lon="5.59197">
        <ele>1672.38236</ele>
        <time>2022-07-24T08:14:09.614Z</time>
      </trkpt>
      <trkpt lat="45.18684" lon="5.59266">
        <ele>1669.987602</ele>
        <time>2022-07-24T08:14:28.871Z</time>
      </trkpt>
      <trkpt lat="45.18664" lon="5.5926">
        <ele>1669.217203</ele>
        <time>2022-07-24T08:14:33.712Z</time>
      </trkpt>
      <trkpt lat="45.18646" lon="5.59246">
        <ele>1668.430313</ele>
        <time>2022-07-24T08:14:38.689Z</time>
      </trkpt>
      <trkpt lat="45.18637" lon="5.59236">
        <ele>1667.990654</ele>
        <time>2022-07-24T08:14:41.597Z</time>
      </trkpt>
      <trkpt lat="45.18609" lon="5.59187">
        <ele>1666.278363</ele>
        <time>2022-07-24T08:14:53.314Z</time>
      </trkpt>
      <trkpt lat="45.18594" lon="5.5917">
        <ele>1665.553017</ele>
        <time>2022-07-24T08:14:58.458Z</time>
      </trkpt>
      <trkpt lat="45.18579" lon="5.59165">
        <ele>1664.977711</ele>
        <time>2022-07-24T08:15:02.765Z</time>
      </trkpt>
      <trkpt lat="45.18573" lon="5.59156">
        <ele>1664.784576</ele>
        <time>2022-07-24T08:15:05.173Z</time>
      </trkpt>
      <trkpt lat="45.18567" lon="5.59145">
        <ele>1664.552195</ele>
        <time>2022-07-24T08:15:08.181Z</time>
      </trkpt>
      <trkpt lat="45.18568" lon="5.59126">
        <ele>1664.251197</ele>
        <time>2022-07-24T08:15:12.094Z</time>
      </trkpt>
      <trkpt lat="45.18563" lon="5.59117">
        <ele>1664.078259</ele>
        <time>2022-07-24T08:15:14.312Z</time>
      </trkpt>
      <trkpt lat="45.18541" lon="5.59101">
        <ele>1663.526597</ele>
        <time>2022-07-24T08:15:21.458Z</time>
      </trkpt>
      <trkpt lat="45.18523" lon="5.59072">
        <ele>1662.902501</ele>
        <time>2022-07-24T08:15:29.001Z</time>
      </trkpt>
      <trkpt lat="45.18504" lon="5.59049">
        <ele>1662.347084</ele>
        <time>2022-07-24T08:15:35.677Z</time>
      </trkpt>
      <trkpt lat="45.18495" lon="5.59046">
        <ele>1662.156146</ele>
        <time>2022-07-24T08:15:37.943Z</time>
      </trkpt>
      <trkpt lat="45.1849" lon="5.5904">
        <ele>1662.000828</ele>
        <time>2022-07-24T08:15:39.837Z</time>
      </trkpt>
      <trkpt lat="45.18481" lon="5.59025">
        <ele>1661.684487</ele>
        <time>2022-07-24T08:15:43.634Z</time>
      </trkpt>
      <trkpt lat="45.18478" lon="5.58998">
        <ele>1661.263607</ele>
        <time>2022-07-24T08:15:48.673Z</time>
      </trkpt>
      <trkpt lat="45.18464" lon="5.58976">
        <ele>1660.486059</ele>
        <time>2022-07-24T08:15:54.396Z</time>
      </trkpt>
      <trkpt lat="45.18432" lon="5.58945">
        <ele>1658.202555</ele>
        <time>2022-07-24T08:16:04.363Z</time>
      </trkpt>
      <trkpt lat="45.18426" lon="5.58932">
        <ele>1657.556772</ele>
        <time>2022-07-24T08:16:06.821Z</time>
      </trkpt>
      <trkpt lat="45.18402" lon="5.58915">
        <ele>1655.941059</ele>
        <time>2022-07-24T08:16:12.918Z</time>
      </trkpt>
      <trkpt lat="45.18381" lon="5.58888">
        <ele>1654.258916</ele>
        <time>2022-07-24T08:16:19.216Z</time>
      </trkpt>
      <trkpt lat="45.1836" lon="5.5885">
        <ele>1652.2354</ele>
        <time>2022-07-24T08:16:26.855Z</time>
      </trkpt>
      <trkpt lat="45.18341" lon="5.58833">
        <ele>1650.899894</ele>
        <time>2022-07-24T08:16:31.989Z</time>
      </trkpt>
      <trkpt lat="45.18331" lon="5.58818">
        <ele>1650.045465</ele>
        <time>2022-07-24T08:16:35.395Z</time>
      </trkpt>
      <trkpt lat="45.18319" lon="5.58806">
        <ele>1649.285655</ele>
        <time>2022-07-24T08:16:38.965Z</time>
      </trkpt>
      <trkpt lat="45.18303" lon="5.58805">
        <ele>1648.492715</ele>
        <time>2022-07-24T08:16:42.333Z</time>
      </trkpt>
      <trkpt lat="45.18262" lon="5.58789">
        <ele>1646.323928</ele>
        <time>2022-07-24T08:16:52.509Z</time>
      </trkpt>
      <trkpt lat="45.18244" lon="5.58763">
        <ele>1645.025326</ele>
        <time>2022-07-24T08:16:58.429Z</time>
      </trkpt>
      <trkpt lat="45.18199" lon="5.58742">
        <ele>1642.60482</ele>
        <time>2022-07-24T08:17:09.988Z</time>
      </trkpt>
      <trkpt lat="45.18177" lon="5.5872">
        <ele>1641.230076</ele>
        <time>2022-07-24T08:17:16.339Z</time>
      </trkpt>
      <trkpt lat="45.18161" lon="5.58715">
        <ele>1641.365796</ele>
        <time>2022-07-24T08:17:21.487Z</time>
      </trkpt>
      <trkpt lat="45.18138" lon="5.58698">
        <ele>1641.855586</ele>
        <time>2022-07-24T08:17:30.755Z</time>
      </trkpt>
      <trkpt lat="45.18107" lon="5.58682">
        <ele>1642.495649</ele>
        <time>2022-07-24T08:17:43.834Z</time>
      </trkpt>
      <trkpt lat="45.18079" lon="5.58656">
        <ele>1643.13381</ele>
        <time>2022-07-24T08:18:00.450Z</time>
      </trkpt>
      <trkpt lat="45.1798" lon="5.58591">
        <ele>1645.761402</ele>
        <time>2022-07-24T08:18:56.216Z</time>
      </trkpt>
      <trkpt lat="45.1794" lon="5.58586">
        <ele>1647.142657</ele>
        <time>2022-07-24T08:19:16.531Z</time>
      </trkpt>
      <trkpt lat="45.17892" lon="5.58572">
        <ele>1648.850419</ele>
        <time>2022-07-24T08:19:40.574Z</time>
      </trkpt>
      <trkpt lat="45.17871" lon="5.58571">
        <ele>1649.592321</ele>
        <time>2022-07-24T08:19:50.793Z</time>
      </trkpt>
      <trkpt lat="45.17865" lon="5.58575">
        <ele>1649.821075</ele>
        <time>2022-07-24T08:19:54.101Z</time>
      </trkpt>
      <trkpt lat="45.17848" lon="5.58605">
        <ele>1650.773393</ele>
        <time>2022-07-24T08:20:07.039Z</time>
      </trkpt>
      <trkpt lat="45.17808" lon="5.5862">
        <ele>1651.346405</ele>
        <time>2022-07-24T08:20:26.868Z</time>
      </trkpt>
      <trkpt lat="45.1779" lon="5.5863">
        <ele>1651.610678</ele>
        <time>2022-07-24T08:20:34.190Z</time>
      </trkpt>
      <trkpt lat="45.1778" lon="5.58638">
        <ele>1651.764072</ele>
        <time>2022-07-24T08:20:38.393Z</time>
      </trkpt>
      <trkpt lat="45.17739" lon="5.5864">
        <ele>1652.327793</ele>
        <time>2022-07-24T08:20:53.919Z</time>
      </trkpt>
      <trkpt lat="45.17692" lon="5.58657">
        <ele>1652.98851</ele>
        <time>2022-07-24T08:21:11.201Z</time>
      </trkpt>
      <trkpt lat="45.17676" lon="5.58646">
        <ele>1653.225364</ele>
        <time>2022-07-24T08:21:16.910Z</time>
      </trkpt>
      <trkpt lat="45.17663" lon="5.58644">
        <ele>1652.983159</ele>
        <time>2022-07-24T08:21:21.153Z</time>
      </trkpt>
      <trkpt lat="45.17626" lon="5.58627">
        <ele>1652.0795</ele>
        <time>2022-07-24T08:21:32.991Z</time>
      </trkpt>
      <trkpt lat="45.1761" lon="5.58616">
        <ele>1651.682011</ele>
        <time>2022-07-24T08:21:37.953Z</time>
      </trkpt>
      <trkpt lat="45.17588" lon="5.58594">
        <ele>1651.068004</ele>
        <time>2022-07-24T08:21:45.212Z</time>
      </trkpt>
      <trkpt lat="45.1755" lon="5.58579">
        <ele>1650.146823</ele>
        <time>2022-07-24T08:21:55.591Z</time>
      </trkpt>
      <trkpt lat="45.17535" lon="5.58576">
        <ele>1649.804978</ele>
        <time>2022-07-24T08:21:59.291Z</time>
      </trkpt>
      <trkpt lat="45.17508" lon="5.58547">
        <ele>1648.899265</ele>
        <time>2022-07-24T08:22:07.526Z</time>
      </trkpt>
      <trkpt lat="45.17503" lon="5.58545">
        <ele>1648.573224</ele>
        <time>2022-07-24T08:22:08.777Z</time>
      </trkpt>
      <trkpt lat="45.17472" lon="5.5855">
        <ele>1646.61019</ele>
        <time>2022-07-24T08:22:16.490Z</time>
      </trkpt>
      <trkpt lat="45.17447" lon="5.58542">
        <ele>1645.067842</ele>
        <time>2022-07-24T08:22:22.487Z</time>
      </trkpt>
      <trkpt lat="45.17418" lon="5.5852">
        <ele>1643.057441</ele>
        <time>2022-07-24T08:22:30.338Z</time>
      </trkpt>
      <trkpt lat="45.1741" lon="5.58507">
        <ele>1642.308484</ele>
        <time>2022-07-24T08:22:33.260Z</time>
      </trkpt>
      <trkpt lat="45.17397" lon="5.58503">
        <ele>1641.501469</ele>
        <time>2022-07-24T08:22:36.182Z</time>
      </trkpt>
      <trkpt lat="45.17374" lon="5.58482">
        <ele>1639.774188</ele>
        <time>2022-07-24T08:22:42.448Z</time>
      </trkpt>
      <trkpt lat="45.17364" lon="5.58469">
        <ele>1638.975838</ele>
        <time>2022-07-24T08:22:45.369Z</time>
      </trkpt>
      <trkpt lat="45.1735" lon="5.58466">
        <ele>1638.089738</ele>
        <time>2022-07-24T08:22:48.644Z</time>
      </trkpt>
      <trkpt lat="45.1734" lon="5.58457">
        <ele>1637.43811</ele>
        <time>2022-07-24T08:22:51.150Z</time>
      </trkpt>
      <trkpt lat="45.17337" lon="5.58448">
        <ele>1637.029746</ele>
        <time>2022-07-24T08:22:52.749Z</time>
      </trkpt>
      <trkpt lat="45.17321" lon="5.58441">
        <ele>1636.088748</ele>
        <time>2022-07-24T08:22:56.516Z</time>
      </trkpt>
      <trkpt lat="45.1731" lon="5.58421">
        <ele>1635.093234</ele>
        <time>2022-07-24T08:23:00.422Z</time>
      </trkpt>
      <trkpt lat="45.17296" lon="5.58403">
        <ele>1634.043207</ele>
        <time>2022-07-24T08:23:04.706Z</time>
      </trkpt>
      <trkpt lat="45.17285" lon="5.58393">
        <ele>1633.335071</ele>
        <time>2022-07-24T08:23:07.518Z</time>
      </trkpt>
      <trkpt lat="45.17257" lon="5.58396">
        <ele>1631.787935</ele>
        <time>2022-07-24T08:23:14.045Z</time>
      </trkpt>
      <trkpt lat="45.17227" lon="5.58384">
        <ele>1630.035114</ele>
        <time>2022-07-24T08:23:22.220Z</time>
      </trkpt>
      <trkpt lat="45.17202" lon="5.58387">
        <ele>1628.657884</ele>
        <time>2022-07-24T08:23:28.804Z</time>
      </trkpt>
      <trkpt lat="45.17188" lon="5.58395">
        <ele>1628.116639</ele>
        <time>2022-07-24T08:23:33.122Z</time>
      </trkpt>
      <trkpt lat="45.17184" lon="5.58393">
        <ele>1628.162881</ele>
        <time>2022-07-24T08:23:34.456Z</time>
      </trkpt>
      <trkpt lat="45.17167" lon="5.58395">
        <ele>1628.340338</ele>
        <time>2022-07-24T08:23:39.350Z</time>
      </trkpt>
      <trkpt lat="45.17145" lon="5.58381">
        <ele>1628.603744</ele>
        <time>2022-07-24T08:23:46.591Z</time>
      </trkpt>
      <trkpt lat="45.17131" lon="5.58379">
        <ele>1628.747705</ele>
        <time>2022-07-24T08:23:51.160Z</time>
      </trkpt>
      <trkpt lat="45.17104" lon="5.58367">
        <ele>1629.046118</ele>
        <time>2022-07-24T08:24:01.478Z</time>
      </trkpt>
      <trkpt lat="45.17097" lon="5.58365">
        <ele>1629.121891</ele>
        <time>2022-07-24T08:24:05.095Z</time>
      </trkpt>
      <trkpt lat="45.17041" lon="5.58348">
        <ele>1629.738331</ele>
        <time>2022-07-24T08:24:30.505Z</time>
      </trkpt>
      <trkpt lat="45.16999" lon="5.58357">
        <ele>1630.031868</ele>
        <time>2022-07-24T08:24:51.546Z</time>
      </trkpt>
      <trkpt lat="45.16985" lon="5.5837">
        <ele>1630.075491</ele>
        <time>2022-07-24T08:25:00.861Z</time>
      </trkpt>
      <trkpt lat="45.16975" lon="5.58376">
        <ele>1630.103811</ele>
        <time>2022-07-24T08:25:05.722Z</time>
      </trkpt>
      <trkpt lat="45.1691" lon="5.58361">
        <ele>1630.271623</ele>
        <time>2022-07-24T08:25:28.867Z</time>
      </trkpt>
      <trkpt lat="45.16829" lon="5.58333">
        <ele>1630.222032</ele>
        <time>2022-07-24T08:25:51.132Z</time>
      </trkpt>
      <trkpt lat="45.16808" lon="5.58338">
        <ele>1629.92984</ele>
        <time>2022-07-24T08:25:56.613Z</time>
      </trkpt>
      <trkpt lat="45.16798" lon="5.58337">
        <ele>1629.784338</ele>
        <time>2022-07-24T08:25:59.447Z</time>
      </trkpt>
      <trkpt lat="45.1676" lon="5.58319">
        <ele>1629.23907</ele>
        <time>2022-07-24T08:26:10.396Z</time>
      </trkpt>
      <trkpt lat="45.16685" lon="5.58307">
        <ele>1628.201258</ele>
        <time>2022-07-24T08:26:32.844Z</time>
      </trkpt>
      <trkpt lat="45.16651" lon="5.58295">
        <ele>1628.129219</ele>
        <time>2022-07-24T08:26:43.989Z</time>
      </trkpt>
      <trkpt lat="45.16631" lon="5.58295">
        <ele>1628.294665</ele>
        <time>2022-07-24T08:26:50.493Z</time>
      </trkpt>
      <trkpt lat="45.16619" lon="5.58286">
        <ele>1628.405432</ele>
        <time>2022-07-24T08:26:54.950Z</time>
      </trkpt>
      <trkpt lat="45.16577" lon="5.58275">
        <ele>1628.76324</ele>
        <time>2022-07-24T08:27:10.359Z</time>
      </trkpt>
      <trkpt lat="45.1654" lon="5.58259">
        <ele>1629.086006</ele>
        <time>2022-07-24T08:27:24.783Z</time>
      </trkpt>
      <trkpt lat="45.16494" lon="5.58244">
        <ele>1629.491131</ele>
        <time>2022-07-24T08:27:42.530Z</time>
      </trkpt>
      <trkpt lat="45.16461" lon="5.58224">
        <ele>1631.017796</ele>
        <time>2022-07-24T08:27:57.239Z</time>
      </trkpt>
      <trkpt lat="45.16446" lon="5.58212">
        <ele>1631.73851</ele>
        <time>2022-07-24T08:28:04.537Z</time>
      </trkpt>
      <trkpt lat="45.16404" lon="5.58157">
        <ele>1634.132383</ele>
        <time>2022-07-24T08:28:36.566Z</time>
      </trkpt>
      <trkpt lat="45.1639" lon="5.58143">
        <ele>1634.859224</ele>
        <time>2022-07-24T08:28:47.282Z</time>
      </trkpt>
      <trkpt lat="45.16382" lon="5.58117">
        <ele>1635.680948</ele>
        <time>2022-07-24T08:28:58.930Z</time>
      </trkpt>
      <trkpt lat="45.16373" lon="5.58103">
        <ele>1636.240251</ele>
        <time>2022-07-24T08:29:07.436Z</time>
      </trkpt>
      <trkpt lat="45.16355" lon="5.58088">
        <ele>1637.138431</ele>
        <time>2022-07-24T08:29:19.678Z</time>
      </trkpt>
      <trkpt lat="45.1634" lon="5.5808">
        <ele>1637.950446</ele>
        <time>2022-07-24T08:29:29.806Z</time>
      </trkpt>
      <trkpt lat="45.16331" lon="5.58079">
        <ele>1638.446194</ele>
        <time>2022-07-24T08:29:34.811Z</time>
      </trkpt>
      <trkpt lat="45.16306" lon="5.58066">
        <ele>1639.807268</ele>
        <time>2022-07-24T08:29:52.143Z</time>
      </trkpt>
      <trkpt lat="45.16254" lon="5.58062">
        <ele>1642.453734</ele>
        <time>2022-07-24T08:30:22.747Z</time>
      </trkpt>
      <trkpt lat="45.16202" lon="5.58053">
        <ele>1645.097514</ele>
        <time>2022-07-24T08:30:53.701Z</time>
      </trkpt>
      <trkpt lat="45.1618" lon="5.5804">
        <ele>1646.201864</ele>
        <time>2022-07-24T08:31:06.225Z</time>
      </trkpt>
      <trkpt lat="45.16173" lon="5.58031">
        <ele>1646.23538</ele>
        <time>2022-07-24T08:31:11.364Z</time>
      </trkpt>
      <trkpt lat="45.16163" lon="5.58028">
        <ele>1646.270808</ele>
        <time>2022-07-24T08:31:16.166Z</time>
      </trkpt>
      <trkpt lat="45.16125" lon="5.58036">
        <ele>1646.410087</ele>
        <time>2022-07-24T08:31:29.933Z</time>
      </trkpt>
      <trkpt lat="45.16098" lon="5.58046">
        <ele>1646.507025</ele>
        <time>2022-07-24T08:31:38.399Z</time>
      </trkpt>
      <trkpt lat="45.16079" lon="5.58037">
        <ele>1646.579613</ele>
        <time>2022-07-24T08:31:44.481Z</time>
      </trkpt>
      <trkpt lat="45.16042" lon="5.5803">
        <ele>1646.710217</ele>
        <time>2022-07-24T08:31:55.261Z</time>
      </trkpt>
      <trkpt lat="45.16023" lon="5.58023">
        <ele>1646.78109</ele>
        <time>2022-07-24T08:32:01.026Z</time>
      </trkpt>
      <trkpt lat="45.16006" lon="5.58021">
        <ele>1646.751724</ele>
        <time>2022-07-24T08:32:05.960Z</time>
      </trkpt>
      <trkpt lat="45.15962" lon="5.57998">
        <ele>1645.444479</ele>
        <time>2022-07-24T08:32:19.247Z</time>
      </trkpt>
      <trkpt lat="45.15953" lon="5.5799">
        <ele>1645.145415</ele>
        <time>2022-07-24T08:32:22.188Z</time>
      </trkpt>
      <trkpt lat="45.15931" lon="5.57981">
        <ele>1644.506854</ele>
        <time>2022-07-24T08:32:27.883Z</time>
      </trkpt>
      <trkpt lat="45.15925" lon="5.57976">
        <ele>1644.316859</ele>
        <time>2022-07-24T08:32:29.670Z</time>
      </trkpt>
      <trkpt lat="45.1592" lon="5.57963">
        <ele>1644.029112</ele>
        <time>2022-07-24T08:32:32.389Z</time>
      </trkpt>
      <trkpt lat="45.15904" lon="5.57942">
        <ele>1643.416129</ele>
        <time>2022-07-24T08:32:37.816Z</time>
      </trkpt>
      <trkpt lat="45.1587" lon="5.57912">
        <ele>1642.286031</ele>
        <time>2022-07-24T08:32:48.272Z</time>
      </trkpt>
      <trkpt lat="45.15854" lon="5.57907">
        <ele>1641.830245</ele>
        <time>2022-07-24T08:32:52.469Z</time>
      </trkpt>
      <trkpt lat="45.15835" lon="5.57893">
        <ele>1640.778214</ele>
        <time>2022-07-24T08:32:57.915Z</time>
      </trkpt>
      <trkpt lat="45.15825" lon="5.57891">
        <ele>1640.274582</ele>
        <time>2022-07-24T08:33:00.479Z</time>
      </trkpt>
      <trkpt lat="45.15806" lon="5.57886">
        <ele>1639.305402</ele>
        <time>2022-07-24T08:33:05.226Z</time>
      </trkpt>
      <trkpt lat="45.15753" lon="5.5786">
        <ele>1636.474514</ele>
        <time>2022-07-24T08:33:19.406Z</time>
      </trkpt>
      <trkpt lat="45.15736" lon="5.57857">
        <ele>1635.636665</ele>
        <time>2022-07-24T08:33:23.051Z</time>
      </trkpt>
      <trkpt lat="45.15626" lon="5.5787">
        <ele>1629.652423</ele>
        <time>2022-07-24T08:33:48.574Z</time>
      </trkpt>
      <trkpt lat="45.15611" lon="5.57876">
        <ele>1628.728914</ele>
        <time>2022-07-24T08:33:52.657Z</time>
      </trkpt>
      <trkpt lat="45.156" lon="5.57876">
        <ele>1628.075175</ele>
        <time>2022-07-24T08:33:55.048Z</time>
      </trkpt>
      <trkpt lat="45.15567" lon="5.57859">
        <ele>1626.008358</ele>
        <time>2022-07-24T08:34:03.538Z</time>
      </trkpt>
      <trkpt lat="45.1551" lon="5.57802">
        <ele>1621.812138</ele>
        <time>2022-07-24T08:34:20.146Z</time>
      </trkpt>
      <trkpt lat="45.15496" lon="5.5779">
        <ele>1620.69422</ele>
        <time>2022-07-24T08:34:23.847Z</time>
      </trkpt>
      <trkpt lat="45.15475" lon="5.57778">
        <ele>1619.048891</ele>
        <time>2022-07-24T08:34:28.927Z</time>
      </trkpt>
      <trkpt lat="45.15447" lon="5.57778">
        <ele>1617.055312</ele>
        <time>2022-07-24T08:34:35.594Z</time>
      </trkpt>
      <trkpt lat="45.15405" lon="5.57789">
        <ele>1613.994555</ele>
        <time>2022-07-24T08:34:45.439Z</time>
      </trkpt>
      <trkpt lat="45.15361" lon="5.57785">
        <ele>1610.776091</ele>
        <time>2022-07-24T08:34:55.473Z</time>
      </trkpt>
      <trkpt lat="45.15301" lon="5.57756">
        <ele>1604.855549</ele>
        <time>2022-07-24T08:35:09.147Z</time>
      </trkpt>
      <trkpt lat="45.15262" lon="5.5775">
        <ele>1600.847164</ele>
        <time>2022-07-24T08:35:17.295Z</time>
      </trkpt>
      <trkpt lat="45.15187" lon="5.57719">
        <ele>1592.701601</ele>
        <time>2022-07-24T08:35:33.825Z</time>
      </trkpt>
      <trkpt lat="45.15162" lon="5.57701">
        <ele>1589.770159</ele>
        <time>2022-07-24T08:35:39.890Z</time>
      </trkpt>
      <trkpt lat="45.15116" lon="5.57677">
        <ele>1584.919864</ele>
        <time>2022-07-24T08:35:50.431Z</time>
      </trkpt>
      <trkpt lat="45.15083" lon="5.57675">
        <ele>1581.683483</ele>
        <time>2022-07-24T08:35:57.351Z</time>
      </trkpt>
      <trkpt lat="45.15059" lon="5.57681">
        <ele>1579.291376</ele>
        <time>2022-07-24T08:36:02.520Z</time>
      </trkpt>
      <trkpt lat="45.15045" lon="5.57689">
        <ele>1577.806561</ele>
        <time>2022-07-24T08:36:05.707Z</time>
      </trkpt>
      <trkpt lat="45.15022" lon="5.57681">
        <ele>1575.447187</ele>
        <time>2022-07-24T08:36:10.819Z</time>
      </trkpt>
      <trkpt lat="45.14993" lon="5.57686">
        <ele>1572.584246</ele>
        <time>2022-07-24T08:36:17.325Z</time>
      </trkpt>
      <trkpt lat="45.14971" lon="5.57685">
        <ele>1570.950189</ele>
        <time>2022-07-24T08:36:22.240Z</time>
      </trkpt>
      <trkpt lat="45.14943" lon="5.57664">
        <ele>1568.61002</ele>
        <time>2022-07-24T08:36:29.360Z</time>
      </trkpt>
      <trkpt lat="45.14909" lon="5.57655">
        <ele>1566.055848</ele>
        <time>2022-07-24T08:36:37.319Z</time>
      </trkpt>
      <trkpt lat="45.14884" lon="5.57645">
        <ele>1564.164632</ele>
        <time>2022-07-24T08:36:43.182Z</time>
      </trkpt>
      <trkpt lat="45.14858" lon="5.5763">
        <ele>1562.098638</ele>
        <time>2022-07-24T08:36:49.560Z</time>
      </trkpt>
      <trkpt lat="45.14846" lon="5.57602">
        <ele>1560.405333</ele>
        <time>2022-07-24T08:36:54.696Z</time>
      </trkpt>
      <trkpt lat="45.14835" lon="5.57591">
        <ele>1559.426355</ele>
        <time>2022-07-24T08:36:57.644Z</time>
      </trkpt>
      <trkpt lat="45.14816" lon="5.57593">
        <ele>1558.160922</ele>
        <time>2022-07-24T08:37:01.990Z</time>
      </trkpt>
      <trkpt lat="45.14789" lon="5.57582">
        <ele>1556.341068</ele>
        <time>2022-07-24T08:37:08.707Z</time>
      </trkpt>
      <trkpt lat="45.14747" lon="5.57572">
        <ele>1553.599701</ele>
        <time>2022-07-24T08:37:18.819Z</time>
      </trkpt>
      <trkpt lat="45.14675" lon="5.5757">
        <ele>1548.979651</ele>
        <time>2022-07-24T08:37:35.557Z</time>
      </trkpt>
      <trkpt lat="45.14647" lon="5.57562">
        <ele>1546.780902</ele>
        <time>2022-07-24T08:37:42.163Z</time>
      </trkpt>
      <trkpt lat="45.14618" lon="5.57566">
        <ele>1544.144608</ele>
        <time>2022-07-24T08:37:48.569Z</time>
      </trkpt>
      <trkpt lat="45.14599" lon="5.57563">
        <ele>1542.409725</ele>
        <time>2022-07-24T08:37:52.765Z</time>
      </trkpt>
      <trkpt lat="45.14589" lon="5.57566">
        <ele>1541.477831</ele>
        <time>2022-07-24T08:37:55.019Z</time>
      </trkpt>
      <trkpt lat="45.14577" lon="5.57557">
        <ele>1540.185272</ele>
        <time>2022-07-24T08:37:58.101Z</time>
      </trkpt>
      <trkpt lat="45.14563" lon="5.57538">
        <ele>1538.470778</ele>
        <time>2022-07-24T08:38:02.186Z</time>
      </trkpt>
      <trkpt lat="45.14545" lon="5.57527">
        <ele>1536.664117</ele>
        <time>2022-07-24T08:38:06.524Z</time>
      </trkpt>
      <trkpt lat="45.14512" lon="5.57529">
        <ele>1533.623842</ele>
        <time>2022-07-24T08:38:13.731Z</time>
      </trkpt>
      <trkpt lat="45.14499" lon="5.57524">
        <ele>1532.375346</ele>
        <time>2022-07-24T08:38:16.626Z</time>
      </trkpt>
      <trkpt lat="45.14487" lon="5.57514">
        <ele>1530.954201</ele>
        <time>2022-07-24T08:38:19.541Z</time>
      </trkpt>
      <trkpt lat="45.14471" lon="5.57511">
        <ele>1528.554586</ele>
        <time>2022-07-24T08:38:22.927Z</time>
      </trkpt>
      <trkpt lat="45.14444" lon="5.57529">
        <ele>1524.088229</ele>
        <time>2022-07-24T08:38:29.039Z</time>
      </trkpt>
      <trkpt lat="45.14397" lon="5.57545">
        <ele>1516.94147</ele>
        <time>2022-07-24T08:38:38.713Z</time>
      </trkpt>
      <trkpt lat="45.14338" lon="5.57561">
        <ele>1508.082859</ele>
        <time>2022-07-24T08:38:50.841Z</time>
      </trkpt>
      <trkpt lat="45.14291" lon="5.57557">
        <ele>1501.277165</ele>
        <time>2022-07-24T08:39:00.252Z</time>
      </trkpt>
      <trkpt lat="45.14253" lon="5.57543">
        <ele>1495.666572</ele>
        <time>2022-07-24T08:39:08.266Z</time>
      </trkpt>
      <trkpt lat="45.14239" lon="5.57534">
        <ele>1493.446496</ele>
        <time>2022-07-24T08:39:11.494Z</time>
      </trkpt>
      <trkpt lat="45.14204" lon="5.575">
        <ele>1487.487863</ele>
        <time>2022-07-24T08:39:19.868Z</time>
      </trkpt>
      <trkpt lat="45.14163" lon="5.57491">
        <ele>1481.561841</ele>
        <time>2022-07-24T08:39:28.321Z</time>
      </trkpt>
      <trkpt lat="45.14104" lon="5.57473">
        <ele>1472.912032</ele>
        <time>2022-07-24T08:39:41.393Z</time>
      </trkpt>
      <trkpt lat="45.14079" lon="5.57466">
        <ele>1469.34373</ele>
        <time>2022-07-24T08:39:46.531Z</time>
      </trkpt>
      <trkpt lat="45.14074" lon="5.5746">
        <ele>1468.347716</ele>
        <time>2022-07-24T08:39:48.019Z</time>
      </trkpt>
      <trkpt lat="45.1404" lon="5.57457">
        <ele>1463.466634</ele>
        <time>2022-07-24T08:39:54.942Z</time>
      </trkpt>
      <trkpt lat="45.1403" lon="5.57449">
        <ele>1461.828013</ele>
        <time>2022-07-24T08:39:57.236Z</time>
      </trkpt>
      <trkpt lat="45.14026" lon="5.57437">
        <ele>1460.518688</ele>
        <time>2022-07-24T08:39:59.044Z</time>
      </trkpt>
      <trkpt lat="45.14013" lon="5.57433">
        <ele>1458.649441</ele>
        <time>2022-07-24T08:40:01.636Z</time>
      </trkpt>
      <trkpt lat="45.13994" lon="5.57436">
        <ele>1455.911372</ele>
        <time>2022-07-24T08:40:05.442Z</time>
      </trkpt>
      <trkpt lat="45.13964" lon="5.57428">
        <ele>1450.865186</ele>
        <time>2022-07-24T08:40:11.620Z</time>
      </trkpt>
      <trkpt lat="45.13945" lon="5.57435">
        <ele>1447.24928</ele>
        <time>2022-07-24T08:40:15.444Z</time>
      </trkpt>
      <trkpt lat="45.13932" lon="5.57429">
        <ele>1444.721761</ele>
        <time>2022-07-24T08:40:18.154Z</time>
      </trkpt>
      <trkpt lat="45.13913" lon="5.57432">
        <ele>1441.131208</ele>
        <time>2022-07-24T08:40:22.040Z</time>
      </trkpt>
      <trkpt lat="45.13876" lon="5.57412">
        <ele>1433.826368</ele>
        <time>2022-07-24T08:40:29.727Z</time>
      </trkpt>
      <trkpt lat="45.13861" lon="5.57407">
        <ele>1430.959876</ele>
        <time>2022-07-24T08:40:32.714Z</time>
      </trkpt>
      <trkpt lat="45.1384" lon="5.57407">
        <ele>1427.090507</ele>
        <time>2022-07-24T08:40:36.830Z</time>
      </trkpt>
      <trkpt lat="45.138" lon="5.5742">
        <ele>1419.504834</ele>
        <time>2022-07-24T08:40:45.020Z</time>
      </trkpt>
      <trkpt lat="45.1377" lon="5.57421">
        <ele>1415.618025</ele>
        <time>2022-07-24T08:40:50.996Z</time>
      </trkpt>
      <trkpt lat="45.13757" lon="5.57411">
        <ele>1413.757174</ele>
        <time>2022-07-24T08:40:53.819Z</time>
      </trkpt>
      <trkpt lat="45.13749" lon="5.57413">
        <ele>1412.691869</ele>
        <time>2022-07-24T08:40:55.511Z</time>
      </trkpt>
      <trkpt lat="45.13724" lon="5.57413">
        <ele>1409.365584</ele>
        <time>2022-07-24T08:41:00.761Z</time>
      </trkpt>
      <trkpt lat="45.13619" lon="5.57351">
        <ele>1395.691596</ele>
        <time>2022-07-24T08:41:24.843Z</time>
      </trkpt>
      <trkpt lat="45.13561" lon="5.57333">
        <ele>1392.138291</ele>
        <time>2022-07-24T08:41:39.120Z</time>
      </trkpt>
      <trkpt lat="45.13537" lon="5.57313">
        <ele>1390.484422</ele>
        <time>2022-07-24T08:41:45.858Z</time>
      </trkpt>
      <trkpt lat="45.13487" lon="5.57291">
        <ele>1387.379415</ele>
        <time>2022-07-24T08:41:58.322Z</time>
      </trkpt>
      <trkpt lat="45.13414" lon="5.57265">
        <ele>1383.787054</ele>
        <time>2022-07-24T08:42:16.485Z</time>
      </trkpt>
      <trkpt lat="45.13334" lon="5.57205">
        <ele>1379.979513</ele>
        <time>2022-07-24T08:42:39.264Z</time>
      </trkpt>
      <trkpt lat="45.13276" lon="5.5715">
        <ele>1376.304916</ele>
        <time>2022-07-24T08:42:57.192Z</time>
      </trkpt>
      <trkpt lat="45.13247" lon="5.57115">
        <ele>1373.778941</ele>
        <time>2022-07-24T08:43:05.982Z</time>
      </trkpt>
      <trkpt lat="45.13199" lon="5.57085">
        <ele>1370.281651</ele>
        <time>2022-07-24T08:43:18.236Z</time>
      </trkpt>
      <trkpt lat="45.13164" lon="5.57076">
        <ele>1367.940902</ele>
        <time>2022-07-24T08:43:26.152Z</time>
      </trkpt>
      <trkpt lat="45.13142" lon="5.57065">
        <ele>1366.346351</ele>
        <time>2022-07-24T08:43:31.243Z</time>
      </trkpt>
      <trkpt lat="45.13115" lon="5.5705">
        <ele>1362.70842</ele>
        <time>2022-07-24T08:43:37.428Z</time>
      </trkpt>
      <trkpt lat="45.13095" lon="5.57044">
        <ele>1360.195952</ele>
        <time>2022-07-24T08:43:41.835Z</time>
      </trkpt>
      <trkpt lat="45.13073" lon="5.57042">
        <ele>1357.311421</ele>
        <time>2022-07-24T08:43:46.596Z</time>
      </trkpt>
      <trkpt lat="45.13051" lon="5.57034">
        <ele>1354.50771</ele>
        <time>2022-07-24T08:43:51.234Z</time>
      </trkpt>
      <trkpt lat="45.12984" lon="5.56993">
        <ele>1345.187425</ele>
        <time>2022-07-24T08:44:06.108Z</time>
      </trkpt>
      <trkpt lat="45.12951" lon="5.56969">
        <ele>1339.851138</ele>
        <time>2022-07-24T08:44:13.427Z</time>
      </trkpt>
      <trkpt lat="45.12883" lon="5.56959">
        <ele>1329.018332</ele>
        <time>2022-07-24T08:44:27.123Z</time>
      </trkpt>
      <trkpt lat="45.12783" lon="5.5693">
        <ele>1313.60759</ele>
        <time>2022-07-24T08:44:47.606Z</time>
      </trkpt>
      <trkpt lat="45.12756" lon="5.56931">
        <ele>1310.526513</ele>
        <time>2022-07-24T08:44:53.124Z</time>
      </trkpt>
      <trkpt lat="45.12716" lon="5.56942">
        <ele>1306.076994</ele>
        <time>2022-07-24T08:45:01.430Z</time>
      </trkpt>
      <trkpt lat="45.12715" lon="5.56935">
        <ele>1305.549927</ele>
        <time>2022-07-24T08:45:06.563Z</time>
      </trkpt>
      <trkpt lat="45.12736" lon="5.56873">
        <ele>1300.121743</ele>
        <time>2022-07-24T08:45:17.109Z</time>
      </trkpt>
      <trkpt lat="45.12735" lon="5.56868">
        <ele>1299.744151</ele>
        <time>2022-07-24T08:45:17.821Z</time>
      </trkpt>
      <trkpt lat="45.12727" lon="5.56864">
        <ele>1298.779936</ele>
        <time>2022-07-24T08:45:19.630Z</time>
      </trkpt>
      <trkpt lat="45.12725" lon="5.56859">
        <ele>1298.28055</ele>
        <time>2022-07-24T08:45:20.541Z</time>
      </trkpt>
      <trkpt lat="45.12727" lon="5.5685">
        <ele>1297.537245</ele>
        <time>2022-07-24T08:45:25.193Z</time>
      </trkpt>
      <trkpt lat="45.12736" lon="5.56833">
        <ele>1295.894353</ele>
        <time>2022-07-24T08:45:28.388Z</time>
      </trkpt>
      <trkpt lat="45.12735" lon="5.56822">
        <ele>1295.012674</ele>
        <time>2022-07-24T08:45:29.958Z</time>
      </trkpt>
      <trkpt lat="45.12685" lon="5.56811">
        <ele>1288.077232</ele>
        <time>2022-07-24T08:45:41.199Z</time>
      </trkpt>
      <trkpt lat="45.12644" lon="5.56801">
        <ele>1282.368651</ele>
        <time>2022-07-24T08:45:49.641Z</time>
      </trkpt>
      <trkpt lat="45.12626" lon="5.56786">
        <ele>1279.526413</ele>
        <time>2022-07-24T08:45:53.715Z</time>
      </trkpt>
      <trkpt lat="45.12611" lon="5.5678">
        <ele>1277.322579</ele>
        <time>2022-07-24T08:45:57.000Z</time>
      </trkpt>
      <trkpt lat="45.12573" lon="5.56786">
        <ele>1271.9977</ele>
        <time>2022-07-24T08:46:04.780Z</time>
      </trkpt>
      <trkpt lat="45.12533" lon="5.56798">
        <ele>1263.881207</ele>
        <time>2022-07-24T08:46:12.861Z</time>
      </trkpt>
      <trkpt lat="45.1252" lon="5.56795">
        <ele>1260.896835</ele>
        <time>2022-07-24T08:46:15.412Z</time>
      </trkpt>
      <trkpt lat="45.12493" lon="5.56779">
        <ele>1254.240168</ele>
        <time>2022-07-24T08:46:21.120Z</time>
      </trkpt>
      <trkpt lat="45.12461" lon="5.56775">
        <ele>1246.861324</ele>
        <time>2022-07-24T08:46:27.462Z</time>
      </trkpt>
      <trkpt lat="45.12441" lon="5.56777">
        <ele>1242.42926</ele>
        <time>2022-07-24T08:46:31.243Z</time>
      </trkpt>
      <trkpt lat="45.12387" lon="5.56809">
        <ele>1229.154169</ele>
        <time>2022-07-24T08:46:42.650Z</time>
      </trkpt>
      <trkpt lat="45.12379" lon="5.56832">
        <ele>1225.395189</ele>
        <time>2022-07-24T08:46:46.108Z</time>
      </trkpt>
      <trkpt lat="45.12371" lon="5.56836">
        <ele>1223.568782</ele>
        <time>2022-07-24T08:46:47.803Z</time>
      </trkpt>
      <trkpt lat="45.12354" lon="5.56834">
        <ele>1220.003266</ele>
        <time>2022-07-24T08:46:51.214Z</time>
      </trkpt>
      <trkpt lat="45.12338" lon="5.56839">
        <ele>1216.566922</ele>
        <time>2022-07-24T08:46:54.403Z</time>
      </trkpt>
      <trkpt lat="45.12317" lon="5.5684">
        <ele>1212.033778</ele>
        <time>2022-07-24T08:46:58.684Z</time>
      </trkpt>
      <trkpt lat="45.12308" lon="5.56835">
        <ele>1209.947301</ele>
        <time>2022-07-24T08:47:00.646Z</time>
      </trkpt>
      <trkpt lat="45.12299" lon="5.56824">
        <ele>1207.427151</ele>
        <time>2022-07-24T08:47:02.974Z</time>
      </trkpt>
      <trkpt lat="45.1229" lon="5.5682">
        <ele>1205.440797</ele>
        <time>2022-07-24T08:47:04.894Z</time>
      </trkpt>
      <trkpt lat="45.12283" lon="5.56826">
        <ele>1203.822212</ele>
        <time>2022-07-24T08:47:06.459Z</time>
      </trkpt>
      <trkpt lat="45.12282" lon="5.5684">
        <ele>1201.682772</ele>
        <time>2022-07-24T08:47:08.435Z</time>
      </trkpt>
      <trkpt lat="45.12276" lon="5.56846">
        <ele>1200.194632</ele>
        <time>2022-07-24T08:47:09.793Z</time>
      </trkpt>
      <trkpt lat="45.12227" lon="5.56848">
        <ele>1189.807884</ele>
        <time>2022-07-24T08:47:19.429Z</time>
      </trkpt>
      <trkpt lat="45.12195" lon="5.56843">
        <ele>1183.481653</ele>
        <time>2022-07-24T08:47:25.994Z</time>
      </trkpt>
      <trkpt lat="45.12195" lon="5.56843">
        <ele>1183.481653</ele>
        <time>2022-07-24T08:47:26.016Z</time>
      </trkpt>
      <trkpt lat="45.12182" lon="5.56854">
        <ele>1180.649972</ele>
        <time>2022-07-24T08:47:28.828Z</time>
      </trkpt>
      <trkpt lat="45.12169" lon="5.56849">
        <ele>1177.841041</ele>
        <time>2022-07-24T08:47:32.049Z</time>
      </trkpt>
      <trkpt lat="45.1216" lon="5.56853">
        <ele>1175.973088</ele>
        <time>2022-07-24T08:47:34.089Z</time>
      </trkpt>
      <trkpt lat="45.12157" lon="5.56861">
        <ele>1174.782327</ele>
        <time>2022-07-24T08:47:35.328Z</time>
      </trkpt>
      <trkpt lat="45.12156" lon="5.56866">
        <ele>1174.030146</ele>
        <time>2022-07-24T08:47:36.097Z</time>
      </trkpt>
      <trkpt lat="45.12118" lon="5.56867">
        <ele>1166.690523</ele>
        <time>2022-07-24T08:47:43.514Z</time>
      </trkpt>
      <trkpt lat="45.12117" lon="5.56876">
        <ele>1165.459216</ele>
        <time>2022-07-24T08:47:44.865Z</time>
      </trkpt>
      <trkpt lat="45.12099" lon="5.56869">
        <ele>1161.856135</ele>
        <time>2022-07-24T08:47:48.915Z</time>
      </trkpt>
      <trkpt lat="45.12077" lon="5.56856">
        <ele>1157.109118</ele>
        <time>2022-07-24T08:47:53.624Z</time>
      </trkpt>
      <trkpt lat="45.12063" lon="5.56842">
        <ele>1154.473333</ele>
        <time>2022-07-24T08:47:56.865Z</time>
      </trkpt>
      <trkpt lat="45.12049" lon="5.56837">
        <ele>1152.378752</ele>
        <time>2022-07-24T08:47:59.675Z</time>
      </trkpt>
      <trkpt lat="45.12038" lon="5.56833">
        <ele>1150.786078</ele>
        <time>2022-07-24T08:48:01.868Z</time>
      </trkpt>
      <trkpt lat="45.12008" lon="5.56832">
        <ele>1146.403336</ele>
        <time>2022-07-24T08:48:16.344Z</time>
      </trkpt>
      <trkpt lat="45.11992" lon="5.56826">
        <ele>1144.007508</ele>
        <time>2022-07-24T08:48:24.642Z</time>
      </trkpt>
      <trkpt lat="45.11983" lon="5.56836">
        <ele>1142.363561</ele>
        <time>2022-07-24T08:48:30.793Z</time>
      </trkpt>
      <trkpt lat="45.11968" lon="5.56834">
        <ele>1140.116234</ele>
        <time>2022-07-24T08:48:38.534Z</time>
      </trkpt>
      <trkpt lat="45.11955" lon="5.56844">
        <ele>1138.0362</ele>
        <time>2022-07-24T08:48:46.653Z</time>
      </trkpt>
      <trkpt lat="45.11941" lon="5.56847">
        <ele>1136.03555</ele>
        <time>2022-07-24T08:48:53.898Z</time>
      </trkpt>
      <trkpt lat="45.11931" lon="5.5685">
        <ele>1134.535062</ele>
        <time>2022-07-24T08:48:58.831Z</time>
      </trkpt>
      <trkpt lat="45.11929" lon="5.56845">
        <ele>1133.992399</ele>
        <time>2022-07-24T08:49:01.747Z</time>
      </trkpt>
      <trkpt lat="45.11926" lon="5.56847">
        <ele>1133.499854</ele>
        <time>2022-07-24T08:49:04.145Z</time>
      </trkpt>
      <trkpt lat="45.11921" lon="5.56843">
        <ele>1132.613432</ele>
        <time>2022-07-24T08:49:08.019Z</time>
      </trkpt>
      <trkpt lat="45.11914" lon="5.56854">
        <ele>1131.136488</ele>
        <time>2022-07-24T08:49:13.584Z</time>
      </trkpt>
      <trkpt lat="45.1191" lon="5.56847">
        <ele>1130.278996</ele>
        <time>2022-07-24T08:49:16.753Z</time>
      </trkpt>
      <trkpt lat="45.11888" lon="5.5686">
        <ele>1131.269649</ele>
        <time>2022-07-24T08:49:31.304Z</time>
      </trkpt>
      <trkpt lat="45.11881" lon="5.56851">
        <ele>1131.686719</ele>
        <time>2022-07-24T08:49:38.935Z</time>
      </trkpt>
      <trkpt lat="45.11872" lon="5.56852">
        <ele>1132.046691</ele>
        <time>2022-07-24T08:49:43.399Z</time>
      </trkpt>
      <trkpt lat="45.11894" lon="5.56825">
        <ele>1133.257077</ele>
        <time>2022-07-24T08:50:02.158Z</time>
      </trkpt>
      <trkpt lat="45.11909" lon="5.56768">
        <ele>1135.047997</ele>
        <time>2022-07-24T08:50:17.391Z</time>
      </trkpt>
      <trkpt lat="45.11931" lon="5.56709">
        <ele>1136.999134</ele>
        <time>2022-07-24T08:50:57.980Z</time>
      </trkpt>
      <trkpt lat="45.11944" lon="5.56684">
        <ele>1138.204224</ele>
        <time>2022-07-24T08:51:24.776Z</time>
      </trkpt>
      <trkpt lat="45.11996" lon="5.56604">
        <ele>1147.686525</ele>
        <time>2022-07-24T08:52:48.576Z</time>
      </trkpt>
      <trkpt lat="45.12017" lon="5.56592">
        <ele>1150.374119</ele>
        <time>2022-07-24T08:53:09.660Z</time>
      </trkpt>
      <trkpt lat="45.12042" lon="5.56589">
        <ele>1153.540134</ele>
        <time>2022-07-24T08:53:31.921Z</time>
      </trkpt>
      <trkpt lat="45.12059" lon="5.56576">
        <ele>1155.939228</ele>
        <time>2022-07-24T08:53:51.337Z</time>
      </trkpt>
      <trkpt lat="45.12062" lon="5.56569">
        <ele>1156.607891</ele>
        <time>2022-07-24T08:53:54.956Z</time>
      </trkpt>
      <trkpt lat="45.1206" lon="5.56561">
        <ele>1157.329479</ele>
        <time>2022-07-24T08:53:57.914Z</time>
      </trkpt>
      <trkpt lat="45.12032" lon="5.56522">
        <ele>1161.338379</ele>
        <time>2022-07-24T08:54:25.283Z</time>
      </trkpt>
      <trkpt lat="45.12029" lon="5.56509">
        <ele>1162.087821</ele>
        <time>2022-07-24T08:54:33.257Z</time>
      </trkpt>
      <trkpt lat="45.12006" lon="5.56484">
        <ele>1164.348045</ele>
        <time>2022-07-24T08:54:55.428Z</time>
      </trkpt>
      <trkpt lat="45.11988" lon="5.56472">
        <ele>1165.836687</ele>
        <time>2022-07-24T08:55:10.852Z</time>
      </trkpt>
      <trkpt lat="45.11976" lon="5.56448">
        <ele>1167.407281</ele>
        <time>2022-07-24T08:55:26.286Z</time>
      </trkpt>
      <trkpt lat="45.11975" lon="5.56434">
        <ele>1168.215768</ele>
        <time>2022-07-24T08:55:34.433Z</time>
      </trkpt>
      <trkpt lat="45.11982" lon="5.56414">
        <ele>1169.440752</ele>
        <time>2022-07-24T08:55:45.837Z</time>
      </trkpt>
      <trkpt lat="45.12001" lon="5.56392">
        <ele>1171.319744</ele>
        <time>2022-07-24T08:55:57.910Z</time>
      </trkpt>
      <trkpt lat="45.12018" lon="5.56384">
        <ele>1172.752902</ele>
        <time>2022-07-24T08:56:09.403Z</time>
      </trkpt>
      <trkpt lat="45.12026" lon="5.56391">
        <ele>1173.451552</ele>
        <time>2022-07-24T08:56:13.454Z</time>
      </trkpt>
      <trkpt lat="45.12054" lon="5.5639">
        <ele>1175.622192</ele>
        <time>2022-07-24T08:56:26.802Z</time>
      </trkpt>
      <trkpt lat="45.12136" lon="5.56417">
        <ele>1181.900327</ele>
        <time>2022-07-24T08:57:16.196Z</time>
      </trkpt>
      <trkpt lat="45.12156" lon="5.56412">
        <ele>1183.475125</ele>
        <time>2022-07-24T08:57:29.385Z</time>
      </trkpt>
      <trkpt lat="45.12176" lon="5.5642">
        <ele>1185.012494</ele>
        <time>2022-07-24T08:57:42.158Z</time>
      </trkpt>
      <trkpt lat="45.1221" lon="5.56424">
        <ele>1187.608456</ele>
        <time>2022-07-24T08:57:59.860Z</time>
      </trkpt>
      <trkpt lat="45.12225" lon="5.56419">
        <ele>1189.130728</ele>
        <time>2022-07-24T08:58:10.419Z</time>
      </trkpt>
      <trkpt lat="45.1224" lon="5.5642">
        <ele>1190.519207</ele>
        <time>2022-07-24T08:58:21.753Z</time>
      </trkpt>
      <trkpt lat="45.12242" lon="5.56411">
        <ele>1191.152309</ele>
        <time>2022-07-24T08:58:25.592Z</time>
      </trkpt>
      <trkpt lat="45.12275" lon="5.56429">
        <ele>1194.503016</ele>
        <time>2022-07-24T08:58:54.594Z</time>
      </trkpt>
      <trkpt lat="45.12311" lon="5.56456">
        <ele>1198.428866</ele>
        <time>2022-07-24T08:59:28.819Z</time>
      </trkpt>
      <trkpt lat="45.12348" lon="5.56471">
        <ele>1202.177696</ele>
        <time>2022-07-24T09:00:01.058Z</time>
      </trkpt>
      <trkpt lat="45.1236" lon="5.56479">
        <ele>1203.39035</ele>
        <time>2022-07-24T09:00:14.929Z</time>
      </trkpt>
      <trkpt lat="45.12362" lon="5.56482">
        <ele>1203.700585</ele>
        <time>2022-07-24T09:00:17.895Z</time>
      </trkpt>
      <trkpt lat="45.12427" lon="5.56476">
        <ele>1208.471004</ele>
        <time>2022-07-24T09:01:03.968Z</time>
      </trkpt>
      <trkpt lat="45.12431" lon="5.56472">
        <ele>1208.808058</ele>
        <time>2022-07-24T09:01:08.856Z</time>
      </trkpt>
      <trkpt lat="45.12439" lon="5.56462">
        <ele>1209.564219</ele>
        <time>2022-07-24T09:01:14.393Z</time>
      </trkpt>
      <trkpt lat="45.12461" lon="5.56404">
        <ele>1212.772157</ele>
        <time>2022-07-24T09:01:42.539Z</time>
      </trkpt>
      <trkpt lat="45.12485" lon="5.56371">
        <ele>1215.058959</ele>
        <time>2022-07-24T09:02:04.667Z</time>
      </trkpt>
      <trkpt lat="45.12508" lon="5.56345">
        <ele>1217.151853</ele>
        <time>2022-07-24T09:02:22.135Z</time>
      </trkpt>
      <trkpt lat="45.1254" lon="5.56315">
        <ele>1219.169034</ele>
        <time>2022-07-24T09:02:44.121Z</time>
      </trkpt>
      <trkpt lat="45.12568" lon="5.56295">
        <ele>1220.83658</ele>
        <time>2022-07-24T09:03:01.140Z</time>
      </trkpt>
      <trkpt lat="45.12583" lon="5.56277">
        <ele>1221.869219</ele>
        <time>2022-07-24T09:03:11.440Z</time>
      </trkpt>
      <trkpt lat="45.12598" lon="5.56266">
        <ele>1222.760889</ele>
        <time>2022-07-24T09:03:21.158Z</time>
      </trkpt>
      <trkpt lat="45.12614" lon="5.56268">
        <ele>1223.59559</ele>
        <time>2022-07-24T09:03:29.773Z</time>
      </trkpt>
      <trkpt lat="45.12626" lon="5.56264">
        <ele>1224.269765</ele>
        <time>2022-07-24T09:03:38.357Z</time>
      </trkpt>
      <trkpt lat="45.12677" lon="5.56241">
        <ele>1227.053765</ele>
        <time>2022-07-24T09:04:10.515Z</time>
      </trkpt>
      <trkpt lat="45.12714" lon="5.56217">
        <ele>1228.85393</ele>
        <time>2022-07-24T09:04:35.272Z</time>
      </trkpt>
      <trkpt lat="45.12739" lon="5.56193">
        <ele>1230.220554</ele>
        <time>2022-07-24T09:04:53.973Z</time>
      </trkpt>
      <trkpt lat="45.12749" lon="5.56179">
        <ele>1230.868819</ele>
        <time>2022-07-24T09:05:02.879Z</time>
      </trkpt>
      <trkpt lat="45.12774" lon="5.56155">
        <ele>1232.232979</ele>
        <time>2022-07-24T09:05:19.750Z</time>
      </trkpt>
      <trkpt lat="45.12834" lon="5.56108">
        <ele>1234.665509</ele>
        <time>2022-07-24T09:05:50.217Z</time>
      </trkpt>
      <trkpt lat="45.1286" lon="5.56093">
        <ele>1234.460549</ele>
        <time>2022-07-24T09:06:01.544Z</time>
      </trkpt>
      <trkpt lat="45.12897" lon="5.56093">
        <ele>1234.191146</ele>
        <time>2022-07-24T09:06:14.866Z</time>
      </trkpt>
      <trkpt lat="45.12967" lon="5.56045">
        <ele>1233.626937</ele>
        <time>2022-07-24T09:06:36.203Z</time>
      </trkpt>
      <trkpt lat="45.12975" lon="5.56042">
        <ele>1233.567427</ele>
        <time>2022-07-24T09:06:38.296Z</time>
      </trkpt>
      <trkpt lat="45.12997" lon="5.56044">
        <ele>1233.233051</ele>
        <time>2022-07-24T09:06:43.990Z</time>
      </trkpt>
      <trkpt lat="45.13012" lon="5.56038">
        <ele>1232.645764</ele>
        <time>2022-07-24T09:06:47.851Z</time>
      </trkpt>
      <trkpt lat="45.13018" lon="5.56032">
        <ele>1232.361863</ele>
        <time>2022-07-24T09:06:49.783Z</time>
      </trkpt>
      <trkpt lat="45.13023" lon="5.56023">
        <ele>1232.050036</ele>
        <time>2022-07-24T09:06:51.910Z</time>
      </trkpt>
      <trkpt lat="45.13021" lon="5.55995">
        <ele>1231.311191</ele>
        <time>2022-07-24T09:06:56.689Z</time>
      </trkpt>
      <trkpt lat="45.13019" lon="5.55991">
        <ele>1231.152481</ele>
        <time>2022-07-24T09:06:57.513Z</time>
      </trkpt>
      <trkpt lat="45.13018" lon="5.55983">
        <ele>1230.934267</ele>
        <time>2022-07-24T09:06:58.420Z</time>
      </trkpt>
      <trkpt lat="45.13009" lon="5.55942">
        <ele>1229.80394</ele>
        <time>2022-07-24T09:07:05.772Z</time>
      </trkpt>
      <trkpt lat="45.1292" lon="5.55884">
        <ele>1226.34201</ele>
        <time>2022-07-24T09:07:30.177Z</time>
      </trkpt>
      <trkpt lat="45.12879" lon="5.55884">
        <ele>1225.510875</ele>
        <time>2022-07-24T09:07:40.955Z</time>
      </trkpt>
      <trkpt lat="45.12804" lon="5.55858">
        <ele>1223.925547</ele>
        <time>2022-07-24T09:08:02.720Z</time>
      </trkpt>
      <trkpt lat="45.12745" lon="5.55821">
        <ele>1222.834</ele>
        <time>2022-07-24T09:08:21.323Z</time>
      </trkpt>
      <trkpt lat="45.12709" lon="5.55801">
        <ele>1222.516099</ele>
        <time>2022-07-24T09:08:33.080Z</time>
      </trkpt>
      <trkpt lat="45.12679" lon="5.55774">
        <ele>1222.22748</ele>
        <time>2022-07-24T09:08:43.789Z</time>
      </trkpt>
      <trkpt lat="45.12667" lon="5.55771">
        <ele>1222.129457</ele>
        <time>2022-07-24T09:08:47.443Z</time>
      </trkpt>
      <trkpt lat="45.12653" lon="5.55774">
        <ele>1222.017018</ele>
        <time>2022-07-24T09:08:51.644Z</time>
      </trkpt>
      <trkpt lat="45.12641" lon="5.55781">
        <ele>1221.911152</ele>
        <time>2022-07-24T09:08:55.561Z</time>
      </trkpt>
      <trkpt lat="45.12604" lon="5.55822">
        <ele>1221.530782</ele>
        <time>2022-07-24T09:09:09.573Z</time>
      </trkpt>
      <trkpt lat="45.12591" lon="5.5583">
        <ele>1221.449836</ele>
        <time>2022-07-24T09:09:13.949Z</time>
      </trkpt>
      <trkpt lat="45.12572" lon="5.55833">
        <ele>1221.355451</ele>
        <time>2022-07-24T09:09:19.112Z</time>
      </trkpt>
      <trkpt lat="45.12554" lon="5.55832">
        <ele>1221.259952</ele>
        <time>2022-07-24T09:09:24.637Z</time>
      </trkpt>
      <trkpt lat="45.12535" lon="5.55829">
        <ele>1221.163587</ele>
        <time>2022-07-24T09:09:29.896Z</time>
      </trkpt>
      <trkpt lat="45.12502" lon="5.55809">
        <ele>1220.978832</ele>
        <time>2022-07-24T09:09:40.414Z</time>
      </trkpt>
      <trkpt lat="45.12493" lon="5.55798">
        <ele>1220.916975</ele>
        <time>2022-07-24T09:09:44.349Z</time>
      </trkpt>
      <trkpt lat="45.12483" lon="5.55775">
        <ele>1220.818291</ele>
        <time>2022-07-24T09:09:50.167Z</time>
      </trkpt>
      <trkpt lat="45.12466" lon="5.55757">
        <ele>1220.711748</ele>
        <time>2022-07-24T09:09:57.003Z</time>
      </trkpt>
      <trkpt lat="45.12466" lon="5.55757">
        <ele>1220.711748</ele>
        <time>2022-07-24T09:09:57.005Z</time>
      </trkpt>
      <trkpt lat="45.12447" lon="5.55747">
        <ele>1220.610162</ele>
        <time>2022-07-24T09:10:03.148Z</time>
      </trkpt>
      <trkpt lat="45.12447" lon="5.55736">
        <ele>1220.738648</ele>
        <time>2022-07-24T09:10:05.144Z</time>
      </trkpt>
      <trkpt lat="45.12444" lon="5.55731">
        <ele>1220.88872</ele>
        <time>2022-07-24T09:10:06.326Z</time>
      </trkpt>
      <trkpt lat="45.1242" lon="5.55718">
        <ele>1221.617561</ele>
        <time>2022-07-24T09:10:11.610Z</time>
      </trkpt>
      <trkpt lat="45.12394" lon="5.5571">
        <ele>1222.410518</ele>
        <time>2022-07-24T09:10:19.274Z</time>
      </trkpt>
      <trkpt lat="45.12376" lon="5.55695">
        <ele>1223.010381</ele>
        <time>2022-07-24T09:10:25.969Z</time>
      </trkpt>
      <trkpt lat="45.12369" lon="5.55671">
        <ele>1223.543366</ele>
        <time>2022-07-24T09:10:31.941Z</time>
      </trkpt>
      <trkpt lat="45.12368" lon="5.55621">
        <ele>1224.576101</ele>
        <time>2022-07-24T09:10:45.187Z</time>
      </trkpt>
      <trkpt lat="45.1237" lon="5.5556">
        <ele>1225.849021</ele>
        <time>2022-07-24T09:11:04.242Z</time>
      </trkpt>
      <trkpt lat="45.12379" lon="5.55486">
        <ele>1229.508876</ele>
        <time>2022-07-24T09:11:30.436Z</time>
      </trkpt>
      <trkpt lat="45.12386" lon="5.55458">
        <ele>1231.017843</ele>
        <time>2022-07-24T09:11:41.750Z</time>
      </trkpt>
      <trkpt lat="45.12398" lon="5.55419">
        <ele>1233.098795</ele>
        <time>2022-07-24T09:11:57.669Z</time>
      </trkpt>
      <trkpt lat="45.12462" lon="5.55307">
        <ele>1240.146266</ele>
        <time>2022-07-24T09:12:59.405Z</time>
      </trkpt>
      <trkpt lat="45.1247" lon="5.55287">
        <ele>1241.213569</ele>
        <time>2022-07-24T09:13:08.874Z</time>
      </trkpt>
      <trkpt lat="45.12478" lon="5.55259">
        <ele>1242.641342</ele>
        <time>2022-07-24T09:13:21.015Z</time>
      </trkpt>
      <trkpt lat="45.12485" lon="5.55218">
        <ele>1244.649648</ele>
        <time>2022-07-24T09:13:36.923Z</time>
      </trkpt>
      <trkpt lat="45.12487" lon="5.55174">
        <ele>1246.761737</ele>
        <time>2022-07-24T09:13:53.221Z</time>
      </trkpt>
      <trkpt lat="45.12478" lon="5.55119">
        <ele>1249.438099</ele>
        <time>2022-07-24T09:14:11.837Z</time>
      </trkpt>
      <trkpt lat="45.12471" lon="5.55064">
        <ele>1251.403417</ele>
        <time>2022-07-24T09:14:29.485Z</time>
      </trkpt>
      <trkpt lat="45.12469" lon="5.55047">
        <ele>1251.861282</ele>
        <time>2022-07-24T09:14:35.014Z</time>
      </trkpt>
      <trkpt lat="45.12462" lon="5.55021">
        <ele>1252.629434</ele>
        <time>2022-07-24T09:14:43.255Z</time>
      </trkpt>
      <trkpt lat="45.12451" lon="5.55008">
        <ele>1253.17607</ele>
        <time>2022-07-24T09:14:49.740Z</time>
      </trkpt>
      <trkpt lat="45.12439" lon="5.54998">
        <ele>1253.713789</ele>
        <time>2022-07-24T09:14:56.020Z</time>
      </trkpt>
      <trkpt lat="45.12142" lon="5.54861">
        <ele>1262.798338</ele>
        <time>2022-07-24T09:16:38.360Z</time>
      </trkpt>
      <trkpt lat="45.12056" lon="5.54845">
        <ele>1264.178264</ele>
        <time>2022-07-24T09:17:01.826Z</time>
      </trkpt>
      <trkpt lat="45.12056" lon="5.54845">
        <ele>1264.178264</ele>
        <time>2022-07-24T09:17:01.832Z</time>
      </trkpt>
      <trkpt lat="45.12043" lon="5.54852">
        <ele>1264.397874</ele>
        <time>2022-07-24T09:17:05.260Z</time>
      </trkpt>
      <trkpt lat="45.11999" lon="5.54886">
        <ele>1265.139772</ele>
        <time>2022-07-24T09:17:16.696Z</time>
      </trkpt>
      <trkpt lat="45.11985" lon="5.54889">
        <ele>1265.276385</ele>
        <time>2022-07-24T09:17:19.889Z</time>
      </trkpt>
      <trkpt lat="45.11977" lon="5.54884">
        <ele>1265.361282</ele>
        <time>2022-07-24T09:17:21.910Z</time>
      </trkpt>
      <trkpt lat="45.11954" lon="5.54804">
        <ele>1265.924019</ele>
        <time>2022-07-24T09:17:35.367Z</time>
      </trkpt>
      <trkpt lat="45.11941" lon="5.54787">
        <ele>1266.09318</ele>
        <time>2022-07-24T09:17:39.720Z</time>
      </trkpt>
      <trkpt lat="45.11923" lon="5.54782">
        <ele>1266.263662</ele>
        <time>2022-07-24T09:17:44.361Z</time>
      </trkpt>
      <trkpt lat="45.11905" lon="5.54781">
        <ele>1266.439655</ele>
        <time>2022-07-24T09:17:49.347Z</time>
      </trkpt>
      <trkpt lat="45.11812" lon="5.54822">
        <ele>1266.423688</ele>
        <time>2022-07-24T09:18:13.206Z</time>
      </trkpt>
      <trkpt lat="45.11763" lon="5.5483">
        <ele>1266.160856</ele>
        <time>2022-07-24T09:18:24.748Z</time>
      </trkpt>
      <trkpt lat="45.11689" lon="5.54848">
        <ele>1265.275113</ele>
        <time>2022-07-24T09:18:36.069Z</time>
      </trkpt>
      <trkpt lat="45.11653" lon="5.54864">
        <ele>1262.784378</ele>
        <time>2022-07-24T09:18:41.221Z</time>
      </trkpt>
      <trkpt lat="45.11608" lon="5.54897">
        <ele>1259.38824</ele>
        <time>2022-07-24T09:18:47.941Z</time>
      </trkpt>
      <trkpt lat="45.11598" lon="5.54923">
        <ele>1257.987566</ele>
        <time>2022-07-24T09:18:52.418Z</time>
      </trkpt>
      <trkpt lat="45.11597" lon="5.54947">
        <ele>1256.85834</ele>
        <time>2022-07-24T09:18:56.362Z</time>
      </trkpt>
      <trkpt lat="45.11617" lon="5.55047">
        <ele>1251.392974</ele>
        <time>2022-07-24T09:19:12.148Z</time>
      </trkpt>
      <trkpt lat="45.1163" lon="5.55135">
        <ele>1245.784989</ele>
        <time>2022-07-24T09:19:25.589Z</time>
      </trkpt>
      <trkpt lat="45.11651" lon="5.55218">
        <ele>1240.293491</ele>
        <time>2022-07-24T09:19:39.433Z</time>
      </trkpt>
      <trkpt lat="45.11678" lon="5.55258">
        <ele>1237.217539</ele>
        <time>2022-07-24T09:19:48.373Z</time>
      </trkpt>
      <trkpt lat="45.11705" lon="5.55268">
        <ele>1235.588654</ele>
        <time>2022-07-24T09:19:54.832Z</time>
      </trkpt>
      <trkpt lat="45.11738" lon="5.55265">
        <ele>1233.657035</ele>
        <time>2022-07-24T09:20:02.758Z</time>
      </trkpt>
      <trkpt lat="45.11754" lon="5.55256">
        <ele>1232.645522</ele>
        <time>2022-07-24T09:20:06.896Z</time>
      </trkpt>
      <trkpt lat="45.11776" lon="5.55236">
        <ele>1231.102231</ele>
        <time>2022-07-24T09:20:13.137Z</time>
      </trkpt>
      <trkpt lat="45.1179" lon="5.55234">
        <ele>1230.221687</ele>
        <time>2022-07-24T09:20:16.617Z</time>
      </trkpt>
      <trkpt lat="45.118" lon="5.55254">
        <ele>1229.218537</ele>
        <time>2022-07-24T09:20:20.579Z</time>
      </trkpt>
      <trkpt lat="45.11816" lon="5.55355">
        <ele>1224.199163</ele>
        <time>2022-07-24T09:20:37.572Z</time>
      </trkpt>
      <trkpt lat="45.11867" lon="5.55434">
        <ele>1218.483489</ele>
        <time>2022-07-24T09:20:54.578Z</time>
      </trkpt>
      <trkpt lat="45.11896" lon="5.55494">
        <ele>1214.569009</ele>
        <time>2022-07-24T09:21:05.850Z</time>
      </trkpt>
      <trkpt lat="45.11909" lon="5.55546">
        <ele>1211.603886</ele>
        <time>2022-07-24T09:21:14.362Z</time>
      </trkpt>
      <trkpt lat="45.11934" lon="5.55593">
        <ele>1208.422677</ele>
        <time>2022-07-24T09:21:23.620Z</time>
      </trkpt>
      <trkpt lat="45.11957" lon="5.55653">
        <ele>1204.776206</ele>
        <time>2022-07-24T09:21:34.574Z</time>
      </trkpt>
      <trkpt lat="45.11957" lon="5.55655">
        <ele>1204.651442</ele>
        <time>2022-07-24T09:21:34.906Z</time>
      </trkpt>
      <trkpt lat="45.11962" lon="5.55677">
        <ele>1203.406707</ele>
        <time>2022-07-24T09:21:38.547Z</time>
      </trkpt>
      <trkpt lat="45.11972" lon="5.55706">
        <ele>1201.666156</ele>
        <time>2022-07-24T09:21:43.667Z</time>
      </trkpt>
      <trkpt lat="45.11997" lon="5.55727">
        <ele>1199.424397</ele>
        <time>2022-07-24T09:21:50.376Z</time>
      </trkpt>
      <trkpt lat="45.12015" lon="5.55755">
        <ele>1197.490003</ele>
        <time>2022-07-24T09:21:56.428Z</time>
      </trkpt>
      <trkpt lat="45.12059" lon="5.55803">
        <ele>1193.443625</ele>
        <time>2022-07-24T09:22:09.159Z</time>
      </trkpt>
      <trkpt lat="45.12047" lon="5.55836">
        <ele>1191.510175</ele>
        <time>2022-07-24T09:22:15.146Z</time>
      </trkpt>
      <trkpt lat="45.12044" lon="5.55877">
        <ele>1189.373556</ele>
        <time>2022-07-24T09:22:21.789Z</time>
      </trkpt>
      <trkpt lat="45.12041" lon="5.5589">
        <ele>1188.667988</ele>
        <time>2022-07-24T09:22:24.000Z</time>
      </trkpt>
      <trkpt lat="45.12036" lon="5.55903">
        <ele>1187.924531</ele>
        <time>2022-07-24T09:22:26.313Z</time>
      </trkpt>
      <trkpt lat="45.12026" lon="5.55916">
        <ele>1186.944825</ele>
        <time>2022-07-24T09:22:29.312Z</time>
      </trkpt>
      <trkpt lat="45.11982" lon="5.55953">
        <ele>1181.5399</ele>
        <time>2022-07-24T09:22:40.541Z</time>
      </trkpt>
      <trkpt lat="45.11922" lon="5.55991">
        <ele>1174.544767</ele>
        <time>2022-07-24T09:22:54.196Z</time>
      </trkpt>
      <trkpt lat="45.11883" lon="5.56013">
        <ele>1169.966138</ele>
        <time>2022-07-24T09:23:03.154Z</time>
      </trkpt>
      <trkpt lat="45.11845" lon="5.56024">
        <ele>1165.712536</ele>
        <time>2022-07-24T09:23:11.198Z</time>
      </trkpt>
      <trkpt lat="45.11797" lon="5.5604">
        <ele>1159.997416</ele>
        <time>2022-07-24T09:23:17.304Z</time>
      </trkpt>
      <trkpt lat="45.11775" lon="5.56051">
        <ele>1157.261574</ele>
        <time>2022-07-24T09:23:20.217Z</time>
      </trkpt>
      <trkpt lat="45.11728" lon="5.56091">
        <ele>1150.923545</ele>
        <time>2022-07-24T09:23:26.937Z</time>
      </trkpt>
      <trkpt lat="45.11686" lon="5.56134">
        <ele>1145.636079</ele>
        <time>2022-07-24T09:23:33.535Z</time>
      </trkpt>
      <trkpt lat="45.11661" lon="5.56172">
        <ele>1143.253213</ele>
        <time>2022-07-24T09:23:38.355Z</time>
      </trkpt>
      <trkpt lat="45.11648" lon="5.56177">
        <ele>1142.327921</ele>
        <time>2022-07-24T09:23:40.375Z</time>
      </trkpt>
      <trkpt lat="45.11615" lon="5.56181">
        <ele>1140.164072</ele>
        <time>2022-07-24T09:23:45.254Z</time>
      </trkpt>
      <trkpt lat="45.11546" lon="5.56162">
        <ele>1135.50728</ele>
        <time>2022-07-24T09:23:55.657Z</time>
      </trkpt>
      <trkpt lat="45.11527" lon="5.5615">
        <ele>1134.325851</ele>
        <time>2022-07-24T09:23:58.740Z</time>
      </trkpt>
      <trkpt lat="45.11467" lon="5.56097">
        <ele>1131.055865</ele>
        <time>2022-07-24T09:24:09.976Z</time>
      </trkpt>
      <trkpt lat="45.11391" lon="5.56054">
        <ele>1127.271943</ele>
        <time>2022-07-24T09:24:22.638Z</time>
      </trkpt>
      <trkpt lat="45.11365" lon="5.56037">
        <ele>1125.862075</ele>
        <time>2022-07-24T09:24:26.990Z</time>
      </trkpt>
      <trkpt lat="45.11336" lon="5.56029">
        <ele>1124.260354</ele>
        <time>2022-07-24T09:24:31.426Z</time>
      </trkpt>
      <trkpt lat="45.11312" lon="5.56007">
        <ele>1122.734552</ele>
        <time>2022-07-24T09:24:35.689Z</time>
      </trkpt>
      <trkpt lat="45.11301" lon="5.56">
        <ele>1122.075695</ele>
        <time>2022-07-24T09:24:38.650Z</time>
      </trkpt>
      <trkpt lat="45.11272" lon="5.55982">
        <ele>1120.396092</ele>
        <time>2022-07-24T09:24:46.057Z</time>
      </trkpt>
      <trkpt lat="45.11225" lon="5.55942">
        <ele>1117.44586</ele>
        <time>2022-07-24T09:24:59.119Z</time>
      </trkpt>
      <trkpt lat="45.11111" lon="5.55902">
        <ele>1110.139298</ele>
        <time>2022-07-24T09:25:26.517Z</time>
      </trkpt>
      <trkpt lat="45.11056" lon="5.55896">
        <ele>1106.673143</ele>
        <time>2022-07-24T09:25:39.237Z</time>
      </trkpt>
      <trkpt lat="45.11024" lon="5.55893">
        <ele>1104.33775</ele>
        <time>2022-07-24T09:25:46.516Z</time>
      </trkpt>
      <trkpt lat="45.10984" lon="5.55898">
        <ele>1100.800032</ele>
        <time>2022-07-24T09:25:55.663Z</time>
      </trkpt>
      <trkpt lat="45.10921" lon="5.55889">
        <ele>1095.149902</ele>
        <time>2022-07-24T09:26:09.707Z</time>
      </trkpt>
      <trkpt lat="45.10889" lon="5.55888">
        <ele>1092.314349</ele>
        <time>2022-07-24T09:26:16.526Z</time>
      </trkpt>
      <trkpt lat="45.10844" lon="5.55919">
        <ele>1087.158683</ele>
        <time>2022-07-24T09:26:27.230Z</time>
      </trkpt>
      <trkpt lat="45.10707" lon="5.55893">
        <ele>1069.776716</ele>
        <time>2022-07-24T09:26:55.735Z</time>
      </trkpt>
      <trkpt lat="45.10689" lon="5.55893">
        <ele>1067.461693</ele>
        <time>2022-07-24T09:26:59.456Z</time>
      </trkpt>
      <trkpt lat="45.10623" lon="5.55915">
        <ele>1057.859921</ele>
        <time>2022-07-24T09:27:13.285Z</time>
      </trkpt>
      <trkpt lat="45.10494" lon="5.55917">
        <ele>1039.884675</ele>
        <time>2022-07-24T09:27:39.478Z</time>
      </trkpt>
      <trkpt lat="45.10447" lon="5.55923">
        <ele>1034.637738</ele>
        <time>2022-07-24T09:27:49.294Z</time>
      </trkpt>
      <trkpt lat="45.10432" lon="5.55922">
        <ele>1033.019844</ele>
        <time>2022-07-24T09:27:52.310Z</time>
      </trkpt>
      <trkpt lat="45.10407" lon="5.55904">
        <ele>1029.899697</ele>
        <time>2022-07-24T09:27:58.305Z</time>
      </trkpt>
      <trkpt lat="45.10384" lon="5.55904">
        <ele>1027.398819</ele>
        <time>2022-07-24T09:28:03.193Z</time>
      </trkpt>
      <trkpt lat="45.10355" lon="5.55896">
        <ele>1024.101661</ele>
        <time>2022-07-24T09:28:09.643Z</time>
      </trkpt>
      <trkpt lat="45.10375" lon="5.55862">
        <ele>1020.874258</ele>
        <time>2022-07-24T09:28:16.336Z</time>
      </trkpt>
      <trkpt lat="45.1035" lon="5.5585">
        <ele>1019.057018</ele>
        <time>2022-07-24T09:28:21.912Z</time>
      </trkpt>
      <trkpt lat="45.10305" lon="5.55844">
        <ele>1015.860413</ele>
        <time>2022-07-24T09:28:32.254Z</time>
      </trkpt>
      <trkpt lat="45.1028" lon="5.55848">
        <ele>1014.101752</ele>
        <time>2022-07-24T09:28:38.126Z</time>
      </trkpt>
      <trkpt lat="45.10256" lon="5.55889">
        <ele>1011.420573</ele>
        <time>2022-07-24T09:28:43.320Z</time>
      </trkpt>
      <trkpt lat="45.10247" lon="5.55913">
        <ele>1010.095747</ele>
        <time>2022-07-24T09:28:45.926Z</time>
      </trkpt>
      <trkpt lat="45.10226" lon="5.55942">
        <ele>1008.01374</ele>
        <time>2022-07-24T09:28:49.925Z</time>
      </trkpt>
      <trkpt lat="45.10194" lon="5.55915">
        <ele>1005.536722</ele>
        <time>2022-07-24T09:28:54.949Z</time>
      </trkpt>
      <trkpt lat="45.10182" lon="5.55896">
        <ele>1004.324103</ele>
        <time>2022-07-24T09:28:59.044Z</time>
      </trkpt>
      <trkpt lat="45.10173" lon="5.55859">
        <ele>1002.487824</ele>
        <time>2022-07-24T09:29:05.345Z</time>
      </trkpt>
      <trkpt lat="45.10167" lon="5.55847">
        <ele>1001.804198</ele>
        <time>2022-07-24T09:29:07.622Z</time>
      </trkpt>
      <trkpt lat="45.10125" lon="5.55805">
        <ele>998.385406</ele>
        <time>2022-07-24T09:29:19.559Z</time>
      </trkpt>
      <trkpt lat="45.1011" lon="5.55799">
        <ele>997.349209</ele>
        <time>2022-07-24T09:29:23.239Z</time>
      </trkpt>
      <trkpt lat="45.10067" lon="5.55813">
        <ele>994.908562</ele>
        <time>2022-07-24T09:29:33.422Z</time>
      </trkpt>
      <trkpt lat="45.10047" lon="5.5583">
        <ele>993.774761</ele>
        <time>2022-07-24T09:29:38.785Z</time>
      </trkpt>
      <trkpt lat="45.10023" lon="5.55886">
        <ele>991.456332</ele>
        <time>2022-07-24T09:29:49.622Z</time>
      </trkpt>
      <trkpt lat="45.10026" lon="5.55918">
        <ele>990.338376</ele>
        <time>2022-07-24T09:29:55.236Z</time>
      </trkpt>
      <trkpt lat="45.10041" lon="5.55985">
        <ele>987.841638</ele>
        <time>2022-07-24T09:30:07.599Z</time>
      </trkpt>
      <trkpt lat="45.10053" lon="5.55997">
        <ele>987.359977</ele>
        <time>2022-07-24T09:30:09.892Z</time>
      </trkpt>
      <trkpt lat="45.10049" lon="5.56014">
        <ele>987.155125</ele>
        <time>2022-07-24T09:30:11.707Z</time>
      </trkpt>
      <trkpt lat="45.10048" lon="5.56034">
        <ele>986.939428</ele>
        <time>2022-07-24T09:30:13.691Z</time>
      </trkpt>
      <trkpt lat="45.10064" lon="5.56088">
        <ele>986.282981</ele>
        <time>2022-07-24T09:30:19.921Z</time>
      </trkpt>
      <trkpt lat="45.10069" lon="5.56129">
        <ele>985.819269</ele>
        <time>2022-07-24T09:30:24.327Z</time>
      </trkpt>
      <trkpt lat="45.10072" lon="5.56172">
        <ele>985.335739</ele>
        <time>2022-07-24T09:30:29.312Z</time>
      </trkpt>
      <trkpt lat="45.1008" lon="5.562">
        <ele>984.996301</ele>
        <time>2022-07-24T09:30:34.151Z</time>
      </trkpt>
      <trkpt lat="45.10094" lon="5.56234">
        <ele>984.734897</ele>
        <time>2022-07-24T09:30:40.069Z</time>
      </trkpt>
      <trkpt lat="45.10098" lon="5.56261">
        <ele>985.148435</ele>
        <time>2022-07-24T09:30:44.597Z</time>
      </trkpt>
      <trkpt lat="45.10097" lon="5.5631">
        <ele>985.8913</ele>
        <time>2022-07-24T09:30:54.674Z</time>
      </trkpt>
      <trkpt lat="45.10097" lon="5.56346">
        <ele>986.441507</ele>
        <time>2022-07-24T09:31:02.163Z</time>
      </trkpt>
      <trkpt lat="45.101" lon="5.56377">
        <ele>986.922701</ele>
        <time>2022-07-24T09:31:09.126Z</time>
      </trkpt>
      <trkpt lat="45.10113" lon="5.56418">
        <ele>987.589702</ele>
        <time>2022-07-24T09:31:19.461Z</time>
      </trkpt>
      <trkpt lat="45.10118" lon="5.56441">
        <ele>987.954837</ele>
        <time>2022-07-24T09:31:24.879Z</time>
      </trkpt>
      <trkpt lat="45.10121" lon="5.56489">
        <ele>988.885719</ele>
        <time>2022-07-24T09:31:36.636Z</time>
      </trkpt>
      <trkpt lat="45.10121" lon="5.565">
        <ele>989.213087</ele>
        <time>2022-07-24T09:31:40.464Z</time>
      </trkpt>
      <trkpt lat="45.10106" lon="5.56556">
        <ele>991.014438</ele>
        <time>2022-07-24T09:31:56.068Z</time>
      </trkpt>
      <trkpt lat="45.10103" lon="5.56578">
        <ele>991.680501</ele>
        <time>2022-07-24T09:32:01.232Z</time>
      </trkpt>
      <trkpt lat="45.10103" lon="5.56732">
        <ele>996.269628</ele>
        <time>2022-07-24T09:32:49.899Z</time>
      </trkpt>
      <trkpt lat="45.10097" lon="5.56784">
        <ele>997.570241</ele>
        <time>2022-07-24T09:33:04.758Z</time>
      </trkpt>
      <trkpt lat="45.10092" lon="5.56807">
        <ele>998.141716</ele>
        <time>2022-07-24T09:33:12.264Z</time>
      </trkpt>
      <trkpt lat="45.10084" lon="5.56845">
        <ele>999.124742</ele>
        <time>2022-07-24T09:33:22.498Z</time>
      </trkpt>
      <trkpt lat="45.10079" lon="5.56896">
        <ele>1000.359237</ele>
        <time>2022-07-24T09:33:35.344Z</time>
      </trkpt>
      <trkpt lat="45.10075" lon="5.56924">
        <ele>1001.056984</ele>
        <time>2022-07-24T09:33:42.222Z</time>
      </trkpt>
      <trkpt lat="45.1006" lon="5.57055">
        <ele>1003.214792</ele>
        <time>2022-07-24T09:34:10.094Z</time>
      </trkpt>
      <trkpt lat="45.10022" lon="5.57299">
        <ele>1006.383577</ele>
        <time>2022-07-24T09:34:54.096Z</time>
      </trkpt>
      <trkpt lat="45.10024" lon="5.57373">
        <ele>1007.62601</ele>
        <time>2022-07-24T09:35:09.990Z</time>
      </trkpt>
      <trkpt lat="45.10034" lon="5.57461">
        <ele>1009.133097</ele>
        <time>2022-07-24T09:35:31.728Z</time>
      </trkpt>
      <trkpt lat="45.10046" lon="5.57526">
        <ele>1010.931488</ele>
        <time>2022-07-24T09:35:49.498Z</time>
      </trkpt>
      <trkpt lat="45.10046" lon="5.57539">
        <ele>1011.343201</ele>
        <time>2022-07-24T09:35:53.459Z</time>
      </trkpt>
      <trkpt lat="45.1004" lon="5.57561">
        <ele>1012.045109</ele>
        <time>2022-07-24T09:36:00.377Z</time>
      </trkpt>
      <trkpt lat="45.1002" lon="5.57605">
        <ele>1013.606073</ele>
        <time>2022-07-24T09:36:15.858Z</time>
      </trkpt>
      <trkpt lat="45.09943" lon="5.57874">
        <ele>1023.413488</ele>
        <time>2022-07-24T09:37:41.459Z</time>
      </trkpt>
      <trkpt lat="45.0994" lon="5.57953">
        <ele>1026.276202</ele>
        <time>2022-07-24T09:38:09.874Z</time>
      </trkpt>
      <trkpt lat="45.09885" lon="5.57966">
        <ele>1030.1015</ele>
        <time>2022-07-24T09:38:38.192Z</time>
      </trkpt>
      <trkpt lat="45.09872" lon="5.58015">
        <ele>1032.669856</ele>
        <time>2022-07-24T09:38:57.317Z</time>
      </trkpt>
      <trkpt lat="45.09863" lon="5.58078">
        <ele>1035.801482</ele>
        <time>2022-07-24T09:39:21.531Z</time>
      </trkpt>
      <trkpt lat="45.09855" lon="5.58109">
        <ele>1037.394103</ele>
        <time>2022-07-24T09:39:34.044Z</time>
      </trkpt>
      <trkpt lat="45.09841" lon="5.58148">
        <ele>1039.759971</ele>
        <time>2022-07-24T09:39:52.188Z</time>
      </trkpt>
      <trkpt lat="45.09816" lon="5.58198">
        <ele>1043.587331</ele>
        <time>2022-07-24T09:40:21.100Z</time>
      </trkpt>
      <trkpt lat="45.09814" lon="5.5821">
        <ele>1044.352832</ele>
        <time>2022-07-24T09:40:26.567Z</time>
      </trkpt>
      <trkpt lat="45.09821" lon="5.58228">
        <ele>1045.616007</ele>
        <time>2022-07-24T09:40:36.276Z</time>
      </trkpt>
      <trkpt lat="45.09861" lon="5.58287">
        <ele>1050.67673</ele>
        <time>2022-07-24T09:41:11.065Z</time>
      </trkpt>
      <trkpt lat="45.09878" lon="5.58303">
        <ele>1052.441332</ele>
        <time>2022-07-24T09:41:23.518Z</time>
      </trkpt>
      <trkpt lat="45.09924" lon="5.58333">
        <ele>1056.709188</ele>
        <time>2022-07-24T09:42:00.054Z</time>
      </trkpt>
      <trkpt lat="45.09935" lon="5.58344">
        <ele>1057.721401</ele>
        <time>2022-07-24T09:42:07.666Z</time>
      </trkpt>
      <trkpt lat="45.09949" lon="5.58365">
        <ele>1059.353976</ele>
        <time>2022-07-24T09:42:22.716Z</time>
      </trkpt>
      <trkpt lat="45.09961" lon="5.58394">
        <ele>1061.223087</ele>
        <time>2022-07-24T09:42:34.916Z</time>
      </trkpt>
      <trkpt lat="45.09984" lon="5.58433">
        <ele>1064.091238</ele>
        <time>2022-07-24T09:42:56.175Z</time>
      </trkpt>
      <trkpt lat="45.09989" lon="5.58444">
        <ele>1064.807161</ele>
        <time>2022-07-24T09:43:04.150Z</time>
      </trkpt>
      <trkpt lat="45.09976" lon="5.58457">
        <ele>1066.03559</ele>
        <time>2022-07-24T09:43:10.799Z</time>
      </trkpt>
      <trkpt lat="45.09923" lon="5.58462">
        <ele>1070.150302</ele>
        <time>2022-07-24T09:43:35.083Z</time>
      </trkpt>
      <trkpt lat="45.0989" lon="5.5846">
        <ele>1072.641095</ele>
        <time>2022-07-24T09:43:52.278Z</time>
      </trkpt>
      <trkpt lat="45.09884" lon="5.58462">
        <ele>1073.13569</ele>
        <time>2022-07-24T09:43:56.865Z</time>
      </trkpt>
      <trkpt lat="45.09871" lon="5.5849">
        <ele>1074.909241</ele>
        <time>2022-07-24T09:44:08.671Z</time>
      </trkpt>
      <trkpt lat="45.09868" lon="5.58523">
        <ele>1076.647819</ele>
        <time>2022-07-24T09:44:21.861Z</time>
      </trkpt>
      <trkpt lat="45.09865" lon="5.58535">
        <ele>1077.325623</ele>
        <time>2022-07-24T09:44:27.405Z</time>
      </trkpt>
      <trkpt lat="45.09839" lon="5.58586">
        <ele>1080.645396</ele>
        <time>2022-07-24T09:44:53.814Z</time>
      </trkpt>
      <trkpt lat="45.09839" lon="5.58596">
        <ele>1081.218314</ele>
        <time>2022-07-24T09:44:57.781Z</time>
      </trkpt>
      <trkpt lat="45.09842" lon="5.58608">
        <ele>1081.868635</ele>
        <time>2022-07-24T09:45:03.465Z</time>
      </trkpt>
      <trkpt lat="45.09847" lon="5.58614">
        <ele>1082.395759</ele>
        <time>2022-07-24T09:45:09.856Z</time>
      </trkpt>
      <trkpt lat="45.09857" lon="5.58616">
        <ele>1083.447158</ele>
        <time>2022-07-24T09:45:15.870Z</time>
      </trkpt>
      <trkpt lat="45.09884" lon="5.58605">
        <ele>1086.353796</ele>
        <time>2022-07-24T09:45:34.957Z</time>
      </trkpt>
      <trkpt lat="45.09902" lon="5.58605">
        <ele>1088.248437</ele>
        <time>2022-07-24T09:45:45.035Z</time>
      </trkpt>
      <trkpt lat="45.09911" lon="5.58608">
        <ele>1089.230984</ele>
        <time>2022-07-24T09:45:51.236Z</time>
      </trkpt>
      <trkpt lat="45.09933" lon="5.58626">
        <ele>1091.791295</ele>
        <time>2022-07-24T09:46:07.804Z</time>
      </trkpt>
      <trkpt lat="45.09964" lon="5.58652">
        <ele>1095.573071</ele>
        <time>2022-07-24T09:46:37.550Z</time>
      </trkpt>
      <trkpt lat="45.10012" lon="5.58662">
        <ele>1100.621608</ele>
        <time>2022-07-24T09:47:13.796Z</time>
      </trkpt>
      <trkpt lat="45.10059" lon="5.58688">
        <ele>1107.569887</ele>
        <time>2022-07-24T09:47:52.880Z</time>
      </trkpt>
      <trkpt lat="45.10081" lon="5.58673">
        <ele>1110.954617</ele>
        <time>2022-07-24T09:48:11.784Z</time>
      </trkpt>
      <trkpt lat="45.10087" lon="5.58675">
        <ele>1111.884439</ele>
        <time>2022-07-24T09:48:17.177Z</time>
      </trkpt>
      <trkpt lat="45.10086" lon="5.58688">
        <ele>1113.211373</ele>
        <time>2022-07-24T09:48:28.478Z</time>
      </trkpt>
      <trkpt lat="45.10075" lon="5.58715">
        <ele>1116.298866</ele>
        <time>2022-07-24T09:48:45.773Z</time>
      </trkpt>
      <trkpt lat="45.10073" lon="5.58737">
        <ele>1118.548113</ele>
        <time>2022-07-24T09:49:00.561Z</time>
      </trkpt>
      <trkpt lat="45.10068" lon="5.58748">
        <ele>1119.799092</ele>
        <time>2022-07-24T09:49:06.440Z</time>
      </trkpt>
      <trkpt lat="45.1004" lon="5.58779">
        <ele>1124.736474</ele>
        <time>2022-07-24T09:49:42.097Z</time>
      </trkpt>
      <trkpt lat="45.10012" lon="5.58797">
        <ele>1129.797327</ele>
        <time>2022-07-24T09:50:21.825Z</time>
      </trkpt>
      <trkpt lat="45.10006" lon="5.58807">
        <ele>1131.439113</ele>
        <time>2022-07-24T09:50:32.861Z</time>
      </trkpt>
      <trkpt lat="45.09986" lon="5.5884">
        <ele>1136.809279</ele>
        <time>2022-07-24T09:51:10.896Z</time>
      </trkpt>
      <trkpt lat="45.09985" lon="5.58849">
        <ele>1137.951458</ele>
        <time>2022-07-24T09:51:18.942Z</time>
      </trkpt>
      <trkpt lat="45.09986" lon="5.58856">
        <ele>1138.877475</ele>
        <time>2022-07-24T09:51:24.716Z</time>
      </trkpt>
      <trkpt lat="45.0999" lon="5.5886">
        <ele>1139.73623</ele>
        <time>2022-07-24T09:51:30.119Z</time>
      </trkpt>
      <trkpt lat="45.10013" lon="5.58866">
        <ele>1143.731421</ele>
        <time>2022-07-24T09:51:53.179Z</time>
      </trkpt>
      <trkpt lat="45.10021" lon="5.58878">
        <ele>1145.813786</ele>
        <time>2022-07-24T09:52:06.239Z</time>
      </trkpt>
      <trkpt lat="45.10042" lon="5.58907">
        <ele>1150.998818</ele>
        <time>2022-07-24T09:52:37.629Z</time>
      </trkpt>
      <trkpt lat="45.10054" lon="5.58943">
        <ele>1155.838907</ele>
        <time>2022-07-24T09:53:07.484Z</time>
      </trkpt>
      <trkpt lat="45.10067" lon="5.58955">
        <ele>1158.213963</ele>
        <time>2022-07-24T09:53:24.805Z</time>
      </trkpt>
      <trkpt lat="45.1009" lon="5.58958">
        <ele>1161.005294</ele>
        <time>2022-07-24T09:53:46.943Z</time>
      </trkpt>
      <trkpt lat="45.10121" lon="5.58944">
        <ele>1164.975122</ele>
        <time>2022-07-24T09:54:17.349Z</time>
      </trkpt>
      <trkpt lat="45.10133" lon="5.58944">
        <ele>1166.446623</ele>
        <time>2022-07-24T09:54:27.186Z</time>
      </trkpt>
      <trkpt lat="45.10158" lon="5.58947">
        <ele>1169.446635</ele>
        <time>2022-07-24T09:54:48.918Z</time>
      </trkpt>
      <trkpt lat="45.1017" lon="5.58951">
        <ele>1170.963079</ele>
        <time>2022-07-24T09:54:58.322Z</time>
      </trkpt>
      <trkpt lat="45.10216" lon="5.58967">
        <ele>1176.70705</ele>
        <time>2022-07-24T09:55:29.048Z</time>
      </trkpt>
      <trkpt lat="45.10319" lon="5.58992">
        <ele>1187.35451</ele>
        <time>2022-07-24T09:56:38.670Z</time>
      </trkpt>
      <trkpt lat="45.1037" lon="5.5899">
        <ele>1192.20843</ele>
        <time>2022-07-24T09:57:13.925Z</time>
      </trkpt>
      <trkpt lat="45.10384" lon="5.58991">
        <ele>1193.55538</ele>
        <time>2022-07-24T09:57:23.833Z</time>
      </trkpt>
      <trkpt lat="45.10404" lon="5.59">
        <ele>1195.568096</ele>
        <time>2022-07-24T09:57:38.316Z</time>
      </trkpt>
      <trkpt lat="45.10465" lon="5.59045">
        <ele>1203.689783</ele>
        <time>2022-07-24T09:58:31.796Z</time>
      </trkpt>
      <trkpt lat="45.10479" lon="5.59062">
        <ele>1205.873108</ele>
        <time>2022-07-24T09:58:47.344Z</time>
      </trkpt>
      <trkpt lat="45.10488" lon="5.5907">
        <ele>1207.150798</ele>
        <time>2022-07-24T09:58:55.652Z</time>
      </trkpt>
      <trkpt lat="45.10522" lon="5.59081">
        <ele>1211.449488</ele>
        <time>2022-07-24T09:59:26.478Z</time>
      </trkpt>
      <trkpt lat="45.1062" lon="5.5914">
        <ele>1224.304995</ele>
        <time>2022-07-24T10:00:58.019Z</time>
      </trkpt>
      <trkpt lat="45.10649" lon="5.59162">
        <ele>1228.339651</ele>
        <time>2022-07-24T10:01:26.988Z</time>
      </trkpt>
      <trkpt lat="45.10707" lon="5.59215">
        <ele>1236.707429</ele>
        <time>2022-07-24T10:02:23.857Z</time>
      </trkpt>
      <trkpt lat="45.10741" lon="5.59222">
        <ele>1240.70402</ele>
        <time>2022-07-24T10:02:48.639Z</time>
      </trkpt>
      <trkpt lat="45.10767" lon="5.59234">
        <ele>1243.224873</ele>
        <time>2022-07-24T10:03:08.918Z</time>
      </trkpt>
      <trkpt lat="45.10812" lon="5.59257">
        <ele>1247.642458</ele>
        <time>2022-07-24T10:03:41.472Z</time>
      </trkpt>
      <trkpt lat="45.10858" lon="5.59297">
        <ele>1252.578697</ele>
        <time>2022-07-24T10:04:15.569Z</time>
      </trkpt>
      <trkpt lat="45.10875" lon="5.59305">
        <ele>1254.248207</ele>
        <time>2022-07-24T10:04:25.781Z</time>
      </trkpt>
      <trkpt lat="45.10916" lon="5.59315">
        <ele>1258.307326</ele>
        <time>2022-07-24T10:04:52.892Z</time>
      </trkpt>
      <trkpt lat="45.11021" lon="5.59322">
        <ele>1269.037937</ele>
        <time>2022-07-24T10:06:08.179Z</time>
      </trkpt>
      <trkpt lat="45.11034" lon="5.59323">
        <ele>1270.394901</ele>
        <time>2022-07-24T10:06:19.002Z</time>
      </trkpt>
      <trkpt lat="45.11088" lon="5.59326">
        <ele>1276.059492</ele>
        <time>2022-07-24T10:07:01.661Z</time>
      </trkpt>
      <trkpt lat="45.1118" lon="5.59353">
        <ele>1286.991554</ele>
        <time>2022-07-24T10:08:13.894Z</time>
      </trkpt>
      <trkpt lat="45.11238" lon="5.59387">
        <ele>1294.332378</ele>
        <time>2022-07-24T10:09:06.656Z</time>
      </trkpt>
      <trkpt lat="45.11261" lon="5.59415">
        <ele>1297.941199</ele>
        <time>2022-07-24T10:09:31.221Z</time>
      </trkpt>
      <trkpt lat="45.11269" lon="5.59433">
        <ele>1299.882924</ele>
        <time>2022-07-24T10:09:43.592Z</time>
      </trkpt>
      <trkpt lat="45.11272" lon="5.59485">
        <ele>1304.506777</ele>
        <time>2022-07-24T10:10:13.246Z</time>
      </trkpt>
      <trkpt lat="45.11267" lon="5.59501">
        <ele>1306.052428</ele>
        <time>2022-07-24T10:10:23.498Z</time>
      </trkpt>
      <trkpt lat="45.11224" lon="5.5957">
        <ele>1314.212848</ele>
        <time>2022-07-24T10:11:19.628Z</time>
      </trkpt>
      <trkpt lat="45.11183" lon="5.59625">
        <ele>1321.04412</ele>
        <time>2022-07-24T10:12:09.612Z</time>
      </trkpt>
      <trkpt lat="45.11152" lon="5.59655">
        <ele>1325.312326</ele>
        <time>2022-07-24T10:12:41.326Z</time>
      </trkpt>
      <trkpt lat="45.11136" lon="5.59674">
        <ele>1327.610926</ele>
        <time>2022-07-24T10:12:54.152Z</time>
      </trkpt>
      <trkpt lat="45.11126" lon="5.59701">
        <ele>1330.015255</ele>
        <time>2022-07-24T10:13:11.600Z</time>
      </trkpt>
      <trkpt lat="45.11144" lon="5.59802">
        <ele>1338.248842</ele>
        <time>2022-07-24T10:14:07.191Z</time>
      </trkpt>
      <trkpt lat="45.11135" lon="5.59853">
        <ele>1341.559817</ele>
        <time>2022-07-24T10:14:33.138Z</time>
      </trkpt>
      <trkpt lat="45.11138" lon="5.59893">
        <ele>1343.932575</ele>
        <time>2022-07-24T10:14:53.963Z</time>
      </trkpt>
      <trkpt lat="45.11134" lon="5.59907">
        <ele>1344.845499</ele>
        <time>2022-07-24T10:14:58.256Z</time>
      </trkpt>
      <trkpt lat="45.11128" lon="5.599">
        <ele>1345.429785</ele>
        <time>2022-07-24T10:15:06.668Z</time>
      </trkpt>
      <trkpt lat="45.11124" lon="5.59885">
        <ele>1346.399487</ele>
        <time>2022-07-24T10:15:11.450Z</time>
      </trkpt>
      <trkpt lat="45.11122" lon="5.59818">
        <ele>1350.386976</ele>
        <time>2022-07-24T10:15:34.640Z</time>
      </trkpt>
      <trkpt lat="45.11117" lon="5.59802">
        <ele>1351.442543</ele>
        <time>2022-07-24T10:15:44.858Z</time>
      </trkpt>
      <trkpt lat="45.11092" lon="5.59768">
        <ele>1354.349338</ele>
        <time>2022-07-24T10:16:04.564Z</time>
      </trkpt>
      <trkpt lat="45.11063" lon="5.59713">
        <ele>1358.411938</ele>
        <time>2022-07-24T10:16:38.304Z</time>
      </trkpt>
      <trkpt lat="45.11049" lon="5.59696">
        <ele>1359.922198</ele>
        <time>2022-07-24T10:16:49.084Z</time>
      </trkpt>
      <trkpt lat="45.11021" lon="5.59677">
        <ele>1362.534248</ele>
        <time>2022-07-24T10:17:09.260Z</time>
      </trkpt>
      <trkpt lat="45.10984" lon="5.59664">
        <ele>1365.717965</ele>
        <time>2022-07-24T10:17:33.489Z</time>
      </trkpt>
      <trkpt lat="45.10894" lon="5.59664">
        <ele>1374.163628</ele>
        <time>2022-07-24T10:18:27.431Z</time>
      </trkpt>
      <trkpt lat="45.10832" lon="5.59651">
        <ele>1380.603489</ele>
        <time>2022-07-24T10:19:14.801Z</time>
      </trkpt>
      <trkpt lat="45.10789" lon="5.59648">
        <ele>1385.024923</ele>
        <time>2022-07-24T10:19:51.163Z</time>
      </trkpt>
      <trkpt lat="45.10649" lon="5.5966">
        <ele>1400.184948</ele>
        <time>2022-07-24T10:21:38.372Z</time>
      </trkpt>
      <trkpt lat="45.10579" lon="5.59659">
        <ele>1407.701429</ele>
        <time>2022-07-24T10:22:33.391Z</time>
      </trkpt>
      <trkpt lat="45.10495" lon="5.59642">
        <ele>1414.481423</ele>
        <time>2022-07-24T10:23:28.355Z</time>
      </trkpt>
      <trkpt lat="45.10411" lon="5.59649">
        <ele>1421.237354</ele>
        <time>2022-07-24T10:24:14.830Z</time>
      </trkpt>
      <trkpt lat="45.10366" lon="5.59653">
        <ele>1423.813634</ele>
        <time>2022-07-24T10:24:38.514Z</time>
      </trkpt>
      <trkpt lat="45.10341" lon="5.59647">
        <ele>1425.208544</ele>
        <time>2022-07-24T10:24:51.647Z</time>
      </trkpt>
      <trkpt lat="45.10315" lon="5.5964">
        <ele>1426.62551</ele>
        <time>2022-07-24T10:25:04.698Z</time>
      </trkpt>
      <trkpt lat="45.10253" lon="5.59633">
        <ele>1430.00517</ele>
        <time>2022-07-24T10:25:34.489Z</time>
      </trkpt>
      <trkpt lat="45.10232" lon="5.59625">
        <ele>1431.16733</ele>
        <time>2022-07-24T10:25:44.065Z</time>
      </trkpt>
      <trkpt lat="45.10218" lon="5.5962">
        <ele>1431.599584</ele>
        <time>2022-07-24T10:25:49.840Z</time>
      </trkpt>
      <trkpt lat="45.10187" lon="5.59595">
        <ele>1432.095751</ele>
        <time>2022-07-24T10:26:03.605Z</time>
      </trkpt>
      <trkpt lat="45.10168" lon="5.59591">
        <ele>1432.362657</ele>
        <time>2022-07-24T10:26:10.665Z</time>
      </trkpt>
      <trkpt lat="45.10157" lon="5.59594">
        <ele>1432.519056</ele>
        <time>2022-07-24T10:26:15.755Z</time>
      </trkpt>
      <trkpt lat="45.10133" lon="5.5962">
        <ele>1432.937523</ele>
        <time>2022-07-24T10:26:25.753Z</time>
      </trkpt>
      <trkpt lat="45.10122" lon="5.59655">
        <ele>1433.318177</ele>
        <time>2022-07-24T10:26:33.618Z</time>
      </trkpt>
      <trkpt lat="45.10113" lon="5.59669">
        <ele>1433.500497</ele>
        <time>2022-07-24T10:26:35.898Z</time>
      </trkpt>
      <trkpt lat="45.10094" lon="5.59685">
        <ele>1433.808448</ele>
        <time>2022-07-24T10:26:39.630Z</time>
      </trkpt>
      <trkpt lat="45.10065" lon="5.59701">
        <ele>1433.101709</ele>
        <time>2022-07-24T10:26:44.744Z</time>
      </trkpt>
      <trkpt lat="45.10054" lon="5.59702">
        <ele>1432.59971</ele>
        <time>2022-07-24T10:26:46.749Z</time>
      </trkpt>
      <trkpt lat="45.10038" lon="5.59693">
        <ele>1431.824813</ele>
        <time>2022-07-24T10:26:49.337Z</time>
      </trkpt>
      <trkpt lat="45.09993" lon="5.59647">
        <ele>1429.293602</ele>
        <time>2022-07-24T10:27:03.036Z</time>
      </trkpt>
      <trkpt lat="45.0998" lon="5.59633">
        <ele>1428.548374</ele>
        <time>2022-07-24T10:27:06.561Z</time>
      </trkpt>
      <trkpt lat="45.09933" lon="5.59612">
        <ele>1426.299048</ele>
        <time>2022-07-24T10:27:18.833Z</time>
      </trkpt>
      <trkpt lat="45.0992" lon="5.59592">
        <ele>1425.5324</ele>
        <time>2022-07-24T10:27:23.066Z</time>
      </trkpt>
      <trkpt lat="45.09909" lon="5.59556">
        <ele>1424.613792</ele>
        <time>2022-07-24T10:27:30.131Z</time>
      </trkpt>
      <trkpt lat="45.099" lon="5.59552">
        <ele>1424.287959</ele>
        <time>2022-07-24T10:27:32.121Z</time>
      </trkpt>
      <trkpt lat="45.09889" lon="5.59548">
        <ele>1423.927895</ele>
        <time>2022-07-24T10:27:35.573Z</time>
      </trkpt>
      <trkpt lat="45.09868" lon="5.59558">
        <ele>1423.19427</ele>
        <time>2022-07-24T10:27:40.685Z</time>
      </trkpt>
      <trkpt lat="45.09844" lon="5.59596">
        <ele>1422.017186</ele>
        <time>2022-07-24T10:27:50.486Z</time>
      </trkpt>
      <trkpt lat="45.09828" lon="5.59637">
        <ele>1420.921658</ele>
        <time>2022-07-24T10:28:00.542Z</time>
      </trkpt>
      <trkpt lat="45.09819" lon="5.59692">
        <ele>1419.722353</ele>
        <time>2022-07-24T10:28:11.563Z</time>
      </trkpt>
      <trkpt lat="45.09808" lon="5.59697">
        <ele>1419.503085</ele>
        <time>2022-07-24T10:28:15.669Z</time>
      </trkpt>
      <trkpt lat="45.09724" lon="5.597">
        <ele>1417.970621</ele>
        <time>2022-07-24T10:28:39.979Z</time>
      </trkpt>
      <trkpt lat="45.09631" lon="5.59657">
        <ele>1415.783653</ele>
        <time>2022-07-24T10:29:06.029Z</time>
      </trkpt>
      <trkpt lat="45.09581" lon="5.59663">
        <ele>1413.928481</ele>
        <time>2022-07-24T10:29:18.652Z</time>
      </trkpt>
      <trkpt lat="45.0956" lon="5.59658">
        <ele>1413.14402</ele>
        <time>2022-07-24T10:29:23.891Z</time>
      </trkpt>
      <trkpt lat="45.09499" lon="5.59611">
        <ele>1410.578021</ele>
        <time>2022-07-24T10:29:40.971Z</time>
      </trkpt>
      <trkpt lat="45.09452" lon="5.59608">
        <ele>1409.355367</ele>
        <time>2022-07-24T10:29:52.960Z</time>
      </trkpt>
      <trkpt lat="45.09446" lon="5.59594">
        <ele>1409.130388</ele>
        <time>2022-07-24T10:29:55.881Z</time>
      </trkpt>
      <trkpt lat="45.09436" lon="5.5953">
        <ele>1408.231975</ele>
        <time>2022-07-24T10:30:08.091Z</time>
      </trkpt>
      <trkpt lat="45.09426" lon="5.59505">
        <ele>1407.842874</ele>
        <time>2022-07-24T10:30:13.564Z</time>
      </trkpt>
      <trkpt lat="45.09401" lon="5.59478">
        <ele>1407.229319</ele>
        <time>2022-07-24T10:30:22.604Z</time>
      </trkpt>
      <trkpt lat="45.09376" lon="5.59466">
        <ele>1406.720924</ele>
        <time>2022-07-24T10:30:30.527Z</time>
      </trkpt>
      <trkpt lat="45.09333" lon="5.59474">
        <ele>1407.009295</ele>
        <time>2022-07-24T10:30:44.629Z</time>
      </trkpt>
      <trkpt lat="45.09258" lon="5.59513">
        <ele>1408.586195</ele>
        <time>2022-07-24T10:31:21.463Z</time>
      </trkpt>
      <trkpt lat="45.0918" lon="5.59514">
        <ele>1409.978873</ele>
        <time>2022-07-24T10:31:56.485Z</time>
      </trkpt>
      <trkpt lat="45.09165" lon="5.59517">
        <ele>1409.983064</ele>
        <time>2022-07-24T10:32:02.625Z</time>
      </trkpt>
      <trkpt lat="45.0913" lon="5.5954">
        <ele>1409.994018</ele>
        <time>2022-07-24T10:32:17.949Z</time>
      </trkpt>
      <trkpt lat="45.09115" lon="5.59543">
        <ele>1409.998013</ele>
        <time>2022-07-24T10:32:23.555Z</time>
      </trkpt>
      <trkpt lat="45.09049" lon="5.59511">
        <ele>1410.017597</ele>
        <time>2022-07-24T10:32:44.947Z</time>
      </trkpt>
      <trkpt lat="45.08984" lon="5.59465">
        <ele>1408.519523</ele>
        <time>2022-07-24T10:33:04.547Z</time>
      </trkpt>
      <trkpt lat="45.08958" lon="5.59437">
        <ele>1407.22121</ele>
        <time>2022-07-24T10:33:12.649Z</time>
      </trkpt>
      <trkpt lat="45.08943" lon="5.59429">
        <ele>1406.588911</ele>
        <time>2022-07-24T10:33:16.453Z</time>
      </trkpt>
      <trkpt lat="45.08938" lon="5.59425">
        <ele>1406.350023</ele>
        <time>2022-07-24T10:33:17.934Z</time>
      </trkpt>
      <trkpt lat="45.08922" lon="5.5943">
        <ele>1405.728157</ele>
        <time>2022-07-24T10:33:22.003Z</time>
      </trkpt>
      <trkpt lat="45.08877" lon="5.59462">
        <ele>1403.73527</ele>
        <time>2022-07-24T10:33:34.489Z</time>
      </trkpt>
      <trkpt lat="45.08795" lon="5.59506">
        <ele>1398.925938</ele>
        <time>2022-07-24T10:33:55.125Z</time>
      </trkpt>
      <trkpt lat="45.08765" lon="5.59502">
        <ele>1397.19526</ele>
        <time>2022-07-24T10:34:02.123Z</time>
      </trkpt>
      <trkpt lat="45.08752" lon="5.59495">
        <ele>1396.371799</ele>
        <time>2022-07-24T10:34:05.543Z</time>
      </trkpt>
      <trkpt lat="45.08723" lon="5.59471">
        <ele>1394.377128</ele>
        <time>2022-07-24T10:34:13.651Z</time>
      </trkpt>
      <trkpt lat="45.08694" lon="5.59457">
        <ele>1392.570324</ele>
        <time>2022-07-24T10:34:20.563Z</time>
      </trkpt>
      <trkpt lat="45.08685" lon="5.59458">
        <ele>1392.021481</ele>
        <time>2022-07-24T10:34:22.491Z</time>
      </trkpt>
      <trkpt lat="45.0867" lon="5.5947">
        <ele>1390.801255</ele>
        <time>2022-07-24T10:34:26.364Z</time>
      </trkpt>
      <trkpt lat="45.08657" lon="5.59508">
        <ele>1388.723995</ele>
        <time>2022-07-24T10:34:33.050Z</time>
      </trkpt>
      <trkpt lat="45.08638" lon="5.5958">
        <ele>1384.949433</ele>
        <time>2022-07-24T10:34:45.410Z</time>
      </trkpt>
      <trkpt lat="45.08626" lon="5.59586">
        <ele>1384.031777</ele>
        <time>2022-07-24T10:34:48.213Z</time>
      </trkpt>
      <trkpt lat="45.08623" lon="5.59591">
        <ele>1383.705271</ele>
        <time>2022-07-24T10:34:49.222Z</time>
      </trkpt>
      <trkpt lat="45.08606" lon="5.59615">
        <ele>1382.032634</ele>
        <time>2022-07-24T10:34:54.706Z</time>
      </trkpt>
      <trkpt lat="45.0859" lon="5.59643">
        <ele>1380.292056</ele>
        <time>2022-07-24T10:35:00.697Z</time>
      </trkpt>
      <trkpt lat="45.08576" lon="5.5969">
        <ele>1378.1825</ele>
        <time>2022-07-24T10:35:09.331Z</time>
      </trkpt>
      <trkpt lat="45.08571" lon="5.59698">
        <ele>1377.763282</ele>
        <time>2022-07-24T10:35:11.161Z</time>
      </trkpt>
      <trkpt lat="45.08532" lon="5.59694">
        <ele>1375.618258</ele>
        <time>2022-07-24T10:35:20.196Z</time>
      </trkpt>
      <trkpt lat="45.08506" lon="5.597">
        <ele>1374.179061</ele>
        <time>2022-07-24T10:35:26.218Z</time>
      </trkpt>
      <trkpt lat="45.0849" lon="5.59709">
        <ele>1373.25616</ele>
        <time>2022-07-24T10:35:30.393Z</time>
      </trkpt>
      <trkpt lat="45.0848" lon="5.59717">
        <ele>1372.614991</ele>
        <time>2022-07-24T10:35:33.289Z</time>
      </trkpt>
      <trkpt lat="45.08468" lon="5.59764">
        <ele>1370.664581</ele>
        <time>2022-07-24T10:35:42.258Z</time>
      </trkpt>
      <trkpt lat="45.08453" lon="5.5978">
        <ele>1369.542968</ele>
        <time>2022-07-24T10:35:47.046Z</time>
      </trkpt>
      <trkpt lat="45.08395" lon="5.59768">
        <ele>1365.039526</ele>
        <time>2022-07-24T10:36:00.337Z</time>
      </trkpt>
      <trkpt lat="45.08367" lon="5.5978">
        <ele>1362.761909</ele>
        <time>2022-07-24T10:36:06.821Z</time>
      </trkpt>
      <trkpt lat="45.08317" lon="5.59812">
        <ele>1358.450706</ele>
        <time>2022-07-24T10:36:18.831Z</time>
      </trkpt>
      <trkpt lat="45.08307" lon="5.59815">
        <ele>1357.67284</ele>
        <time>2022-07-24T10:36:21.076Z</time>
      </trkpt>
      <trkpt lat="45.08289" lon="5.59804">
        <ele>1356.114806</ele>
        <time>2022-07-24T10:36:25.457Z</time>
      </trkpt>
      <trkpt lat="45.08254" lon="5.59756">
        <ele>1350.603546</ele>
        <time>2022-07-24T10:36:36.136Z</time>
      </trkpt>
      <trkpt lat="45.08229" lon="5.59721">
        <ele>1346.516607</ele>
        <time>2022-07-24T10:36:43.577Z</time>
      </trkpt>
      <trkpt lat="45.08152" lon="5.59654">
        <ele>1335.978808</ele>
        <time>2022-07-24T10:37:02.108Z</time>
      </trkpt>
      <trkpt lat="45.08003" lon="5.59576">
        <ele>1315.694457</ele>
        <time>2022-07-24T10:37:34.928Z</time>
      </trkpt>
      <trkpt lat="45.07962" lon="5.59537">
        <ele>1309.832824</ele>
        <time>2022-07-24T10:37:45.191Z</time>
      </trkpt>
      <trkpt lat="45.07951" lon="5.59523">
        <ele>1308.424356</ele>
        <time>2022-07-24T10:37:48.153Z</time>
      </trkpt>
      <trkpt lat="45.07943" lon="5.59478">
        <ele>1305.173187</ele>
        <time>2022-07-24T10:37:55.095Z</time>
      </trkpt>
      <trkpt lat="45.07916" lon="5.59459">
        <ele>1302.218223</ele>
        <time>2022-07-24T10:38:01.558Z</time>
      </trkpt>
      <trkpt lat="45.07891" lon="5.59406">
        <ele>1297.73486</ele>
        <time>2022-07-24T10:38:11.580Z</time>
      </trkpt>
      <trkpt lat="45.07859" lon="5.59368">
        <ele>1293.707479</ele>
        <time>2022-07-24T10:38:20.922Z</time>
      </trkpt>
      <trkpt lat="45.07817" lon="5.5935">
        <ele>1290.585991</ele>
        <time>2022-07-24T10:38:30.773Z</time>
      </trkpt>
      <trkpt lat="45.07787" lon="5.59302">
        <ele>1287.373145</ele>
        <time>2022-07-24T10:38:40.967Z</time>
      </trkpt>
      <trkpt lat="45.0777" lon="5.59156">
        <ele>1279.954563</ele>
        <time>2022-07-24T10:39:05.139Z</time>
      </trkpt>
      <trkpt lat="45.07758" lon="5.59113">
        <ele>1277.693639</ele>
        <time>2022-07-24T10:39:12.376Z</time>
      </trkpt>
      <trkpt lat="45.07735" lon="5.59063">
        <ele>1274.706653</ele>
        <time>2022-07-24T10:39:22.065Z</time>
      </trkpt>
      <trkpt lat="45.07723" lon="5.59045">
        <ele>1273.444312</ele>
        <time>2022-07-24T10:39:26.341Z</time>
      </trkpt>
      <trkpt lat="45.07715" lon="5.59007">
        <ele>1271.523741</ele>
        <time>2022-07-24T10:39:32.350Z</time>
      </trkpt>
      <trkpt lat="45.0771" lon="5.58992">
        <ele>1270.67444</ele>
        <time>2022-07-24T10:39:35.129Z</time>
      </trkpt>
      <trkpt lat="45.0769" lon="5.58927">
        <ele>1267.270436</ele>
        <time>2022-07-24T10:39:46.237Z</time>
      </trkpt>
      <trkpt lat="45.07679" lon="5.58904">
        <ele>1265.968844</ele>
        <time>2022-07-24T10:39:51.139Z</time>
      </trkpt>
      <trkpt lat="45.07678" lon="5.58892">
        <ele>1265.421933</ele>
        <time>2022-07-24T10:39:52.911Z</time>
      </trkpt>
      <trkpt lat="45.07681" lon="5.58852">
        <ele>1263.552</ele>
        <time>2022-07-24T10:39:59.755Z</time>
      </trkpt>
      <trkpt lat="45.07678" lon="5.58839">
        <ele>1262.922656</ele>
        <time>2022-07-24T10:40:01.761Z</time>
      </trkpt>
      <trkpt lat="45.07666" lon="5.5879">
        <ele>1260.525173</ele>
        <time>2022-07-24T10:40:10.249Z</time>
      </trkpt>
      <trkpt lat="45.07646" lon="5.58749">
        <ele>1258.207757</ele>
        <time>2022-07-24T10:40:18.647Z</time>
      </trkpt>
      <trkpt lat="45.07637" lon="5.58677">
        <ele>1254.620754</ele>
        <time>2022-07-24T10:40:30.853Z</time>
      </trkpt>
      <trkpt lat="45.07599" lon="5.58576">
        <ele>1248.70474</ele>
        <time>2022-07-24T10:40:49.239Z</time>
      </trkpt>
      <trkpt lat="45.07587" lon="5.58554">
        <ele>1247.28211</ele>
        <time>2022-07-24T10:40:53.661Z</time>
      </trkpt>
      <trkpt lat="45.07575" lon="5.58537">
        <ele>1245.99261</ele>
        <time>2022-07-24T10:40:57.557Z</time>
      </trkpt>
      <trkpt lat="45.07508" lon="5.58471">
        <ele>1238.405153</ele>
        <time>2022-07-24T10:41:15.201Z</time>
      </trkpt>
      <trkpt lat="45.07449" lon="5.58375">
        <ele>1228.766219</ele>
        <time>2022-07-24T10:41:34.197Z</time>
      </trkpt>
      <trkpt lat="45.07432" lon="5.58351">
        <ele>1226.246208</ele>
        <time>2022-07-24T10:41:39.136Z</time>
      </trkpt>
      <trkpt lat="45.07412" lon="5.58332">
        <ele>1223.644455</ele>
        <time>2022-07-24T10:41:44.182Z</time>
      </trkpt>
      <trkpt lat="45.07376" lon="5.5829">
        <ele>1218.583596</ele>
        <time>2022-07-24T10:41:54.096Z</time>
      </trkpt>
      <trkpt lat="45.07348" lon="5.58235">
        <ele>1213.39254</ele>
        <time>2022-07-24T10:42:04.445Z</time>
      </trkpt>
      <trkpt lat="45.07324" lon="5.58178">
        <ele>1208.335998</ele>
        <time>2022-07-24T10:42:14.465Z</time>
      </trkpt>
      <trkpt lat="45.07298" lon="5.58124">
        <ele>1203.434286</ele>
        <time>2022-07-24T10:42:24.095Z</time>
      </trkpt>
      <trkpt lat="45.07269" lon="5.58085">
        <ele>1199.292028</ele>
        <time>2022-07-24T10:42:32.557Z</time>
      </trkpt>
      <trkpt lat="45.07267" lon="5.58073">
        <ele>1198.407209</ele>
        <time>2022-07-24T10:42:34.314Z</time>
      </trkpt>
      <trkpt lat="45.0727" lon="5.58056">
        <ele>1197.144701</ele>
        <time>2022-07-24T10:42:37.012Z</time>
      </trkpt>
      <trkpt lat="45.07278" lon="5.5804">
        <ele>1195.680148</ele>
        <time>2022-07-24T10:42:40.211Z</time>
      </trkpt>
      <trkpt lat="45.07294" lon="5.57997">
        <ele>1192.201512</ele>
        <time>2022-07-24T10:42:47.810Z</time>
      </trkpt>
      <trkpt lat="45.07298" lon="5.57988">
        <ele>1191.454841</ele>
        <time>2022-07-24T10:42:49.375Z</time>
      </trkpt>
      <trkpt lat="45.07306" lon="5.57936">
        <ele>1187.594998</ele>
        <time>2022-07-24T10:42:57.471Z</time>
      </trkpt>
      <trkpt lat="45.07279" lon="5.57907">
        <ele>1183.778091</ele>
        <time>2022-07-24T10:43:01.734Z</time>
      </trkpt>
      <trkpt lat="45.07205" lon="5.57882">
        <ele>1174.909018</ele>
        <time>2022-07-24T10:43:11.007Z</time>
      </trkpt>
      <trkpt lat="45.07201" lon="5.57881">
        <ele>1174.363941</ele>
        <time>2022-07-24T10:43:11.589Z</time>
      </trkpt>
      <trkpt lat="45.07189" lon="5.57884">
        <ele>1173.026333</ele>
        <time>2022-07-24T10:43:13.388Z</time>
      </trkpt>
      <trkpt lat="45.07188" lon="5.57849">
        <ele>1170.13872</ele>
        <time>2022-07-24T10:43:18.369Z</time>
      </trkpt>
      <trkpt lat="45.07191" lon="5.57809">
        <ele>1166.782306</ele>
        <time>2022-07-24T10:43:24.424Z</time>
      </trkpt>
      <trkpt lat="45.07189" lon="5.57781">
        <ele>1164.344116</ele>
        <time>2022-07-24T10:43:28.771Z</time>
      </trkpt>
      <trkpt lat="45.07179" lon="5.57758">
        <ele>1161.793046</ele>
        <time>2022-07-24T10:43:32.558Z</time>
      </trkpt>
      <trkpt lat="45.07164" lon="5.57709">
        <ele>1156.745945</ele>
        <time>2022-07-24T10:43:40.308Z</time>
      </trkpt>
      <trkpt lat="45.07157" lon="5.57698">
        <ele>1155.341909</ele>
        <time>2022-07-24T10:43:42.620Z</time>
      </trkpt>
      <trkpt lat="45.07155" lon="5.57676">
        <ele>1153.264644</ele>
        <time>2022-07-24T10:43:45.702Z</time>
      </trkpt>
      <trkpt lat="45.07168" lon="5.57647">
        <ele>1150.048677</ele>
        <time>2022-07-24T10:43:50.624Z</time>
      </trkpt>
      <trkpt lat="45.07162" lon="5.57613">
        <ele>1146.638597</ele>
        <time>2022-07-24T10:43:55.978Z</time>
      </trkpt>
      <trkpt lat="45.07145" lon="5.57597">
        <ele>1144.020346</ele>
        <time>2022-07-24T10:44:00.095Z</time>
      </trkpt>
      <trkpt lat="45.07147" lon="5.57586">
        <ele>1142.912586</ele>
        <time>2022-07-24T10:44:01.809Z</time>
      </trkpt>
      <trkpt lat="45.07175" lon="5.57577">
        <ele>1138.770635</ele>
        <time>2022-07-24T10:44:07.721Z</time>
      </trkpt>
      <trkpt lat="45.07192" lon="5.57591">
        <ele>1135.621816</ele>
        <time>2022-07-24T10:44:11.591Z</time>
      </trkpt>
      <trkpt lat="45.07201" lon="5.57557">
        <ele>1131.56689</ele>
        <time>2022-07-24T10:44:16.650Z</time>
      </trkpt>
      <trkpt lat="45.07219" lon="5.57546">
        <ele>1128.523009</ele>
        <time>2022-07-24T10:44:20.462Z</time>
      </trkpt>
      <trkpt lat="45.07225" lon="5.57549">
        <ele>1127.501697</ele>
        <time>2022-07-24T10:44:21.778Z</time>
      </trkpt>
      <trkpt lat="45.0724" lon="5.57534">
        <ele>1124.583646</ele>
        <time>2022-07-24T10:44:25.363Z</time>
      </trkpt>
      <trkpt lat="45.07246" lon="5.57512">
        <ele>1121.902114</ele>
        <time>2022-07-24T10:44:29.010Z</time>
      </trkpt>
      <trkpt lat="45.07243" lon="5.57493">
        <ele>1119.738417</ele>
        <time>2022-07-24T10:44:31.690Z</time>
      </trkpt>
      <trkpt lat="45.07245" lon="5.57471">
        <ele>1117.29199</ele>
        <time>2022-07-24T10:44:34.938Z</time>
      </trkpt>
      <trkpt lat="45.07239" lon="5.57467">
        <ele>1116.142705</ele>
        <time>2022-07-24T10:44:36.529Z</time>
      </trkpt>
      <trkpt lat="45.07237" lon="5.57441">
        <ele>1113.258065</ele>
        <time>2022-07-24T10:44:40.111Z</time>
      </trkpt>
      <trkpt lat="45.07237" lon="5.57418">
        <ele>1110.843869</ele>
        <time>2022-07-24T10:44:43.661Z</time>
      </trkpt>
      <trkpt lat="45.07207" lon="5.57362">
        <ele>1103.336179</ele>
        <time>2022-07-24T10:44:53.778Z</time>
      </trkpt>
      <trkpt lat="45.07186" lon="5.57386">
        <ele>1099.349835</ele>
        <time>2022-07-24T10:44:56.991Z</time>
      </trkpt>
      <trkpt lat="45.07162" lon="5.57346">
        <ele>1093.754495</ele>
        <time>2022-07-24T10:45:04.375Z</time>
      </trkpt>
      <trkpt lat="45.07142" lon="5.57334">
        <ele>1090.518611</ele>
        <time>2022-07-24T10:45:08.586Z</time>
      </trkpt>
      <trkpt lat="45.0713" lon="5.57304">
        <ele>1086.850966</ele>
        <time>2022-07-24T10:45:13.773Z</time>
      </trkpt>
      <trkpt lat="45.07118" lon="5.57261">
        <ele>1082.69784</ele>
        <time>2022-07-24T10:45:20.846Z</time>
      </trkpt>
      <trkpt lat="45.07134" lon="5.57201">
        <ele>1077.243884</ele>
        <time>2022-07-24T10:45:30.407Z</time>
      </trkpt>
      <trkpt lat="45.07175" lon="5.57127">
        <ele>1069.151054</ele>
        <time>2022-07-24T10:45:44.197Z</time>
      </trkpt>
      <trkpt lat="45.07189" lon="5.57058">
        <ele>1063.242685</ele>
        <time>2022-07-24T10:45:54.592Z</time>
      </trkpt>
      <trkpt lat="45.07197" lon="5.57037">
        <ele>1061.731823</ele>
        <time>2022-07-24T10:45:58.128Z</time>
      </trkpt>
      <trkpt lat="45.07233" lon="5.56998">
        <ele>1057.6672</ele>
        <time>2022-07-24T10:46:08.090Z</time>
      </trkpt>
      <trkpt lat="45.07243" lon="5.56965">
        <ele>1055.431911</ele>
        <time>2022-07-24T10:46:13.750Z</time>
      </trkpt>
      <trkpt lat="45.07248" lon="5.56878">
        <ele>1049.96832</ele>
        <time>2022-07-24T10:46:27.658Z</time>
      </trkpt>
      <trkpt lat="45.07279" lon="5.56841">
        <ele>1046.682247</ele>
        <time>2022-07-24T10:46:36.965Z</time>
      </trkpt>
      <trkpt lat="45.07348" lon="5.56789">
        <ele>1041.044627</ele>
        <time>2022-07-24T10:46:54.953Z</time>
      </trkpt>
      <trkpt lat="45.07389" lon="5.56776">
        <ele>1038.040057</ele>
        <time>2022-07-24T10:47:04.452Z</time>
      </trkpt>
      <trkpt lat="45.07424" lon="5.56773">
        <ele>1035.506307</ele>
        <time>2022-07-24T10:47:12.237Z</time>
      </trkpt>
      <trkpt lat="45.07446" lon="5.56764">
        <ele>1034.130322</ele>
        <time>2022-07-24T10:47:17.150Z</time>
      </trkpt>
      <trkpt lat="45.07487" lon="5.56759">
        <ele>1031.815849</ele>
        <time>2022-07-24T10:47:26.265Z</time>
      </trkpt>
      <trkpt lat="45.07505" lon="5.56745">
        <ele>1030.656647</ele>
        <time>2022-07-24T10:47:31.029Z</time>
      </trkpt>
      <trkpt lat="45.07511" lon="5.56611">
        <ele>1025.289205</ele>
        <time>2022-07-24T10:47:53.873Z</time>
      </trkpt>
      <trkpt lat="45.07485" lon="5.56573">
        <ele>1025.321428</ele>
        <time>2022-07-24T10:48:04.109Z</time>
      </trkpt>
      <trkpt lat="45.07453" lon="5.56521">
        <ele>1026.02527</ele>
        <time>2022-07-24T10:48:19.319Z</time>
      </trkpt>
      <trkpt lat="45.07448" lon="5.56498">
        <ele>1026.275399</ele>
        <time>2022-07-24T10:48:26.700Z</time>
      </trkpt>
      <trkpt lat="45.07438" lon="5.56479">
        <ele>1026.516515</ele>
        <time>2022-07-24T10:48:34.965Z</time>
      </trkpt>
      <trkpt lat="45.07427" lon="5.56469">
        <ele>1026.698214</ele>
        <time>2022-07-24T10:48:42.074Z</time>
      </trkpt>
      <trkpt lat="45.07408" lon="5.56456">
        <ele>1027.009499</ele>
        <time>2022-07-24T10:48:53.771Z</time>
      </trkpt>
      <trkpt lat="45.07349" lon="5.56427">
        <ele>1028.463999</ele>
        <time>2022-07-24T10:49:27.246Z</time>
      </trkpt>
      <trkpt lat="45.07325" lon="5.56424">
        <ele>1029.291572</ele>
        <time>2022-07-24T10:49:40.916Z</time>
      </trkpt>
      <trkpt lat="45.07296" lon="5.56425">
        <ele>1030.264825</ele>
        <time>2022-07-24T10:49:55.007Z</time>
      </trkpt>
      <trkpt lat="45.07292" lon="5.5642">
        <ele>1030.459887</ele>
        <time>2022-07-24T10:49:58.082Z</time>
      </trkpt>
      <trkpt lat="45.07291" lon="5.56413">
        <ele>1030.622239</ele>
        <time>2022-07-24T10:50:00.233Z</time>
      </trkpt>
      <trkpt lat="45.07292" lon="5.56406">
        <ele>1030.793837</ele>
        <time>2022-07-24T10:50:02.132Z</time>
      </trkpt>
      <trkpt lat="45.0732" lon="5.5639">
        <ele>1031.831938</ele>
        <time>2022-07-24T10:50:18.021Z</time>
      </trkpt>
      <trkpt lat="45.07362" lon="5.5637">
        <ele>1033.3207</ele>
        <time>2022-07-24T10:50:37.471Z</time>
      </trkpt>
      <trkpt lat="45.07381" lon="5.56362">
        <ele>1033.601557</ele>
        <time>2022-07-24T10:50:45.307Z</time>
      </trkpt>
      <trkpt lat="45.07391" lon="5.56349">
        <ele>1033.615785</ele>
        <time>2022-07-24T10:50:48.904Z</time>
      </trkpt>
      <trkpt lat="45.07395" lon="5.56338">
        <ele>1033.624525</ele>
        <time>2022-07-24T10:50:50.624Z</time>
      </trkpt>
      <trkpt lat="45.07402" lon="5.56211">
        <ele>1033.716972</ele>
        <time>2022-07-24T10:51:08.007Z</time>
      </trkpt>
      <trkpt lat="45.07402" lon="5.56187">
        <ele>1033.734318</ele>
        <time>2022-07-24T10:51:11.096Z</time>
      </trkpt>
      <trkpt lat="45.07401" lon="5.56158">
        <ele>1033.755922</ele>
        <time>2022-07-24T10:51:15.387Z</time>
      </trkpt>
      <trkpt lat="45.07387" lon="5.56098">
        <ele>1033.193293</ele>
        <time>2022-07-24T10:51:23.115Z</time>
      </trkpt>
      <trkpt lat="45.0738" lon="5.56056">
        <ele>1032.534214</ele>
        <time>2022-07-24T10:51:28.198Z</time>
      </trkpt>
      <trkpt lat="45.07379" lon="5.56047">
        <ele>1032.397925</ele>
        <time>2022-07-24T10:51:29.219Z</time>
      </trkpt>
      <trkpt lat="45.07369" lon="5.56012">
        <ele>1031.801827</ele>
        <time>2022-07-24T10:51:33.665Z</time>
      </trkpt>
      <trkpt lat="45.07358" lon="5.55995">
        <ele>1031.443319</ele>
        <time>2022-07-24T10:51:36.146Z</time>
      </trkpt>
      <trkpt lat="45.0734" lon="5.5598">
        <ele>1030.988049</ele>
        <time>2022-07-24T10:51:39.406Z</time>
      </trkpt>
      <trkpt lat="45.07319" lon="5.55968">
        <ele>1030.501662</ele>
        <time>2022-07-24T10:51:42.799Z</time>
      </trkpt>
      <trkpt lat="45.07324" lon="5.55942">
        <ele>1030.09534</ele>
        <time>2022-07-24T10:51:45.710Z</time>
      </trkpt>
      <trkpt lat="45.07325" lon="5.55916">
        <ele>1029.722079</ele>
        <time>2022-07-24T10:51:48.589Z</time>
      </trkpt>
      <trkpt lat="45.07315" lon="5.55847">
        <ele>1028.86385</ele>
        <time>2022-07-24T10:51:56.624Z</time>
      </trkpt>
      <trkpt lat="45.07316" lon="5.55818">
        <ele>1028.506231</ele>
        <time>2022-07-24T10:52:00.148Z</time>
      </trkpt>
      <trkpt lat="45.07322" lon="5.55778">
        <ele>1028.010651</ele>
        <time>2022-07-24T10:52:05.049Z</time>
      </trkpt>
      <trkpt lat="45.0732" lon="5.55722">
        <ele>1027.320982</ele>
        <time>2022-07-24T10:52:11.927Z</time>
      </trkpt>
      <trkpt lat="45.07317" lon="5.55689">
        <ele>1026.911086</ele>
        <time>2022-07-24T10:52:16.194Z</time>
      </trkpt>
      <trkpt lat="45.07311" lon="5.55678">
        <ele>1026.74009</ele>
        <time>2022-07-24T10:52:18.414Z</time>
      </trkpt>
      <trkpt lat="45.07314" lon="5.55657">
        <ele>1026.57799</ele>
        <time>2022-07-24T10:52:20.942Z</time>
      </trkpt>
      <trkpt lat="45.07339" lon="5.55572">
        <ele>1025.90992</ele>
        <time>2022-07-24T10:52:32.114Z</time>
      </trkpt>
      <trkpt lat="45.07375" lon="5.55492">
        <ele>1025.216403</ele>
        <time>2022-07-24T10:52:44.369Z</time>
      </trkpt>
      <trkpt lat="45.07381" lon="5.55437">
        <ele>1024.883694</ele>
        <time>2022-07-24T10:52:51.308Z</time>
      </trkpt>
      <trkpt lat="45.07363" lon="5.55423">
        <ele>1024.905945</ele>
        <time>2022-07-24T10:52:55.141Z</time>
      </trkpt>
      <trkpt lat="45.07359" lon="5.55416">
        <ele>1024.912603</ele>
        <time>2022-07-24T10:52:56.250Z</time>
      </trkpt>
      <trkpt lat="45.07358" lon="5.55406">
        <ele>1024.920465</ele>
        <time>2022-07-24T10:52:57.429Z</time>
      </trkpt>
      <trkpt lat="45.07352" lon="5.55404">
        <ele>1024.926725</ele>
        <time>2022-07-24T10:52:58.469Z</time>
      </trkpt>
      <trkpt lat="45.07343" lon="5.55398">
        <ele>1024.938031</ele>
        <time>2022-07-24T10:53:00.553Z</time>
      </trkpt>
      <trkpt lat="45.07301" lon="5.55339">
        <ele>1025.002391</ele>
        <time>2022-07-24T10:53:11.329Z</time>
      </trkpt>
      <trkpt lat="45.07278" lon="5.55306">
        <ele>1025.037943</ele>
        <time>2022-07-24T10:53:17.953Z</time>
      </trkpt>
      <trkpt lat="45.07259" lon="5.55279">
        <ele>1025.06699</ele>
        <time>2022-07-24T10:53:25.446Z</time>
      </trkpt>
      <trkpt lat="45.07243" lon="5.55255">
        <ele>1025.339699</ele>
        <time>2022-07-24T10:53:31.762Z</time>
      </trkpt>
      <trkpt lat="45.07239" lon="5.55249">
        <ele>1025.429432</ele>
        <time>2022-07-24T10:53:33.477Z</time>
      </trkpt>
      <trkpt lat="45.0719" lon="5.55178">
        <ele>1026.474602</ele>
        <time>2022-07-24T10:53:53.198Z</time>
      </trkpt>
      <trkpt lat="45.07179" lon="5.55165">
        <ele>1026.691594</ele>
        <time>2022-07-24T10:53:57.303Z</time>
      </trkpt>
      <trkpt lat="45.07152" lon="5.55152">
        <ele>1027.115519</ele>
        <time>2022-07-24T10:54:04.499Z</time>
      </trkpt>
      <trkpt lat="45.07144" lon="5.55149">
        <ele>1027.236133</ele>
        <time>2022-07-24T10:54:06.739Z</time>
      </trkpt>
      <trkpt lat="45.07138" lon="5.55146">
        <ele>1027.326829</ele>
        <time>2022-07-24T10:54:08.360Z</time>
      </trkpt>
      <trkpt lat="45.07097" lon="5.55124">
        <ele>1027.718464</ele>
        <time>2022-07-24T10:54:19.500Z</time>
      </trkpt>
      <trkpt lat="45.07084" lon="5.55157">
        <ele>1027.653774</ele>
        <time>2022-07-24T10:54:26.894Z</time>
      </trkpt>
      <trkpt lat="45.07063" lon="5.55146">
        <ele>1027.602018</ele>
        <time>2022-07-24T10:54:33.318Z</time>
      </trkpt>
      <trkpt lat="45.07039" lon="5.55133">
        <ele>1027.540757</ele>
        <time>2022-07-24T10:54:39.716Z</time>
      </trkpt>
      <trkpt lat="45.07036" lon="5.5516">
        <ele>1027.494416</ele>
        <time>2022-07-24T10:54:43.299Z</time>
      </trkpt>
      <trkpt lat="45.07032" lon="5.55195">
        <ele>1027.435397</ele>
        <time>2022-07-24T10:55:00.658Z</time>
      </trkpt>
      <trkpt lat="45.0703" lon="5.55213">
        <ele>1027.404698</ele>
        <time>2022-07-24T10:55:09.730Z</time>
      </trkpt>
      <trkpt lat="45.0702" lon="5.5529">
        <ele>1027.333516</ele>
        <time>2022-07-24T10:55:48.200Z</time>
      </trkpt>
      <trkpt lat="45.07018" lon="5.55311">
        <ele>1027.33531</ele>
        <time>2022-07-24T10:55:58.454Z</time>
      </trkpt>
      <trkpt lat="45.07007" lon="5.55307">
        <ele>1027.336684</ele>
        <time>2022-07-24T10:56:00.153Z</time>
      </trkpt>
      <trkpt lat="45.06993" lon="5.55303">
        <ele>1027.338391</ele>
        <time>2022-07-24T10:56:02.298Z</time>
      </trkpt>
      <trkpt lat="45.06984" lon="5.5529">
        <ele>1027.339892</ele>
        <time>2022-07-24T10:56:04.218Z</time>
      </trkpt>
      <trkpt lat="45.0698" lon="5.55333">
        <ele>1027.34355</ele>
        <time>2022-07-24T10:56:13.288Z</time>
      </trkpt>
      <trkpt lat="45.06976" lon="5.55352">
        <ele>1027.34525</ele>
        <time>2022-07-24T10:56:16.354Z</time>
      </trkpt>
      <trkpt lat="45.06944" lon="5.55389">
        <ele>1027.350309</ele>
        <time>2022-07-24T10:56:27.356Z</time>
      </trkpt>
      <trkpt lat="45.06905" lon="5.55451">
        <ele>1028.984406</ele>
        <time>2022-07-24T10:56:42.402Z</time>
      </trkpt>
      <trkpt lat="45.06918" lon="5.55483">
        <ele>1030.040887</ele>
        <time>2022-07-24T10:56:56.004Z</time>
      </trkpt>
      <trkpt lat="45.06898" lon="5.55581">
        <ele>1032.897647</ele>
        <time>2022-07-24T10:57:35.846Z</time>
      </trkpt>
      <trkpt lat="45.06901" lon="5.55586">
        <ele>1033.072487</ele>
        <time>2022-07-24T10:57:37.752Z</time>
      </trkpt>
      <trkpt lat="45.06911" lon="5.55587">
        <ele>1033.476942</ele>
        <time>2022-07-24T10:57:44.494Z</time>
      </trkpt>
      <trkpt lat="45.06925" lon="5.55584">
        <ele>1034.016476</ele>
        <time>2022-07-24T10:57:53.233Z</time>
      </trkpt>
      <trkpt lat="45.06949" lon="5.55558">
        <ele>1035.326367</ele>
        <time>2022-07-24T10:58:13.004Z</time>
      </trkpt>
      <trkpt lat="45.06963" lon="5.55547">
        <ele>1036.04147</ele>
        <time>2022-07-24T10:58:23.077Z</time>
      </trkpt>
      <trkpt lat="45.06972" lon="5.55547">
        <ele>1036.434134</ele>
        <time>2022-07-24T10:58:29.052Z</time>
      </trkpt>
      <trkpt lat="45.06964" lon="5.55564">
        <ele>1037.069865</ele>
        <time>2022-07-24T10:58:34.037Z</time>
      </trkpt>
      <trkpt lat="45.06943" lon="5.5559">
        <ele>1038.329784</ele>
        <time>2022-07-24T10:58:45.361Z</time>
      </trkpt>
      <trkpt lat="45.06851" lon="5.55711">
        <ele>1043.276299</ele>
        <time>2022-07-24T10:59:33.524Z</time>
      </trkpt>
      <trkpt lat="45.06818" lon="5.55749">
        <ele>1044.258786</ele>
        <time>2022-07-24T10:59:47.843Z</time>
      </trkpt>
      <trkpt lat="45.06797" lon="5.55759">
        <ele>1044.790925</ele>
        <time>2022-07-24T10:59:56.091Z</time>
      </trkpt>
      <trkpt lat="45.06735" lon="5.55778">
        <ele>1046.286149</ele>
        <time>2022-07-24T11:00:14.109Z</time>
      </trkpt>
      <trkpt lat="45.06712" lon="5.55794">
        <ele>1046.769024</ele>
        <time>2022-07-24T11:00:19.351Z</time>
      </trkpt>
      <trkpt lat="45.06689" lon="5.55817">
        <ele>1046.75562</ele>
        <time>2022-07-24T11:00:25.011Z</time>
      </trkpt>
      <trkpt lat="45.06657" lon="5.55847">
        <ele>1046.737266</ele>
        <time>2022-07-24T11:00:32.283Z</time>
      </trkpt>
      <trkpt lat="45.06609" lon="5.55836">
        <ele>1046.714647</ele>
        <time>2022-07-24T11:00:41.087Z</time>
      </trkpt>
      <trkpt lat="45.06572" lon="5.55817">
        <ele>1046.695774</ele>
        <time>2022-07-24T11:00:48.727Z</time>
      </trkpt>
      <trkpt lat="45.06537" lon="5.55804">
        <ele>1047.127524</ele>
        <time>2022-07-24T11:00:55.876Z</time>
      </trkpt>
      <trkpt lat="45.06528" lon="5.55797">
        <ele>1047.399856</ele>
        <time>2022-07-24T11:00:59.402Z</time>
      </trkpt>
      <trkpt lat="45.06523" lon="5.55784">
        <ele>1047.692814</ele>
        <time>2022-07-24T11:01:02.112Z</time>
      </trkpt>
      <trkpt lat="45.06519" lon="5.5576">
        <ele>1048.163005</ele>
        <time>2022-07-24T11:01:06.311Z</time>
      </trkpt>
      <trkpt lat="45.06533" lon="5.55688">
        <ele>1049.627331</ele>
        <time>2022-07-24T11:01:26.630Z</time>
      </trkpt>
      <trkpt lat="45.06532" lon="5.5568">
        <ele>1049.775237</ele>
        <time>2022-07-24T11:01:28.841Z</time>
      </trkpt>
      <trkpt lat="45.06527" lon="5.55668">
        <ele>1050.056494</ele>
        <time>2022-07-24T11:01:32.124Z</time>
      </trkpt>
      <trkpt lat="45.06506" lon="5.55644">
        <ele>1050.785025</ele>
        <time>2022-07-24T11:01:44.174Z</time>
      </trkpt>
      <trkpt lat="45.06499" lon="5.55641">
        <ele>1051.001216</ele>
        <time>2022-07-24T11:01:46.448Z</time>
      </trkpt>
      <trkpt lat="45.06487" lon="5.55642">
        <ele>1051.337185</ele>
        <time>2022-07-24T11:01:52.069Z</time>
      </trkpt>
      <trkpt lat="45.06479" lon="5.55642">
        <ele>1051.543783</ele>
        <time>2022-07-24T11:01:55.032Z</time>
      </trkpt>
      <trkpt lat="45.0645" lon="5.55651">
        <ele>1052.45701</ele>
        <time>2022-07-24T11:02:05.398Z</time>
      </trkpt>
      <trkpt lat="45.06436" lon="5.55641">
        <ele>1052.964786</ele>
        <time>2022-07-24T11:02:14.988Z</time>
      </trkpt>
      <trkpt lat="45.06423" lon="5.55614">
        <ele>1053.694725</ele>
        <time>2022-07-24T11:02:26.136Z</time>
      </trkpt>
      <trkpt lat="45.06419" lon="5.55594">
        <ele>1054.14846</ele>
        <time>2022-07-24T11:02:34.210Z</time>
      </trkpt>
      <trkpt lat="45.06422" lon="5.55542">
        <ele>1055.314437</ele>
        <time>2022-07-24T11:02:53.019Z</time>
      </trkpt>
      <trkpt lat="45.06429" lon="5.555">
        <ele>1056.268701</ele>
        <time>2022-07-24T11:03:08.796Z</time>
      </trkpt>
      <trkpt lat="45.06429" lon="5.55484">
        <ele>1056.624399</ele>
        <time>2022-07-24T11:03:12.891Z</time>
      </trkpt>
      <trkpt lat="45.0643" lon="5.55468">
        <ele>1056.977044</ele>
        <time>2022-07-24T11:03:16.603Z</time>
      </trkpt>
      <trkpt lat="45.06419" lon="5.55452">
        <ele>1057.324808</ele>
        <time>2022-07-24T11:03:24.269Z</time>
      </trkpt>
      <trkpt lat="45.06396" lon="5.55437">
        <ele>1057.452337</ele>
        <time>2022-07-24T11:03:31.766Z</time>
      </trkpt>
      <trkpt lat="45.06375" lon="5.55429">
        <ele>1057.558518</ele>
        <time>2022-07-24T11:03:38.274Z</time>
      </trkpt>
      <trkpt lat="45.06338" lon="5.55424">
        <ele>1057.741298</ele>
        <time>2022-07-24T11:03:49.669Z</time>
      </trkpt>
      <trkpt lat="45.06307" lon="5.55413">
        <ele>1057.897932</ele>
        <time>2022-07-24T11:03:59.615Z</time>
      </trkpt>
      <trkpt lat="45.0627" lon="5.55413">
        <ele>1058.080581</ele>
        <time>2022-07-24T11:04:12.840Z</time>
      </trkpt>
      <trkpt lat="45.06254" lon="5.55419">
        <ele>1058.163154</ele>
        <time>2022-07-24T11:04:18.630Z</time>
      </trkpt>
      <trkpt lat="45.06233" lon="5.55432">
        <ele>1058.565381</ele>
        <time>2022-07-24T11:04:26.888Z</time>
      </trkpt>
      <trkpt lat="45.06209" lon="5.55455">
        <ele>1059.177138</ele>
        <time>2022-07-24T11:04:38.117Z</time>
      </trkpt>
      <trkpt lat="45.06186" lon="5.55489">
        <ele>1059.88104</ele>
        <time>2022-07-24T11:04:51.779Z</time>
      </trkpt>
      <trkpt lat="45.06164" lon="5.5554">
        <ele>1060.768874</ele>
        <time>2022-07-24T11:05:04.965Z</time>
      </trkpt>
      <trkpt lat="45.0616" lon="5.55549">
        <ele>1060.93272</ele>
        <time>2022-07-24T11:05:07.311Z</time>
      </trkpt>
      <trkpt lat="45.06077" lon="5.55648">
        <ele>1063.890145</ele>
        <time>2022-07-24T11:05:47.657Z</time>
      </trkpt>
      <trkpt lat="45.06066" lon="5.55651">
        <ele>1064.236673</ele>
        <time>2022-07-24T11:05:50.992Z</time>
      </trkpt>
      <trkpt lat="45.05997" lon="5.55603">
        <ele>1066.718871</ele>
        <time>2022-07-24T11:06:18.633Z</time>
      </trkpt>
      <trkpt lat="45.05985" lon="5.55591">
        <ele>1067.18708</ele>
        <time>2022-07-24T11:06:24.775Z</time>
      </trkpt>
      <trkpt lat="45.05981" lon="5.55594">
        <ele>1067.331273</ele>
        <time>2022-07-24T11:06:26.126Z</time>
      </trkpt>
      <trkpt lat="45.05976" lon="5.55592">
        <ele>1067.521035</ele>
        <time>2022-07-24T11:06:28.452Z</time>
      </trkpt>
      <trkpt lat="45.05967" lon="5.55583">
        <ele>1067.974233</ele>
        <time>2022-07-24T11:06:32.611Z</time>
      </trkpt>
      <trkpt lat="45.0592" lon="5.55494">
        <ele>1073.054582</ele>
        <time>2022-07-24T11:07:01.283Z</time>
      </trkpt>
      <trkpt lat="45.0591" lon="5.55489">
        <ele>1073.786222</ele>
        <time>2022-07-24T11:07:05.124Z</time>
      </trkpt>
      <trkpt lat="45.05894" lon="5.55491">
        <ele>1074.833568</ele>
        <time>2022-07-24T11:07:12.740Z</time>
      </trkpt>
      <trkpt lat="45.05887" lon="5.55494">
        <ele>1075.271504</ele>
        <time>2022-07-24T11:07:17.064Z</time>
      </trkpt>
      <trkpt lat="45.05853" lon="5.55514">
        <ele>1077.695756</ele>
        <time>2022-07-24T11:07:41.540Z</time>
      </trkpt>
      <trkpt lat="45.05832" lon="5.55533">
        <ele>1079.349025</ele>
        <time>2022-07-24T11:07:58.819Z</time>
      </trkpt>
      <trkpt lat="45.0583" lon="5.55535">
        <ele>1079.479936</ele>
        <time>2022-07-24T11:08:00.461Z</time>
      </trkpt>
      <trkpt lat="45.0579" lon="5.55589">
        <ele>1088.062986</ele>
        <time>2022-07-24T11:08:49.097Z</time>
      </trkpt>
      <trkpt lat="45.05778" lon="5.556">
        <ele>1090.145933</ele>
        <time>2022-07-24T11:09:04.913Z</time>
      </trkpt>
      <trkpt lat="45.05743" lon="5.55623">
        <ele>1096.133816</ele>
        <time>2022-07-24T11:09:45.510Z</time>
      </trkpt>
      <trkpt lat="45.05717" lon="5.55636">
        <ele>1100.409413</ele>
        <time>2022-07-24T11:10:13.859Z</time>
      </trkpt>
      <trkpt lat="45.05707" lon="5.55639">
        <ele>1101.999263</ele>
        <time>2022-07-24T11:10:24.371Z</time>
      </trkpt>
      <trkpt lat="45.05689" lon="5.55643">
        <ele>1104.85069</ele>
        <time>2022-07-24T11:10:43.142Z</time>
      </trkpt>
      <trkpt lat="45.05652" lon="5.5564">
        <ele>1110.037805</ele>
        <time>2022-07-24T11:11:24.127Z</time>
      </trkpt>
      <trkpt lat="45.05644" lon="5.55623">
        <ele>1111.880903</ele>
        <time>2022-07-24T11:11:41.370Z</time>
      </trkpt>
      <trkpt lat="45.05626" lon="5.55594">
        <ele>1115.378929</ele>
        <time>2022-07-24T11:12:12.105Z</time>
      </trkpt>
      <trkpt lat="45.0558" lon="5.55555">
        <ele>1122.200034</ele>
        <time>2022-07-24T11:12:59.529Z</time>
      </trkpt>
      <trkpt lat="45.05524" lon="5.55497">
        <ele>1130.484981</ele>
        <time>2022-07-24T11:13:45.566Z</time>
      </trkpt>
      <trkpt lat="45.05473" lon="5.55455">
        <ele>1131.643629</ele>
        <time>2022-07-24T11:14:08.099Z</time>
      </trkpt>
      <trkpt lat="45.0544" lon="5.55411">
        <ele>1132.536051</ele>
        <time>2022-07-24T11:14:22.127Z</time>
      </trkpt>
      <trkpt lat="45.05408" lon="5.55369">
        <ele>1133.392364</ele>
        <time>2022-07-24T11:14:31.168Z</time>
      </trkpt>
      <trkpt lat="45.05333" lon="5.55319">
        <ele>1132.579753</ele>
        <time>2022-07-24T11:14:45.320Z</time>
      </trkpt>
      <trkpt lat="45.05252" lon="5.5529">
        <ele>1130.568668</ele>
        <time>2022-07-24T11:14:59.164Z</time>
      </trkpt>
      <trkpt lat="45.05211" lon="5.55295">
        <ele>1129.611191</ele>
        <time>2022-07-24T11:15:06.223Z</time>
      </trkpt>
      <trkpt lat="45.0519" lon="5.55291">
        <ele>1129.278228</ele>
        <time>2022-07-24T11:15:09.999Z</time>
      </trkpt>
      <trkpt lat="45.05167" lon="5.5526">
        <ele>1128.806469</ele>
        <time>2022-07-24T11:15:15.769Z</time>
      </trkpt>
      <trkpt lat="45.05124" lon="5.5524">
        <ele>1128.12238</ele>
        <time>2022-07-24T11:15:24.415Z</time>
      </trkpt>
      <trkpt lat="45.0508" lon="5.55209">
        <ele>1127.375368</ele>
        <time>2022-07-24T11:15:33.784Z</time>
      </trkpt>
      <trkpt lat="45.05062" lon="5.55185">
        <ele>1127.008001</ele>
        <time>2022-07-24T11:15:38.136Z</time>
      </trkpt>
      <trkpt lat="45.05025" lon="5.55186">
        <ele>1126.306187</ele>
        <time>2022-07-24T11:15:44.796Z</time>
      </trkpt>
      <trkpt lat="45.04997" lon="5.55195">
        <ele>1125.743316</ele>
        <time>2022-07-24T11:15:49.710Z</time>
      </trkpt>
      <trkpt lat="45.04934" lon="5.55204">
        <ele>1124.496303</ele>
        <time>2022-07-24T11:16:00.200Z</time>
      </trkpt>
      <trkpt lat="45.04906" lon="5.55205">
        <ele>1123.932961</ele>
        <time>2022-07-24T11:16:05.182Z</time>
      </trkpt>
      <trkpt lat="45.0487" lon="5.55201">
        <ele>1123.410929</ele>
        <time>2022-07-24T11:16:11.749Z</time>
      </trkpt>
      <trkpt lat="45.04858" lon="5.55203">
        <ele>1123.521527</ele>
        <time>2022-07-24T11:16:14.076Z</time>
      </trkpt>
      <trkpt lat="45.04849" lon="5.55209">
        <ele>1123.620848</ele>
        <time>2022-07-24T11:16:16.626Z</time>
      </trkpt>
      <trkpt lat="45.04843" lon="5.55217">
        <ele>1123.691467</ele>
        <time>2022-07-24T11:16:17.732Z</time>
      </trkpt>
      <trkpt lat="45.04839" lon="5.55225">
        <ele>1123.757679</ele>
        <time>2022-07-24T11:16:19.556Z</time>
      </trkpt>
      <trkpt lat="45.04821" lon="5.55302">
        <ele>1124.295991</ele>
        <time>2022-07-24T11:16:33.991Z</time>
      </trkpt>
      <trkpt lat="45.04812" lon="5.55408">
        <ele>1124.996538</ele>
        <time>2022-07-24T11:16:59.360Z</time>
      </trkpt>
      <trkpt lat="45.04822" lon="5.55504">
        <ele>1125.561945</ele>
        <time>2022-07-24T11:17:24.562Z</time>
      </trkpt>
      <trkpt lat="45.04821" lon="5.55512">
        <ele>1125.60645</ele>
        <time>2022-07-24T11:17:25.601Z</time>
      </trkpt>
      <trkpt lat="45.04818" lon="5.55515">
        <ele>1125.636157</ele>
        <time>2022-07-24T11:17:28.159Z</time>
      </trkpt>
      <trkpt lat="45.04821" lon="5.55526">
        <ele>1125.702321</ele>
        <time>2022-07-24T11:17:30.016Z</time>
      </trkpt>
      <trkpt lat="45.04797" lon="5.55546">
        <ele>1125.928874</ele>
        <time>2022-07-24T11:17:34.984Z</time>
      </trkpt>
      <trkpt lat="45.04782" lon="5.55553">
        <ele>1126.063431</ele>
        <time>2022-07-24T11:17:37.794Z</time>
      </trkpt>
      <trkpt lat="45.04769" lon="5.5555">
        <ele>1126.169585</ele>
        <time>2022-07-24T11:17:39.931Z</time>
      </trkpt>
      <trkpt lat="45.04756" lon="5.5554">
        <ele>1126.290636</ele>
        <time>2022-07-24T11:17:43.190Z</time>
      </trkpt>
      <trkpt lat="45.04732" lon="5.5551">
        <ele>1126.411743</ele>
        <time>2022-07-24T11:17:48.972Z</time>
      </trkpt>
      <trkpt lat="45.04716" lon="5.55479">
        <ele>1126.085852</ele>
        <time>2022-07-24T11:17:53.074Z</time>
      </trkpt>
      <trkpt lat="45.04701" lon="5.55454">
        <ele>1125.803443</ele>
        <time>2022-07-24T11:17:56.860Z</time>
      </trkpt>
      <trkpt lat="45.04693" lon="5.55448">
        <ele>1125.691382</ele>
        <time>2022-07-24T11:17:58.234Z</time>
      </trkpt>
      <trkpt lat="45.04677" lon="5.55445">
        <ele>1125.494973</ele>
        <time>2022-07-24T11:18:00.491Z</time>
      </trkpt>
      <trkpt lat="45.04672" lon="5.55454">
        <ele>1125.393753</ele>
        <time>2022-07-24T11:18:01.803Z</time>
      </trkpt>
      <trkpt lat="45.04671" lon="5.5548">
        <ele>1125.169018</ele>
        <time>2022-07-24T11:18:04.426Z</time>
      </trkpt>
      <trkpt lat="45.04666" lon="5.55495">
        <ele>1125.029755</ele>
        <time>2022-07-24T11:18:06.039Z</time>
      </trkpt>
      <trkpt lat="45.04641" lon="5.55529">
        <ele>1124.608662</ele>
        <time>2022-07-24T11:18:11.556Z</time>
      </trkpt>
      <trkpt lat="45.046" lon="5.55537">
        <ele>1125.018632</ele>
        <time>2022-07-24T11:18:26.767Z</time>
      </trkpt>
      <trkpt lat="45.04583" lon="5.55546">
        <ele>1125.799302</ele>
        <time>2022-07-24T11:18:35.418Z</time>
      </trkpt>
      <trkpt lat="45.04576" lon="5.55555">
        <ele>1126.227789</ele>
        <time>2022-07-24T11:18:39.889Z</time>
      </trkpt>
      <trkpt lat="45.04567" lon="5.5557">
        <ele>1126.819011</ele>
        <time>2022-07-24T11:18:47.746Z</time>
      </trkpt>
      <trkpt lat="45.04554" lon="5.55613">
        <ele>1128.227506</ele>
        <time>2022-07-24T11:19:06.329Z</time>
      </trkpt>
      <trkpt lat="45.04539" lon="5.55707">
        <ele>1131.157669</ele>
        <time>2022-07-24T11:19:45.673Z</time>
      </trkpt>
      <trkpt lat="45.04534" lon="5.55727">
        <ele>1131.803553</ele>
        <time>2022-07-24T11:19:55.098Z</time>
      </trkpt>
      <trkpt lat="45.0451" lon="5.55771">
        <ele>1134.724307</ele>
        <time>2022-07-24T11:20:20.710Z</time>
      </trkpt>
      <trkpt lat="45.04489" lon="5.55821">
        <ele>1138.014942</ele>
        <time>2022-07-24T11:20:49.283Z</time>
      </trkpt>
      <trkpt lat="45.04476" lon="5.55839">
        <ele>1139.453963</ele>
        <time>2022-07-24T11:21:03.414Z</time>
      </trkpt>
      <trkpt lat="45.04466" lon="5.55844">
        <ele>1140.354632</ele>
        <time>2022-07-24T11:21:12.336Z</time>
      </trkpt>
      <trkpt lat="45.04448" lon="5.55815">
        <ele>1142.535681</ele>
        <time>2022-07-24T11:21:33.033Z</time>
      </trkpt>
      <trkpt lat="45.04427" lon="5.55795">
        <ele>1144.562035</ele>
        <time>2022-07-24T11:21:51.739Z</time>
      </trkpt>
      <trkpt lat="45.04412" lon="5.55764">
        <ele>1146.723107</ele>
        <time>2022-07-24T11:22:11.861Z</time>
      </trkpt>
      <trkpt lat="45.04397" lon="5.55712">
        <ele>1150.273404</ele>
        <time>2022-07-24T11:22:41.510Z</time>
      </trkpt>
      <trkpt lat="45.04383" lon="5.55677">
        <ele>1152.828378</ele>
        <time>2022-07-24T11:23:04.133Z</time>
      </trkpt>
      <trkpt lat="45.04351" lon="5.55618">
        <ele>1157.504206</ele>
        <time>2022-07-24T11:23:45.432Z</time>
      </trkpt>
      <trkpt lat="45.04327" lon="5.55564">
        <ele>1161.596809</ele>
        <time>2022-07-24T11:24:22.106Z</time>
      </trkpt>
      <trkpt lat="45.04284" lon="5.55478">
        <ele>1165.879608</ele>
        <time>2022-07-24T11:25:14.172Z</time>
      </trkpt>
      <trkpt lat="45.04278" lon="5.55455">
        <ele>1166.829119</ele>
        <time>2022-07-24T11:25:24.749Z</time>
      </trkpt>
      <trkpt lat="45.04245" lon="5.55393">
        <ele>1169.706173</ele>
        <time>2022-07-24T11:25:53.943Z</time>
      </trkpt>
      <trkpt lat="45.04211" lon="5.55327">
        <ele>1171.849949</ele>
        <time>2022-07-24T11:26:20.778Z</time>
      </trkpt>
      <trkpt lat="45.04187" lon="5.55266">
        <ele>1171.178145</ele>
        <time>2022-07-24T11:26:38.296Z</time>
      </trkpt>
      <trkpt lat="45.04163" lon="5.55242">
        <ele>1170.772842</ele>
        <time>2022-07-24T11:26:47.051Z</time>
      </trkpt>
      <trkpt lat="45.04136" lon="5.55194">
        <ele>1170.188749</ele>
        <time>2022-07-24T11:26:58.615Z</time>
      </trkpt>
      <trkpt lat="45.04134" lon="5.55172">
        <ele>1169.977279</ele>
        <time>2022-07-24T11:27:02.605Z</time>
      </trkpt>
      <trkpt lat="45.04149" lon="5.55137">
        <ele>1169.564243</ele>
        <time>2022-07-24T11:27:09.818Z</time>
      </trkpt>
      <trkpt lat="45.04145" lon="5.5512">
        <ele>1168.496456</ele>
        <time>2022-07-24T11:27:12.925Z</time>
      </trkpt>
      <trkpt lat="45.0413" lon="5.55097">
        <ele>1166.747402</ele>
        <time>2022-07-24T11:27:18.119Z</time>
      </trkpt>
      <trkpt lat="45.04128" lon="5.55073">
        <ele>1165.386012</ele>
        <time>2022-07-24T11:27:21.854Z</time>
      </trkpt>
      <trkpt lat="45.04136" lon="5.5505">
        <ele>1163.927649</ele>
        <time>2022-07-24T11:27:25.902Z</time>
      </trkpt>
      <trkpt lat="45.04153" lon="5.55026">
        <ele>1162.003162</ele>
        <time>2022-07-24T11:27:31.005Z</time>
      </trkpt>
      <trkpt lat="45.04192" lon="5.54977">
        <ele>1157.802407</ele>
        <time>2022-07-24T11:27:42.315Z</time>
      </trkpt>
      <trkpt lat="45.04213" lon="5.54958">
        <ele>1155.778007</ele>
        <time>2022-07-24T11:27:47.784Z</time>
      </trkpt>
      <trkpt lat="45.04238" lon="5.54923">
        <ele>1153.325287</ele>
        <time>2022-07-24T11:27:55.489Z</time>
      </trkpt>
      <trkpt lat="45.04254" lon="5.54881">
        <ele>1151.039598</ele>
        <time>2022-07-24T11:28:03.048Z</time>
      </trkpt>
      <trkpt lat="45.04275" lon="5.54847">
        <ele>1148.884237</ele>
        <time>2022-07-24T11:28:07.295Z</time>
      </trkpt>
      <trkpt lat="45.04263" lon="5.54825">
        <ele>1147.584722</ele>
        <time>2022-07-24T11:28:10.038Z</time>
      </trkpt>
      <trkpt lat="45.04246" lon="5.54827">
        <ele>1146.454244</ele>
        <time>2022-07-24T11:28:12.221Z</time>
      </trkpt>
      <trkpt lat="45.04208" lon="5.54814">
        <ele>1143.803707</ele>
        <time>2022-07-24T11:28:17.632Z</time>
      </trkpt>
      <trkpt lat="45.04189" lon="5.5482">
        <ele>1142.583122</ele>
        <time>2022-07-24T11:28:20.668Z</time>
      </trkpt>
      <trkpt lat="45.04175" lon="5.5482">
        <ele>1141.871481</ele>
        <time>2022-07-24T11:28:22.536Z</time>
      </trkpt>
      <trkpt lat="45.04172" lon="5.54812">
        <ele>1141.561489</ele>
        <time>2022-07-24T11:28:23.498Z</time>
      </trkpt>
      <trkpt lat="45.04178" lon="5.54727">
        <ele>1138.452699</ele>
        <time>2022-07-24T11:28:33.224Z</time>
      </trkpt>
      <trkpt lat="45.04183" lon="5.54686">
        <ele>1136.934678</ele>
        <time>2022-07-24T11:28:37.459Z</time>
      </trkpt>
      <trkpt lat="45.04233" lon="5.54618">
        <ele>1133.073891</ele>
        <time>2022-07-24T11:28:46.761Z</time>
      </trkpt>
      <trkpt lat="45.04248" lon="5.54586">
        <ele>1130.726014</ele>
        <time>2022-07-24T11:28:50.260Z</time>
      </trkpt>
      <trkpt lat="45.04257" lon="5.5453">
        <ele>1127.131371</ele>
        <time>2022-07-24T11:28:55.535Z</time>
      </trkpt>
      <trkpt lat="45.04259" lon="5.54466">
        <ele>1123.127462</ele>
        <time>2022-07-24T11:29:01.355Z</time>
      </trkpt>
      <trkpt lat="45.04214" lon="5.54308">
        <ele>1113.405956</ele>
        <time>2022-07-24T11:29:16.710Z</time>
      </trkpt>
      <trkpt lat="45.04207" lon="5.54273">
        <ele>1111.524764</ele>
        <time>2022-07-24T11:29:20.131Z</time>
      </trkpt>
      <trkpt lat="45.04205" lon="5.54244">
        <ele>1110.044294</ele>
        <time>2022-07-24T11:29:22.782Z</time>
      </trkpt>
      <trkpt lat="45.04201" lon="5.54237">
        <ele>1109.557036</ele>
        <time>2022-07-24T11:29:24.369Z</time>
      </trkpt>
      <trkpt lat="45.04198" lon="5.54215">
        <ele>1108.41197</ele>
        <time>2022-07-24T11:29:28.149Z</time>
      </trkpt>
      <trkpt lat="45.04191" lon="5.54197">
        <ele>1107.358184</ele>
        <time>2022-07-24T11:29:31.420Z</time>
      </trkpt>
      <trkpt lat="45.04184" lon="5.54185">
        <ele>1106.606188</ele>
        <time>2022-07-24T11:29:33.008Z</time>
      </trkpt>
      <trkpt lat="45.04165" lon="5.54173">
        <ele>1105.043905</ele>
        <time>2022-07-24T11:29:35.966Z</time>
      </trkpt>
      <trkpt lat="45.04154" lon="5.54161">
        <ele>1104.696306</ele>
        <time>2022-07-24T11:29:38.038Z</time>
      </trkpt>
      <trkpt lat="45.04147" lon="5.54145">
        <ele>1104.676694</ele>
        <time>2022-07-24T11:29:39.981Z</time>
      </trkpt>
      <trkpt lat="45.04142" lon="5.54037">
        <ele>1104.564776</ele>
        <time>2022-07-24T11:29:53.318Z</time>
      </trkpt>
      <trkpt lat="45.04139" lon="5.54016">
        <ele>1104.543143</ele>
        <time>2022-07-24T11:29:56.904Z</time>
      </trkpt>
      <trkpt lat="45.04119" lon="5.53962">
        <ele>1104.479713</ele>
        <time>2022-07-24T11:30:11.173Z</time>
      </trkpt>
      <trkpt lat="45.04118" lon="5.5394">
        <ele>1104.457358</ele>
        <time>2022-07-24T11:30:18.327Z</time>
      </trkpt>
      <trkpt lat="45.04121" lon="5.53914">
        <ele>1104.799039</ele>
        <time>2022-07-24T11:30:24.504Z</time>
      </trkpt>
      <trkpt lat="45.04111" lon="5.53894">
        <ele>1105.305961</ele>
        <time>2022-07-24T11:30:35.037Z</time>
      </trkpt>
      <trkpt lat="45.04097" lon="5.53873">
        <ele>1105.917384</ele>
        <time>2022-07-24T11:30:43.603Z</time>
      </trkpt>
      <trkpt lat="45.04075" lon="5.53857">
        <ele>1106.670015</ele>
        <time>2022-07-24T11:30:56.568Z</time>
      </trkpt>
      <trkpt lat="45.04055" lon="5.53849">
        <ele>1107.287758</ele>
        <time>2022-07-24T11:31:06.950Z</time>
      </trkpt>
      <trkpt lat="45.03991" lon="5.53799">
        <ele>1109.476827</ele>
        <time>2022-07-24T11:31:41.133Z</time>
      </trkpt>
      <trkpt lat="45.03955" lon="5.53761">
        <ele>1109.9169</ele>
        <time>2022-07-24T11:31:53.441Z</time>
      </trkpt>
      <trkpt lat="45.03932" lon="5.53744">
        <ele>1109.982051</ele>
        <time>2022-07-24T11:31:59.569Z</time>
      </trkpt>
      <trkpt lat="45.03914" lon="5.53719">
        <ele>1110.045124</ele>
        <time>2022-07-24T11:32:05.096Z</time>
      </trkpt>
      <trkpt lat="45.03874" lon="5.53673">
        <ele>1110.172997</ele>
        <time>2022-07-24T11:32:14.832Z</time>
      </trkpt>
      <trkpt lat="45.03808" lon="5.536">
        <ele>1109.841265</ele>
        <time>2022-07-24T11:32:29.945Z</time>
      </trkpt>
      <trkpt lat="45.03779" lon="5.53569">
        <ele>1109.430329</ele>
        <time>2022-07-24T11:32:37.015Z</time>
      </trkpt>
      <trkpt lat="45.03704" lon="5.53503">
        <ele>1108.442534</ele>
        <time>2022-07-24T11:32:52.077Z</time>
      </trkpt>
      <trkpt lat="45.03663" lon="5.53439">
        <ele>1107.99387</ele>
        <time>2022-07-24T11:33:02.444Z</time>
      </trkpt>
      <trkpt lat="45.03656" lon="5.53422">
        <ele>1107.909786</ele>
        <time>2022-07-24T11:33:05.936Z</time>
      </trkpt>
      <trkpt lat="45.03657" lon="5.53409">
        <ele>1107.853618</ele>
        <time>2022-07-24T11:33:07.256Z</time>
      </trkpt>
      <trkpt lat="45.03631" lon="5.53392">
        <ele>1107.678189</ele>
        <time>2022-07-24T11:33:13.750Z</time>
      </trkpt>
      <trkpt lat="45.03581" lon="5.53373">
        <ele>1107.369546</ele>
        <time>2022-07-24T11:33:23.263Z</time>
      </trkpt>
      <trkpt lat="45.03483" lon="5.53349">
        <ele>1107.271445</ele>
        <time>2022-07-24T11:33:42.789Z</time>
      </trkpt>
      <trkpt lat="45.03461" lon="5.53334">
        <ele>1107.299869</ele>
        <time>2022-07-24T11:33:48.872Z</time>
      </trkpt>
      <trkpt lat="45.03415" lon="5.533">
        <ele>1107.360457</ele>
        <time>2022-07-24T11:33:59.189Z</time>
      </trkpt>
      <trkpt lat="45.03405" lon="5.53292">
        <ele>1107.374312</ele>
        <time>2022-07-24T11:34:00.961Z</time>
      </trkpt>
      <trkpt lat="45.03391" lon="5.53274">
        <ele>1107.396192</ele>
        <time>2022-07-24T11:34:05.392Z</time>
      </trkpt>
      <trkpt lat="45.03357" lon="5.53212">
        <ele>1107.238568</ele>
        <time>2022-07-24T11:34:15.618Z</time>
      </trkpt>
      <trkpt lat="45.03344" lon="5.53169">
        <ele>1107.134414</ele>
        <time>2022-07-24T11:34:21.392Z</time>
      </trkpt>
      <trkpt lat="45.03335" lon="5.5312">
        <ele>1107.02113</ele>
        <time>2022-07-24T11:34:27.499Z</time>
      </trkpt>
      <trkpt lat="45.03306" lon="5.53134">
        <ele>1106.92493</ele>
        <time>2022-07-24T11:34:34.782Z</time>
      </trkpt>
      <trkpt lat="45.03289" lon="5.53148">
        <ele>1106.860737</ele>
        <time>2022-07-24T11:34:38.501Z</time>
      </trkpt>
      <trkpt lat="45.03282" lon="5.53146">
        <ele>1106.839086</ele>
        <time>2022-07-24T11:34:39.747Z</time>
      </trkpt>
      <trkpt lat="45.03277" lon="5.53143">
        <ele>1106.831213</ele>
        <time>2022-07-24T11:34:41.243Z</time>
      </trkpt>
      <trkpt lat="45.0325" lon="5.53098">
        <ele>1106.833381</ele>
        <time>2022-07-24T11:34:49.268Z</time>
      </trkpt>
      <trkpt lat="45.03232" lon="5.53077">
        <ele>1106.834589</ele>
        <time>2022-07-24T11:34:53.381Z</time>
      </trkpt>
      <trkpt lat="45.03214" lon="5.53056">
        <ele>1106.835797</ele>
        <time>2022-07-24T11:34:59.583Z</time>
      </trkpt>
      <trkpt lat="45.03178" lon="5.5304">
        <ele>1106.83779</ele>
        <time>2022-07-24T11:35:10.159Z</time>
      </trkpt>
      <trkpt lat="45.03175" lon="5.5303">
        <ele>1106.838181</ele>
        <time>2022-07-24T11:35:11.219Z</time>
      </trkpt>
      <trkpt lat="45.03176" lon="5.53003">
        <ele>1106.839187</ele>
        <time>2022-07-24T11:35:16.022Z</time>
      </trkpt>
      <trkpt lat="45.03161" lon="5.52962">
        <ele>1106.913083</ele>
        <time>2022-07-24T11:35:21.904Z</time>
      </trkpt>
      <trkpt lat="45.03153" lon="5.52949">
        <ele>1107.013625</ele>
        <time>2022-07-24T11:35:24.560Z</time>
      </trkpt>
      <trkpt lat="45.03116" lon="5.52908">
        <ele>1107.415175</ele>
        <time>2022-07-24T11:35:32.754Z</time>
      </trkpt>
      <trkpt lat="45.03106" lon="5.52886">
        <ele>1107.564298</ele>
        <time>2022-07-24T11:35:37.469Z</time>
      </trkpt>
      <trkpt lat="45.03103" lon="5.5282">
        <ele>1107.9598</ele>
        <time>2022-07-24T11:35:46.968Z</time>
      </trkpt>
      <trkpt lat="45.03088" lon="5.52744">
        <ele>1108.835037</ele>
        <time>2022-07-24T11:36:06.686Z</time>
      </trkpt>
      <trkpt lat="45.03074" lon="5.52758">
        <ele>1109.758418</ele>
        <time>2022-07-24T11:36:13.438Z</time>
      </trkpt>
      <trkpt lat="45.03066" lon="5.52764">
        <ele>1110.24461</ele>
        <time>2022-07-24T11:36:17.606Z</time>
      </trkpt>
      <trkpt lat="45.03003" lon="5.52777">
        <ele>1113.679235</ele>
        <time>2022-07-24T11:36:48.851Z</time>
      </trkpt>
      <trkpt lat="45.02977" lon="5.5278">
        <ele>1115.101694</ele>
        <time>2022-07-24T11:37:03.199Z</time>
      </trkpt>
      <trkpt lat="45.02929" lon="5.52778">
        <ele>1117.694737</ele>
        <time>2022-07-24T11:37:28.015Z</time>
      </trkpt>
      <trkpt lat="45.02917" lon="5.52746">
        <ele>1118.720914</ele>
        <time>2022-07-24T11:37:45.113Z</time>
      </trkpt>
      <trkpt lat="45.02877" lon="5.52706">
        <ele>1120.38392</ele>
        <time>2022-07-24T11:38:13.228Z</time>
      </trkpt>
      <trkpt lat="45.02823" lon="5.52674">
        <ele>1122.393394</ele>
        <time>2022-07-24T11:38:40.774Z</time>
      </trkpt>
      <trkpt lat="45.0281" lon="5.52655">
        <ele>1123.054272</ele>
        <time>2022-07-24T11:38:48.354Z</time>
      </trkpt>
      <trkpt lat="45.02796" lon="5.52604">
        <ele>1124.315632</ele>
        <time>2022-07-24T11:39:02.680Z</time>
      </trkpt>
      <trkpt lat="45.02796" lon="5.52551">
        <ele>1124.764224</ele>
        <time>2022-07-24T11:39:14.829Z</time>
      </trkpt>
      <trkpt lat="45.02793" lon="5.52508">
        <ele>1125.130234</ele>
        <time>2022-07-24T11:39:24.689Z</time>
      </trkpt>
      <trkpt lat="45.02801" lon="5.52506">
        <ele>1125.228922</ele>
        <time>2022-07-24T11:39:26.235Z</time>
      </trkpt>
      <trkpt lat="45.0279" lon="5.52461">
        <ele>1125.638615</ele>
        <time>2022-07-24T11:39:33.990Z</time>
      </trkpt>
      <trkpt lat="45.02754" lon="5.52371">
        <ele>1126.721577</ele>
        <time>2022-07-24T11:39:55.047Z</time>
      </trkpt>
      <trkpt lat="45.02747" lon="5.52359">
        <ele>1127.17437</ele>
        <time>2022-07-24T11:39:58.231Z</time>
      </trkpt>
      <trkpt lat="45.0271" lon="5.52266">
        <ele>1130.2997</ele>
        <time>2022-07-24T11:40:31.628Z</time>
      </trkpt>
      <trkpt lat="45.02698" lon="5.52235">
        <ele>1131.329117</ele>
        <time>2022-07-24T11:40:42.310Z</time>
      </trkpt>
      <trkpt lat="45.02697" lon="5.5222">
        <ele>1131.757473</ele>
        <time>2022-07-24T11:40:47.718Z</time>
      </trkpt>
      <trkpt lat="45.02678" lon="5.52218">
        <ele>1132.521508</ele>
        <time>2022-07-24T11:40:58.445Z</time>
      </trkpt>
      <trkpt lat="45.02658" lon="5.52195">
        <ele>1133.601343</ele>
        <time>2022-07-24T11:41:13.004Z</time>
      </trkpt>
      <trkpt lat="45.02642" lon="5.52186">
        <ele>1134.301946</ele>
        <time>2022-07-24T11:41:19.098Z</time>
      </trkpt>
      <trkpt lat="45.02632" lon="5.52174">
        <ele>1134.849186</ele>
        <time>2022-07-24T11:41:27.344Z</time>
      </trkpt>
      <trkpt lat="45.02614" lon="5.52147">
        <ele>1135.953064</ele>
        <time>2022-07-24T11:41:40.159Z</time>
      </trkpt>
      <trkpt lat="45.02601" lon="5.52135">
        <ele>1136.577757</ele>
        <time>2022-07-24T11:41:50.483Z</time>
      </trkpt>
      <trkpt lat="45.02588" lon="5.52128">
        <ele>1137.170929</ele>
        <time>2022-07-24T11:41:57.259Z</time>
      </trkpt>
      <trkpt lat="45.02575" lon="5.52105">
        <ele>1138.016114</ele>
        <time>2022-07-24T11:42:09.406Z</time>
      </trkpt>
      <trkpt lat="45.02576" lon="5.52098">
        <ele>1138.222591</ele>
        <time>2022-07-24T11:42:12.331Z</time>
      </trkpt>
      <trkpt lat="45.02585" lon="5.52081">
        <ele>1138.840064</ele>
        <time>2022-07-24T11:42:17.837Z</time>
      </trkpt>
      <trkpt lat="45.02607" lon="5.52062">
        <ele>1139.918387</ele>
        <time>2022-07-24T11:42:33.017Z</time>
      </trkpt>
      <trkpt lat="45.02606" lon="5.52046">
        <ele>1140.379029</ele>
        <time>2022-07-24T11:42:36.387Z</time>
      </trkpt>
      <trkpt lat="45.02581" lon="5.52001">
        <ele>1142.139338</ele>
        <time>2022-07-24T11:42:57.511Z</time>
      </trkpt>
      <trkpt lat="45.0254" lon="5.5197">
        <ele>1144.297169</ele>
        <time>2022-07-24T11:43:24.371Z</time>
      </trkpt>
      <trkpt lat="45.02522" lon="5.51952">
        <ele>1145.316576</ele>
        <time>2022-07-24T11:43:32.243Z</time>
      </trkpt>
      <trkpt lat="45.02501" lon="5.51894">
        <ele>1147.459445</ele>
        <time>2022-07-24T11:43:59.585Z</time>
      </trkpt>
      <trkpt lat="45.02485" lon="5.51869">
        <ele>1148.542492</ele>
        <time>2022-07-24T11:44:13.152Z</time>
      </trkpt>
      <trkpt lat="45.02477" lon="5.51864">
        <ele>1148.94557</ele>
        <time>2022-07-24T11:44:18.472Z</time>
      </trkpt>
      <trkpt lat="45.02469" lon="5.51867">
        <ele>1149.369502</ele>
        <time>2022-07-24T11:44:26.335Z</time>
      </trkpt>
      <trkpt lat="45.0245" lon="5.51831">
        <ele>1150.808305</ele>
        <time>2022-07-24T11:44:40.013Z</time>
      </trkpt>
      <trkpt lat="45.02448" lon="5.51817">
        <ele>1151.250385</ele>
        <time>2022-07-24T11:44:44.900Z</time>
      </trkpt>
      <trkpt lat="45.02449" lon="5.51809">
        <ele>1151.515145</ele>
        <time>2022-07-24T11:44:46.999Z</time>
      </trkpt>
      <trkpt lat="45.02452" lon="5.51803">
        <ele>1151.764305</ele>
        <time>2022-07-24T11:44:48.107Z</time>
      </trkpt>
      <trkpt lat="45.02428" lon="5.51775">
        <ele>1153.171413</ele>
        <time>2022-07-24T11:45:07.479Z</time>
      </trkpt>
      <trkpt lat="45.02417" lon="5.51766">
        <ele>1153.755103</ele>
        <time>2022-07-24T11:45:12.906Z</time>
      </trkpt>
      <trkpt lat="45.0238" lon="5.51753">
        <ele>1155.491807</ele>
        <time>2022-07-24T11:45:33.786Z</time>
      </trkpt>
      <trkpt lat="45.02356" lon="5.51751">
        <ele>1156.59765</ele>
        <time>2022-07-24T11:45:47.792Z</time>
      </trkpt>
      <trkpt lat="45.02344" lon="5.51748">
        <ele>1157.136833</ele>
        <time>2022-07-24T11:45:52.097Z</time>
      </trkpt>
      <trkpt lat="45.02336" lon="5.51746">
        <ele>1157.48551</ele>
        <time>2022-07-24T11:45:56.526Z</time>
      </trkpt>
      <trkpt lat="45.02338" lon="5.51737">
        <ele>1157.79814</ele>
        <time>2022-07-24T11:46:01.109Z</time>
      </trkpt>
      <trkpt lat="45.02331" lon="5.51728">
        <ele>1158.207058</ele>
        <time>2022-07-24T11:46:05.077Z</time>
      </trkpt>
      <trkpt lat="45.02323" lon="5.51713">
        <ele>1158.775435</ele>
        <time>2022-07-24T11:46:09.524Z</time>
      </trkpt>
      <trkpt lat="45.02323" lon="5.51697">
        <ele>1159.260368</ele>
        <time>2022-07-24T11:46:16.930Z</time>
      </trkpt>
      <trkpt lat="45.02327" lon="5.51678">
        <ele>1159.883496</ele>
        <time>2022-07-24T11:46:23.825Z</time>
      </trkpt>
      <trkpt lat="45.02331" lon="5.51672">
        <ele>1160.109408</ele>
        <time>2022-07-24T11:46:25.454Z</time>
      </trkpt>
      <trkpt lat="45.02365" lon="5.51663">
        <ele>1161.616767</ele>
        <time>2022-07-24T11:46:42.390Z</time>
      </trkpt>
      <trkpt lat="45.02368" lon="5.5166">
        <ele>1161.779747</ele>
        <time>2022-07-24T11:46:43.683Z</time>
      </trkpt>
      <trkpt lat="45.0237" lon="5.5165">
        <ele>1162.090205</ele>
        <time>2022-07-24T11:46:47.728Z</time>
      </trkpt>
      <trkpt lat="45.02363" lon="5.51627">
        <ele>1162.87211</ele>
        <time>2022-07-24T11:46:58.874Z</time>
      </trkpt>
      <trkpt lat="45.02374" lon="5.51604">
        <ele>1163.736077</ele>
        <time>2022-07-24T11:47:08.415Z</time>
      </trkpt>
      <trkpt lat="45.02374" lon="5.51593">
        <ele>1164.077104</ele>
        <time>2022-07-24T11:47:13.980Z</time>
      </trkpt>
      <trkpt lat="45.02378" lon="5.51586">
        <ele>1164.348357</ele>
        <time>2022-07-24T11:47:17.295Z</time>
      </trkpt>
      <trkpt lat="45.02384" lon="5.51601">
        <ele>1164.872593</ele>
        <time>2022-07-24T11:47:22.429Z</time>
      </trkpt>
      <trkpt lat="45.02407" lon="5.51594">
        <ele>1166.130344</ele>
        <time>2022-07-24T11:47:38.977Z</time>
      </trkpt>
      <trkpt lat="45.02454" lon="5.51568">
        <ele>1170.019586</ele>
        <time>2022-07-24T11:48:09.830Z</time>
      </trkpt>
      <trkpt lat="45.02475" lon="5.5156">
        <ele>1171.684378</ele>
        <time>2022-07-24T11:48:25.660Z</time>
      </trkpt>
      <trkpt lat="45.02558" lon="5.51534">
        <ele>1178.312235</ele>
        <time>2022-07-24T11:49:28.173Z</time>
      </trkpt>
      <trkpt lat="45.02588" lon="5.51524">
        <ele>1180.977339</ele>
        <time>2022-07-24T11:49:53.936Z</time>
      </trkpt>
      <trkpt lat="45.02626" lon="5.51511">
        <ele>1184.599811</ele>
        <time>2022-07-24T11:50:25.570Z</time>
      </trkpt>
      <trkpt lat="45.02653" lon="5.51511">
        <ele>1187.133093</ele>
        <time>2022-07-24T11:50:46.499Z</time>
      </trkpt>
      <trkpt lat="45.02669" lon="5.51489">
        <ele>1189.264962</ele>
        <time>2022-07-24T11:51:04.054Z</time>
      </trkpt>
      <trkpt lat="45.02686" lon="5.51488">
        <ele>1190.842334</ele>
        <time>2022-07-24T11:51:17.469Z</time>
      </trkpt>
      <trkpt lat="45.02706" lon="5.51478">
        <ele>1192.78168</ele>
        <time>2022-07-24T11:51:32.838Z</time>
      </trkpt>
      <trkpt lat="45.02753" lon="5.51433">
        <ele>1198.181305</ele>
        <time>2022-07-24T11:52:17.582Z</time>
      </trkpt>
      <trkpt lat="45.02778" lon="5.51397">
        <ele>1201.713072</ele>
        <time>2022-07-24T11:52:47.755Z</time>
      </trkpt>
      <trkpt lat="45.02827" lon="5.51355">
        <ele>1207.330824</ele>
        <time>2022-07-24T11:53:35.121Z</time>
      </trkpt>
      <trkpt lat="45.0286" lon="5.51348">
        <ele>1210.653657</ele>
        <time>2022-07-24T11:54:00.743Z</time>
      </trkpt>
      <trkpt lat="45.02895" lon="5.51336">
        <ele>1214.112352</ele>
        <time>2022-07-24T11:54:28.375Z</time>
      </trkpt>
      <trkpt lat="45.02933" lon="5.51314">
        <ele>1218.381506</ele>
        <time>2022-07-24T11:55:04.454Z</time>
      </trkpt>
      <trkpt lat="45.02978" lon="5.513">
        <ele>1223.132423</ele>
        <time>2022-07-24T11:55:43.019Z</time>
      </trkpt>
      <trkpt lat="45.02993" lon="5.51299">
        <ele>1224.690022</ele>
        <time>2022-07-24T11:55:54.699Z</time>
      </trkpt>
      <trkpt lat="45.03004" lon="5.51292">
        <ele>1225.922373</ele>
        <time>2022-07-24T11:56:05.174Z</time>
      </trkpt>
      <trkpt lat="45.03017" lon="5.51269">
        <ele>1228.017011</ele>
        <time>2022-07-24T11:56:21.006Z</time>
      </trkpt>
      <trkpt lat="45.03026" lon="5.51263">
        <ele>1229.0391</ele>
        <time>2022-07-24T11:56:30.792Z</time>
      </trkpt>
      <trkpt lat="45.03041" lon="5.51259">
        <ele>1230.690464</ele>
        <time>2022-07-24T11:56:43.555Z</time>
      </trkpt>
      <trkpt lat="45.03054" lon="5.5126">
        <ele>1231.962235</ele>
        <time>2022-07-24T11:56:53.242Z</time>
      </trkpt>
      <trkpt lat="45.03065" lon="5.51276">
        <ele>1233.692886</ele>
        <time>2022-07-24T11:57:07.737Z</time>
      </trkpt>
      <trkpt lat="45.03076" lon="5.51284">
        <ele>1234.934206</ele>
        <time>2022-07-24T11:57:16.884Z</time>
      </trkpt>
      <trkpt lat="45.03142" lon="5.51271">
        <ele>1242.185847</ele>
        <time>2022-07-24T11:58:18.201Z</time>
      </trkpt>
      <trkpt lat="45.03161" lon="5.51267">
        <ele>1244.242428</ele>
        <time>2022-07-24T11:58:36.234Z</time>
      </trkpt>
      <trkpt lat="45.03267" lon="5.51254">
        <ele>1254.287866</ele>
        <time>2022-07-24T12:00:03.839Z</time>
      </trkpt>
      <trkpt lat="45.03283" lon="5.5124">
        <ele>1255.477475</ele>
        <time>2022-07-24T12:00:17.347Z</time>
      </trkpt>
      <trkpt lat="45.03311" lon="5.5123">
        <ele>1257.286235</ele>
        <time>2022-07-24T12:00:38.946Z</time>
      </trkpt>
      <trkpt lat="45.03331" lon="5.51232">
        <ele>1258.579358</ele>
        <time>2022-07-24T12:00:52.716Z</time>
      </trkpt>
      <trkpt lat="45.03371" lon="5.51247">
        <ele>1261.216544</ele>
        <time>2022-07-24T12:01:17.035Z</time>
      </trkpt>
      <trkpt lat="45.03382" lon="5.51266">
        <ele>1262.322105</ele>
        <time>2022-07-24T12:01:25.499Z</time>
      </trkpt>
      <trkpt lat="45.03408" lon="5.51295">
        <ele>1263.300004</ele>
        <time>2022-07-24T12:01:39.636Z</time>
      </trkpt>
      <trkpt lat="45.0343" lon="5.51298">
        <ele>1262.873942</ele>
        <time>2022-07-24T12:01:47.155Z</time>
      </trkpt>
      <trkpt lat="45.03455" lon="5.51291">
        <ele>1262.36979</ele>
        <time>2022-07-24T12:01:53.785Z</time>
      </trkpt>
      <trkpt lat="45.03452" lon="5.5127">
        <ele>1262.074966</ele>
        <time>2022-07-24T12:01:58.325Z</time>
      </trkpt>
      <trkpt lat="45.03455" lon="5.51259">
        <ele>1261.915906</ele>
        <time>2022-07-24T12:02:00.370Z</time>
      </trkpt>
      <trkpt lat="45.03453" lon="5.51223">
        <ele>1261.406429</ele>
        <time>2022-07-24T12:02:06.994Z</time>
      </trkpt>
      <trkpt lat="45.0347" lon="5.51146">
        <ele>1260.277964</ele>
        <time>2022-07-24T12:02:21.325Z</time>
      </trkpt>
      <trkpt lat="45.03477" lon="5.51139">
        <ele>1260.107967</ele>
        <time>2022-07-24T12:02:23.594Z</time>
      </trkpt>
      <trkpt lat="45.03488" lon="5.51143">
        <ele>1259.772325</ele>
        <time>2022-07-24T12:02:26.652Z</time>
      </trkpt>
      <trkpt lat="45.03494" lon="5.5114">
        <ele>1259.525579</ele>
        <time>2022-07-24T12:02:28.107Z</time>
      </trkpt>
      <trkpt lat="45.03502" lon="5.51127">
        <ele>1259.05959</ele>
        <time>2022-07-24T12:02:30.941Z</time>
      </trkpt>
      <trkpt lat="45.0349" lon="5.51077">
        <ele>1257.626546</ele>
        <time>2022-07-24T12:02:40.104Z</time>
      </trkpt>
      <trkpt lat="45.03492" lon="5.51071">
        <ele>1257.439898</ele>
        <time>2022-07-24T12:02:41.385Z</time>
      </trkpt>
      <trkpt lat="45.03508" lon="5.51067">
        <ele>1256.822528</ele>
        <time>2022-07-24T12:02:45.420Z</time>
      </trkpt>
      <trkpt lat="45.03514" lon="5.51058">
        <ele>1256.486744</ele>
        <time>2022-07-24T12:02:47.478Z</time>
      </trkpt>
      <trkpt lat="45.0352" lon="5.51038">
        <ele>1255.874496</ele>
        <time>2022-07-24T12:02:51.580Z</time>
      </trkpt>
      <trkpt lat="45.03528" lon="5.51029">
        <ele>1255.470757</ele>
        <time>2022-07-24T12:02:54.210Z</time>
      </trkpt>
      <trkpt lat="45.03526" lon="5.51">
        <ele>1254.67496</ele>
        <time>2022-07-24T12:02:59.263Z</time>
      </trkpt>
      <trkpt lat="45.03542" lon="5.50978">
        <ele>1253.808566</ele>
        <time>2022-07-24T12:03:04.896Z</time>
      </trkpt>
      <trkpt lat="45.03542" lon="5.50961">
        <ele>1253.336236</ele>
        <time>2022-07-24T12:03:07.880Z</time>
      </trkpt>
      <trkpt lat="45.03546" lon="5.50942">
        <ele>1252.910865</ele>
        <time>2022-07-24T12:03:11.404Z</time>
      </trkpt>
      <trkpt lat="45.03558" lon="5.50926">
        <ele>1252.543727</ele>
        <time>2022-07-24T12:03:16.151Z</time>
      </trkpt>
      <trkpt lat="45.03574" lon="5.50913">
        <ele>1252.127699</ele>
        <time>2022-07-24T12:03:20.949Z</time>
      </trkpt>
      <trkpt lat="45.0359" lon="5.50917">
        <ele>1251.774448</ele>
        <time>2022-07-24T12:03:25.287Z</time>
      </trkpt>
      <trkpt lat="45.03626" lon="5.50916">
        <ele>1250.971031</ele>
        <time>2022-07-24T12:03:34.755Z</time>
      </trkpt>
      <trkpt lat="45.03655" lon="5.50905">
        <ele>1250.280042</ele>
        <time>2022-07-24T12:03:42.898Z</time>
      </trkpt>
      <trkpt lat="45.03671" lon="5.50903">
        <ele>1249.922397</ele>
        <time>2022-07-24T12:03:47.052Z</time>
      </trkpt>
      <trkpt lat="45.03674" lon="5.509">
        <ele>1249.847342</ele>
        <time>2022-07-24T12:03:47.825Z</time>
      </trkpt>
      <trkpt lat="45.03671" lon="5.50836">
        <ele>1249.241361</ele>
        <time>2022-07-24T12:04:02.271Z</time>
      </trkpt>
      <trkpt lat="45.03673" lon="5.50799">
        <ele>1249.734257</ele>
        <time>2022-07-24T12:04:10.221Z</time>
      </trkpt>
      <trkpt lat="45.03669" lon="5.5075">
        <ele>1250.408134</ele>
        <time>2022-07-24T12:04:23.208Z</time>
      </trkpt>
      <trkpt lat="45.03668" lon="5.507">
        <ele>1251.073191</ele>
        <time>2022-07-24T12:04:36.645Z</time>
      </trkpt>
      <trkpt lat="45.03707" lon="5.5065">
        <ele>1252.085465</ele>
        <time>2022-07-24T12:05:02.240Z</time>
      </trkpt>
      <trkpt lat="45.03714" lon="5.50633">
        <ele>1252.344051</ele>
        <time>2022-07-24T12:05:07.434Z</time>
      </trkpt>
      <trkpt lat="45.03713" lon="5.50606">
        <ele>1253.321355</ele>
        <time>2022-07-24T12:05:18.525Z</time>
      </trkpt>
      <trkpt lat="45.03743" lon="5.50519">
        <ele>1257.953566</ele>
        <time>2022-07-24T12:06:02.512Z</time>
      </trkpt>
      <trkpt lat="45.03743" lon="5.50519">
        <ele>1257.953566</ele>
        <time>2022-07-24T12:06:02.744Z</time>
      </trkpt>
      <trkpt lat="45.03756" lon="5.50491">
        <ele>1259.574865</ele>
        <time>2022-07-24T12:06:19.103Z</time>
      </trkpt>
      <trkpt lat="45.03777" lon="5.50457">
        <ele>1261.770931</ele>
        <time>2022-07-24T12:06:41.558Z</time>
      </trkpt>
      <trkpt lat="45.03799" lon="5.50432">
        <ele>1263.672991</ele>
        <time>2022-07-24T12:07:01.095Z</time>
      </trkpt>
      <trkpt lat="45.03816" lon="5.50384">
        <ele>1266.430428</ele>
        <time>2022-07-24T12:07:29.320Z</time>
      </trkpt>
      <trkpt lat="45.03834" lon="5.50355">
        <ele>1268.455145</ele>
        <time>2022-07-24T12:07:49.383Z</time>
      </trkpt>
      <trkpt lat="45.03861" lon="5.50311">
        <ele>1271.539243</ele>
        <time>2022-07-24T12:08:18.228Z</time>
      </trkpt>
      <trkpt lat="45.03886" lon="5.50283">
        <ele>1273.974473</ele>
        <time>2022-07-24T12:08:40.695Z</time>
      </trkpt>
      <trkpt lat="45.0389" lon="5.50249">
        <ele>1275.767736</ele>
        <time>2022-07-24T12:08:57.948Z</time>
      </trkpt>
      <trkpt lat="45.03892" lon="5.5019">
        <ele>1278.702085</ele>
        <time>2022-07-24T12:09:25.165Z</time>
      </trkpt>
      <trkpt lat="45.03906" lon="5.50158">
        <ele>1279.989629</ele>
        <time>2022-07-24T12:09:41.687Z</time>
      </trkpt>
      <trkpt lat="45.03917" lon="5.50125">
        <ele>1281.210456</ele>
        <time>2022-07-24T12:09:56.601Z</time>
      </trkpt>
      <trkpt lat="45.03961" lon="5.50082">
        <ele>1283.819291</ele>
        <time>2022-07-24T12:10:28.881Z</time>
      </trkpt>
      <trkpt lat="45.04107" lon="5.50078">
        <ele>1288.801535</ele>
        <time>2022-07-24T12:11:36.580Z</time>
      </trkpt>
      <trkpt lat="45.04199" lon="5.5006">
        <ele>1290.914115</ele>
        <time>2022-07-24T12:12:14.665Z</time>
      </trkpt>
      <trkpt lat="45.04273" lon="5.5003">
        <ele>1293.408533</ele>
        <time>2022-07-24T12:12:43.355Z</time>
      </trkpt>
      <trkpt lat="45.04277" lon="5.50028">
        <ele>1293.575047</ele>
        <time>2022-07-24T12:12:46.565Z</time>
      </trkpt>
      <trkpt lat="45.04304" lon="5.49995">
        <ele>1294.746922</ele>
        <time>2022-07-24T12:13:01.689Z</time>
      </trkpt>
      <trkpt lat="45.04282" lon="5.49962">
        <ele>1295.80922</ele>
        <time>2022-07-24T12:13:16.286Z</time>
      </trkpt>
      <trkpt lat="45.04281" lon="5.49946">
        <ele>1296.190374</ele>
        <time>2022-07-24T12:13:25.506Z</time>
      </trkpt>
      <trkpt lat="45.04272" lon="5.4994">
        <ele>1296.516607</ele>
        <time>2022-07-24T12:13:28.122Z</time>
      </trkpt>
      <trkpt lat="45.04264" lon="5.49921">
        <ele>1297.072746</ele>
        <time>2022-07-24T12:13:34.008Z</time>
      </trkpt>
      <trkpt lat="45.04266" lon="5.49908">
        <ele>1298.142096</ele>
        <time>2022-07-24T12:13:42.835Z</time>
      </trkpt>
      <trkpt lat="45.04286" lon="5.49866">
        <ele>1301.965554</ele>
        <time>2022-07-24T12:14:04.546Z</time>
      </trkpt>
      <trkpt lat="45.04285" lon="5.49847">
        <ele>1303.394811</ele>
        <time>2022-07-24T12:14:12.001Z</time>
      </trkpt>
      <trkpt lat="45.04271" lon="5.49809">
        <ele>1306.693116</ele>
        <time>2022-07-24T12:14:36.640Z</time>
      </trkpt>
      <trkpt lat="45.04257" lon="5.49759">
        <ele>1310.790072</ele>
        <time>2022-07-24T12:15:08.206Z</time>
      </trkpt>
      <trkpt lat="45.04252" lon="5.49748">
        <ele>1311.776987</ele>
        <time>2022-07-24T12:15:14.980Z</time>
      </trkpt>
      <trkpt lat="45.04171" lon="5.49701">
        <ele>1321.82571</ele>
        <time>2022-07-24T12:16:33.767Z</time>
      </trkpt>
      <trkpt lat="45.04048" lon="5.49663">
        <ele>1337.192947</ele>
        <time>2022-07-24T12:18:15.573Z</time>
      </trkpt>
      <trkpt lat="45.04026" lon="5.49647">
        <ele>1339.866951</ele>
        <time>2022-07-24T12:18:32.335Z</time>
      </trkpt>
      <trkpt lat="45.04008" lon="5.49639">
        <ele>1341.676873</ele>
        <time>2022-07-24T12:18:46.348Z</time>
      </trkpt>
      <trkpt lat="45.03977" lon="5.49633">
        <ele>1344.672886</ele>
        <time>2022-07-24T12:19:08.587Z</time>
      </trkpt>
      <trkpt lat="45.0393" lon="5.49617">
        <ele>1349.263841</ele>
        <time>2022-07-24T12:19:41.016Z</time>
      </trkpt>
      <trkpt lat="45.0392" lon="5.4961">
        <ele>1350.372061</ele>
        <time>2022-07-24T12:19:47.914Z</time>
      </trkpt>
      <trkpt lat="45.03916" lon="5.49602">
        <ele>1350.995459</ele>
        <time>2022-07-24T12:19:53.531Z</time>
      </trkpt>
      <trkpt lat="45.03832" lon="5.49535">
        <ele>1360.649231</ele>
        <time>2022-07-24T12:20:51.818Z</time>
      </trkpt>
      <trkpt lat="45.03822" lon="5.49516">
        <ele>1362.432964</ele>
        <time>2022-07-24T12:21:03.535Z</time>
      </trkpt>
      <trkpt lat="45.03812" lon="5.4946">
        <ele>1366.676708</ele>
        <time>2022-07-24T12:21:37.449Z</time>
      </trkpt>
      <trkpt lat="45.03808" lon="5.4945">
        <ele>1367.551015</ele>
        <time>2022-07-24T12:21:44.223Z</time>
      </trkpt>
      <trkpt lat="45.03803" lon="5.49446">
        <ele>1368.16454</ele>
        <time>2022-07-24T12:21:50.151Z</time>
      </trkpt>
      <trkpt lat="45.0379" lon="5.49441">
        <ele>1369.559215</ele>
        <time>2022-07-24T12:22:01.897Z</time>
      </trkpt>
      <trkpt lat="45.03764" lon="5.49449">
        <ele>1372.309111</ele>
        <time>2022-07-24T12:22:23.813Z</time>
      </trkpt>
      <trkpt lat="45.03753" lon="5.49448">
        <ele>1373.552228</ele>
        <time>2022-07-24T12:22:32.375Z</time>
      </trkpt>
      <trkpt lat="45.0374" lon="5.49442">
        <ele>1374.805763</ele>
        <time>2022-07-24T12:22:41.184Z</time>
      </trkpt>
      <trkpt lat="45.0371" lon="5.49417">
        <ele>1376.983487</ele>
        <time>2022-07-24T12:23:01.984Z</time>
      </trkpt>
      <trkpt lat="45.03686" lon="5.49403">
        <ele>1378.64499</ele>
        <time>2022-07-24T12:23:17.875Z</time>
      </trkpt>
      <trkpt lat="45.03668" lon="5.49386">
        <ele>1380.018464</ele>
        <time>2022-07-24T12:23:28.076Z</time>
      </trkpt>
      <trkpt lat="45.03662" lon="5.49372">
        <ele>1380.737373</ele>
        <time>2022-07-24T12:23:33.301Z</time>
      </trkpt>
      <trkpt lat="45.03662" lon="5.49363">
        <ele>1381.164407</ele>
        <time>2022-07-24T12:23:38.196Z</time>
      </trkpt>
      <trkpt lat="45.03707" lon="5.49373">
        <ele>1384.03627</ele>
        <time>2022-07-24T12:24:01.085Z</time>
      </trkpt>
      <trkpt lat="45.03787" lon="5.49373">
        <ele>1387.589549</ele>
        <time>2022-07-24T12:24:43.988Z</time>
      </trkpt>
      <trkpt lat="45.03841" lon="5.49391">
        <ele>1389.413017</ele>
        <time>2022-07-24T12:25:01.655Z</time>
      </trkpt>
      <trkpt lat="45.03932" lon="5.49399">
        <ele>1393.115634</ele>
        <time>2022-07-24T12:25:47.500Z</time>
      </trkpt>
      <trkpt lat="45.0407" lon="5.4937">
        <ele>1403.892889</ele>
        <time>2022-07-24T12:27:32.535Z</time>
      </trkpt>
      <trkpt lat="45.04149" lon="5.49355">
        <ele>1410.280949</ele>
        <time>2022-07-24T12:28:31.136Z</time>
      </trkpt>
      <trkpt lat="45.04231" lon="5.49335">
        <ele>1417.117884</ele>
        <time>2022-07-24T12:29:31.423Z</time>
      </trkpt>
      <trkpt lat="45.04263" lon="5.49337">
        <ele>1419.69869</ele>
        <time>2022-07-24T12:29:54.361Z</time>
      </trkpt>
      <trkpt lat="45.04292" lon="5.49334">
        <ele>1422.619051</ele>
        <time>2022-07-24T12:30:14.173Z</time>
      </trkpt>
      <trkpt lat="45.0434" lon="5.49314">
        <ele>1427.995975</ele>
        <time>2022-07-24T12:30:51.726Z</time>
      </trkpt>
      <trkpt lat="45.04369" lon="5.4932">
        <ele>1431.183101</ele>
        <time>2022-07-24T12:31:17.837Z</time>
      </trkpt>
      <trkpt lat="45.04398" lon="5.49302">
        <ele>1434.57661</ele>
        <time>2022-07-24T12:31:41.632Z</time>
      </trkpt>
      <trkpt lat="45.0447" lon="5.49277">
        <ele>1443.880794</ele>
        <time>2022-07-24T12:32:56.386Z</time>
      </trkpt>
      <trkpt lat="45.0447" lon="5.49277">
        <ele>1443.880794</ele>
        <time>2022-07-24T12:32:56.811Z</time>
      </trkpt>
      <trkpt lat="45.0447" lon="5.49277">
        <ele>1443.880794</ele>
        <time>2022-07-24T12:32:56.811Z</time>
      </trkpt>
      <trkpt lat="45.04502" lon="5.49254">
        <ele>1449.764443</ele>
        <time>2022-07-24T12:33:12.535Z</time>
      </trkpt>
      <trkpt lat="45.04518" lon="5.49183">
        <ele>1458.300713</ele>
        <time>2022-07-24T12:33:35.403Z</time>
      </trkpt>
      <trkpt lat="45.04523" lon="5.49124">
        <ele>1465.028543</ele>
        <time>2022-07-24T12:33:53.412Z</time>
      </trkpt>
      <trkpt lat="45.04549" lon="5.49056">
        <ele>1473.700574</ele>
        <time>2022-07-24T12:34:16.907Z</time>
      </trkpt>
      <trkpt lat="45.04551" lon="5.49058">
        <ele>1474.126145</ele>
        <time>2022-07-24T12:34:18.077Z</time>
      </trkpt>
      <trkpt lat="45.04558" lon="5.49045">
        <ele>1475.967682</ele>
        <time>2022-07-24T12:34:34.820Z</time>
      </trkpt>
      <trkpt lat="45.04573" lon="5.49033">
        <ele>1478.689836</ele>
        <time>2022-07-24T12:34:52.774Z</time>
      </trkpt>
      <trkpt lat="45.04596" lon="5.49025">
        <ele>1482.551923</ele>
        <time>2022-07-24T12:35:22.880Z</time>
      </trkpt>
      <trkpt lat="45.0464" lon="5.49024">
        <ele>1489.440336</ele>
        <time>2022-07-24T12:36:09.183Z</time>
      </trkpt>
      <trkpt lat="45.04683" lon="5.48999">
        <ele>1496.763873</ele>
        <time>2022-07-24T12:36:56.962Z</time>
      </trkpt>
      <trkpt lat="45.04697" lon="5.48983">
        <ele>1499.260341</ele>
        <time>2022-07-24T12:37:18.478Z</time>
      </trkpt>
      <trkpt lat="45.04717" lon="5.48954">
        <ele>1503.03889</ele>
        <time>2022-07-24T12:37:41.595Z</time>
      </trkpt>
      <trkpt lat="45.04787" lon="5.48881">
        <ele>1514.683233</ele>
        <time>2022-07-24T12:38:55.667Z</time>
      </trkpt>
      <trkpt lat="45.0481" lon="5.48854">
        <ele>1518.609987</ele>
        <time>2022-07-24T12:39:25.132Z</time>
      </trkpt>
      <trkpt lat="45.04856" lon="5.48788">
        <ele>1524.942146</ele>
        <time>2022-07-24T12:40:15.815Z</time>
      </trkpt>
      <trkpt lat="45.04871" lon="5.48734">
        <ele>1528.263175</ele>
        <time>2022-07-24T12:40:42.200Z</time>
      </trkpt>
      <trkpt lat="45.04877" lon="5.48694">
        <ele>1530.581976</ele>
        <time>2022-07-24T12:41:01.065Z</time>
      </trkpt>
      <trkpt lat="45.04881" lon="5.48684">
        <ele>1531.290516</ele>
        <time>2022-07-24T12:41:04.902Z</time>
      </trkpt>
      <trkpt lat="45.04893" lon="5.48655">
        <ele>1533.213785</ele>
        <time>2022-07-24T12:41:20.015Z</time>
      </trkpt>
      <trkpt lat="45.04907" lon="5.48624">
        <ele>1535.253982</ele>
        <time>2022-07-24T12:41:33.146Z</time>
      </trkpt>
      <trkpt lat="45.04934" lon="5.48579">
        <ele>1535.539685</ele>
        <time>2022-07-24T12:41:53.505Z</time>
      </trkpt>
      <trkpt lat="45.04999" lon="5.48534">
        <ele>1535.19597</ele>
        <time>2022-07-24T12:42:15.338Z</time>
      </trkpt>
      <trkpt lat="45.0502" lon="5.48524">
        <ele>1535.089137</ele>
        <time>2022-07-24T12:42:21.041Z</time>
      </trkpt>
      <trkpt lat="45.05057" lon="5.48514">
        <ele>1534.913325</ele>
        <time>2022-07-24T12:42:30.361Z</time>
      </trkpt>
      <trkpt lat="45.05076" lon="5.485">
        <ele>1534.422369</ele>
        <time>2022-07-24T12:42:36.075Z</time>
      </trkpt>
      <trkpt lat="45.05097" lon="5.48469">
        <ele>1533.195695</ele>
        <time>2022-07-24T12:42:44.000Z</time>
      </trkpt>
      <trkpt lat="45.05123" lon="5.4842">
        <ele>1531.424013</ele>
        <time>2022-07-24T12:42:56.147Z</time>
      </trkpt>
      <trkpt lat="45.05135" lon="5.48389">
        <ele>1530.407127</ele>
        <time>2022-07-24T12:43:02.062Z</time>
      </trkpt>
      <trkpt lat="45.05057" lon="5.48371">
        <ele>1527.094697</ele>
        <time>2022-07-24T12:43:20.892Z</time>
      </trkpt>
      <trkpt lat="45.05051" lon="5.48368">
        <ele>1526.761919</ele>
        <time>2022-07-24T12:43:22.369Z</time>
      </trkpt>
      <trkpt lat="45.05043" lon="5.48355">
        <ele>1526.146779</ele>
        <time>2022-07-24T12:43:25.401Z</time>
      </trkpt>
      <trkpt lat="45.05038" lon="5.48348">
        <ele>1525.782349</ele>
        <time>2022-07-24T12:43:27.003Z</time>
      </trkpt>
      <trkpt lat="45.05028" lon="5.48342">
        <ele>1525.254773</ele>
        <time>2022-07-24T12:43:29.686Z</time>
      </trkpt>
      <trkpt lat="45.04989" lon="5.48324">
        <ele>1523.198547</ele>
        <time>2022-07-24T12:43:39.319Z</time>
      </trkpt>
      <trkpt lat="45.04979" lon="5.48308">
        <ele>1522.439494</ele>
        <time>2022-07-24T12:43:43.164Z</time>
      </trkpt>
      <trkpt lat="45.0496" lon="5.48295">
        <ele>1521.387021</ele>
        <time>2022-07-24T12:43:48.176Z</time>
      </trkpt>
      <trkpt lat="45.04935" lon="5.48262">
        <ele>1519.673415</ele>
        <time>2022-07-24T12:43:56.364Z</time>
      </trkpt>
      <trkpt lat="45.04914" lon="5.48253">
        <ele>1518.568558</ele>
        <time>2022-07-24T12:44:01.527Z</time>
      </trkpt>
      <trkpt lat="45.04886" lon="5.48242">
        <ele>1518.157315</ele>
        <time>2022-07-24T12:44:08.458Z</time>
      </trkpt>
      <trkpt lat="45.04838" lon="5.48209">
        <ele>1517.516377</ele>
        <time>2022-07-24T12:44:24.353Z</time>
      </trkpt>
      <trkpt lat="45.04798" lon="5.4819">
        <ele>1517.019753</ele>
        <time>2022-07-24T12:44:37.879Z</time>
      </trkpt>
      <trkpt lat="45.04788" lon="5.48191">
        <ele>1516.8973</ele>
        <time>2022-07-24T12:44:40.673Z</time>
      </trkpt>
      <trkpt lat="45.04738" lon="5.48237">
        <ele>1516.338341</ele>
        <time>2022-07-24T12:45:02.126Z</time>
      </trkpt>
      <trkpt lat="45.04711" lon="5.4823">
        <ele>1516.319858</ele>
        <time>2022-07-24T12:45:12.453Z</time>
      </trkpt>
      <trkpt lat="45.04691" lon="5.48232">
        <ele>1516.30624</ele>
        <time>2022-07-24T12:45:19.562Z</time>
      </trkpt>
      <trkpt lat="45.0467" lon="5.48242">
        <ele>1516.290862</ele>
        <time>2022-07-24T12:45:28.080Z</time>
      </trkpt>
      <trkpt lat="45.04649" lon="5.48233">
        <ele>1516.276133</ele>
        <time>2022-07-24T12:45:36.055Z</time>
      </trkpt>
      <trkpt lat="45.04638" lon="5.48224">
        <ele>1516.267119</ele>
        <time>2022-07-24T12:45:40.834Z</time>
      </trkpt>
      <trkpt lat="45.04631" lon="5.48227">
        <ele>1516.26245</ele>
        <time>2022-07-24T12:45:43.243Z</time>
      </trkpt>
      <trkpt lat="45.04616" lon="5.48221">
        <ele>1516.251577</ele>
        <time>2022-07-24T12:45:48.796Z</time>
      </trkpt>
      <trkpt lat="45.04607" lon="5.48227">
        <ele>1516.245019</ele>
        <time>2022-07-24T12:45:51.690Z</time>
      </trkpt>
      <trkpt lat="45.04603" lon="5.48233">
        <ele>1516.241158</ele>
        <time>2022-07-24T12:45:53.446Z</time>
      </trkpt>
      <trkpt lat="45.04603" lon="5.48233">
        <ele>1516.24111</ele>
        <time>2022-07-24T12:45:53.457Z</time>
      </trkpt>
      <trkpt lat="45.04597" lon="5.48233">
        <ele>1516.236683</ele>
        <time>2022-07-24T12:45:55.192Z</time>
      </trkpt>
      <trkpt lat="45.04589" lon="5.48222">
        <ele>1516.229759</ele>
        <time>2022-07-24T12:45:57.905Z</time>
      </trkpt>
      <trkpt lat="45.04587" lon="5.48211">
        <ele>1516.165649</ele>
        <time>2022-07-24T12:45:59.951Z</time>
      </trkpt>
      <trkpt lat="45.04569" lon="5.48212">
        <ele>1515.066843</ele>
        <time>2022-07-24T12:46:04.730Z</time>
      </trkpt>
      <trkpt lat="45.04548" lon="5.48227">
        <ele>1513.685305</ele>
        <time>2022-07-24T12:46:10.696Z</time>
      </trkpt>
      <trkpt lat="45.04541" lon="5.48224">
        <ele>1513.292993</ele>
        <time>2022-07-24T12:46:12.381Z</time>
      </trkpt>
      <trkpt lat="45.04537" lon="5.48234">
        <ele>1512.808108</ele>
        <time>2022-07-24T12:46:14.524Z</time>
      </trkpt>
      <trkpt lat="45.04524" lon="5.48238">
        <ele>1512.03233</ele>
        <time>2022-07-24T12:46:17.943Z</time>
      </trkpt>
      <trkpt lat="45.04514" lon="5.48246">
        <ele>1511.351322</ele>
        <time>2022-07-24T12:46:20.335Z</time>
      </trkpt>
      <trkpt lat="45.04518" lon="5.48261">
        <ele>1510.674202</ele>
        <time>2022-07-24T12:46:23.215Z</time>
      </trkpt>
      <trkpt lat="45.04511" lon="5.48297">
        <ele>1509.150006</ele>
        <time>2022-07-24T12:46:29.013Z</time>
      </trkpt>
      <trkpt lat="45.04511" lon="5.48309">
        <ele>1508.622586</ele>
        <time>2022-07-24T12:46:31.197Z</time>
      </trkpt>
      <trkpt lat="45.04487" lon="5.4829">
        <ele>1507.023158</ele>
        <time>2022-07-24T12:46:37.205Z</time>
      </trkpt>
      <trkpt lat="45.04481" lon="5.48292">
        <ele>1506.652317</ele>
        <time>2022-07-24T12:46:38.701Z</time>
      </trkpt>
      <trkpt lat="45.04479" lon="5.48298">
        <ele>1506.382246</ele>
        <time>2022-07-24T12:46:39.789Z</time>
      </trkpt>
      <trkpt lat="45.0448" lon="5.48309">
        <ele>1505.94249</ele>
        <time>2022-07-24T12:46:41.592Z</time>
      </trkpt>
      <trkpt lat="45.045" lon="5.48359">
        <ele>1501.596286</ele>
        <time>2022-07-24T12:46:50.698Z</time>
      </trkpt>
      <trkpt lat="45.04501" lon="5.48367">
        <ele>1500.953848</ele>
        <time>2022-07-24T12:46:51.940Z</time>
      </trkpt>
      <trkpt lat="45.04497" lon="5.4837">
        <ele>1500.466446</ele>
        <time>2022-07-24T12:46:52.792Z</time>
      </trkpt>
      <trkpt lat="45.04485" lon="5.48354">
        <ele>1498.646763</ele>
        <time>2022-07-24T12:46:56.399Z</time>
      </trkpt>
      <trkpt lat="45.04474" lon="5.48346">
        <ele>1497.333687</ele>
        <time>2022-07-24T12:46:59.035Z</time>
      </trkpt>
      <trkpt lat="45.04446" lon="5.48315">
        <ele>1493.291552</ele>
        <time>2022-07-24T12:47:06.519Z</time>
      </trkpt>
      <trkpt lat="45.04423" lon="5.48286">
        <ele>1489.863145</ele>
        <time>2022-07-24T12:47:12.819Z</time>
      </trkpt>
      <trkpt lat="45.04395" lon="5.48241">
        <ele>1484.979693</ele>
        <time>2022-07-24T12:47:21.704Z</time>
      </trkpt>
      <trkpt lat="45.0439" lon="5.48224">
        <ele>1482.96886</ele>
        <time>2022-07-24T12:47:24.321Z</time>
      </trkpt>
      <trkpt lat="45.04384" lon="5.48186">
        <ele>1478.895493</ele>
        <time>2022-07-24T12:47:30.043Z</time>
      </trkpt>
      <trkpt lat="45.04385" lon="5.48169">
        <ele>1477.032871</ele>
        <time>2022-07-24T12:47:32.555Z</time>
      </trkpt>
      <trkpt lat="45.04392" lon="5.48145">
        <ele>1474.356111</ele>
        <time>2022-07-24T12:47:36.255Z</time>
      </trkpt>
      <trkpt lat="45.04408" lon="5.48129">
        <ele>1471.424918</ele>
        <time>2022-07-24T12:47:40.160Z</time>
      </trkpt>
      <trkpt lat="45.04451" lon="5.48106">
        <ele>1464.504982</ele>
        <time>2022-07-24T12:47:49.448Z</time>
      </trkpt>
      <trkpt lat="45.04592" lon="5.48058">
        <ele>1444.893977</ele>
        <time>2022-07-24T12:48:18.684Z</time>
      </trkpt>
      <trkpt lat="45.04636" lon="5.48048">
        <ele>1439.091953</ele>
        <time>2022-07-24T12:48:27.995Z</time>
      </trkpt>
      <trkpt lat="45.04823" lon="5.48023">
        <ele>1420.330009</ele>
        <time>2022-07-24T12:49:09.521Z</time>
      </trkpt>
      <trkpt lat="45.04983" lon="5.48011">
        <ele>1403.105262</ele>
        <time>2022-07-24T12:49:43.005Z</time>
      </trkpt>
      <trkpt lat="45.05026" lon="5.48014">
        <ele>1398.478753</ele>
        <time>2022-07-24T12:49:52.091Z</time>
      </trkpt>
      <trkpt lat="45.05076" lon="5.48011">
        <ele>1395.669874</ele>
        <time>2022-07-24T12:50:03.391Z</time>
      </trkpt>
      <trkpt lat="45.05089" lon="5.48014">
        <ele>1394.990731</ele>
        <time>2022-07-24T12:50:06.242Z</time>
      </trkpt>
      <trkpt lat="45.05094" lon="5.48012">
        <ele>1394.672938</ele>
        <time>2022-07-24T12:50:07.633Z</time>
      </trkpt>
      <trkpt lat="45.05097" lon="5.48007">
        <ele>1394.41647</ele>
        <time>2022-07-24T12:50:08.794Z</time>
      </trkpt>
      <trkpt lat="45.05094" lon="5.48">
        <ele>1394.109271</ele>
        <time>2022-07-24T12:50:10.166Z</time>
      </trkpt>
      <trkpt lat="45.05087" lon="5.47997">
        <ele>1393.674958</ele>
        <time>2022-07-24T12:50:12.098Z</time>
      </trkpt>
      <trkpt lat="45.05072" lon="5.47994">
        <ele>1392.825105</ele>
        <time>2022-07-24T12:50:15.891Z</time>
      </trkpt>
      <trkpt lat="45.05023" lon="5.47995">
        <ele>1390.14631</ele>
        <time>2022-07-24T12:50:28.866Z</time>
      </trkpt>
      <trkpt lat="45.04949" lon="5.4797">
        <ele>1386.791005</ele>
        <time>2022-07-24T12:50:47.793Z</time>
      </trkpt>
      <trkpt lat="45.04806" lon="5.47903">
        <ele>1381.424524</ele>
        <time>2022-07-24T12:51:25.312Z</time>
      </trkpt>
      <trkpt lat="45.04638" lon="5.47844">
        <ele>1377.788473</ele>
        <time>2022-07-24T12:52:13.161Z</time>
      </trkpt>
      <trkpt lat="45.04594" lon="5.47813">
        <ele>1377.343014</ele>
        <time>2022-07-24T12:52:28.310Z</time>
      </trkpt>
      <trkpt lat="45.04534" lon="5.47731">
        <ele>1376.589688</ele>
        <time>2022-07-24T12:52:53.458Z</time>
      </trkpt>
      <trkpt lat="45.04528" lon="5.47688">
        <ele>1376.305447</ele>
        <time>2022-07-24T12:53:02.718Z</time>
      </trkpt>
      <trkpt lat="45.04529" lon="5.47658">
        <ele>1375.827995</ele>
        <time>2022-07-24T12:53:08.842Z</time>
      </trkpt>
      <trkpt lat="45.04509" lon="5.4766">
        <ele>1375.319799</ele>
        <time>2022-07-24T12:53:14.433Z</time>
      </trkpt>
      <trkpt lat="45.04425" lon="5.47653">
        <ele>1373.198598</ele>
        <time>2022-07-24T12:53:37.274Z</time>
      </trkpt>
      <trkpt lat="45.04349" lon="5.47661">
        <ele>1370.805634</ele>
        <time>2022-07-24T12:53:56.406Z</time>
      </trkpt>
      <trkpt lat="45.04248" lon="5.47634">
        <ele>1365.471095</ele>
        <time>2022-07-24T12:54:21.128Z</time>
      </trkpt>
      <trkpt lat="45.04227" lon="5.47648">
        <ele>1364.29469</ele>
        <time>2022-07-24T12:54:26.383Z</time>
      </trkpt>
      <trkpt lat="45.04202" lon="5.47659">
        <ele>1362.928416</ele>
        <time>2022-07-24T12:54:32.746Z</time>
      </trkpt>
      <trkpt lat="45.04098" lon="5.47676">
        <ele>1356.972481</ele>
        <time>2022-07-24T12:54:57.139Z</time>
      </trkpt>
      <trkpt lat="45.04076" lon="5.47682">
        <ele>1355.680203</ele>
        <time>2022-07-24T12:55:02.296Z</time>
      </trkpt>
      <trkpt lat="45.04048" lon="5.47703">
        <ele>1353.844186</ele>
        <time>2022-07-24T12:55:09.965Z</time>
      </trkpt>
      <trkpt lat="45.03945" lon="5.47745">
        <ele>1347.594889</ele>
        <time>2022-07-24T12:55:35.547Z</time>
      </trkpt>
      <trkpt lat="45.03919" lon="5.47759">
        <ele>1346.002383</ele>
        <time>2022-07-24T12:55:42.083Z</time>
      </trkpt>
      <trkpt lat="45.03863" lon="5.47777">
        <ele>1342.650681</ele>
        <time>2022-07-24T12:55:55.540Z</time>
      </trkpt>
      <trkpt lat="45.03782" lon="5.47813">
        <ele>1336.55501</ele>
        <time>2022-07-24T12:56:14.735Z</time>
      </trkpt>
      <trkpt lat="45.03762" lon="5.47828">
        <ele>1334.900411</ele>
        <time>2022-07-24T12:56:19.633Z</time>
      </trkpt>
      <trkpt lat="45.0374" lon="5.47851">
        <ele>1332.791188</ele>
        <time>2022-07-24T12:56:25.860Z</time>
      </trkpt>
      <trkpt lat="45.03669" lon="5.47933">
        <ele>1326.193329</ele>
        <time>2022-07-24T12:56:46.533Z</time>
      </trkpt>
      <trkpt lat="45.03652" lon="5.4795">
        <ele>1324.905206</ele>
        <time>2022-07-24T12:56:51.018Z</time>
      </trkpt>
      <trkpt lat="45.03633" lon="5.47959">
        <ele>1323.576636</ele>
        <time>2022-07-24T12:56:55.648Z</time>
      </trkpt>
      <trkpt lat="45.03616" lon="5.47963">
        <ele>1322.468855</ele>
        <time>2022-07-24T12:56:59.540Z</time>
      </trkpt>
      <trkpt lat="45.03512" lon="5.47972">
        <ele>1315.859296</ele>
        <time>2022-07-24T12:57:24.363Z</time>
      </trkpt>
      <trkpt lat="45.03438" lon="5.47983">
        <ele>1311.663418</ele>
        <time>2022-07-24T12:57:41.811Z</time>
      </trkpt>
      <trkpt lat="45.03419" lon="5.47982">
        <ele>1310.598699</ele>
        <time>2022-07-24T12:57:46.315Z</time>
      </trkpt>
      <trkpt lat="45.03384" lon="5.47962">
        <ele>1308.491995</ele>
        <time>2022-07-24T12:57:55.146Z</time>
      </trkpt>
      <trkpt lat="45.03355" lon="5.47917">
        <ele>1306.097099</ele>
        <time>2022-07-24T12:58:05.320Z</time>
      </trkpt>
      <trkpt lat="45.03275" lon="5.47805">
        <ele>1300.717399</ele>
        <time>2022-07-24T12:58:32.436Z</time>
      </trkpt>
      <trkpt lat="45.03264" lon="5.47795">
        <ele>1300.096934</ele>
        <time>2022-07-24T12:58:35.657Z</time>
      </trkpt>
      <trkpt lat="45.0325" lon="5.47787">
        <ele>1299.372393</ele>
        <time>2022-07-24T12:58:39.349Z</time>
      </trkpt>
      <trkpt lat="45.03219" lon="5.47782">
        <ele>1297.906779</ele>
        <time>2022-07-24T12:58:47.538Z</time>
      </trkpt>
      <trkpt lat="45.03148" lon="5.4778">
        <ele>1294.851193</ele>
        <time>2022-07-24T12:59:04.867Z</time>
      </trkpt>
      <trkpt lat="45.0312" lon="5.47774">
        <ele>1293.670366</ele>
        <time>2022-07-24T12:59:11.691Z</time>
      </trkpt>
      <trkpt lat="45.03074" lon="5.47748">
        <ele>1291.529353</ele>
        <time>2022-07-24T12:59:24.357Z</time>
      </trkpt>
      <trkpt lat="45.03047" lon="5.47741">
        <ele>1290.396417</ele>
        <time>2022-07-24T12:59:30.726Z</time>
      </trkpt>
      <trkpt lat="45.02998" lon="5.47726">
        <ele>1288.56189</ele>
        <time>2022-07-24T12:59:43.193Z</time>
      </trkpt>
      <trkpt lat="45.02936" lon="5.47719">
        <ele>1286.328307</ele>
        <time>2022-07-24T12:59:58.627Z</time>
      </trkpt>
      <trkpt lat="45.02844" lon="5.47699">
        <ele>1283.403648</ele>
        <time>2022-07-24T13:00:23.465Z</time>
      </trkpt>
      <trkpt lat="45.02823" lon="5.47698">
        <ele>1283.082574</ele>
        <time>2022-07-24T13:00:29.266Z</time>
      </trkpt>
      <trkpt lat="45.02736" lon="5.47718">
        <ele>1281.70657</ele>
        <time>2022-07-24T13:00:53.711Z</time>
      </trkpt>
      <trkpt lat="45.02687" lon="5.47719">
        <ele>1280.931155</ele>
        <time>2022-07-24T13:01:08.089Z</time>
      </trkpt>
      <trkpt lat="45.02561" lon="5.47688">
        <ele>1281.052862</ele>
        <time>2022-07-24T13:01:47.766Z</time>
      </trkpt>
      <trkpt lat="45.02547" lon="5.47684">
        <ele>1281.071991</ele>
        <time>2022-07-24T13:01:52.740Z</time>
      </trkpt>
      <trkpt lat="45.02508" lon="5.47674">
        <ele>1281.124417</ele>
        <time>2022-07-24T13:02:07.041Z</time>
      </trkpt>
      <trkpt lat="45.02427" lon="5.47667">
        <ele>1283.157571</ele>
        <time>2022-07-24T13:02:40.957Z</time>
      </trkpt>
      <trkpt lat="45.02347" lon="5.47643">
        <ele>1285.249228</ele>
        <time>2022-07-24T13:03:17.947Z</time>
      </trkpt>
      <trkpt lat="45.02298" lon="5.47631">
        <ele>1287.209628</ele>
        <time>2022-07-24T13:03:44.647Z</time>
      </trkpt>
      <trkpt lat="45.02237" lon="5.47607">
        <ele>1290.21592</ele>
        <time>2022-07-24T13:04:20.986Z</time>
      </trkpt>
      <trkpt lat="45.0221" lon="5.47608">
        <ele>1291.492201</ele>
        <time>2022-07-24T13:04:36.905Z</time>
      </trkpt>
      <trkpt lat="45.02169" lon="5.47594">
        <ele>1293.480642</ele>
        <time>2022-07-24T13:05:01.526Z</time>
      </trkpt>
      <trkpt lat="45.02145" lon="5.47587">
        <ele>1294.596415</ele>
        <time>2022-07-24T13:05:14.860Z</time>
      </trkpt>
      <trkpt lat="45.02114" lon="5.47569">
        <ele>1295.938085</ele>
        <time>2022-07-24T13:05:31.682Z</time>
      </trkpt>
      <trkpt lat="45.02093" lon="5.47564">
        <ele>1296.772876</ele>
        <time>2022-07-24T13:05:42.704Z</time>
      </trkpt>
      <trkpt lat="45.02087" lon="5.47563">
        <ele>1297.04435</ele>
        <time>2022-07-24T13:05:46.431Z</time>
      </trkpt>
      <trkpt lat="45.02059" lon="5.47559">
        <ele>1298.157761</ele>
        <time>2022-07-24T13:06:01.022Z</time>
      </trkpt>
      <trkpt lat="45.02051" lon="5.47554">
        <ele>1298.514484</ele>
        <time>2022-07-24T13:06:05.758Z</time>
      </trkpt>
      <trkpt lat="45.02044" lon="5.47546">
        <ele>1298.866462</ele>
        <time>2022-07-24T13:06:10.869Z</time>
      </trkpt>
      <trkpt lat="45.02039" lon="5.47486">
        <ele>1300.583809</ele>
        <time>2022-07-24T13:06:33.026Z</time>
      </trkpt>
      <trkpt lat="45.02021" lon="5.47439">
        <ele>1301.907711</ele>
        <time>2022-07-24T13:06:50.746Z</time>
      </trkpt>
      <trkpt lat="45.02011" lon="5.4741">
        <ele>1302.569684</ele>
        <time>2022-07-24T13:07:01.146Z</time>
      </trkpt>
      <trkpt lat="45.01991" lon="5.47365">
        <ele>1303.66705</ele>
        <time>2022-07-24T13:07:17.122Z</time>
      </trkpt>
      <trkpt lat="45.01991" lon="5.47365">
        <ele>1303.66705</ele>
        <time>2022-07-24T13:07:17.265Z</time>
      </trkpt>
      <trkpt lat="45.01989" lon="5.47353">
        <ele>1303.918266</ele>
        <time>2022-07-24T13:07:20.659Z</time>
      </trkpt>
      <trkpt lat="45.01972" lon="5.47339">
        <ele>1304.46514</ele>
        <time>2022-07-24T13:07:28.673Z</time>
      </trkpt>
      <trkpt lat="45.01905" lon="5.47314">
        <ele>1306.484825</ele>
        <time>2022-07-24T13:08:01.804Z</time>
      </trkpt>
      <trkpt lat="45.01868" lon="5.47297">
        <ele>1307.231057</ele>
        <time>2022-07-24T13:08:20.942Z</time>
      </trkpt>
      <trkpt lat="45.01833" lon="5.47271">
        <ele>1307.945351</ele>
        <time>2022-07-24T13:08:39.659Z</time>
      </trkpt>
      <trkpt lat="45.01817" lon="5.47266">
        <ele>1308.233118</ele>
        <time>2022-07-24T13:08:46.863Z</time>
      </trkpt>
      <trkpt lat="45.01815" lon="5.47265">
        <ele>1308.273345</ele>
        <time>2022-07-24T13:08:48.038Z</time>
      </trkpt>
      <trkpt lat="45.01795" lon="5.47265">
        <ele>1308.61768</ele>
        <time>2022-07-24T13:08:55.274Z</time>
      </trkpt>
      <trkpt lat="45.01778" lon="5.47254">
        <ele>1308.949019</ele>
        <time>2022-07-24T13:09:03.926Z</time>
      </trkpt>
      <trkpt lat="45.01777" lon="5.47242">
        <ele>1309.099295</ele>
        <time>2022-07-24T13:09:07.006Z</time>
      </trkpt>
      <trkpt lat="45.01751" lon="5.47233">
        <ele>1309.57725</ele>
        <time>2022-07-24T13:09:16.186Z</time>
      </trkpt>
      <trkpt lat="45.01732" lon="5.47222">
        <ele>1309.618265</ele>
        <time>2022-07-24T13:09:22.167Z</time>
      </trkpt>
      <trkpt lat="45.01701" lon="5.47221">
        <ele>1308.144084</ele>
        <time>2022-07-24T13:09:31.567Z</time>
      </trkpt>
      <trkpt lat="45.01692" lon="5.47232">
        <ele>1307.574529</ele>
        <time>2022-07-24T13:09:34.700Z</time>
      </trkpt>
      <trkpt lat="45.01678" lon="5.4724">
        <ele>1306.87318</ele>
        <time>2022-07-24T13:09:38.526Z</time>
      </trkpt>
      <trkpt lat="45.0165" lon="5.47222">
        <ele>1305.422555</ele>
        <time>2022-07-24T13:09:46.267Z</time>
      </trkpt>
      <trkpt lat="45.01642" lon="5.47224">
        <ele>1305.041821</ele>
        <time>2022-07-24T13:09:48.342Z</time>
      </trkpt>
      <trkpt lat="45.01619" lon="5.47229">
        <ele>1303.941996</ele>
        <time>2022-07-24T13:09:53.684Z</time>
      </trkpt>
      <trkpt lat="45.01562" lon="5.4726">
        <ele>1300.417688</ele>
        <time>2022-07-24T13:10:07.503Z</time>
      </trkpt>
      <trkpt lat="45.01551" lon="5.47263">
        <ele>1298.871327</ele>
        <time>2022-07-24T13:10:09.823Z</time>
      </trkpt>
      <trkpt lat="45.01545" lon="5.47258">
        <ele>1297.924701</ele>
        <time>2022-07-24T13:10:11.241Z</time>
      </trkpt>
      <trkpt lat="45.01519" lon="5.47182">
        <ele>1289.530347</ele>
        <time>2022-07-24T13:10:23.788Z</time>
      </trkpt>
      <trkpt lat="45.01512" lon="5.47166">
        <ele>1287.570797</ele>
        <time>2022-07-24T13:10:26.494Z</time>
      </trkpt>
      <trkpt lat="45.01497" lon="5.47156">
        <ele>1285.30288</ele>
        <time>2022-07-24T13:10:29.756Z</time>
      </trkpt>
      <trkpt lat="45.01478" lon="5.47157">
        <ele>1282.588089</ele>
        <time>2022-07-24T13:10:33.511Z</time>
      </trkpt>
      <trkpt lat="45.01448" lon="5.47133">
        <ele>1277.721246</ele>
        <time>2022-07-24T13:10:40.271Z</time>
      </trkpt>
      <trkpt lat="45.01434" lon="5.47102">
        <ele>1273.711292</ele>
        <time>2022-07-24T13:10:45.488Z</time>
      </trkpt>
      <trkpt lat="45.01443" lon="5.47004">
        <ele>1262.019912</ele>
        <time>2022-07-24T13:10:59.472Z</time>
      </trkpt>
      <trkpt lat="45.01479" lon="5.46958">
        <ele>1253.924358</ele>
        <time>2022-07-24T13:11:09.179Z</time>
      </trkpt>
      <trkpt lat="45.01511" lon="5.46928">
        <ele>1247.482564</ele>
        <time>2022-07-24T13:11:16.868Z</time>
      </trkpt>
      <trkpt lat="45.01525" lon="5.4692">
        <ele>1245.187234</ele>
        <time>2022-07-24T13:11:19.895Z</time>
      </trkpt>
      <trkpt lat="45.01546" lon="5.46889">
        <ele>1241.392181</ele>
        <time>2022-07-24T13:11:25.945Z</time>
      </trkpt>
      <trkpt lat="45.01592" lon="5.46872">
        <ele>1235.397084</ele>
        <time>2022-07-24T13:11:35.790Z</time>
      </trkpt>
      <trkpt lat="45.01605" lon="5.46865">
        <ele>1233.580349</ele>
        <time>2022-07-24T13:11:38.797Z</time>
      </trkpt>
      <trkpt lat="45.01651" lon="5.46816">
        <ele>1226.252493</ele>
        <time>2022-07-24T13:11:51.203Z</time>
      </trkpt>
      <trkpt lat="45.01753" lon="5.46671">
        <ele>1205.294701</ele>
        <time>2022-07-24T13:12:21.128Z</time>
      </trkpt>
      <trkpt lat="45.01771" lon="5.46651">
        <ele>1201.859386</ele>
        <time>2022-07-24T13:12:25.655Z</time>
      </trkpt>
      <trkpt lat="45.01804" lon="5.46582">
        <ele>1191.257726</ele>
        <time>2022-07-24T13:12:37.240Z</time>
      </trkpt>
      <trkpt lat="45.01819" lon="5.46532">
        <ele>1182.588784</ele>
        <time>2022-07-24T13:12:44.715Z</time>
      </trkpt>
      <trkpt lat="45.01822" lon="5.4649">
        <ele>1175.931466</ele>
        <time>2022-07-24T13:12:50.443Z</time>
      </trkpt>
      <trkpt lat="45.01816" lon="5.46454">
        <ele>1169.894291</ele>
        <time>2022-07-24T13:12:55.714Z</time>
      </trkpt>
      <trkpt lat="45.01822" lon="5.46448">
        <ele>1168.291747</ele>
        <time>2022-07-24T13:12:57.079Z</time>
      </trkpt>
      <trkpt lat="45.01843" lon="5.46439">
        <ele>1163.330804</ele>
        <time>2022-07-24T13:13:01.361Z</time>
      </trkpt>
      <trkpt lat="45.0185" lon="5.46433">
        <ele>1161.343267</ele>
        <time>2022-07-24T13:13:03.098Z</time>
      </trkpt>
      <trkpt lat="45.01855" lon="5.46424">
        <ele>1159.598181</ele>
        <time>2022-07-24T13:13:04.629Z</time>
      </trkpt>
      <trkpt lat="45.01859" lon="5.46422">
        <ele>1158.461832</ele>
        <time>2022-07-24T13:13:05.630Z</time>
      </trkpt>
      <trkpt lat="45.01864" lon="5.46423">
        <ele>1157.356924</ele>
        <time>2022-07-24T13:13:06.598Z</time>
      </trkpt>
      <trkpt lat="45.01873" lon="5.46437">
        <ele>1154.069458</ele>
        <time>2022-07-24T13:13:09.186Z</time>
      </trkpt>
      <trkpt lat="45.01879" lon="5.4644">
        <ele>1152.291911</ele>
        <time>2022-07-24T13:13:10.503Z</time>
      </trkpt>
      <trkpt lat="45.01905" lon="5.46428">
        <ele>1145.027936</ele>
        <time>2022-07-24T13:13:15.714Z</time>
      </trkpt>
      <trkpt lat="45.01913" lon="5.46436">
        <ele>1142.361612</ele>
        <time>2022-07-24T13:13:17.666Z</time>
      </trkpt>
      <trkpt lat="45.01952" lon="5.46419">
        <ele>1131.198285</ele>
        <time>2022-07-24T13:13:25.759Z</time>
      </trkpt>
      <trkpt lat="45.01973" lon="5.464">
        <ele>1124.228452</ele>
        <time>2022-07-24T13:13:30.752Z</time>
      </trkpt>
      <trkpt lat="45.01993" lon="5.46388">
        <ele>1118.37922</ele>
        <time>2022-07-24T13:13:34.951Z</time>
      </trkpt>
      <trkpt lat="45.02037" lon="5.4639">
        <ele>1106.278757</ele>
        <time>2022-07-24T13:13:43.630Z</time>
      </trkpt>
      <trkpt lat="45.02053" lon="5.46383">
        <ele>1102.975905</ele>
        <time>2022-07-24T13:13:46.891Z</time>
      </trkpt>
      <trkpt lat="45.02074" lon="5.46382">
        <ele>1098.931311</ele>
        <time>2022-07-24T13:13:50.926Z</time>
      </trkpt>
      <trkpt lat="45.02079" lon="5.46378">
        <ele>1097.871208</ele>
        <time>2022-07-24T13:13:51.978Z</time>
      </trkpt>
      <trkpt lat="45.02075" lon="5.4637">
        <ele>1096.571305</ele>
        <time>2022-07-24T13:13:53.271Z</time>
      </trkpt>
      <trkpt lat="45.02047" lon="5.46337">
        <ele>1089.290116</ele>
        <time>2022-07-24T13:14:00.465Z</time>
      </trkpt>
      <trkpt lat="45.02034" lon="5.46326">
        <ele>1086.316918</ele>
        <time>2022-07-24T13:14:03.400Z</time>
      </trkpt>
      <trkpt lat="45.02026" lon="5.46323">
        <ele>1084.752484</ele>
        <time>2022-07-24T13:14:05.098Z</time>
      </trkpt>
      <trkpt lat="45.0202" lon="5.46317">
        <ele>1083.345432</ele>
        <time>2022-07-24T13:14:06.504Z</time>
      </trkpt>
      <trkpt lat="45.02006" lon="5.46292">
        <ele>1078.928491</ele>
        <time>2022-07-24T13:14:11.139Z</time>
      </trkpt>
      <trkpt lat="45.02007" lon="5.46285">
        <ele>1077.91235</ele>
        <time>2022-07-24T13:14:12.220Z</time>
      </trkpt>
      <trkpt lat="45.02036" lon="5.46286">
        <ele>1072.158666</ele>
        <time>2022-07-24T13:14:18.114Z</time>
      </trkpt>
      <trkpt lat="45.02049" lon="5.46282">
        <ele>1069.623234</ele>
        <time>2022-07-24T13:14:20.772Z</time>
      </trkpt>
      <trkpt lat="45.02066" lon="5.46275">
        <ele>1066.306104</ele>
        <time>2022-07-24T13:14:24.438Z</time>
      </trkpt>
      <trkpt lat="45.02079" lon="5.4626">
        <ele>1063.258727</ele>
        <time>2022-07-24T13:14:27.732Z</time>
      </trkpt>
      <trkpt lat="45.02097" lon="5.46256">
        <ele>1059.807257</ele>
        <time>2022-07-24T13:14:31.500Z</time>
      </trkpt>
      <trkpt lat="45.02107" lon="5.46251">
        <ele>1057.851549</ele>
        <time>2022-07-24T13:14:33.584Z</time>
      </trkpt>
      <trkpt lat="45.02146" lon="5.46248">
        <ele>1050.695219</ele>
        <time>2022-07-24T13:14:41.177Z</time>
      </trkpt>
      <trkpt lat="45.02153" lon="5.46245">
        <ele>1049.297532</ele>
        <time>2022-07-24T13:14:42.643Z</time>
      </trkpt>
      <trkpt lat="45.02163" lon="5.46234">
        <ele>1046.838046</ele>
        <time>2022-07-24T13:14:45.258Z</time>
      </trkpt>
      <trkpt lat="45.02181" lon="5.4623">
        <ele>1043.411997</ele>
        <time>2022-07-24T13:14:48.815Z</time>
      </trkpt>
      <trkpt lat="45.02191" lon="5.46218">
        <ele>1041.060652</ele>
        <time>2022-07-24T13:14:51.301Z</time>
      </trkpt>
      <trkpt lat="45.02197" lon="5.46194">
        <ele>1037.700358</ele>
        <time>2022-07-24T13:14:54.802Z</time>
      </trkpt>
      <trkpt lat="45.02218" lon="5.46183">
        <ele>1031.823783</ele>
        <time>2022-07-24T13:14:59.093Z</time>
      </trkpt>
      <trkpt lat="45.02247" lon="5.46133">
        <ele>1019.639241</ele>
        <time>2022-07-24T13:15:07.999Z</time>
      </trkpt>
      <trkpt lat="45.02274" lon="5.46108">
        <ele>1011.043854</ele>
        <time>2022-07-24T13:15:14.327Z</time>
      </trkpt>
      <trkpt lat="45.0229" lon="5.46083">
        <ele>1004.793095</ele>
        <time>2022-07-24T13:15:18.933Z</time>
      </trkpt>
      <trkpt lat="45.02338" lon="5.46041">
        <ele>989.799517</ele>
        <time>2022-07-24T13:15:29.967Z</time>
      </trkpt>
      <trkpt lat="45.02357" lon="5.4603">
        <ele>983.192953</ele>
        <time>2022-07-24T13:15:33.986Z</time>
      </trkpt>
      <trkpt lat="45.0239" lon="5.46">
        <ele>970.364103</ele>
        <time>2022-07-24T13:15:41.857Z</time>
      </trkpt>
      <trkpt lat="45.02397" lon="5.4598">
        <ele>965.40343</ele>
        <time>2022-07-24T13:15:44.908Z</time>
      </trkpt>
      <trkpt lat="45.02407" lon="5.45959">
        <ele>959.598809</ele>
        <time>2022-07-24T13:15:46.932Z</time>
      </trkpt>
      <trkpt lat="45.02418" lon="5.45944">
        <ele>954.729394</ele>
        <time>2022-07-24T13:15:48.646Z</time>
      </trkpt>
      <trkpt lat="45.02425" lon="5.45937">
        <ele>951.785273</ele>
        <time>2022-07-24T13:15:49.659Z</time>
      </trkpt>
      <trkpt lat="45.02439" lon="5.45923">
        <ele>946.256305</ele>
        <time>2022-07-24T13:15:51.595Z</time>
      </trkpt>
      <trkpt lat="45.02447" lon="5.45905">
        <ele>941.367146</ele>
        <time>2022-07-24T13:15:53.286Z</time>
      </trkpt>
      <trkpt lat="45.0244" lon="5.45865">
        <ele>932.098869</ele>
        <time>2022-07-24T13:15:58.960Z</time>
      </trkpt>
      <trkpt lat="45.0243" lon="5.45829">
        <ele>925.043788</ele>
        <time>2022-07-24T13:16:04.405Z</time>
      </trkpt>
      <trkpt lat="45.02428" lon="5.45805">
        <ele>920.71104</ele>
        <time>2022-07-24T13:16:07.710Z</time>
      </trkpt>
      <trkpt lat="45.02426" lon="5.45778">
        <ele>915.899478</ele>
        <time>2022-07-24T13:16:11.394Z</time>
      </trkpt>
      <trkpt lat="45.02429" lon="5.45759">
        <ele>912.542233</ele>
        <time>2022-07-24T13:16:13.957Z</time>
      </trkpt>
      <trkpt lat="45.02444" lon="5.45716">
        <ele>903.79939</ele>
        <time>2022-07-24T13:16:20.641Z</time>
      </trkpt>
      <trkpt lat="45.02441" lon="5.45692">
        <ele>899.48816</ele>
        <time>2022-07-24T13:16:23.968Z</time>
      </trkpt>
      <trkpt lat="45.02432" lon="5.45675">
        <ele>895.709912</ele>
        <time>2022-07-24T13:16:26.866Z</time>
      </trkpt>
      <trkpt lat="45.02419" lon="5.45655">
        <ele>890.919175</ele>
        <time>2022-07-24T13:16:30.540Z</time>
      </trkpt>
      <trkpt lat="45.02412" lon="5.45647">
        <ele>888.48535</ele>
        <time>2022-07-24T13:16:32.434Z</time>
      </trkpt>
      <trkpt lat="45.02403" lon="5.45642">
        <ele>886.12152</ele>
        <time>2022-07-24T13:16:34.303Z</time>
      </trkpt>
      <trkpt lat="45.02373" lon="5.45639">
        <ele>880.546589</ele>
        <time>2022-07-24T13:16:40.187Z</time>
      </trkpt>
      <trkpt lat="45.02311" lon="5.45612">
        <ele>868.442173</ele>
        <time>2022-07-24T13:16:52.928Z</time>
      </trkpt>
      <trkpt lat="45.0228" lon="5.45587">
        <ele>861.895822</ele>
        <time>2022-07-24T13:16:59.894Z</time>
      </trkpt>
      <trkpt lat="45.02271" lon="5.45573">
        <ele>859.405156</ele>
        <time>2022-07-24T13:17:02.605Z</time>
      </trkpt>
      <trkpt lat="45.0227" lon="5.4555">
        <ele>856.299722</ele>
        <time>2022-07-24T13:17:05.919Z</time>
      </trkpt>
      <trkpt lat="45.02247" lon="5.45537">
        <ele>852.0399</ele>
        <time>2022-07-24T13:17:10.748Z</time>
      </trkpt>
      <trkpt lat="45.02228" lon="5.45539">
        <ele>849.148546</ele>
        <time>2022-07-24T13:17:14.602Z</time>
      </trkpt>
      <trkpt lat="45.0222" lon="5.45536">
        <ele>847.889568</ele>
        <time>2022-07-24T13:17:16.364Z</time>
      </trkpt>
      <trkpt lat="45.02204" lon="5.45518">
        <ele>844.777543</ele>
        <time>2022-07-24T13:17:20.577Z</time>
      </trkpt>
      <trkpt lat="45.02203" lon="5.45508">
        <ele>843.737771</ele>
        <time>2022-07-24T13:17:21.926Z</time>
      </trkpt>
      <trkpt lat="45.02214" lon="5.45478">
        <ele>840.171681</ele>
        <time>2022-07-24T13:17:26.771Z</time>
      </trkpt>
      <trkpt lat="45.02252" lon="5.45452">
        <ele>833.894745</ele>
        <time>2022-07-24T13:17:35.254Z</time>
      </trkpt>
      <trkpt lat="45.02256" lon="5.45442">
        <ele>832.651853</ele>
        <time>2022-07-24T13:17:36.851Z</time>
      </trkpt>
      <trkpt lat="45.02273" lon="5.45376">
        <ele>825.138959</ele>
        <time>2022-07-24T13:17:47.248Z</time>
      </trkpt>
      <trkpt lat="45.02269" lon="5.4536">
        <ele>823.134685</ele>
        <time>2022-07-24T13:17:49.968Z</time>
      </trkpt>
      <trkpt lat="45.02269" lon="5.45347">
        <ele>821.49995</ele>
        <time>2022-07-24T13:17:51.837Z</time>
      </trkpt>
      <trkpt lat="45.0226" lon="5.45327">
        <ele>818.624069</ele>
        <time>2022-07-24T13:17:55.256Z</time>
      </trkpt>
      <trkpt lat="45.02254" lon="5.45327">
        <ele>817.548191</ele>
        <time>2022-07-24T13:17:56.721Z</time>
      </trkpt>
      <trkpt lat="45.02237" lon="5.45346">
        <ele>813.959084</ele>
        <time>2022-07-24T13:18:00.849Z</time>
      </trkpt>
      <trkpt lat="45.0223" lon="5.45348">
        <ele>812.729405</ele>
        <time>2022-07-24T13:18:02.313Z</time>
      </trkpt>
      <trkpt lat="45.02222" lon="5.45348">
        <ele>811.319098</ele>
        <time>2022-07-24T13:18:04.138Z</time>
      </trkpt>
      <trkpt lat="45.02209" lon="5.45343">
        <ele>808.971357</ele>
        <time>2022-07-24T13:18:06.825Z</time>
      </trkpt>
      <trkpt lat="45.022" lon="5.45333">
        <ele>807.11584</ele>
        <time>2022-07-24T13:18:08.955Z</time>
      </trkpt>
      <trkpt lat="45.02185" lon="5.45305">
        <ele>802.788328</ele>
        <time>2022-07-24T13:18:13.962Z</time>
      </trkpt>
      <trkpt lat="45.0215" lon="5.45273">
        <ele>795.827073</ele>
        <time>2022-07-24T13:18:21.950Z</time>
      </trkpt>
      <trkpt lat="45.02137" lon="5.4523">
        <ele>791.053922</ele>
        <time>2022-07-24T13:18:27.074Z</time>
      </trkpt>
      <trkpt lat="45.02135" lon="5.45224">
        <ele>790.370221</ele>
        <time>2022-07-24T13:18:27.621Z</time>
      </trkpt>
      <trkpt lat="45.02142" lon="5.45203">
        <ele>788.0314</ele>
        <time>2022-07-24T13:18:30.180Z</time>
      </trkpt>
      <trkpt lat="45.02149" lon="5.45194">
        <ele>786.608859</ele>
        <time>2022-07-24T13:18:32.259Z</time>
      </trkpt>
      <trkpt lat="45.02151" lon="5.45184">
        <ele>785.609269</ele>
        <time>2022-07-24T13:18:33.666Z</time>
      </trkpt>
      <trkpt lat="45.0215" lon="5.45144">
        <ele>781.606021</ele>
        <time>2022-07-24T13:18:39.387Z</time>
      </trkpt>
      <trkpt lat="45.02157" lon="5.45105">
        <ele>777.61003</ele>
        <time>2022-07-24T13:18:45.068Z</time>
      </trkpt>
      <trkpt lat="45.0216" lon="5.45072">
        <ele>774.252381</ele>
        <time>2022-07-24T13:18:50.024Z</time>
      </trkpt>
      <trkpt lat="45.02158" lon="5.45059">
        <ele>772.922226</ele>
        <time>2022-07-24T13:18:52.020Z</time>
      </trkpt>
      <trkpt lat="45.02143" lon="5.45013">
        <ele>769.306295</ele>
        <time>2022-07-24T13:18:59.939Z</time>
      </trkpt>
      <trkpt lat="45.02157" lon="5.45006">
        <ele>768.73628</ele>
        <time>2022-07-24T13:19:03.421Z</time>
      </trkpt>
      <trkpt lat="45.02177" lon="5.44995">
        <ele>767.886781</ele>
        <time>2022-07-24T13:19:08.461Z</time>
      </trkpt>
      <trkpt lat="45.02206" lon="5.44972">
        <ele>766.609766</ele>
        <time>2022-07-24T13:19:16.503Z</time>
      </trkpt>
      <trkpt lat="45.02219" lon="5.44967">
        <ele>766.067857</ele>
        <time>2022-07-24T13:19:20.131Z</time>
      </trkpt>
      <trkpt lat="45.02248" lon="5.44983">
        <ele>764.8878</ele>
        <time>2022-07-24T13:19:28.568Z</time>
      </trkpt>
      <trkpt lat="45.02272" lon="5.44985">
        <ele>763.921421</ele>
        <time>2022-07-24T13:19:35.611Z</time>
      </trkpt>
      <trkpt lat="45.02336" lon="5.44963">
        <ele>763.271146</ele>
        <time>2022-07-24T13:19:57.142Z</time>
      </trkpt>
      <trkpt lat="45.02385" lon="5.44951">
        <ele>763.782052</ele>
        <time>2022-07-24T13:20:15.115Z</time>
      </trkpt>
      <trkpt lat="45.02427" lon="5.44923">
        <ele>764.268031</ele>
        <time>2022-07-24T13:20:34.186Z</time>
      </trkpt>
      <trkpt lat="45.02424" lon="5.4492">
        <ele>764.314579</ele>
        <time>2022-07-24T13:20:34.896Z</time>
      </trkpt>
      <trkpt lat="45.02424" lon="5.44913">
        <ele>764.364445</ele>
        <time>2022-07-24T13:20:35.963Z</time>
      </trkpt>
      <trkpt lat="45.02428" lon="5.44905">
        <ele>764.436846</ele>
        <time>2022-07-24T13:20:38.669Z</time>
      </trkpt>
      <trkpt lat="45.02458" lon="5.44878">
        <ele>764.928059</ele>
        <time>2022-07-24T13:20:49.457Z</time>
      </trkpt>
      <trkpt lat="45.02473" lon="5.44854">
        <ele>765.545079</ele>
        <time>2022-07-24T13:20:56.579Z</time>
      </trkpt>
      <trkpt lat="45.02477" lon="5.44844">
        <ele>765.766373</ele>
        <time>2022-07-24T13:20:58.036Z</time>
      </trkpt>
      <trkpt lat="45.02487" lon="5.44847">
        <ele>766.057382</ele>
        <time>2022-07-24T13:21:02.179Z</time>
      </trkpt>
      <trkpt lat="45.0253" lon="5.44829">
        <ele>767.302655</ele>
        <time>2022-07-24T13:21:14.132Z</time>
      </trkpt>
      <trkpt lat="45.02566" lon="5.44814">
        <ele>768.318035</ele>
        <time>2022-07-24T13:21:23.721Z</time>
      </trkpt>
      <trkpt lat="45.02597" lon="5.44768">
        <ele>769.550135</ele>
        <time>2022-07-24T13:21:41.565Z</time>
      </trkpt>
      <trkpt lat="45.02626" lon="5.44701">
        <ele>773.744752</ele>
        <time>2022-07-24T13:22:10.168Z</time>
      </trkpt>
      <trkpt lat="45.02635" lon="5.44692">
        <ele>774.603376</ele>
        <time>2022-07-24T13:22:16.613Z</time>
      </trkpt>
      <trkpt lat="45.02652" lon="5.44692">
        <ele>775.990153</ele>
        <time>2022-07-24T13:22:26.657Z</time>
      </trkpt>
      <trkpt lat="45.02661" lon="5.44696">
        <ele>776.709789</ele>
        <time>2022-07-24T13:22:31.581Z</time>
      </trkpt>
      <trkpt lat="45.02669" lon="5.44719">
        <ele>778.134516</ele>
        <time>2022-07-24T13:22:42.935Z</time>
      </trkpt>
      <trkpt lat="45.02701" lon="5.44734">
        <ele>780.852798</ele>
        <time>2022-07-24T13:23:04.468Z</time>
      </trkpt>
      <trkpt lat="45.02782" lon="5.44771">
        <ele>788.095789</ele>
        <time>2022-07-24T13:24:06.568Z</time>
      </trkpt>
      <trkpt lat="45.02956" lon="5.44801">
        <ele>800.97272</ele>
        <time>2022-07-24T13:25:56.269Z</time>
      </trkpt>
      <trkpt lat="45.02969" lon="5.44799">
        <ele>801.228847</ele>
        <time>2022-07-24T13:26:02.886Z</time>
      </trkpt>
      <trkpt lat="45.0298" lon="5.44792">
        <ele>801.477281</ele>
        <time>2022-07-24T13:26:04.803Z</time>
      </trkpt>
      <trkpt lat="45.03005" lon="5.44754">
        <ele>802.216455</ele>
        <time>2022-07-24T13:26:13.642Z</time>
      </trkpt>
      <trkpt lat="45.0302" lon="5.44745">
        <ele>802.543218</ele>
        <time>2022-07-24T13:26:17.507Z</time>
      </trkpt>
      <trkpt lat="45.03035" lon="5.4474">
        <ele>802.863957</ele>
        <time>2022-07-24T13:26:20.009Z</time>
      </trkpt>
      <trkpt lat="45.03053" lon="5.44724">
        <ele>803.291752</ele>
        <time>2022-07-24T13:26:23.704Z</time>
      </trkpt>
      <trkpt lat="45.03071" lon="5.44694">
        <ele>803.771311</ele>
        <time>2022-07-24T13:26:27.672Z</time>
      </trkpt>
      <trkpt lat="45.03082" lon="5.44664">
        <ele>803.725379</ele>
        <time>2022-07-24T13:26:31.218Z</time>
      </trkpt>
      <trkpt lat="45.03095" lon="5.44606">
        <ele>803.642655</ele>
        <time>2022-07-24T13:26:37.547Z</time>
      </trkpt>
      <trkpt lat="45.03103" lon="5.4459">
        <ele>803.616245</ele>
        <time>2022-07-24T13:26:39.564Z</time>
      </trkpt>
      <trkpt lat="45.03226" lon="5.44443">
        <ele>806.995072</ele>
        <time>2022-07-24T13:27:24.725Z</time>
      </trkpt>
      <trkpt lat="45.03243" lon="5.44417">
        <ele>808.405631</ele>
        <time>2022-07-24T13:27:40.149Z</time>
      </trkpt>
      <trkpt lat="45.03246" lon="5.44406">
        <ele>808.843885</ele>
        <time>2022-07-24T13:27:43.265Z</time>
      </trkpt>
      <trkpt lat="45.03244" lon="5.44394">
        <ele>809.314697</ele>
        <time>2022-07-24T13:27:49.251Z</time>
      </trkpt>
      <trkpt lat="45.03279" lon="5.44388">
        <ele>811.207337</ele>
        <time>2022-07-24T13:28:09.868Z</time>
      </trkpt>
      <trkpt lat="45.03324" lon="5.4439">
        <ele>813.72782</ele>
        <time>2022-07-24T13:28:35.951Z</time>
      </trkpt>
      <trkpt lat="45.03322" lon="5.44377">
        <ele>814.351228</ele>
        <time>2022-07-24T13:28:43.081Z</time>
      </trkpt>
      <trkpt lat="45.03316" lon="5.44372">
        <ele>814.775777</ele>
        <time>2022-07-24T13:28:45.431Z</time>
      </trkpt>
      <trkpt lat="45.03228" lon="5.44346">
        <ele>820.495955</ele>
        <time>2022-07-24T13:29:31.828Z</time>
      </trkpt>
      <trkpt lat="45.03197" lon="5.4433">
        <ele>822.577412</ele>
        <time>2022-07-24T13:29:47.196Z</time>
      </trkpt>
      <trkpt lat="45.0314" lon="5.44282">
        <ele>826.220414</ele>
        <time>2022-07-24T13:30:18.257Z</time>
      </trkpt>
      <trkpt lat="45.03138" lon="5.44277">
        <ele>826.417833</ele>
        <time>2022-07-24T13:30:20.267Z</time>
      </trkpt>
      <trkpt lat="45.03139" lon="5.44271">
        <ele>826.619213</ele>
        <time>2022-07-24T13:30:22.227Z</time>
      </trkpt>
      <trkpt lat="45.03144" lon="5.44269">
        <ele>826.842806</ele>
        <time>2022-07-24T13:30:24.748Z</time>
      </trkpt>
      <trkpt lat="45.03165" lon="5.44273">
        <ele>827.84739</ele>
        <time>2022-07-24T13:30:33.722Z</time>
      </trkpt>
      <trkpt lat="45.03213" lon="5.44261">
        <ele>830.136828</ele>
        <time>2022-07-24T13:30:50.848Z</time>
      </trkpt>
      <trkpt lat="45.03274" lon="5.44252">
        <ele>832.990067</ele>
        <time>2022-07-24T13:31:14.005Z</time>
      </trkpt>
      <trkpt lat="45.03298" lon="5.44257">
        <ele>835.118424</ele>
        <time>2022-07-24T13:31:25.491Z</time>
      </trkpt>
      <trkpt lat="45.03302" lon="5.44248">
        <ele>835.781019</ele>
        <time>2022-07-24T13:31:30.895Z</time>
      </trkpt>
      <trkpt lat="45.03291" lon="5.44239">
        <ele>836.959321</ele>
        <time>2022-07-24T13:31:37.280Z</time>
      </trkpt>
      <trkpt lat="45.03278" lon="5.44215">
        <ele>838.81797</ele>
        <time>2022-07-24T13:31:51.828Z</time>
      </trkpt>
      <trkpt lat="45.03255" lon="5.44207">
        <ele>841.020021</ele>
        <time>2022-07-24T13:32:07.306Z</time>
      </trkpt>
      <trkpt lat="45.0322" lon="5.44186">
        <ele>844.446195</ele>
        <time>2022-07-24T13:32:35.487Z</time>
      </trkpt>
      <trkpt lat="45.032" lon="5.44161">
        <ele>846.757654</ele>
        <time>2022-07-24T13:32:54.219Z</time>
      </trkpt>
      <trkpt lat="45.03185" lon="5.44161">
        <ele>848.183329</ele>
        <time>2022-07-24T13:33:06.163Z</time>
      </trkpt>
      <trkpt lat="45.0312" lon="5.44112">
        <ele>856.647552</ele>
        <time>2022-07-24T13:33:58.120Z</time>
      </trkpt>
      <trkpt lat="45.03098" lon="5.44064">
        <ele>861.471466</ele>
        <time>2022-07-24T13:34:32.360Z</time>
      </trkpt>
      <trkpt lat="45.03087" lon="5.44062">
        <ele>862.811143</ele>
        <time>2022-07-24T13:34:41.842Z</time>
      </trkpt>
      <trkpt lat="45.03058" lon="5.44094">
        <ele>867.289707</ele>
        <time>2022-07-24T13:35:14.359Z</time>
      </trkpt>
      <trkpt lat="45.03022" lon="5.44067">
        <ele>872.001248</ele>
        <time>2022-07-24T13:35:48.091Z</time>
      </trkpt>
      <trkpt lat="45.02993" lon="5.44046">
        <ele>875.478746</ele>
        <time>2022-07-24T13:36:12.515Z</time>
      </trkpt>
      <trkpt lat="45.02816" lon="5.43936">
        <ele>895.501388</ele>
        <time>2022-07-24T13:38:28.524Z</time>
      </trkpt>
      <trkpt lat="45.02816" lon="5.43929">
        <ele>895.970431</ele>
        <time>2022-07-24T13:38:31.133Z</time>
      </trkpt>
      <trkpt lat="45.02838" lon="5.43932">
        <ele>898.04769</ele>
        <time>2022-07-24T13:38:46.048Z</time>
      </trkpt>
      <trkpt lat="45.02935" lon="5.43912">
        <ele>907.124225</ele>
        <time>2022-07-24T13:39:46.938Z</time>
      </trkpt>
      <trkpt lat="45.02952" lon="5.439">
        <ele>908.795706</ele>
        <time>2022-07-24T13:40:01.179Z</time>
      </trkpt>
      <trkpt lat="45.02966" lon="5.43893">
        <ele>910.105792</ele>
        <time>2022-07-24T13:40:09.143Z</time>
      </trkpt>
      <trkpt lat="45.02973" lon="5.43883">
        <ele>910.929955</ele>
        <time>2022-07-24T13:40:16.585Z</time>
      </trkpt>
      <trkpt lat="45.02973" lon="5.4387">
        <ele>911.747279</ele>
        <time>2022-07-24T13:40:23.658Z</time>
      </trkpt>
      <trkpt lat="45.02898" lon="5.43761">
        <ele>921.012028</ele>
        <time>2022-07-24T13:41:31.417Z</time>
      </trkpt>
      <trkpt lat="45.02875" lon="5.43707">
        <ele>924.001179</ele>
        <time>2022-07-24T13:41:55.572Z</time>
      </trkpt>
      <trkpt lat="45.02811" lon="5.43685">
        <ele>927.650889</ele>
        <time>2022-07-24T13:42:28.978Z</time>
      </trkpt>
      <trkpt lat="45.0281" lon="5.43671">
        <ele>928.160411</ele>
        <time>2022-07-24T13:42:34.214Z</time>
      </trkpt>
      <trkpt lat="45.0293" lon="5.43613">
        <ele>935.02776</ele>
        <time>2022-07-24T13:43:20.641Z</time>
      </trkpt>
      <trkpt lat="45.02942" lon="5.4361">
        <ele>935.685886</ele>
        <time>2022-07-24T13:43:27.981Z</time>
      </trkpt>
      <trkpt lat="45.02945" lon="5.43602">
        <ele>936.002794</ele>
        <time>2022-07-24T13:43:30.565Z</time>
      </trkpt>
      <trkpt lat="45.02895" lon="5.43573">
        <ele>938.824949</ele>
        <time>2022-07-24T13:43:56.215Z</time>
      </trkpt>
      <trkpt lat="45.02837" lon="5.43565">
        <ele>941.882081</ele>
        <time>2022-07-24T13:44:24.100Z</time>
      </trkpt>
      <trkpt lat="45.0279" lon="5.43538">
        <ele>946.591089</ele>
        <time>2022-07-24T13:44:49.128Z</time>
      </trkpt>
      <trkpt lat="45.02754" lon="5.43545">
        <ele>949.955892</ele>
        <time>2022-07-24T13:45:14.054Z</time>
      </trkpt>
      <trkpt lat="45.02739" lon="5.43543">
        <ele>951.390409</ele>
        <time>2022-07-24T13:45:27.514Z</time>
      </trkpt>
      <trkpt lat="45.02731" lon="5.43533">
        <ele>952.368625</ele>
        <time>2022-07-24T13:45:34.061Z</time>
      </trkpt>
      <trkpt lat="45.02725" lon="5.43514">
        <ele>953.700661</ele>
        <time>2022-07-24T13:45:45.347Z</time>
      </trkpt>
      <trkpt lat="45.02722" lon="5.43493">
        <ele>955.117829</ele>
        <time>2022-07-24T13:45:57.160Z</time>
      </trkpt>
      <trkpt lat="45.02713" lon="5.43467">
        <ele>957.015244</ele>
        <time>2022-07-24T13:46:11.854Z</time>
      </trkpt>
      <trkpt lat="45.02689" lon="5.43443">
        <ele>959.758034</ele>
        <time>2022-07-24T13:46:31.207Z</time>
      </trkpt>
      <trkpt lat="45.02681" lon="5.4343">
        <ele>960.855186</ele>
        <time>2022-07-24T13:46:42.404Z</time>
      </trkpt>
      <trkpt lat="45.02679" lon="5.43416">
        <ele>961.840317</ele>
        <time>2022-07-24T13:46:48.794Z</time>
      </trkpt>
      <trkpt lat="45.02682" lon="5.43317">
        <ele>968.315873</ele>
        <time>2022-07-24T13:47:38.770Z</time>
      </trkpt>
      <trkpt lat="45.02711" lon="5.43115">
        <ele>978.338736</ele>
        <time>2022-07-24T13:49:02.462Z</time>
      </trkpt>
      <trkpt lat="45.02748" lon="5.43079">
        <ele>980.241251</ele>
        <time>2022-07-24T13:49:17.401Z</time>
      </trkpt>
      <trkpt lat="45.02782" lon="5.43054">
        <ele>981.912845</ele>
        <time>2022-07-24T13:49:28.849Z</time>
      </trkpt>
      <trkpt lat="45.02782" lon="5.4304">
        <ele>982.339173</ele>
        <time>2022-07-24T13:49:31.604Z</time>
      </trkpt>
      <trkpt lat="45.02795" lon="5.42984">
        <ele>983.255245</ele>
        <time>2022-07-24T13:49:41.254Z</time>
      </trkpt>
      <trkpt lat="45.02792" lon="5.42946">
        <ele>983.511569</ele>
        <time>2022-07-24T13:49:48.067Z</time>
      </trkpt>
      <trkpt lat="45.02783" lon="5.42911">
        <ele>983.758839</ele>
        <time>2022-07-24T13:49:54.037Z</time>
      </trkpt>
      <trkpt lat="45.02782" lon="5.42899">
        <ele>983.841139</ele>
        <time>2022-07-24T13:49:56.472Z</time>
      </trkpt>
      <trkpt lat="45.02786" lon="5.42884">
        <ele>983.942885</ele>
        <time>2022-07-24T13:49:58.970Z</time>
      </trkpt>
      <trkpt lat="45.02794" lon="5.42868">
        <ele>984.072753</ele>
        <time>2022-07-24T13:50:01.952Z</time>
      </trkpt>
      <trkpt lat="45.02816" lon="5.42846">
        <ele>984.327823</ele>
        <time>2022-07-24T13:50:08.619Z</time>
      </trkpt>
      <trkpt lat="45.02855" lon="5.42827">
        <ele>984.717964</ele>
        <time>2022-07-24T13:50:18.379Z</time>
      </trkpt>
      <trkpt lat="45.02866" lon="5.42819">
        <ele>984.83299</ele>
        <time>2022-07-24T13:50:22.306Z</time>
      </trkpt>
      <trkpt lat="45.0288" lon="5.42807">
        <ele>984.968276</ele>
        <time>2022-07-24T13:50:24.728Z</time>
      </trkpt>
      <trkpt lat="45.029" lon="5.42782">
        <ele>985.207102</ele>
        <time>2022-07-24T13:50:30.717Z</time>
      </trkpt>
      <trkpt lat="45.02913" lon="5.42754">
        <ele>985.410408</ele>
        <time>2022-07-24T13:50:34.972Z</time>
      </trkpt>
      <trkpt lat="45.02916" lon="5.42736">
        <ele>985.529946</ele>
        <time>2022-07-24T13:50:37.325Z</time>
      </trkpt>
      <trkpt lat="45.0292" lon="5.42678">
        <ele>985.892691</ele>
        <time>2022-07-24T13:50:47.852Z</time>
      </trkpt>
      <trkpt lat="45.02926" lon="5.42645">
        <ele>986.100159</ele>
        <time>2022-07-24T13:50:57.219Z</time>
      </trkpt>
      <trkpt lat="45.02929" lon="5.42637">
        <ele>986.159222</ele>
        <time>2022-07-24T13:50:58.292Z</time>
      </trkpt>
      <trkpt lat="45.02933" lon="5.42632">
        <ele>986.20263</ele>
        <time>2022-07-24T13:50:59.033Z</time>
      </trkpt>
      <trkpt lat="45.02942" lon="5.4263">
        <ele>986.282137</ele>
        <time>2022-07-24T13:51:03.055Z</time>
      </trkpt>
      <trkpt lat="45.02971" lon="5.42628">
        <ele>987.325854</ele>
        <time>2022-07-24T13:51:09.033Z</time>
      </trkpt>
      <trkpt lat="45.02994" lon="5.42622">
        <ele>988.196067</ele>
        <time>2022-07-24T13:51:16.662Z</time>
      </trkpt>
      <trkpt lat="45.03001" lon="5.42615">
        <ele>988.494801</ele>
        <time>2022-07-24T13:51:17.804Z</time>
      </trkpt>
      <trkpt lat="45.03012" lon="5.42608">
        <ele>988.933895</ele>
        <time>2022-07-24T13:51:22.886Z</time>
      </trkpt>
      <trkpt lat="45.03034" lon="5.42583">
        <ele>989.960319</ele>
        <time>2022-07-24T13:51:30.653Z</time>
      </trkpt>
      <trkpt lat="45.03062" lon="5.42533">
        <ele>991.632161</ele>
        <time>2022-07-24T13:51:50.831Z</time>
      </trkpt>
      <trkpt lat="45.03081" lon="5.42489">
        <ele>993.082439</ele>
        <time>2022-07-24T13:52:08.712Z</time>
      </trkpt>
      <trkpt lat="45.03091" lon="5.42483">
        <ele>994.056239</ele>
        <time>2022-07-24T13:52:15.343Z</time>
      </trkpt>
      <trkpt lat="45.03118" lon="5.42473">
        <ele>996.482991</ele>
        <time>2022-07-24T13:52:31.849Z</time>
      </trkpt>
      <trkpt lat="45.03123" lon="5.42466">
        <ele>997.102742</ele>
        <time>2022-07-24T13:52:36.595Z</time>
      </trkpt>
      <trkpt lat="45.03124" lon="5.42459">
        <ele>997.567465</ele>
        <time>2022-07-24T13:52:39.778Z</time>
      </trkpt>
      <trkpt lat="45.03123" lon="5.4245">
        <ele>998.1108</ele>
        <time>2022-07-24T13:52:42.661Z</time>
      </trkpt>
      <trkpt lat="45.03118" lon="5.42441">
        <ele>998.818901</ele>
        <time>2022-07-24T13:52:48.575Z</time>
      </trkpt>
      <trkpt lat="45.03134" lon="5.42418">
        <ele>1000.901809</ele>
        <time>2022-07-24T13:53:02.659Z</time>
      </trkpt>
      <trkpt lat="45.03145" lon="5.42406">
        <ele>1002.086287</ele>
        <time>2022-07-24T13:53:10.797Z</time>
      </trkpt>
      <trkpt lat="45.03185" lon="5.42391">
        <ele>1005.754567</ele>
        <time>2022-07-24T13:53:37.455Z</time>
      </trkpt>
      <trkpt lat="45.03198" lon="5.42393">
        <ele>1006.946869</ele>
        <time>2022-07-24T13:53:48.323Z</time>
      </trkpt>
      <trkpt lat="45.03262" lon="5.42341">
        <ele>1014.735824</ele>
        <time>2022-07-24T13:54:55.173Z</time>
      </trkpt>
      <trkpt lat="45.03307" lon="5.42319">
        <ele>1020.042592</ele>
        <time>2022-07-24T13:55:35.620Z</time>
      </trkpt>
      <trkpt lat="45.0333" lon="5.42295">
        <ele>1023.298512</ele>
        <time>2022-07-24T13:56:03.292Z</time>
      </trkpt>
      <trkpt lat="45.03394" lon="5.42208">
        <ele>1033.040703</ele>
        <time>2022-07-24T13:57:20.306Z</time>
      </trkpt>
      <trkpt lat="45.03422" lon="5.42183">
        <ele>1036.439905</ele>
        <time>2022-07-24T13:57:47.755Z</time>
      </trkpt>
      <trkpt lat="45.0345" lon="5.42174">
        <ele>1039.50929</ele>
        <time>2022-07-24T13:58:12.445Z</time>
      </trkpt>
      <trkpt lat="45.03462" lon="5.42168">
        <ele>1040.825041</ele>
        <time>2022-07-24T13:58:22.894Z</time>
      </trkpt>
      <trkpt lat="45.03476" lon="5.42155">
        <ele>1042.561843</ele>
        <time>2022-07-24T13:58:35.977Z</time>
      </trkpt>
      <trkpt lat="45.03514" lon="5.42144">
        <ele>1046.573684</ele>
        <time>2022-07-24T13:59:06.866Z</time>
      </trkpt>
      <trkpt lat="45.03524" lon="5.42136">
        <ele>1047.842126</ele>
        <time>2022-07-24T13:59:17.304Z</time>
      </trkpt>
      <trkpt lat="45.03536" lon="5.42119">
        <ele>1049.649018</ele>
        <time>2022-07-24T13:59:30.882Z</time>
      </trkpt>
      <trkpt lat="45.03578" lon="5.42091">
        <ele>1054.728605</ele>
        <time>2022-07-24T14:00:11.437Z</time>
      </trkpt>
      <trkpt lat="45.03663" lon="5.42081">
        <ele>1064.135216</ele>
        <time>2022-07-24T14:01:27.224Z</time>
      </trkpt>
      <trkpt lat="45.03692" lon="5.4206">
        <ele>1067.606938</ele>
        <time>2022-07-24T14:01:54.719Z</time>
      </trkpt>
      <trkpt lat="45.03709" lon="5.42043">
        <ele>1069.788352</ele>
        <time>2022-07-24T14:02:13.901Z</time>
      </trkpt>
      <trkpt lat="45.03717" lon="5.42027">
        <ele>1071.217579</ele>
        <time>2022-07-24T14:02:25.139Z</time>
      </trkpt>
      <trkpt lat="45.0374" lon="5.42007">
        <ele>1074.029229</ele>
        <time>2022-07-24T14:02:49.432Z</time>
      </trkpt>
      <trkpt lat="45.03784" lon="5.41972">
        <ele>1079.202837</ele>
        <time>2022-07-24T14:03:30.439Z</time>
      </trkpt>
      <trkpt lat="45.03805" lon="5.41962">
        <ele>1081.50703</ele>
        <time>2022-07-24T14:03:49.363Z</time>
      </trkpt>
      <trkpt lat="45.03826" lon="5.41959">
        <ele>1083.665718</ele>
        <time>2022-07-24T14:04:06.656Z</time>
      </trkpt>
      <trkpt lat="45.03861" lon="5.41962">
        <ele>1087.304787</ele>
        <time>2022-07-24T14:04:33.574Z</time>
      </trkpt>
      <trkpt lat="45.03876" lon="5.41958">
        <ele>1088.932739</ele>
        <time>2022-07-24T14:04:45.498Z</time>
      </trkpt>
      <trkpt lat="45.03897" lon="5.41944">
        <ele>1091.43517</ele>
        <time>2022-07-24T14:05:03.794Z</time>
      </trkpt>
      <trkpt lat="45.03945" lon="5.4195">
        <ele>1096.565473</ele>
        <time>2022-07-24T14:05:43.210Z</time>
      </trkpt>
      <trkpt lat="45.03963" lon="5.41946">
        <ele>1098.495236</ele>
        <time>2022-07-24T14:05:57.781Z</time>
      </trkpt>
      <trkpt lat="45.03974" lon="5.41934">
        <ele>1099.912966</ele>
        <time>2022-07-24T14:06:09.404Z</time>
      </trkpt>
      <trkpt lat="45.03985" lon="5.41912">
        <ele>1101.940513</ele>
        <time>2022-07-24T14:06:24.932Z</time>
      </trkpt>
      <trkpt lat="45.03994" lon="5.41874">
        <ele>1104.936553</ele>
        <time>2022-07-24T14:06:48.696Z</time>
      </trkpt>
      <trkpt lat="45.04017" lon="5.41831">
        <ele>1109.685446</ele>
        <time>2022-07-24T14:07:30.067Z</time>
      </trkpt>
      <trkpt lat="45.04024" lon="5.41811">
        <ele>1111.755677</ele>
        <time>2022-07-24T14:07:52.152Z</time>
      </trkpt>
      <trkpt lat="45.0404" lon="5.41791">
        <ele>1114.424341</ele>
        <time>2022-07-24T14:08:10.599Z</time>
      </trkpt>
      <trkpt lat="45.04043" lon="5.41774">
        <ele>1115.971729</ele>
        <time>2022-07-24T14:08:27.263Z</time>
      </trkpt>
      <trkpt lat="45.04079" lon="5.4171">
        <ele>1123.275161</ele>
        <time>2022-07-24T14:09:17.163Z</time>
      </trkpt>
      <trkpt lat="45.04081" lon="5.41691">
        <ele>1124.967361</ele>
        <time>2022-07-24T14:09:33.878Z</time>
      </trkpt>
      <trkpt lat="45.04081" lon="5.41668">
        <ele>1127.053223</ele>
        <time>2022-07-24T14:09:45.365Z</time>
      </trkpt>
      <trkpt lat="45.04086" lon="5.41652">
        <ele>1128.169216</ele>
        <time>2022-07-24T14:09:55.683Z</time>
      </trkpt>
      <trkpt lat="45.04111" lon="5.41613">
        <ele>1130.122704</ele>
        <time>2022-07-24T14:10:24.075Z</time>
      </trkpt>
      <trkpt lat="45.04111" lon="5.41596">
        <ele>1130.748021</ele>
        <time>2022-07-24T14:10:33.481Z</time>
      </trkpt>
      <trkpt lat="45.04102" lon="5.41556">
        <ele>1132.292102</ele>
        <time>2022-07-24T14:10:54.444Z</time>
      </trkpt>
      <trkpt lat="45.041" lon="5.4152">
        <ele>1133.629386</ele>
        <time>2022-07-24T14:11:07.238Z</time>
      </trkpt>
      <trkpt lat="45.04148" lon="5.41509">
        <ele>1136.17131</ele>
        <time>2022-07-24T14:11:30.019Z</time>
      </trkpt>
      <trkpt lat="45.04175" lon="5.41511">
        <ele>1137.242899</ele>
        <time>2022-07-24T14:11:37.688Z</time>
      </trkpt>
      <trkpt lat="45.04202" lon="5.41501">
        <ele>1136.874084</ele>
        <time>2022-07-24T14:11:45.833Z</time>
      </trkpt>
      <trkpt lat="45.04277" lon="5.41499">
        <ele>1135.908203</ele>
        <time>2022-07-24T14:12:06.724Z</time>
      </trkpt>
      <trkpt lat="45.04333" lon="5.4151">
        <ele>1135.177845</ele>
        <time>2022-07-24T14:12:22.092Z</time>
      </trkpt>
      <trkpt lat="45.04342" lon="5.41526">
        <ele>1134.985151</ele>
        <time>2022-07-24T14:12:26.002Z</time>
      </trkpt>
      <trkpt lat="45.04371" lon="5.41537">
        <ele>1134.909217</ele>
        <time>2022-07-24T14:12:34.648Z</time>
      </trkpt>
      <trkpt lat="45.04423" lon="5.41547">
        <ele>1134.791555</ele>
        <time>2022-07-24T14:12:50.556Z</time>
      </trkpt>
      <trkpt lat="45.04453" lon="5.4154">
        <ele>1134.723575</ele>
        <time>2022-07-24T14:12:59.246Z</time>
      </trkpt>
      <trkpt lat="45.04453" lon="5.41533">
        <ele>1134.712209</ele>
        <time>2022-07-24T14:13:02.177Z</time>
      </trkpt>
      <trkpt lat="45.04468" lon="5.41497">
        <ele>1134.646001</ele>
        <time>2022-07-24T14:13:08.104Z</time>
      </trkpt>
      <trkpt lat="45.04476" lon="5.41452">
        <ele>1134.576941</ele>
        <time>2022-07-24T14:13:17.297Z</time>
      </trkpt>
      <trkpt lat="45.04483" lon="5.41398">
        <ele>1135.507204</ele>
        <time>2022-07-24T14:13:29.361Z</time>
      </trkpt>
      <trkpt lat="45.04484" lon="5.41362">
        <ele>1136.104054</ele>
        <time>2022-07-24T14:13:38.188Z</time>
      </trkpt>
      <trkpt lat="45.04476" lon="5.41327">
        <ele>1136.728432</ele>
        <time>2022-07-24T14:13:48.561Z</time>
      </trkpt>
      <trkpt lat="45.04473" lon="5.41265">
        <ele>1137.793491</ele>
        <time>2022-07-24T14:14:03.797Z</time>
      </trkpt>
      <trkpt lat="45.04461" lon="5.41247">
        <ele>1138.199663</ele>
        <time>2022-07-24T14:14:09.934Z</time>
      </trkpt>
      <trkpt lat="45.04453" lon="5.41215">
        <ele>1138.773242</ele>
        <time>2022-07-24T14:14:17.929Z</time>
      </trkpt>
      <trkpt lat="45.04445" lon="5.41199">
        <ele>1139.002429</ele>
        <time>2022-07-24T14:14:22.988Z</time>
      </trkpt>
      <trkpt lat="45.04434" lon="5.41191">
        <ele>1139.158531</ele>
        <time>2022-07-24T14:14:26.764Z</time>
      </trkpt>
      <trkpt lat="45.04421" lon="5.41166">
        <ele>1139.444681</ele>
        <time>2022-07-24T14:14:34.140Z</time>
      </trkpt>
      <trkpt lat="45.04416" lon="5.41157">
        <ele>1139.541308</ele>
        <time>2022-07-24T14:14:36.596Z</time>
      </trkpt>
      <trkpt lat="45.04392" lon="5.41135">
        <ele>1139.909808</ele>
        <time>2022-07-24T14:14:45.106Z</time>
      </trkpt>
      <trkpt lat="45.04338" lon="5.41131">
        <ele>1140.61312</ele>
        <time>2022-07-24T14:15:00.015Z</time>
      </trkpt>
      <trkpt lat="45.04333" lon="5.41112">
        <ele>1140.792921</ele>
        <time>2022-07-24T14:15:03.119Z</time>
      </trkpt>
      <trkpt lat="45.0433" lon="5.41069">
        <ele>1141.188536</ele>
        <time>2022-07-24T14:15:09.652Z</time>
      </trkpt>
      <trkpt lat="45.04284" lon="5.41007">
        <ele>1141.090925</ele>
        <time>2022-07-24T14:15:22.807Z</time>
      </trkpt>
      <trkpt lat="45.04275" lon="5.40961">
        <ele>1141.03824</ele>
        <time>2022-07-24T14:15:29.835Z</time>
      </trkpt>
      <trkpt lat="45.04273" lon="5.40929">
        <ele>1141.002601</ele>
        <time>2022-07-24T14:15:34.397Z</time>
      </trkpt>
      <trkpt lat="45.04266" lon="5.40912">
        <ele>1140.981292</ele>
        <time>2022-07-24T14:15:39.004Z</time>
      </trkpt>
      <trkpt lat="45.0424" lon="5.40894">
        <ele>1140.936388</ele>
        <time>2022-07-24T14:15:47.992Z</time>
      </trkpt>
      <trkpt lat="45.0423" lon="5.40879">
        <ele>1140.914267</ele>
        <time>2022-07-24T14:15:52.596Z</time>
      </trkpt>
      <trkpt lat="45.04227" lon="5.40865">
        <ele>1140.904021</ele>
        <time>2022-07-24T14:15:55.828Z</time>
      </trkpt>
      <trkpt lat="45.04224" lon="5.40832">
        <ele>1140.887495</ele>
        <time>2022-07-24T14:16:03.160Z</time>
      </trkpt>
      <trkpt lat="45.04229" lon="5.40768">
        <ele>1140.854377</ele>
        <time>2022-07-24T14:16:17.132Z</time>
      </trkpt>
      <trkpt lat="45.04221" lon="5.4075">
        <ele>1140.84323</ele>
        <time>2022-07-24T14:16:21.923Z</time>
      </trkpt>
      <trkpt lat="45.04188" lon="5.40706">
        <ele>1140.810396</ele>
        <time>2022-07-24T14:16:36.886Z</time>
      </trkpt>
      <trkpt lat="45.04172" lon="5.40692">
        <ele>1140.797139</ele>
        <time>2022-07-24T14:16:42.658Z</time>
      </trkpt>
      <trkpt lat="45.04144" lon="5.40707">
        <ele>1140.784361</ele>
        <time>2022-07-24T14:16:52.532Z</time>
      </trkpt>
      <trkpt lat="45.04112" lon="5.40706">
        <ele>1140.808914</ele>
        <time>2022-07-24T14:17:02.775Z</time>
      </trkpt>
      <trkpt lat="45.04101" lon="5.40717">
        <ele>1140.819502</ele>
        <time>2022-07-24T14:17:07.171Z</time>
      </trkpt>
      <trkpt lat="45.04062" lon="5.40784">
        <ele>1140.867327</ele>
        <time>2022-07-24T14:17:26.950Z</time>
      </trkpt>
      <trkpt lat="45.04012" lon="5.40812">
        <ele>1140.909023</ele>
        <time>2022-07-24T14:17:43.921Z</time>
      </trkpt>
      <trkpt lat="45.03985" lon="5.4082">
        <ele>1141.035573</ele>
        <time>2022-07-24T14:17:53.122Z</time>
      </trkpt>
      <trkpt lat="45.03964" lon="5.40831">
        <ele>1141.205874</ele>
        <time>2022-07-24T14:18:00.196Z</time>
      </trkpt>
      <trkpt lat="45.03941" lon="5.40876">
        <ele>1141.514607</ele>
        <time>2022-07-24T14:18:13.176Z</time>
      </trkpt>
      <trkpt lat="45.03897" lon="5.40908">
        <ele>1141.899071</ele>
        <time>2022-07-24T14:18:30.176Z</time>
      </trkpt>
      <trkpt lat="45.03884" lon="5.40902">
        <ele>1142.002169</ele>
        <time>2022-07-24T14:18:35.065Z</time>
      </trkpt>
      <trkpt lat="45.03877" lon="5.40888">
        <ele>1142.096946</ele>
        <time>2022-07-24T14:18:39.525Z</time>
      </trkpt>
      <trkpt lat="45.03876" lon="5.40828">
        <ele>1142.844778</ele>
        <time>2022-07-24T14:18:56.118Z</time>
      </trkpt>
      <trkpt lat="45.0387" lon="5.40814">
        <ele>1143.258243</ele>
        <time>2022-07-24T14:19:00.907Z</time>
      </trkpt>
      <trkpt lat="45.03849" lon="5.40805">
        <ele>1144.118237</ele>
        <time>2022-07-24T14:19:11.383Z</time>
      </trkpt>
      <trkpt lat="45.03792" lon="5.40804">
        <ele>1146.279813</ele>
        <time>2022-07-24T14:19:41.264Z</time>
      </trkpt>
      <trkpt lat="45.03743" lon="5.40779">
        <ele>1148.284643</ele>
        <time>2022-07-24T14:20:10.094Z</time>
      </trkpt>
      <trkpt lat="45.03713" lon="5.40767">
        <ele>1149.479687</ele>
        <time>2022-07-24T14:20:26.862Z</time>
      </trkpt>
      <trkpt lat="45.03702" lon="5.40765">
        <ele>1149.956749</ele>
        <time>2022-07-24T14:20:34.902Z</time>
      </trkpt>
      <trkpt lat="45.03665" lon="5.40681">
        <ele>1152.938235</ele>
        <time>2022-07-24T14:21:14.485Z</time>
      </trkpt>
      <trkpt lat="45.0365" lon="5.40629">
        <ele>1154.606488</ele>
        <time>2022-07-24T14:21:35.962Z</time>
      </trkpt>
      <trkpt lat="45.03628" lon="5.40555">
        <ele>1156.855795</ele>
        <time>2022-07-24T14:22:03.619Z</time>
      </trkpt>
      <trkpt lat="45.0358" lon="5.40456">
        <ele>1158.02704</ele>
        <time>2022-07-24T14:22:38.177Z</time>
      </trkpt>
      <trkpt lat="45.03561" lon="5.40356">
        <ele>1159.044314</ele>
        <time>2022-07-24T14:23:06.072Z</time>
      </trkpt>
      <trkpt lat="45.03541" lon="5.40309">
        <ele>1158.077237</ele>
        <time>2022-07-24T14:23:18.274Z</time>
      </trkpt>
      <trkpt lat="45.03531" lon="5.403">
        <ele>1157.4336</ele>
        <time>2022-07-24T14:23:21.531Z</time>
      </trkpt>
      <trkpt lat="45.03505" lon="5.40285">
        <ele>1155.913941</ele>
        <time>2022-07-24T14:23:29.135Z</time>
      </trkpt>
      <trkpt lat="45.03442" lon="5.40265">
        <ele>1152.39833</ele>
        <time>2022-07-24T14:23:45.312Z</time>
      </trkpt>
      <trkpt lat="45.03416" lon="5.4024">
        <ele>1150.682658</ele>
        <time>2022-07-24T14:23:52.301Z</time>
      </trkpt>
      <trkpt lat="45.0339" lon="5.40196">
        <ele>1147.713891</ele>
        <time>2022-07-24T14:24:00.459Z</time>
      </trkpt>
      <trkpt lat="45.03384" lon="5.40165">
        <ele>1145.609912</ele>
        <time>2022-07-24T14:24:04.997Z</time>
      </trkpt>
      <trkpt lat="45.03378" lon="5.40157">
        <ele>1144.822536</ele>
        <time>2022-07-24T14:24:06.696Z</time>
      </trkpt>
      <trkpt lat="45.0336" lon="5.40108">
        <ele>1141.137586</ele>
        <time>2022-07-24T14:24:14.689Z</time>
      </trkpt>
      <trkpt lat="45.03357" lon="5.40071">
        <ele>1138.652524</ele>
        <time>2022-07-24T14:24:20.291Z</time>
      </trkpt>
      <trkpt lat="45.03343" lon="5.40045">
        <ele>1136.463023</ele>
        <time>2022-07-24T14:24:25.168Z</time>
      </trkpt>
      <trkpt lat="45.03332" lon="5.40046">
        <ele>1135.358283</ele>
        <time>2022-07-24T14:24:28.119Z</time>
      </trkpt>
      <trkpt lat="45.03316" lon="5.40059">
        <ele>1133.653042</ele>
        <time>2022-07-24T14:24:32.320Z</time>
      </trkpt>
      <trkpt lat="45.03304" lon="5.4006">
        <ele>1132.50351</ele>
        <time>2022-07-24T14:24:35.452Z</time>
      </trkpt>
      <trkpt lat="45.0327" lon="5.40086">
        <ele>1134.746946</ele>
        <time>2022-07-24T14:24:47.194Z</time>
      </trkpt>
      <trkpt lat="45.03242" lon="5.40091">
        <ele>1136.456754</ele>
        <time>2022-07-24T14:24:59.054Z</time>
      </trkpt>
      <trkpt lat="45.03142" lon="5.40149">
        <ele>1142.850717</ele>
        <time>2022-07-24T14:26:28.050Z</time>
      </trkpt>
      <trkpt lat="45.03131" lon="5.40161">
        <ele>1143.680167</ele>
        <time>2022-07-24T14:26:42.172Z</time>
      </trkpt>
      <trkpt lat="45.03126" lon="5.40182">
        <ele>1144.583812</ele>
        <time>2022-07-24T14:26:57.680Z</time>
      </trkpt>
      <trkpt lat="45.03126" lon="5.4021">
        <ele>1145.748393</ele>
        <time>2022-07-24T14:27:15.679Z</time>
      </trkpt>
      <trkpt lat="45.03135" lon="5.40238">
        <ele>1146.999197</ele>
        <time>2022-07-24T14:27:32.551Z</time>
      </trkpt>
      <trkpt lat="45.03132" lon="5.40278">
        <ele>1148.629473</ele>
        <time>2022-07-24T14:27:51.743Z</time>
      </trkpt>
      <trkpt lat="45.03116" lon="5.40308">
        <ele>1150.188157</ele>
        <time>2022-07-24T14:28:06.263Z</time>
      </trkpt>
      <trkpt lat="45.03109" lon="5.40332">
        <ele>1151.243767</ele>
        <time>2022-07-24T14:28:14.116Z</time>
      </trkpt>
      <trkpt lat="45.03109" lon="5.40367">
        <ele>1152.670146</ele>
        <time>2022-07-24T14:28:22.991Z</time>
      </trkpt>
      <trkpt lat="45.03094" lon="5.40414">
        <ele>1153.253831</ele>
        <time>2022-07-24T14:28:33.660Z</time>
      </trkpt>
      <trkpt lat="45.03092" lon="5.40455">
        <ele>1152.784327</ele>
        <time>2022-07-24T14:28:41.518Z</time>
      </trkpt>
      <trkpt lat="45.03069" lon="5.40509">
        <ele>1152.067074</ele>
        <time>2022-07-24T14:28:53.302Z</time>
      </trkpt>
      <trkpt lat="45.03063" lon="5.40543">
        <ele>1151.673708</ele>
        <time>2022-07-24T14:28:59.723Z</time>
      </trkpt>
      <trkpt lat="45.03037" lon="5.40577">
        <ele>1151.109411</ele>
        <time>2022-07-24T14:29:09.138Z</time>
      </trkpt>
      <trkpt lat="45.03031" lon="5.40621">
        <ele>1150.800885</ele>
        <time>2022-07-24T14:29:18.432Z</time>
      </trkpt>
      <trkpt lat="45.03014" lon="5.40678">
        <ele>1151.453202</ele>
        <time>2022-07-24T14:29:33.040Z</time>
      </trkpt>
      <trkpt lat="45.03019" lon="5.40697">
        <ele>1151.671267</ele>
        <time>2022-07-24T14:29:39.231Z</time>
      </trkpt>
      <trkpt lat="45.03022" lon="5.4073">
        <ele>1152.02027</ele>
        <time>2022-07-24T14:29:48.156Z</time>
      </trkpt>
      <trkpt lat="45.03021" lon="5.40748">
        <ele>1152.21466</ele>
        <time>2022-07-24T14:29:54.064Z</time>
      </trkpt>
      <trkpt lat="45.0303" lon="5.4077">
        <ele>1152.486839</ele>
        <time>2022-07-24T14:30:01.217Z</time>
      </trkpt>
      <trkpt lat="45.0303" lon="5.40786">
        <ele>1152.648784</ele>
        <time>2022-07-24T14:30:06.919Z</time>
      </trkpt>
      <trkpt lat="45.02949" lon="5.40816">
        <ele>1154.209476</ele>
        <time>2022-07-24T14:30:44.948Z</time>
      </trkpt>
      <trkpt lat="45.02937" lon="5.40816">
        <ele>1154.512167</ele>
        <time>2022-07-24T14:30:50.186Z</time>
      </trkpt>
      <trkpt lat="45.02929" lon="5.40821">
        <ele>1154.735513</ele>
        <time>2022-07-24T14:30:54.918Z</time>
      </trkpt>
      <trkpt lat="45.02908" lon="5.40819">
        <ele>1155.234802</ele>
        <time>2022-07-24T14:31:04.050Z</time>
      </trkpt>
      <trkpt lat="45.02886" lon="5.408">
        <ele>1155.875136</ele>
        <time>2022-07-24T14:31:16.455Z</time>
      </trkpt>
      <trkpt lat="45.0283" lon="5.40789">
        <ele>1157.257058</ele>
        <time>2022-07-24T14:31:40.084Z</time>
      </trkpt>
      <trkpt lat="45.0282" lon="5.40779">
        <ele>1157.541233</ele>
        <time>2022-07-24T14:31:44.939Z</time>
      </trkpt>
      <trkpt lat="45.02747" lon="5.4074">
        <ele>1159.326602</ele>
        <time>2022-07-24T14:32:16.510Z</time>
      </trkpt>
      <trkpt lat="45.02731" lon="5.40725">
        <ele>1159.760918</ele>
        <time>2022-07-24T14:32:24.847Z</time>
      </trkpt>
      <trkpt lat="45.02707" lon="5.40726">
        <ele>1160.285912</ele>
        <time>2022-07-24T14:32:35.044Z</time>
      </trkpt>
      <trkpt lat="45.02674" lon="5.40739">
        <ele>1161.062029</ele>
        <time>2022-07-24T14:32:50.888Z</time>
      </trkpt>
      <trkpt lat="45.02611" lon="5.40773">
        <ele>1161.69164</ele>
        <time>2022-07-24T14:33:21.339Z</time>
      </trkpt>
      <trkpt lat="45.02589" lon="5.40787">
        <ele>1161.579227</ele>
        <time>2022-07-24T14:33:31.750Z</time>
      </trkpt>
      <trkpt lat="45.02589" lon="5.40836">
        <ele>1161.419859</ele>
        <time>2022-07-24T14:33:45.714Z</time>
      </trkpt>
      <trkpt lat="45.02576" lon="5.40852">
        <ele>1161.341148</ele>
        <time>2022-07-24T14:33:50.707Z</time>
      </trkpt>
      <trkpt lat="45.02561" lon="5.40878">
        <ele>1161.232295</ele>
        <time>2022-07-24T14:33:57.930Z</time>
      </trkpt>
      <trkpt lat="45.0253" lon="5.40955">
        <ele>1159.420509</ele>
        <time>2022-07-24T14:34:13.569Z</time>
      </trkpt>
      <trkpt lat="45.02518" lon="5.40969">
        <ele>1157.8032</ele>
        <time>2022-07-24T14:34:17.204Z</time>
      </trkpt>
      <trkpt lat="45.02506" lon="5.41008">
        <ele>1154.72933</ele>
        <time>2022-07-24T14:34:24.044Z</time>
      </trkpt>
      <trkpt lat="45.02508" lon="5.41016">
        <ele>1154.125508</ele>
        <time>2022-07-24T14:34:25.247Z</time>
      </trkpt>
      <trkpt lat="45.02504" lon="5.411">
        <ele>1148.019158</ele>
        <time>2022-07-24T14:34:37.941Z</time>
      </trkpt>
      <trkpt lat="45.02515" lon="5.41202">
        <ele>1139.371148</ele>
        <time>2022-07-24T14:34:52.695Z</time>
      </trkpt>
      <trkpt lat="45.02508" lon="5.41231">
        <ele>1135.722663</ele>
        <time>2022-07-24T14:34:57.075Z</time>
      </trkpt>
      <trkpt lat="45.02478" lon="5.41268">
        <ele>1129.26998</ele>
        <time>2022-07-24T14:35:04.884Z</time>
      </trkpt>
      <trkpt lat="45.02462" lon="5.413">
        <ele>1124.65789</ele>
        <time>2022-07-24T14:35:10.499Z</time>
      </trkpt>
      <trkpt lat="45.02433" lon="5.41329">
        <ele>1118.926463</ele>
        <time>2022-07-24T14:35:17.484Z</time>
      </trkpt>
      <trkpt lat="45.02418" lon="5.41357">
        <ele>1114.804514</ele>
        <time>2022-07-24T14:35:22.499Z</time>
      </trkpt>
      <trkpt lat="45.02405" lon="5.41372">
        <ele>1112.070059</ele>
        <time>2022-07-24T14:35:25.772Z</time>
      </trkpt>
      <trkpt lat="45.02389" lon="5.41417">
        <ele>1106.219007</ele>
        <time>2022-07-24T14:35:32.920Z</time>
      </trkpt>
      <trkpt lat="45.02389" lon="5.41457">
        <ele>1101.678137</ele>
        <time>2022-07-24T14:35:38.448Z</time>
      </trkpt>
      <trkpt lat="45.02385" lon="5.41501">
        <ele>1096.549657</ele>
        <time>2022-07-24T14:35:44.762Z</time>
      </trkpt>
      <trkpt lat="45.02376" lon="5.41556">
        <ele>1090.00552</ele>
        <time>2022-07-24T14:35:52.784Z</time>
      </trkpt>
      <trkpt lat="45.02397" lon="5.41654">
        <ele>1079.021876</ele>
        <time>2022-07-24T14:36:07.344Z</time>
      </trkpt>
      <trkpt lat="45.02392" lon="5.4172">
        <ele>1072.510805</ele>
        <time>2022-07-24T14:36:16.882Z</time>
      </trkpt>
      <trkpt lat="45.02401" lon="5.41796">
        <ele>1064.86057</ele>
        <time>2022-07-24T14:36:27.925Z</time>
      </trkpt>
      <trkpt lat="45.0236" lon="5.41907">
        <ele>1053.544814</ele>
        <time>2022-07-24T14:36:46.265Z</time>
      </trkpt>
      <trkpt lat="45.02342" lon="5.41927">
        <ele>1050.863441</ele>
        <time>2022-07-24T14:36:51.030Z</time>
      </trkpt>
      <trkpt lat="45.02302" lon="5.41968">
        <ele>1045.109061</ele>
        <time>2022-07-24T14:37:01.653Z</time>
      </trkpt>
      <trkpt lat="45.02278" lon="5.41983">
        <ele>1042.057342</ele>
        <time>2022-07-24T14:37:07.224Z</time>
      </trkpt>
      <trkpt lat="45.02233" lon="5.41995">
        <ele>1036.775809</ele>
        <time>2022-07-24T14:37:16.892Z</time>
      </trkpt>
      <trkpt lat="45.02201" lon="5.42011">
        <ele>1033.200334</ele>
        <time>2022-07-24T14:37:23.840Z</time>
      </trkpt>
      <trkpt lat="45.02186" lon="5.42026">
        <ele>1031.258192</ele>
        <time>2022-07-24T14:37:27.701Z</time>
      </trkpt>
      <trkpt lat="45.02157" lon="5.42134">
        <ele>1022.672706</ele>
        <time>2022-07-24T14:37:45.256Z</time>
      </trkpt>
      <trkpt lat="45.0215" lon="5.42138">
        <ele>1021.810351</ele>
        <time>2022-07-24T14:37:46.269Z</time>
      </trkpt>
      <trkpt lat="45.02141" lon="5.42128">
        <ele>1020.545782</ele>
        <time>2022-07-24T14:37:48.771Z</time>
      </trkpt>
      <trkpt lat="45.02125" lon="5.42121">
        <ele>1018.870628</ele>
        <time>2022-07-24T14:37:52.244Z</time>
      </trkpt>
      <trkpt lat="45.02099" lon="5.42116">
        <ele>1016.79869</ele>
        <time>2022-07-24T14:37:57.950Z</time>
      </trkpt>
      <trkpt lat="45.02034" lon="5.42117">
        <ele>1011.816305</ele>
        <time>2022-07-24T14:38:12.337Z</time>
      </trkpt>
      <trkpt lat="45.01982" lon="5.42111">
        <ele>1007.861641</ele>
        <time>2022-07-24T14:38:24.295Z</time>
      </trkpt>
      <trkpt lat="45.01946" lon="5.42086">
        <ele>1004.893392</ele>
        <time>2022-07-24T14:38:33.812Z</time>
      </trkpt>
      <trkpt lat="45.01918" lon="5.42033">
        <ele>1001.833772</ele>
        <time>2022-07-24T14:38:45.093Z</time>
      </trkpt>
      <trkpt lat="45.01902" lon="5.42012">
        <ele>1000.453374</ele>
        <time>2022-07-24T14:38:50.066Z</time>
      </trkpt>
      <trkpt lat="45.01885" lon="5.42001">
        <ele>999.20685</ele>
        <time>2022-07-24T14:38:54.521Z</time>
      </trkpt>
      <trkpt lat="45.0184" lon="5.41988">
        <ele>996.25317</ele>
        <time>2022-07-24T14:39:05.006Z</time>
      </trkpt>
      <trkpt lat="45.01826" lon="5.41985">
        <ele>995.311221</ele>
        <time>2022-07-24T14:39:08.302Z</time>
      </trkpt>
      <trkpt lat="45.01795" lon="5.41987">
        <ele>993.310423</ele>
        <time>2022-07-24T14:39:15.230Z</time>
      </trkpt>
      <trkpt lat="45.01774" lon="5.41983">
        <ele>991.571431</ele>
        <time>2022-07-24T14:39:19.845Z</time>
      </trkpt>
      <trkpt lat="45.01717" lon="5.41939">
        <ele>986.098335</ele>
        <time>2022-07-24T14:39:34.249Z</time>
      </trkpt>
      <trkpt lat="45.0169" lon="5.41903">
        <ele>982.998764</ele>
        <time>2022-07-24T14:39:42.328Z</time>
      </trkpt>
      <trkpt lat="45.01654" lon="5.41872">
        <ele>979.428406</ele>
        <time>2022-07-24T14:39:51.646Z</time>
      </trkpt>
      <trkpt lat="45.01606" lon="5.41852">
        <ele>974.975871</ele>
        <time>2022-07-24T14:40:02.547Z</time>
      </trkpt>
      <trkpt lat="45.0158" lon="5.41826">
        <ele>972.034428</ele>
        <time>2022-07-24T14:40:09.644Z</time>
      </trkpt>
      <trkpt lat="45.01557" lon="5.41809">
        <ele>969.621081</ele>
        <time>2022-07-24T14:40:15.383Z</time>
      </trkpt>
      <trkpt lat="45.01526" lon="5.4179">
        <ele>966.529999</ele>
        <time>2022-07-24T14:40:22.652Z</time>
      </trkpt>
      <trkpt lat="45.01498" lon="5.41761">
        <ele>963.291544</ele>
        <time>2022-07-24T14:40:30.175Z</time>
      </trkpt>
      <trkpt lat="45.01471" lon="5.41739">
        <ele>960.641249</ele>
        <time>2022-07-24T14:40:36.779Z</time>
      </trkpt>
      <trkpt lat="45.01445" lon="5.41725">
        <ele>958.462267</ele>
        <time>2022-07-24T14:40:42.904Z</time>
      </trkpt>
      <trkpt lat="45.01377" lon="5.41703">
        <ele>953.049666</ele>
        <time>2022-07-24T14:40:58.334Z</time>
      </trkpt>
      <trkpt lat="45.01336" lon="5.41739">
        <ele>949.331017</ele>
        <time>2022-07-24T14:41:09.292Z</time>
      </trkpt>
      <trkpt lat="45.01303" lon="5.41772">
        <ele>947.552225</ele>
        <time>2022-07-24T14:41:18.754Z</time>
      </trkpt>
      <trkpt lat="45.01284" lon="5.41818">
        <ele>947.238291</ele>
        <time>2022-07-24T14:41:28.143Z</time>
      </trkpt>
      <trkpt lat="45.01279" lon="5.41839">
        <ele>947.104762</ele>
        <time>2022-07-24T14:41:32.461Z</time>
      </trkpt>
      <trkpt lat="45.01267" lon="5.41859">
        <ele>946.948048</ele>
        <time>2022-07-24T14:41:38.555Z</time>
      </trkpt>
      <trkpt lat="45.01252" lon="5.41871">
        <ele>946.806836</ele>
        <time>2022-07-24T14:41:44.652Z</time>
      </trkpt>
      <trkpt lat="45.01248" lon="5.41886">
        <ele>946.711557</ele>
        <time>2022-07-24T14:41:49.021Z</time>
      </trkpt>
      <trkpt lat="45.01237" lon="5.41897">
        <ele>946.598881</ele>
        <time>2022-07-24T14:41:54.679Z</time>
      </trkpt>
      <trkpt lat="45.01222" lon="5.41921">
        <ele>946.409038</ele>
        <time>2022-07-24T14:42:04.423Z</time>
      </trkpt>
      <trkpt lat="45.01217" lon="5.41936">
        <ele>946.310251</ele>
        <time>2022-07-24T14:42:09.825Z</time>
      </trkpt>
      <trkpt lat="45.01214" lon="5.41957">
        <ele>946.21352</ele>
        <time>2022-07-24T14:42:16.792Z</time>
      </trkpt>
      <trkpt lat="45.01212" lon="5.41996">
        <ele>946.282974</ele>
        <time>2022-07-24T14:42:29.574Z</time>
      </trkpt>
      <trkpt lat="45.01209" lon="5.42023">
        <ele>946.331748</ele>
        <time>2022-07-24T14:42:38.133Z</time>
      </trkpt>
      <trkpt lat="45.01211" lon="5.42055">
        <ele>946.388454</ele>
        <time>2022-07-24T14:42:48.303Z</time>
      </trkpt>
      <trkpt lat="45.01208" lon="5.42075">
        <ele>946.424785</ele>
        <time>2022-07-24T14:42:54.234Z</time>
      </trkpt>
      <trkpt lat="45.01213" lon="5.42095">
        <ele>946.463678</ele>
        <time>2022-07-24T14:43:00.584Z</time>
      </trkpt>
      <trkpt lat="45.01211" lon="5.42117">
        <ele>946.501978</ele>
        <time>2022-07-24T14:43:05.840Z</time>
      </trkpt>
      <trkpt lat="45.01215" lon="5.42136">
        <ele>946.537468</ele>
        <time>2022-07-24T14:43:10.895Z</time>
      </trkpt>
      <trkpt lat="45.01224" lon="5.42154">
        <ele>946.577328</ele>
        <time>2022-07-24T14:43:15.883Z</time>
      </trkpt>
      <trkpt lat="45.01225" lon="5.42169">
        <ele>946.604403</ele>
        <time>2022-07-24T14:43:18.719Z</time>
      </trkpt>
      <trkpt lat="45.0123" lon="5.42178">
        <ele>946.624844</ele>
        <time>2022-07-24T14:43:20.849Z</time>
      </trkpt>
      <trkpt lat="45.01239" lon="5.42187">
        <ele>946.652934</ele>
        <time>2022-07-24T14:43:23.665Z</time>
      </trkpt>
      <trkpt lat="45.01241" lon="5.42194">
        <ele>946.396771</ele>
        <time>2022-07-24T14:43:25.124Z</time>
      </trkpt>
      <trkpt lat="45.01239" lon="5.42207">
        <ele>945.518432</ele>
        <time>2022-07-24T14:43:27.231Z</time>
      </trkpt>
      <trkpt lat="45.01232" lon="5.42221">
        <ele>944.270556</ele>
        <time>2022-07-24T14:43:30.230Z</time>
      </trkpt>
      <trkpt lat="45.01217" lon="5.42231">
        <ele>942.599327</ele>
        <time>2022-07-24T14:43:34.071Z</time>
      </trkpt>
      <trkpt lat="45.0121" lon="5.42244">
        <ele>941.528424</ele>
        <time>2022-07-24T14:43:36.440Z</time>
      </trkpt>
      <trkpt lat="45.0118" lon="5.4232">
        <ele>935.403327</ele>
        <time>2022-07-24T14:43:49.530Z</time>
      </trkpt>
      <trkpt lat="45.01163" lon="5.42354">
        <ele>932.471845</ele>
        <time>2022-07-24T14:43:55.670Z</time>
      </trkpt>
      <trkpt lat="45.01143" lon="5.42384">
        <ele>929.636485</ele>
        <time>2022-07-24T14:44:01.568Z</time>
      </trkpt>
      <trkpt lat="45.01116" lon="5.42452">
        <ele>922.012111</ele>
        <time>2022-07-24T14:44:12.899Z</time>
      </trkpt>
      <trkpt lat="45.01107" lon="5.42499">
        <ele>917.031186</ele>
        <time>2022-07-24T14:44:19.870Z</time>
      </trkpt>
      <trkpt lat="45.01088" lon="5.42548">
        <ele>911.41462</ele>
        <time>2022-07-24T14:44:27.728Z</time>
      </trkpt>
      <trkpt lat="45.01078" lon="5.42597">
        <ele>906.145741</ele>
        <time>2022-07-24T14:44:35.115Z</time>
      </trkpt>
      <trkpt lat="45.0107" lon="5.42609">
        <ele>904.461767</ele>
        <time>2022-07-24T14:44:37.544Z</time>
      </trkpt>
      <trkpt lat="45.01071" lon="5.42619">
        <ele>903.464106</ele>
        <time>2022-07-24T14:44:38.930Z</time>
      </trkpt>
      <trkpt lat="45.01079" lon="5.42626">
        <ele>902.233546</ele>
        <time>2022-07-24T14:44:40.926Z</time>
      </trkpt>
      <trkpt lat="45.01086" lon="5.42652">
        <ele>899.997033</ele>
        <time>2022-07-24T14:44:45.106Z</time>
      </trkpt>
      <trkpt lat="45.01075" lon="5.42672">
        <ele>897.94528</ele>
        <time>2022-07-24T14:44:47.200Z</time>
      </trkpt>
      <trkpt lat="45.01056" lon="5.42695">
        <ele>895.195199</ele>
        <time>2022-07-24T14:44:50.071Z</time>
      </trkpt>
      <trkpt lat="45.01041" lon="5.42698">
        <ele>893.47681</ele>
        <time>2022-07-24T14:44:51.850Z</time>
      </trkpt>
      <trkpt lat="45.01028" lon="5.42706">
        <ele>891.798469</ele>
        <time>2022-07-24T14:44:53.629Z</time>
      </trkpt>
      <trkpt lat="45.01024" lon="5.42713">
        <ele>891.136745</ele>
        <time>2022-07-24T14:44:54.294Z</time>
      </trkpt>
      <trkpt lat="45.01021" lon="5.42717">
        <ele>890.671762</ele>
        <time>2022-07-24T14:44:54.750Z</time>
      </trkpt>
      <trkpt lat="45.01021" lon="5.42758">
        <ele>887.441929</ele>
        <time>2022-07-24T14:44:58.189Z</time>
      </trkpt>
      <trkpt lat="45.01016" lon="5.42773">
        <ele>886.103083</ele>
        <time>2022-07-24T14:44:59.542Z</time>
      </trkpt>
      <trkpt lat="45.00999" lon="5.42787">
        <ele>883.888697</ele>
        <time>2022-07-24T14:45:01.920Z</time>
      </trkpt>
      <trkpt lat="45.00956" lon="5.42808">
        <ele>880.14595</ele>
        <time>2022-07-24T14:45:07.432Z</time>
      </trkpt>
      <trkpt lat="45.00949" lon="5.42819">
        <ele>879.397557</ele>
        <time>2022-07-24T14:45:08.752Z</time>
      </trkpt>
      <trkpt lat="45.00946" lon="5.42854">
        <ele>877.624616</ele>
        <time>2022-07-24T14:45:12.025Z</time>
      </trkpt>
      <trkpt lat="45.00953" lon="5.42911">
        <ele>874.717179</ele>
        <time>2022-07-24T14:45:17.162Z</time>
      </trkpt>
      <trkpt lat="45.00952" lon="5.42925">
        <ele>874.022712</ele>
        <time>2022-07-24T14:45:18.533Z</time>
      </trkpt>
      <trkpt lat="45.00947" lon="5.42936">
        <ele>873.38312</ele>
        <time>2022-07-24T14:45:19.683Z</time>
      </trkpt>
      <trkpt lat="45.00937" lon="5.42942">
        <ele>872.634246</ele>
        <time>2022-07-24T14:45:21.015Z</time>
      </trkpt>
      <trkpt lat="45.00893" lon="5.42942">
        <ele>869.560605</ele>
        <time>2022-07-24T14:45:26.660Z</time>
      </trkpt>
      <trkpt lat="45.0087" lon="5.42948">
        <ele>868.082044</ele>
        <time>2022-07-24T14:45:29.746Z</time>
      </trkpt>
      <trkpt lat="45.00847" lon="5.42949">
        <ele>866.630356</ele>
        <time>2022-07-24T14:45:32.855Z</time>
      </trkpt>
      <trkpt lat="45.00844" lon="5.4295">
        <ele>866.438435</ele>
        <time>2022-07-24T14:45:33.362Z</time>
      </trkpt>
      <trkpt lat="45.00843" lon="5.42956">
        <ele>866.135657</ele>
        <time>2022-07-24T14:45:33.934Z</time>
      </trkpt>
      <trkpt lat="45.00827" lon="5.42964">
        <ele>865.085866</ele>
        <time>2022-07-24T14:45:37.837Z</time>
      </trkpt>
      <trkpt lat="45.00793" lon="5.42968">
        <ele>862.896484</ele>
        <time>2022-07-24T14:45:46.220Z</time>
      </trkpt>
      <trkpt lat="45.00768" lon="5.42962">
        <ele>861.344933</ele>
        <time>2022-07-24T14:45:52.250Z</time>
      </trkpt>
      <trkpt lat="45.00764" lon="5.42966">
        <ele>861.041014</ele>
        <time>2022-07-24T14:45:53.393Z</time>
      </trkpt>
      <trkpt lat="45.00764" lon="5.42972">
        <ele>860.775146</ele>
        <time>2022-07-24T14:45:54.382Z</time>
      </trkpt>
      <trkpt lat="45.00783" lon="5.42997">
        <ele>859.134789</ele>
        <time>2022-07-24T14:46:00.338Z</time>
      </trkpt>
      <trkpt lat="45.00769" lon="5.43005">
        <ele>857.955927</ele>
        <time>2022-07-24T14:46:03.684Z</time>
      </trkpt>
      <trkpt lat="45.00726" lon="5.42991">
        <ele>853.122111</ele>
        <time>2022-07-24T14:46:12.884Z</time>
      </trkpt>
      <trkpt lat="45.007" lon="5.42987">
        <ele>850.22607</ele>
        <time>2022-07-24T14:46:18.651Z</time>
      </trkpt>
      <trkpt lat="45.00688" lon="5.43023">
        <ele>847.234096</ele>
        <time>2022-07-24T14:46:24.516Z</time>
      </trkpt>
      <trkpt lat="45.00677" lon="5.43034">
        <ele>845.721048</ele>
        <time>2022-07-24T14:46:27.756Z</time>
      </trkpt>
      <trkpt lat="45.00656" lon="5.4305">
        <ele>843.064796</ele>
        <time>2022-07-24T14:46:32.767Z</time>
      </trkpt>
      <trkpt lat="45.0065" lon="5.43071">
        <ele>841.332359</ele>
        <time>2022-07-24T14:46:36.061Z</time>
      </trkpt>
      <trkpt lat="45.0065" lon="5.43073">
        <ele>841.163956</ele>
        <time>2022-07-24T14:46:36.395Z</time>
      </trkpt>
      <trkpt lat="45.0065" lon="5.43082">
        <ele>840.437776</ele>
        <time>2022-07-24T14:46:37.813Z</time>
      </trkpt>
      <trkpt lat="45.00648" lon="5.43093">
        <ele>839.531566</ele>
        <time>2022-07-24T14:46:39.529Z</time>
      </trkpt>
      <trkpt lat="45.00663" lon="5.43099">
        <ele>837.514426</ele>
        <time>2022-07-24T14:46:42.723Z</time>
      </trkpt>
      <trkpt lat="45.00687" lon="5.43119">
        <ele>833.260941</ele>
        <time>2022-07-24T14:46:48.371Z</time>
      </trkpt>
      <trkpt lat="45.00704" lon="5.43123">
        <ele>830.551013</ele>
        <time>2022-07-24T14:46:51.974Z</time>
      </trkpt>
      <trkpt lat="45.00717" lon="5.43146">
        <ele>827.413243</ele>
        <time>2022-07-24T14:46:56.178Z</time>
      </trkpt>
      <trkpt lat="45.00701" lon="5.43166">
        <ele>824.236335</ele>
        <time>2022-07-24T14:47:00.398Z</time>
      </trkpt>
      <trkpt lat="45.00694" lon="5.4318">
        <ele>822.392446</ele>
        <time>2022-07-24T14:47:02.798Z</time>
      </trkpt>
      <trkpt lat="45.00674" lon="5.43197">
        <ele>818.91945</ele>
        <time>2022-07-24T14:47:07.445Z</time>
      </trkpt>
      <trkpt lat="45.00655" lon="5.43201">
        <ele>816.003388</ele>
        <time>2022-07-24T14:47:11.396Z</time>
      </trkpt>
      <trkpt lat="45.00645" lon="5.43209">
        <ele>814.228042</ele>
        <time>2022-07-24T14:47:13.956Z</time>
      </trkpt>
      <trkpt lat="45.00611" lon="5.43251">
        <ele>806.444931</ele>
        <time>2022-07-24T14:47:23.124Z</time>
      </trkpt>
      <trkpt lat="45.00559" lon="5.43297">
        <ele>795.028152</ele>
        <time>2022-07-24T14:47:35.052Z</time>
      </trkpt>
      <trkpt lat="45.00547" lon="5.43313">
        <ele>791.926765</ele>
        <time>2022-07-24T14:47:38.329Z</time>
      </trkpt>
      <trkpt lat="45.00517" lon="5.43332">
        <ele>785.829307</ele>
        <time>2022-07-24T14:47:44.827Z</time>
      </trkpt>
      <trkpt lat="45.00501" lon="5.43342">
        <ele>782.572845</ele>
        <time>2022-07-24T14:47:48.312Z</time>
      </trkpt>
      <trkpt lat="45.00478" lon="5.43361">
        <ele>777.610344</ele>
        <time>2022-07-24T14:47:53.524Z</time>
      </trkpt>
      <trkpt lat="45.00424" lon="5.43375">
        <ele>766.377507</ele>
        <time>2022-07-24T14:48:04.352Z</time>
      </trkpt>
      <trkpt lat="45.00403" lon="5.43385">
        <ele>761.902802</ele>
        <time>2022-07-24T14:48:08.637Z</time>
      </trkpt>
      <trkpt lat="45.00383" lon="5.43387">
        <ele>757.888558</ele>
        <time>2022-07-24T14:48:12.468Z</time>
      </trkpt>
      <trkpt lat="45.00351" lon="5.43371">
        <ele>750.873414</ele>
        <time>2022-07-24T14:48:19.170Z</time>
      </trkpt>
      <trkpt lat="45.00343" lon="5.43372">
        <ele>749.28203</ele>
        <time>2022-07-24T14:48:20.688Z</time>
      </trkpt>
      <trkpt lat="45.00335" lon="5.43384">
        <ele>746.830976</ele>
        <time>2022-07-24T14:48:23.029Z</time>
      </trkpt>
      <trkpt lat="45.00328" lon="5.43409">
        <ele>743.020016</ele>
        <time>2022-07-24T14:48:26.706Z</time>
      </trkpt>
      <trkpt lat="45.00322" lon="5.4342">
        <ele>741.110223</ele>
        <time>2022-07-24T14:48:28.658Z</time>
      </trkpt>
      <trkpt lat="45.0031" lon="5.43438">
        <ele>738.227771</ele>
        <time>2022-07-24T14:48:32.161Z</time>
      </trkpt>
      <trkpt lat="45.0029" lon="5.43458">
        <ele>734.292857</ele>
        <time>2022-07-24T14:48:36.955Z</time>
      </trkpt>
      <trkpt lat="45.00281" lon="5.43469">
        <ele>732.404504</ele>
        <time>2022-07-24T14:48:39.268Z</time>
      </trkpt>
      <trkpt lat="45.00271" lon="5.43509">
        <ele>727.53984</ele>
        <time>2022-07-24T14:48:45.230Z</time>
      </trkpt>
      <trkpt lat="45.0026" lon="5.43586">
        <ele>718.459245</ele>
        <time>2022-07-24T14:48:56.416Z</time>
      </trkpt>
      <trkpt lat="45.00236" lon="5.43608">
        <ele>713.881916</ele>
        <time>2022-07-24T14:49:02.164Z</time>
      </trkpt>
      <trkpt lat="45.00208" lon="5.43612">
        <ele>711.501667</ele>
        <time>2022-07-24T14:49:07.905Z</time>
      </trkpt>
      <trkpt lat="45.00203" lon="5.43612">
        <ele>711.279885</ele>
        <time>2022-07-24T14:49:08.970Z</time>
      </trkpt>
      <trkpt lat="45.00192" lon="5.43597">
        <ele>710.567447</ele>
        <time>2022-07-24T14:49:12.360Z</time>
      </trkpt>
      <trkpt lat="45.00183" lon="5.4359">
        <ele>710.105604</ele>
        <time>2022-07-24T14:49:14.592Z</time>
      </trkpt>
      <trkpt lat="45.0018" lon="5.43583">
        <ele>709.853767</ele>
        <time>2022-07-24T14:49:15.775Z</time>
      </trkpt>
      <trkpt lat="45.00162" lon="5.43571">
        <ele>708.943523</ele>
        <time>2022-07-24T14:49:20.263Z</time>
      </trkpt>
      <trkpt lat="45.00153" lon="5.43573">
        <ele>708.524358</ele>
        <time>2022-07-24T14:49:22.352Z</time>
      </trkpt>
      <trkpt lat="45.00156" lon="5.43589">
        <ele>707.985292</ele>
        <time>2022-07-24T14:49:24.033Z</time>
      </trkpt>
      <trkpt lat="45.00165" lon="5.43608">
        <ele>707.235048</ele>
        <time>2022-07-24T14:49:26.514Z</time>
      </trkpt>
      <trkpt lat="45.00174" lon="5.43619">
        <ele>706.706976</ele>
        <time>2022-07-24T14:49:28.291Z</time>
      </trkpt>
      <trkpt lat="45.00165" lon="5.43608">
        <ele>706.178903</ele>
        <time>2022-07-24T14:49:31.028Z</time>
      </trkpt>
      <trkpt lat="45.00158" lon="5.43613">
        <ele>705.803015</ele>
        <time>2022-07-24T14:49:33.254Z</time>
      </trkpt>
      <trkpt lat="45.00136" lon="5.4359">
        <ele>704.585315</ele>
        <time>2022-07-24T14:49:41.801Z</time>
      </trkpt>
      <trkpt lat="45.00108" lon="5.43584">
        <ele>705.453893</ele>
        <time>2022-07-24T14:49:54.144Z</time>
      </trkpt>
      <trkpt lat="45.00088" lon="5.43576">
        <ele>706.818527</ele>
        <time>2022-07-24T14:50:06.266Z</time>
      </trkpt>
      <trkpt lat="45.00082" lon="5.43571">
        <ele>707.283302</ele>
        <time>2022-07-24T14:50:10.306Z</time>
      </trkpt>
      <trkpt lat="45.00075" lon="5.43525">
        <ele>709.528934</ele>
        <time>2022-07-24T14:50:32.644Z</time>
      </trkpt>
      <trkpt lat="45.00059" lon="5.43517">
        <ele>710.630589</ele>
        <time>2022-07-24T14:50:44.213Z</time>
      </trkpt>
      <trkpt lat="45.00034" lon="5.43462">
        <ele>713.704483</ele>
        <time>2022-07-24T14:51:17.499Z</time>
      </trkpt>
      <trkpt lat="45.00009" lon="5.43427">
        <ele>716.070782</ele>
        <time>2022-07-24T14:51:43.998Z</time>
      </trkpt>
      <trkpt lat="44.99992" lon="5.43373">
        <ele>718.392108</ele>
        <time>2022-07-24T14:52:15.998Z</time>
      </trkpt>
      <trkpt lat="44.99978" lon="5.43361">
        <ele>719.317926</ele>
        <time>2022-07-24T14:52:27.889Z</time>
      </trkpt>
      <trkpt lat="44.99967" lon="5.43341">
        <ele>720.292568</ele>
        <time>2022-07-24T14:52:38.913Z</time>
      </trkpt>
      <trkpt lat="44.99955" lon="5.43278">
        <ele>722.851667</ele>
        <time>2022-07-24T14:53:06.139Z</time>
      </trkpt>
      <trkpt lat="44.999" lon="5.43187">
        <ele>726.120704</ele>
        <time>2022-07-24T14:53:46.009Z</time>
      </trkpt>
      <trkpt lat="44.99883" lon="5.43128">
        <ele>726.13394</ele>
        <time>2022-07-24T14:54:01.001Z</time>
      </trkpt>
      <trkpt lat="44.99889" lon="5.43053">
        <ele>726.149641</ele>
        <time>2022-07-24T14:54:17.069Z</time>
      </trkpt>
      <trkpt lat="44.99884" lon="5.42988">
        <ele>726.163367</ele>
        <time>2022-07-24T14:54:30.116Z</time>
      </trkpt>
      <trkpt lat="44.99865" lon="5.42978">
        <ele>726.188763</ele>
        <time>2022-07-24T14:54:35.557Z</time>
      </trkpt>
      <trkpt lat="44.99855" lon="5.42967">
        <ele>726.215168</ele>
        <time>2022-07-24T14:54:38.957Z</time>
      </trkpt>
      <trkpt lat="44.99867" lon="5.42951">
        <ele>726.249358</ele>
        <time>2022-07-24T14:54:43.372Z</time>
      </trkpt>
      <trkpt lat="44.9988" lon="5.42941">
        <ele>726.281829</ele>
        <time>2022-07-24T14:54:48.617Z</time>
      </trkpt>
      <trkpt lat="44.99902" lon="5.42914">
        <ele>726.343442</ele>
        <time>2022-07-24T14:54:57.707Z</time>
      </trkpt>
      <trkpt lat="44.99928" lon="5.429">
        <ele>726.402403</ele>
        <time>2022-07-24T14:55:07.200Z</time>
      </trkpt>
      <trkpt lat="44.99932" lon="5.42862">
        <ele>726.460659</ele>
        <time>2022-07-24T14:55:17.788Z</time>
      </trkpt>
      <trkpt lat="44.99919" lon="5.42855">
        <ele>726.490285</ele>
        <time>2022-07-24T14:55:22.931Z</time>
      </trkpt>
      <trkpt lat="44.99903" lon="5.42861">
        <ele>726.525159</ele>
        <time>2022-07-24T14:55:30.242Z</time>
      </trkpt>
      <trkpt lat="44.99896" lon="5.42839">
        <ele>726.563908</ele>
        <time>2022-07-24T14:55:36.470Z</time>
      </trkpt>
      <trkpt lat="44.99902" lon="5.42819">
        <ele>726.599248</ele>
        <time>2022-07-24T14:55:43.347Z</time>
      </trkpt>
      <trkpt lat="44.99909" lon="5.42791">
        <ele>726.649899</ele>
        <time>2022-07-24T14:55:51.141Z</time>
      </trkpt>
      <trkpt lat="44.99902" lon="5.42716">
        <ele>726.778838</ele>
        <time>2022-07-24T14:56:13.759Z</time>
      </trkpt>
      <trkpt lat="44.99808" lon="5.42626">
        <ele>725.655725</ele>
        <time>2022-07-24T14:56:46.814Z</time>
      </trkpt>
      <trkpt lat="44.998" lon="5.42493">
        <ele>721.517702</ele>
        <time>2022-07-24T14:57:09.139Z</time>
      </trkpt>
      <trkpt lat="44.99783" lon="5.42371">
        <ele>718.351669</ele>
        <time>2022-07-24T14:57:29.959Z</time>
      </trkpt>
      <trkpt lat="44.99766" lon="5.42324">
        <ele>717.536666</ele>
        <time>2022-07-24T14:57:39.297Z</time>
      </trkpt>
      <trkpt lat="44.99736" lon="5.42262">
        <ele>716.389979</ele>
        <time>2022-07-24T14:57:53.687Z</time>
      </trkpt>
      <trkpt lat="44.99632" lon="5.42155">
        <ele>716.958005</ele>
        <time>2022-07-24T14:58:41.070Z</time>
      </trkpt>
      <trkpt lat="44.99532" lon="5.42148">
        <ele>719.47387</ele>
        <time>2022-07-24T14:59:28.713Z</time>
      </trkpt>
      <trkpt lat="44.99521" lon="5.42154">
        <ele>719.913835</ele>
        <time>2022-07-24T14:59:34.869Z</time>
      </trkpt>
      <trkpt lat="44.99514" lon="5.42152">
        <ele>720.431644</ele>
        <time>2022-07-24T14:59:38.973Z</time>
      </trkpt>
      <trkpt lat="44.9952" lon="5.42137">
        <ele>721.265053</ele>
        <time>2022-07-24T14:59:44.950Z</time>
      </trkpt>
      <trkpt lat="44.99528" lon="5.42119">
        <ele>722.305254</ele>
        <time>2022-07-24T14:59:54.022Z</time>
      </trkpt>
      <trkpt lat="44.99488" lon="5.42087">
        <ele>725.427403</ele>
        <time>2022-07-24T15:00:25.427Z</time>
      </trkpt>
      <trkpt lat="44.99426" lon="5.42059">
        <ele>729.797868</ele>
        <time>2022-07-24T15:01:11.137Z</time>
      </trkpt>
      <trkpt lat="44.99403" lon="5.42031">
        <ele>731.888689</ele>
        <time>2022-07-24T15:01:33.330Z</time>
      </trkpt>
      <trkpt lat="44.99393" lon="5.42024">
        <ele>732.766213</ele>
        <time>2022-07-24T15:01:42.376Z</time>
      </trkpt>
      <trkpt lat="44.99357" lon="5.41991">
        <ele>736.069794</ele>
        <time>2022-07-24T15:02:12.150Z</time>
      </trkpt>
      <trkpt lat="44.99318" lon="5.4192">
        <ele>741.006985</ele>
        <time>2022-07-24T15:02:56.878Z</time>
      </trkpt>
      <trkpt lat="44.99282" lon="5.41897">
        <ele>744.109414</ele>
        <time>2022-07-24T15:03:26.482Z</time>
      </trkpt>
      <trkpt lat="44.99242" lon="5.41908">
        <ele>747.704302</ele>
        <time>2022-07-24T15:03:53.679Z</time>
      </trkpt>
      <trkpt lat="44.99217" lon="5.41902">
        <ele>750.192013</ele>
        <time>2022-07-24T15:04:09.283Z</time>
      </trkpt>
      <trkpt lat="44.99202" lon="5.41886">
        <ele>751.985385</ele>
        <time>2022-07-24T15:04:22.847Z</time>
      </trkpt>
      <trkpt lat="44.99194" lon="5.41859">
        <ele>754.049342</ele>
        <time>2022-07-24T15:04:39.321Z</time>
      </trkpt>
      <trkpt lat="44.99146" lon="5.41816">
        <ele>759.642647</ele>
        <time>2022-07-24T15:05:29.940Z</time>
      </trkpt>
      <trkpt lat="44.99111" lon="5.41779">
        <ele>764.10391</ele>
        <time>2022-07-24T15:06:08.926Z</time>
      </trkpt>
      <trkpt lat="44.99088" lon="5.41764">
        <ele>767.410607</ele>
        <time>2022-07-24T15:06:33.585Z</time>
      </trkpt>
      <trkpt lat="44.99083" lon="5.41758">
        <ele>768.261449</ele>
        <time>2022-07-24T15:06:38.214Z</time>
      </trkpt>
      <trkpt lat="44.9906" lon="5.41753">
        <ele>771.298891</ele>
        <time>2022-07-24T15:06:57.960Z</time>
      </trkpt>
      <trkpt lat="44.99022" lon="5.41737">
        <ele>776.503795</ele>
        <time>2022-07-24T15:07:30.892Z</time>
      </trkpt>
      <trkpt lat="44.98982" lon="5.41726">
        <ele>781.808234</ele>
        <time>2022-07-24T15:08:07.299Z</time>
      </trkpt>
      <trkpt lat="44.98908" lon="5.41721">
        <ele>791.178186</ele>
        <time>2022-07-24T15:09:16.578Z</time>
      </trkpt>
      <trkpt lat="44.98892" lon="5.41695">
        <ele>794.13072</ele>
        <time>2022-07-24T15:09:34.117Z</time>
      </trkpt>
      <trkpt lat="44.98888" lon="5.41682">
        <ele>795.285737</ele>
        <time>2022-07-24T15:09:41.977Z</time>
      </trkpt>
      <trkpt lat="44.98891" lon="5.41647">
        <ele>798.257377</ele>
        <time>2022-07-24T15:09:57.838Z</time>
      </trkpt>
      <trkpt lat="44.98894" lon="5.41617">
        <ele>800.844481</ele>
        <time>2022-07-24T15:10:18.315Z</time>
      </trkpt>
      <trkpt lat="44.98894" lon="5.41603">
        <ele>801.986445</ele>
        <time>2022-07-24T15:10:24.919Z</time>
      </trkpt>
      <trkpt lat="44.98882" lon="5.41575">
        <ele>804.742244</ele>
        <time>2022-07-24T15:10:46.687Z</time>
      </trkpt>
      <trkpt lat="44.98882" lon="5.41557">
        <ele>806.222282</ele>
        <time>2022-07-24T15:10:56.911Z</time>
      </trkpt>
      <trkpt lat="44.98887" lon="5.41542">
        <ele>807.630726</ele>
        <time>2022-07-24T15:11:07.456Z</time>
      </trkpt>
      <trkpt lat="44.98902" lon="5.4147">
        <ele>814.615638</ele>
        <time>2022-07-24T15:11:58.512Z</time>
      </trkpt>
      <trkpt lat="44.98922" lon="5.41438">
        <ele>818.686963</ele>
        <time>2022-07-24T15:12:27.152Z</time>
      </trkpt>
      <trkpt lat="44.98921" lon="5.41423">
        <ele>820.057864</ele>
        <time>2022-07-24T15:12:36.125Z</time>
      </trkpt>
      <trkpt lat="44.989" lon="5.41378">
        <ele>825.237907</ele>
        <time>2022-07-24T15:13:08.568Z</time>
      </trkpt>
      <trkpt lat="44.98894" lon="5.4137">
        <ele>826.309714</ele>
        <time>2022-07-24T15:13:15.646Z</time>
      </trkpt>
      <trkpt lat="44.98874" lon="5.41356">
        <ele>829.291633</ele>
        <time>2022-07-24T15:13:44.539Z</time>
      </trkpt>
      <trkpt lat="44.98859" lon="5.41334">
        <ele>832.24945</ele>
        <time>2022-07-24T15:14:10.287Z</time>
      </trkpt>
      <trkpt lat="44.98846" lon="5.41308">
        <ele>835.636975</ele>
        <time>2022-07-24T15:14:35.755Z</time>
      </trkpt>
      <trkpt lat="44.98835" lon="5.41296">
        <ele>837.871427</ele>
        <time>2022-07-24T15:14:52.245Z</time>
      </trkpt>
      <trkpt lat="44.98805" lon="5.41276">
        <ele>843.155247</ele>
        <time>2022-07-24T15:15:29.597Z</time>
      </trkpt>
      <trkpt lat="44.98773" lon="5.41278">
        <ele>848.368306</ele>
        <time>2022-07-24T15:16:05.026Z</time>
      </trkpt>
      <trkpt lat="44.98756" lon="5.41273">
        <ele>851.123189</ele>
        <time>2022-07-24T15:16:27.417Z</time>
      </trkpt>
      <trkpt lat="44.98741" lon="5.41265">
        <ele>853.738942</ele>
        <time>2022-07-24T15:16:44.339Z</time>
      </trkpt>
      <trkpt lat="44.98703" lon="5.41239">
        <ele>860.468964</ele>
        <time>2022-07-24T15:17:30.970Z</time>
      </trkpt>
      <trkpt lat="44.98684" lon="5.41211">
        <ele>863.502092</ele>
        <time>2022-07-24T15:18:01.813Z</time>
      </trkpt>
      <trkpt lat="44.98677" lon="5.41185">
        <ele>865.333849</ele>
        <time>2022-07-24T15:18:22.166Z</time>
      </trkpt>
      <trkpt lat="44.98671" lon="5.41175">
        <ele>866.169626</ele>
        <time>2022-07-24T15:18:31.019Z</time>
      </trkpt>
      <trkpt lat="44.9866" lon="5.41162">
        <ele>867.562329</ele>
        <time>2022-07-24T15:18:43.452Z</time>
      </trkpt>
      <trkpt lat="44.98636" lon="5.41147">
        <ele>870.028709</ele>
        <time>2022-07-24T15:19:09.528Z</time>
      </trkpt>
      <trkpt lat="44.98605" lon="5.41119">
        <ele>873.518422</ele>
        <time>2022-07-24T15:19:31.188Z</time>
      </trkpt>
      <trkpt lat="44.98558" lon="5.41061">
        <ele>878.520981</ele>
        <time>2022-07-24T15:20:04.344Z</time>
      </trkpt>
      <trkpt lat="44.9855" lon="5.41054">
        <ele>878.654438</ele>
        <time>2022-07-24T15:20:09.837Z</time>
      </trkpt>
      <trkpt lat="44.98521" lon="5.41006">
        <ele>879.254514</ele>
        <time>2022-07-24T15:20:31.510Z</time>
      </trkpt>
      <trkpt lat="44.98498" lon="5.40989">
        <ele>879.60012</ele>
        <time>2022-07-24T15:20:41.605Z</time>
      </trkpt>
      <trkpt lat="44.98476" lon="5.40978">
        <ele>879.923584</ele>
        <time>2022-07-24T15:20:49.560Z</time>
      </trkpt>
      <trkpt lat="44.98442" lon="5.40952">
        <ele>880.44273</ele>
        <time>2022-07-24T15:21:01.670Z</time>
      </trkpt>
      <trkpt lat="44.98424" lon="5.40942">
        <ele>880.70466</ele>
        <time>2022-07-24T15:21:07.600Z</time>
      </trkpt>
      <trkpt lat="44.98399" lon="5.40921">
        <ele>880.53519</ele>
        <time>2022-07-24T15:21:15.731Z</time>
      </trkpt>
      <trkpt lat="44.98359" lon="5.40895">
        <ele>879.906367</ele>
        <time>2022-07-24T15:21:27.804Z</time>
      </trkpt>
      <trkpt lat="44.98294" lon="5.40887">
        <ele>878.992036</ele>
        <time>2022-07-24T15:21:45.172Z</time>
      </trkpt>
      <trkpt lat="44.98242" lon="5.40862">
        <ele>878.443987</ele>
        <time>2022-07-24T15:22:01.002Z</time>
      </trkpt>
      <trkpt lat="44.98231" lon="5.40858">
        <ele>878.753736</ele>
        <time>2022-07-24T15:22:05.711Z</time>
      </trkpt>
      <trkpt lat="44.98214" lon="5.40843">
        <ele>879.316344</ele>
        <time>2022-07-24T15:22:13.447Z</time>
      </trkpt>
      <trkpt lat="44.98202" lon="5.40817">
        <ele>879.931112</ele>
        <time>2022-07-24T15:22:23.698Z</time>
      </trkpt>
      <trkpt lat="44.98192" lon="5.40781">
        <ele>880.699076</ele>
        <time>2022-07-24T15:22:35.991Z</time>
      </trkpt>
      <trkpt lat="44.98183" lon="5.40759">
        <ele>881.223844</ele>
        <time>2022-07-24T15:22:45.528Z</time>
      </trkpt>
      <trkpt lat="44.98171" lon="5.40745">
        <ele>881.653362</ele>
        <time>2022-07-24T15:22:52.811Z</time>
      </trkpt>
      <trkpt lat="44.98142" lon="5.40729">
        <ele>882.524412</ele>
        <time>2022-07-24T15:23:09.176Z</time>
      </trkpt>
      <trkpt lat="44.98129" lon="5.40711">
        <ele>883.038968</ele>
        <time>2022-07-24T15:23:19.785Z</time>
      </trkpt>
      <trkpt lat="44.98118" lon="5.40688">
        <ele>883.541255</ele>
        <time>2022-07-24T15:23:29.933Z</time>
      </trkpt>
      <trkpt lat="44.98102" lon="5.40669">
        <ele>884.064543</ele>
        <time>2022-07-24T15:23:41.688Z</time>
      </trkpt>
      <trkpt lat="44.98058" lon="5.40632">
        <ele>885.299169</ele>
        <time>2022-07-24T15:24:08.711Z</time>
      </trkpt>
      <trkpt lat="44.97957" lon="5.40573">
        <ele>887.834128</ele>
        <time>2022-07-24T15:24:49.339Z</time>
      </trkpt>
      <trkpt lat="44.97905" lon="5.40555">
        <ele>888.457439</ele>
        <time>2022-07-24T15:25:06.107Z</time>
      </trkpt>
      <trkpt lat="44.97857" lon="5.40549">
        <ele>889.026773</ele>
        <time>2022-07-24T15:25:21.356Z</time>
      </trkpt>
      <trkpt lat="44.97847" lon="5.40557">
        <ele>889.162419</ele>
        <time>2022-07-24T15:25:25.493Z</time>
      </trkpt>
      <trkpt lat="44.97843" lon="5.4057">
        <ele>889.276584</ele>
        <time>2022-07-24T15:25:29.108Z</time>
      </trkpt>
      <trkpt lat="44.97862" lon="5.40616">
        <ele>889.714869</ele>
        <time>2022-07-24T15:25:43.783Z</time>
      </trkpt>
      <trkpt lat="44.97888" lon="5.40699">
        <ele>892.980839</ele>
        <time>2022-07-24T15:26:19.516Z</time>
      </trkpt>
      <trkpt lat="44.97902" lon="5.40786">
        <ele>896.630452</ele>
        <time>2022-07-24T15:27:01.942Z</time>
      </trkpt>
      <trkpt lat="44.97902" lon="5.4082">
        <ele>898.020003</ele>
        <time>2022-07-24T15:27:17.414Z</time>
      </trkpt>
      <trkpt lat="44.97904" lon="5.40832">
        <ele>898.51322</ele>
        <time>2022-07-24T15:27:23.755Z</time>
      </trkpt>
      <trkpt lat="44.97913" lon="5.40868">
        <ele>900.065118</ele>
        <time>2022-07-24T15:27:39.748Z</time>
      </trkpt>
      <trkpt lat="44.97921" lon="5.4092">
        <ele>902.303913</ele>
        <time>2022-07-24T15:28:03.808Z</time>
      </trkpt>
      <trkpt lat="44.97923" lon="5.40972">
        <ele>904.489857</ele>
        <time>2022-07-24T15:28:27.527Z</time>
      </trkpt>
      <trkpt lat="44.97918" lon="5.40995">
        <ele>905.514805</ele>
        <time>2022-07-24T15:28:41.491Z</time>
      </trkpt>
      <trkpt lat="44.97917" lon="5.41096">
        <ele>909.754494</ele>
        <time>2022-07-24T15:29:25.780Z</time>
      </trkpt>
      <trkpt lat="44.97925" lon="5.41174">
        <ele>911.221894</ele>
        <time>2022-07-24T15:29:51.206Z</time>
      </trkpt>
      <trkpt lat="44.97923" lon="5.41187">
        <ele>911.306927</ele>
        <time>2022-07-24T15:29:55.111Z</time>
      </trkpt>
      <trkpt lat="44.97918" lon="5.41199">
        <ele>911.396344</ele>
        <time>2022-07-24T15:30:01.633Z</time>
      </trkpt>
      <trkpt lat="44.97914" lon="5.41201">
        <ele>911.435438</ele>
        <time>2022-07-24T15:30:02.799Z</time>
      </trkpt>
      <trkpt lat="44.97904" lon="5.41198">
        <ele>911.528383</ele>
        <time>2022-07-24T15:30:06.448Z</time>
      </trkpt>
      <trkpt lat="44.97886" lon="5.41208">
        <ele>911.706872</ele>
        <time>2022-07-24T15:30:15.785Z</time>
      </trkpt>
      <trkpt lat="44.97844" lon="5.41217">
        <ele>912.099642</ele>
        <time>2022-07-24T15:30:30.942Z</time>
      </trkpt>
      <trkpt lat="44.97728" lon="5.41249">
        <ele>909.550726</ele>
        <time>2022-07-24T15:31:01.747Z</time>
      </trkpt>
      <trkpt lat="44.97697" lon="5.41252">
        <ele>908.248818</ele>
        <time>2022-07-24T15:31:09.026Z</time>
      </trkpt>
      <trkpt lat="44.97652" lon="5.41242">
        <ele>906.335132</ele>
        <time>2022-07-24T15:31:19.781Z</time>
      </trkpt>
      <trkpt lat="44.97624" lon="5.41247">
        <ele>905.142931</ele>
        <time>2022-07-24T15:31:26.890Z</time>
      </trkpt>
      <trkpt lat="44.97583" lon="5.41255">
        <ele>903.723025</ele>
        <time>2022-07-24T15:31:36.888Z</time>
      </trkpt>
      <trkpt lat="44.97565" lon="5.41254">
        <ele>903.138537</ele>
        <time>2022-07-24T15:31:41.062Z</time>
      </trkpt>
      <trkpt lat="44.97554" lon="5.41261">
        <ele>902.738817</ele>
        <time>2022-07-24T15:31:44.300Z</time>
      </trkpt>
      <trkpt lat="44.97553" lon="5.41272">
        <ele>902.478986</ele>
        <time>2022-07-24T15:31:46.144Z</time>
      </trkpt>
      <trkpt lat="44.97554" lon="5.41331">
        <ele>901.066851</ele>
        <time>2022-07-24T15:31:56.714Z</time>
      </trkpt>
      <trkpt lat="44.9755" lon="5.41344">
        <ele>900.749406</ele>
        <time>2022-07-24T15:31:59.054Z</time>
      </trkpt>
      <trkpt lat="44.97544" lon="5.41346">
        <ele>900.546928</ele>
        <time>2022-07-24T15:32:01.752Z</time>
      </trkpt>
      <trkpt lat="44.97536" lon="5.41348">
        <ele>900.293558</ele>
        <time>2022-07-24T15:32:03.625Z</time>
      </trkpt>
      <trkpt lat="44.97515" lon="5.41352">
        <ele>899.571042</ele>
        <time>2022-07-24T15:32:09.201Z</time>
      </trkpt>
      <trkpt lat="44.97466" lon="5.41368">
        <ele>899.124603</ele>
        <time>2022-07-24T15:32:25.345Z</time>
      </trkpt>
      <trkpt lat="44.97436" lon="5.4136">
        <ele>899.274337</ele>
        <time>2022-07-24T15:32:35.280Z</time>
      </trkpt>
      <trkpt lat="44.97415" lon="5.41363">
        <ele>899.377983</ele>
        <time>2022-07-24T15:32:41.628Z</time>
      </trkpt>
      <trkpt lat="44.97402" lon="5.41369">
        <ele>899.445527</ele>
        <time>2022-07-24T15:32:47.951Z</time>
      </trkpt>
      <trkpt lat="44.97365" lon="5.41365">
        <ele>899.631937</ele>
        <time>2022-07-24T15:33:00.003Z</time>
      </trkpt>
      <trkpt lat="44.97294" lon="5.41375">
        <ele>900.440762</ele>
        <time>2022-07-24T15:33:28.820Z</time>
      </trkpt>
      <trkpt lat="44.97248" lon="5.41368">
        <ele>901.468985</ele>
        <time>2022-07-24T15:33:49.406Z</time>
      </trkpt>
      <trkpt lat="44.9723" lon="5.41404">
        <ele>902.160248</ele>
        <time>2022-07-24T15:34:00.009Z</time>
      </trkpt>
      <trkpt lat="44.97218" lon="5.41418">
        <ele>902.512729</ele>
        <time>2022-07-24T15:34:05.781Z</time>
      </trkpt>
      <trkpt lat="44.97142" lon="5.41504">
        <ele>903.522768</ele>
        <time>2022-07-24T15:34:36.652Z</time>
      </trkpt>
      <trkpt lat="44.97116" lon="5.41548">
        <ele>903.144527</ele>
        <time>2022-07-24T15:34:44.603Z</time>
      </trkpt>
      <trkpt lat="44.97103" lon="5.41583">
        <ele>902.878185</ele>
        <time>2022-07-24T15:34:49.663Z</time>
      </trkpt>
      <trkpt lat="44.97013" lon="5.41595">
        <ele>901.407781</ele>
        <time>2022-07-24T15:35:03.783Z</time>
      </trkpt>
      <trkpt lat="44.97" lon="5.41597">
        <ele>900.780207</ele>
        <time>2022-07-24T15:35:05.739Z</time>
      </trkpt>
      <trkpt lat="44.96981" lon="5.41592">
        <ele>899.874221</ele>
        <time>2022-07-24T15:35:08.404Z</time>
      </trkpt>
      <trkpt lat="44.96934" lon="5.41569">
        <ele>897.452603</ele>
        <time>2022-07-24T15:35:15.461Z</time>
      </trkpt>
      <trkpt lat="44.96923" lon="5.41564">
        <ele>896.883311</ele>
        <time>2022-07-24T15:35:17.079Z</time>
      </trkpt>
      <trkpt lat="44.96895" lon="5.41548">
        <ele>895.421723</ele>
        <time>2022-07-24T15:35:21.276Z</time>
      </trkpt>
      <trkpt lat="44.96873" lon="5.41543">
        <ele>894.338756</ele>
        <time>2022-07-24T15:35:24.360Z</time>
      </trkpt>
      <trkpt lat="44.96846" lon="5.41551">
        <ele>893.462482</ele>
        <time>2022-07-24T15:35:28.094Z</time>
      </trkpt>
      <trkpt lat="44.9682" lon="5.41566">
        <ele>893.462482</ele>
        <time>2022-07-24T15:35:32.164Z</time>
      </trkpt>
      <trkpt lat="44.96814" lon="5.41585">
        <ele>893.462482</ele>
        <time>2022-07-24T15:35:34.352Z</time>
      </trkpt>
      <trkpt lat="44.96785" lon="5.41573">
        <ele>893.462482</ele>
        <time>2022-07-24T15:35:38.489Z</time>
      </trkpt>
      <trkpt lat="44.96784" lon="5.41566">
        <ele>893.462482</ele>
        <time>2022-07-24T15:35:39.170Z</time>
      </trkpt>
      <trkpt lat="44.96783" lon="5.41552">
        <ele>893.462482</ele>
        <time>2022-07-24T15:35:40.648Z</time>
      </trkpt>
      <trkpt lat="44.96777" lon="5.41501">
        <ele>893.462482</ele>
        <time>2022-07-24T15:35:45.932Z</time>
      </trkpt>
      <trkpt lat="44.96769" lon="5.4149">
        <ele>893.462482</ele>
        <time>2022-07-24T15:35:47.545Z</time>
      </trkpt>
      <trkpt lat="44.96757" lon="5.41526">
        <ele>893.462482</ele>
        <time>2022-07-24T15:35:51.940Z</time>
      </trkpt>
      <trkpt lat="44.96754" lon="5.41534">
        <ele>893.462482</ele>
        <time>2022-07-24T15:35:52.895Z</time>
      </trkpt>
      <trkpt lat="44.96751" lon="5.41542">
        <ele>893.462482</ele>
        <time>2022-07-24T15:35:53.910Z</time>
      </trkpt>
      <trkpt lat="44.96742" lon="5.41555">
        <ele>893.462482</ele>
        <time>2022-07-24T15:35:56.105Z</time>
      </trkpt>
    </trkseg>
  </trk>
</gpx>